B61874 / N980JT 7700 Squawk Report (21st of June, 2022)

Aircraft A321 Reg No. N980JT Age 5 years old
Model A321 Jet engines 2 First flight 19-06-17
Registered 30-06-17 Rollout 06-17 Delivered 30-06-17
Construction No. 7631 Line No. N/A Series 231(SL)
ADSHEX ADABFE Airline name JetBlue Airways Owner N/A
Airfield based New York-JFK~NY~N First tracked N/A
Time Lat Lon Altitude Heading Speed Vertical Rate
2022-06-21 20:49:47 GMT 40.686600 -74.177582 0 292 8 -160
2022-06-21 20:49:46 GMT 40.686581 -74.177528 0 292 8 -160
2022-06-21 20:49:45 GMT 40.686569 -74.177483 0 292 8 -160
2022-06-21 20:49:43 GMT 40.686581 -74.177460 0 293 10 -160
2022-06-21 20:49:42 GMT 40.686581 -74.177452 0 293 11 -160
2022-06-21 20:49:41 GMT 40.686562 -74.177361 0 294 12 -160
2022-06-21 20:49:39 GMT 40.686550 -74.177292 0 294 12 -160
2022-06-21 20:49:38 GMT 40.686508 -74.177170 0 294 13 -160
2022-06-21 20:49:36 GMT 40.686481 -74.177101 0 294 13 -160
2022-06-21 20:49:35 GMT 40.686459 -74.177048 0 294 13 -160
2022-06-21 20:49:33 GMT 40.686420 -74.176933 0 294 13 -160
2022-06-21 20:49:32 GMT 40.686390 -74.176804 0 295 14 -160
2022-06-21 20:49:30 GMT 40.686352 -74.176689 0 295 13 -160
2022-06-21 20:49:29 GMT 40.686329 -74.176620 0 295 14 -160
2022-06-21 20:49:27 GMT 40.686329 -74.176582 0 295 14 -160
2022-06-21 20:49:25 GMT 40.686272 -74.176422 0 295 13 -160
2022-06-21 20:49:24 GMT 40.686241 -74.176338 0 296 13 -160
2022-06-21 20:49:23 GMT 40.686218 -74.176247 0 296 13 -160
2022-06-21 20:49:22 GMT 40.686161 -74.176117 0 296 13 -160
2022-06-21 20:49:20 GMT 40.686138 -74.176048 0 294 13 -160
2022-06-21 20:49:19 GMT 40.686111 -74.175980 0 293 12 -160
2022-06-21 20:49:17 GMT 40.686062 -74.175819 0 293 11 -160
2022-06-21 20:49:16 GMT 40.686031 -74.175713 0 299 13 -160
2022-06-21 20:49:14 GMT 40.686001 -74.175652 0 298 12 -160
2022-06-21 20:49:13 GMT 40.685951 -74.175507 0 297 13 -160
2022-06-21 20:49:11 GMT 40.685921 -74.175430 0 297 12 -160
2022-06-21 20:49:10 GMT 40.685879 -74.175323 0 298 13 -160
2022-06-21 20:49:08 GMT 40.685848 -74.175262 0 293 14 -160
2022-06-21 20:49:06 GMT 40.685791 -74.175110 0 299 12 -160
2022-06-21 20:49:04 GMT 40.685749 -74.174980 0 314 11 -160
2022-06-21 20:49:03 GMT 40.685730 -74.174927 0 322 11 -160
2022-06-21 20:49:02 GMT 40.685650 -74.174843 0 340 11 -160
2022-06-21 20:49:00 GMT 40.685612 -74.174789 0 352 9 -160
2022-06-21 20:48:59 GMT 40.685570 -74.174751 0 1 9 -160
2022-06-21 20:48:58 GMT 40.685478 -74.174713 0 12 9 -160
2022-06-21 20:48:56 GMT 40.685429 -74.174721 0 16 8 -160
2022-06-21 20:48:55 GMT 40.685371 -74.174744 0 19 10 -160
2022-06-21 20:48:53 GMT 40.685329 -74.174744 0 22 11 -160
2022-06-21 20:48:51 GMT 40.685242 -74.174789 0 23 13 -160
2022-06-21 20:48:50 GMT 40.685188 -74.174812 0 25 14 -160
2022-06-21 20:48:49 GMT 40.685131 -74.174850 0 23 14 -160
2022-06-21 20:48:48 GMT 40.685009 -74.174911 0 25 16 -160
2022-06-21 20:48:46 GMT 40.684959 -74.174942 0 24 18 -160
2022-06-21 20:48:45 GMT 40.684799 -74.175034 0 26 17 -160
2022-06-21 20:48:43 GMT 40.684731 -74.175072 0 26 17 -160
2022-06-21 20:48:41 GMT 40.684582 -74.175171 0 25 16 -160
2022-06-21 20:48:40 GMT 40.684509 -74.175209 0 27 15 -160
2022-06-21 20:48:38 GMT 40.684380 -74.175293 0 29 15 -160
2022-06-21 20:48:37 GMT 40.684311 -74.175346 0 26 14 -160
2022-06-21 20:48:36 GMT 40.684219 -74.175400 0 28 18 -160
2022-06-21 20:48:34 GMT 40.684139 -74.175468 0 26 17 -160
2022-06-21 20:48:33 GMT 40.684059 -74.175529 0 23 15 -160
2022-06-21 20:48:32 GMT 40.683922 -74.175613 0 25 14 -160
2022-06-21 20:48:30 GMT 40.683849 -74.175636 0 26 13 -160
2022-06-21 20:48:29 GMT 40.683800 -74.175682 0 28 13 -160
2022-06-21 20:48:27 GMT 40.683689 -74.175743 0 30 13 -160
2022-06-21 20:48:26 GMT 40.683651 -74.175781 0 28 15 -160
2022-06-21 20:48:25 GMT 40.683529 -74.175858 0 28 14 -160
2022-06-21 20:48:23 GMT 40.683472 -74.175919 0 23 13 -160
2022-06-21 20:48:21 GMT 40.683350 -74.175980 0 24 12 -160
2022-06-21 20:48:20 GMT 40.683300 -74.175987 0 29 13 -160
2022-06-21 20:48:18 GMT 40.683189 -74.176102 0 24 11 -160
2022-06-21 20:48:17 GMT 40.683140 -74.176117 0 29 12 -160
2022-06-21 20:48:16 GMT 40.683041 -74.176178 0 25 12 -160
2022-06-21 20:48:14 GMT 40.682991 -74.176224 0 25 11 -160
2022-06-21 20:48:13 GMT 40.682941 -74.176224 0 25 11 -160
2022-06-21 20:48:11 GMT 40.682850 -74.176308 0 21 10 -160
2022-06-21 20:48:10 GMT 40.682800 -74.176338 0 22 9 -160
2022-06-21 20:48:09 GMT 40.682720 -74.176376 0 24 7 -160
2022-06-21 20:48:07 GMT 40.682690 -74.176407 0 27 7 -160
2022-06-21 20:48:06 GMT 40.682629 -74.176422 0 36 8 -160
2022-06-21 20:48:04 GMT 40.682590 -74.176437 0 34 7 -160
2022-06-21 20:48:02 GMT 40.682549 -74.176514 0 23 5 -160
2022-06-21 20:48:01 GMT 40.682522 -74.176529 0 22 4 -160
2022-06-21 20:48:00 GMT 40.682480 -74.176537 0 34 4 -160
2022-06-21 20:47:58 GMT 40.682461 -74.176582 0 34 3 -160
2022-06-21 20:47:57 GMT 40.682430 -74.176582 0 29 3 -160
2022-06-21 20:47:55 GMT 40.682430 -74.176582 0 28 4 -160
2022-06-21 20:47:54 GMT 40.682411 -74.176590 0 23 4 -160
2022-06-21 20:47:53 GMT 40.682369 -74.176643 0 20 2 -160
2022-06-21 20:47:51 GMT 40.682369 -74.176643 0 21 3 -160
2022-06-21 20:47:49 GMT 40.682350 -74.176620 0 24 3 -160
2022-06-21 20:47:47 GMT 40.682320 -74.176613 0 23 2 -160
2022-06-21 20:47:46 GMT 40.682308 -74.176628 0 22 2 -160
2022-06-21 20:47:45 GMT 40.682301 -74.176666 0 22 0 -160
2022-06-21 20:47:42 GMT 40.682301 -74.176659 0 22 0 -160
2022-06-21 20:47:41 GMT 40.682289 -74.176666 0 22 0 -160
2022-06-21 20:47:39 GMT 40.682281 -74.176659 0 22 0 -160
2022-06-21 20:47:38 GMT 40.682281 -74.176651 0 24 0 -160
2022-06-21 20:47:36 GMT 40.682289 -74.176651 0 28 3 -160
2022-06-21 20:47:35 GMT 40.682270 -74.176666 0 32 3 -160
2022-06-21 20:47:33 GMT 40.682240 -74.176651 0 34 3 -160
2022-06-21 20:47:32 GMT 40.682240 -74.176697 0 19 6 -160
2022-06-21 20:47:27 GMT 40.682110 -74.176750 0 31 3 -160
2022-06-21 20:47:26 GMT 40.682098 -74.176758 0 29 3 -160
2022-06-21 20:47:24 GMT 40.682091 -74.176773 0 27 5 -160
2022-06-21 20:47:23 GMT 40.682049 -74.176788 0 28 6 -160
2022-06-21 20:47:21 GMT 40.682030 -74.176811 0 26 7 -160
2022-06-21 20:47:19 GMT 40.681969 -74.176849 0 34 5 -160
2022-06-21 20:47:18 GMT 40.681950 -74.176842 0 30 6 -160
2022-06-21 20:47:16 GMT 40.681931 -74.176903 0 22 10 -160
2022-06-21 20:47:14 GMT 40.681850 -74.176941 0 24 12 -160
2022-06-21 20:47:12 GMT 40.681751 -74.176964 0 30 12 -160
2022-06-21 20:47:11 GMT 40.681660 -74.177048 0 26 12 -160
2022-06-21 20:47:09 GMT 40.681599 -74.177101 0 21 10 -160
2022-06-21 20:47:07 GMT 40.681499 -74.177147 0 26 10 -160
2022-06-21 20:47:06 GMT 40.681450 -74.177162 0 27 9 -160
2022-06-21 20:47:05 GMT 40.681389 -74.177223 0 25 11 -160
2022-06-21 20:47:03 GMT 40.681332 -74.177277 0 23 8 -160
2022-06-21 20:47:02 GMT 40.681252 -74.177307 0 24 8 -160
2022-06-21 20:47:00 GMT 40.681221 -74.177330 0 23 8 -160
2022-06-21 20:46:58 GMT 40.681149 -74.177368 0 24 9 -160
2022-06-21 20:46:57 GMT 40.681122 -74.177391 0 27 9 -160
2022-06-21 20:46:56 GMT 40.681019 -74.177429 0 28 8 -160
2022-06-21 20:46:54 GMT 40.680988 -74.177437 0 20 9 -160
2022-06-21 20:46:53 GMT 40.680950 -74.177559 0 10 6 -160
2022-06-21 20:46:51 GMT 40.680901 -74.177567 0 17 7 -160
2022-06-21 20:46:50 GMT 40.680820 -74.177567 0 27 6 -160
2022-06-21 20:46:48 GMT 40.680790 -74.177589 0 29 6 -160
2022-06-21 20:46:46 GMT 40.680752 -74.177612 0 22 7 -160
2022-06-21 20:46:45 GMT 40.680729 -74.177650 0 13 6 -160
2022-06-21 20:46:43 GMT 40.680672 -74.177696 0 0 6 -160
2022-06-21 20:46:42 GMT 40.680618 -74.177689 0 354 6 -160
2022-06-21 20:46:40 GMT 40.680561 -74.177727 0 348 5 -160
2022-06-21 20:46:39 GMT 40.680531 -74.177689 0 355 5 -160
2022-06-21 20:46:37 GMT 40.680511 -74.177681 0 353 4 -160
2022-06-21 20:46:36 GMT 40.680481 -74.177681 0 337 4 -160
2022-06-21 20:46:34 GMT 40.680450 -74.177711 0 322 4 -160
2022-06-21 20:46:33 GMT 40.680420 -74.177696 0 315 5 -160
2022-06-21 20:46:31 GMT 40.680408 -74.177681 0 314 5 -160
2022-06-21 20:46:29 GMT 40.680370 -74.177643 0 303 5 -160
2022-06-21 20:46:28 GMT 40.680359 -74.177650 0 299 7 -160
2022-06-21 20:46:26 GMT 40.680321 -74.177589 0 297 8 -160
2022-06-21 20:46:25 GMT 40.680290 -74.177498 0 296 9 -160
2022-06-21 20:46:23 GMT 40.680279 -74.177452 0 301 9 -160
2022-06-21 20:46:22 GMT 40.680260 -74.177399 0 300 10 -160
2022-06-21 20:46:21 GMT 40.680222 -74.177322 0 299 12 -160
2022-06-21 20:46:19 GMT 40.680191 -74.177261 0 299 11 -160
2022-06-21 20:46:18 GMT 40.680161 -74.177193 0 298 11 -160
2022-06-21 20:46:17 GMT 40.680092 -74.177078 0 288 10 -160
2022-06-21 20:46:15 GMT 40.680092 -74.177032 0 290 12 -160
2022-06-21 20:46:14 GMT 40.680050 -74.176888 0 298 11 -160
2022-06-21 20:46:12 GMT 40.680038 -74.176826 0 298 12 -160
2022-06-21 20:46:10 GMT 40.679981 -74.176720 0 297 13 -160
2022-06-21 20:46:09 GMT 40.679951 -74.176651 0 295 12 -160
2022-06-21 20:46:07 GMT 40.679909 -74.176498 0 299 12 -160
2022-06-21 20:46:06 GMT 40.679878 -74.176460 0 296 14 -160
2022-06-21 20:46:05 GMT 40.679821 -74.176292 0 297 13 -160
2022-06-21 20:46:02 GMT 40.679760 -74.176170 0 297 13 -160
2022-06-21 20:46:00 GMT 40.679668 -74.175980 0 278 7 -160
2022-06-21 20:45:59 GMT 40.679649 -74.175926 0 275 7 -160
2022-06-21 20:45:57 GMT 40.679649 -74.175858 0 271 8 -160
2022-06-21 20:45:56 GMT 40.679642 -74.175812 0 269 7 -160
2022-06-21 20:45:54 GMT 40.679630 -74.175690 0 266 5 -160
2022-06-21 20:45:53 GMT 40.679619 -74.175652 0 264 4 -160
2022-06-21 20:45:52 GMT 40.679642 -74.175613 0 264 3 -160
2022-06-21 20:45:50 GMT 40.679619 -74.175583 0 263 2 -160
2022-06-21 20:45:49 GMT 40.679630 -74.175491 0 261 1 -160
2022-06-21 20:45:47 GMT 40.679611 -74.175484 0 261 1 -160
2022-06-21 20:45:45 GMT 40.679581 -74.175484 0 261 0 -160
2022-06-21 20:45:43 GMT 40.679581 -74.175400 0 261 0 -160
2022-06-21 20:45:41 GMT 40.679562 -74.175400 0 261 0 -160
2022-06-21 20:45:40 GMT 40.679581 -74.175400 0 261 0 -160
2022-06-21 20:45:38 GMT 40.679581 -74.175423 0 261 0 -160
2022-06-21 20:45:35 GMT 40.679569 -74.175423 0 261 0 -160
2022-06-21 20:45:34 GMT 40.679569 -74.175423 0 263 0 -160
2022-06-21 20:45:30 GMT 40.679569 -74.175423 0 263 1 -160
2022-06-21 20:45:28 GMT 40.679562 -74.175392 0 263 0 -160
2022-06-21 20:45:25 GMT 40.679588 -74.175423 0 263 0 -160
2022-06-21 20:45:24 GMT 40.679588 -74.175438 0 263 0 -160
2022-06-21 20:45:22 GMT 40.679581 -74.175438 0 263 0 -160
2022-06-21 20:45:21 GMT 40.679581 -74.175453 0 263 0 -160
2022-06-21 20:45:18 GMT 40.679569 -74.175438 0 262 0 -160
2022-06-21 20:45:16 GMT 40.679600 -74.175423 0 262 0 -160
2022-06-21 20:45:15 GMT 40.679600 -74.175430 0 262 0 -160
2022-06-21 20:45:13 GMT 40.679581 -74.175423 0 262 0 -160
2022-06-21 20:45:10 GMT 40.679581 -74.175430 0 262 0 -160
2022-06-21 20:45:08 GMT 40.679562 -74.175400 0 262 0 -160
2022-06-21 20:45:05 GMT 40.679588 -74.175407 0 262 0 -160
2022-06-21 20:45:00 GMT 40.679581 -74.175430 0 262 0 -160
2022-06-21 20:44:54 GMT 40.679562 -74.175407 0 262 0 -160
2022-06-21 20:44:52 GMT 40.679569 -74.175407 0 262 0 -160
2022-06-21 20:44:51 GMT 40.679562 -74.175423 0 262 1 -160
2022-06-21 20:44:49 GMT 40.679569 -74.175407 0 262 0 -160
2022-06-21 20:44:47 GMT 40.679562 -74.175400 0 263 0 -160
2022-06-21 20:44:46 GMT 40.679562 -74.175407 0 268 1 -160
2022-06-21 20:44:45 GMT 40.679581 -74.175407 0 271 0 -160
2022-06-21 20:44:43 GMT 40.679569 -74.175400 0 276 2 -160
2022-06-21 20:44:42 GMT 40.679581 -74.175407 0 286 2 -160
2022-06-21 20:44:40 GMT 40.679600 -74.175453 0 288 0 -160
2022-06-21 20:44:39 GMT 40.679600 -74.175438 0 288 0 -160
2022-06-21 20:44:38 GMT 40.679600 -74.175438 0 288 0 -160
2022-06-21 20:44:36 GMT 40.679600 -74.175438 0 288 0 -160
2022-06-21 20:44:35 GMT 40.679611 -74.175453 0 288 0 -160
2022-06-21 20:44:32 GMT 40.679600 -74.175438 0 288 0 -160
2022-06-21 20:44:30 GMT 40.679600 -74.175453 0 286 1 -160
2022-06-21 20:44:29 GMT 40.679588 -74.175430 0 285 1 -160
2022-06-21 20:44:27 GMT 40.679588 -74.175461 0 285 1 -160
2022-06-21 20:44:26 GMT 40.679588 -74.175453 0 284 1 -160
2022-06-21 20:44:24 GMT 40.679581 -74.175468 0 279 3 -160
2022-06-21 20:44:22 GMT 40.679562 -74.175438 0 264 7 -160
2022-06-21 20:44:20 GMT 40.679550 -74.175362 0 259 5 -160
2022-06-21 20:44:19 GMT 40.679569 -74.175323 0 249 6 -160
2022-06-21 20:44:17 GMT 40.679581 -74.175262 0 216 5 -160
2022-06-21 20:44:16 GMT 40.679539 -74.175209 0 216 6 -160
2022-06-21 20:44:14 GMT 40.679569 -74.175163 0 208 8 -160
2022-06-21 20:44:13 GMT 40.679630 -74.175079 0 202 8 -160
2022-06-21 20:44:11 GMT 40.679611 -74.175072 0 198 13 -160
2022-06-21 20:44:10 GMT 40.679729 -74.175049 0 204 14 -160
2022-06-21 20:44:08 GMT 40.679798 -74.175003 0 206 11 -160
2022-06-21 20:44:07 GMT 40.679901 -74.174950 0 209 14 -160
2022-06-21 20:44:05 GMT 40.679951 -74.174927 0 211 16 -160
2022-06-21 20:44:04 GMT 40.679989 -74.174889 0 209 19 -160
2022-06-21 20:44:02 GMT 40.680111 -74.174728 0 196 21 -160
2022-06-21 20:44:00 GMT 40.680328 -74.174713 0 210 20 -160
2022-06-21 20:43:59 GMT 40.680408 -74.174667 0 214 21 -160
2022-06-21 20:43:58 GMT 40.680561 -74.174492 0 203 21 -160
2022-06-21 20:43:56 GMT 40.680630 -74.174400 0 192 22 -160
2022-06-21 20:43:55 GMT 40.680840 -74.174362 0 203 20 -160
2022-06-21 20:43:52 GMT 40.681011 -74.174263 0 206 20 -160
2022-06-21 20:43:51 GMT 40.681110 -74.174232 0 212 19 -160
2022-06-21 20:43:50 GMT 40.681271 -74.174118 0 220 20 -160
2022-06-21 20:43:48 GMT 40.681351 -74.174049 0 224 20 -160
2022-06-21 20:43:47 GMT 40.681431 -74.173981 0 228 20 -160
2022-06-21 20:43:46 GMT 40.681549 -74.173798 0 227 20 -160
2022-06-21 20:43:44 GMT 40.681610 -74.173714 0 228 20 -160
2022-06-21 20:43:42 GMT 40.681728 -74.173538 0 230 20 -160
2022-06-21 20:43:41 GMT 40.681808 -74.173439 0 236 18 -160
2022-06-21 20:43:40 GMT 40.681900 -74.173271 0 240 19 -160
2022-06-21 20:43:38 GMT 40.681950 -74.173172 0 240 18 -160
2022-06-21 20:43:37 GMT 40.682030 -74.172974 0 235 18 -160
2022-06-21 20:43:35 GMT 40.682079 -74.172867 0 236 18 -160
2022-06-21 20:43:34 GMT 40.682190 -74.172684 0 244 15 -160
2022-06-21 20:43:32 GMT 40.682240 -74.172592 0 248 16 -160
2022-06-21 20:43:31 GMT 40.682281 -74.172523 0 246 18 -160
2022-06-21 20:43:30 GMT 40.682331 -74.172340 0 238 24 -160
2022-06-21 20:43:28 GMT 40.682388 -74.172211 0 236 25 -160
2022-06-21 20:43:27 GMT 40.682461 -74.172127 0 237 29 -160
2022-06-21 20:43:25 GMT 40.682598 -74.171860 0 234 32 -160
2022-06-21 20:43:24 GMT 40.682678 -74.171722 0 231 35 -160
2022-06-21 20:43:22 GMT 40.682861 -74.171371 0 224 36 -160
2022-06-21 20:43:21 GMT 40.682980 -74.171211 0 222 37 -160
2022-06-21 20:43:19 GMT 40.683250 -74.170898 0 219 37 -160
2022-06-21 20:43:17 GMT 40.683521 -74.170624 0 214 40 -160
2022-06-21 20:43:16 GMT 40.683670 -74.170433 0 209 39 -160
2022-06-21 20:43:14 GMT 40.683990 -74.170181 0 207 43 -160
2022-06-21 20:43:13 GMT 40.684181 -74.170021 0 205 44 -160
2022-06-21 20:43:11 GMT 40.684601 -74.169769 0 206 45 -160
2022-06-21 20:43:10 GMT 40.684799 -74.169632 0 205 48 -160
2022-06-21 20:43:09 GMT 40.685200 -74.169373 0 205 59 -160
2022-06-21 20:43:07 GMT 40.685440 -74.169243 0 206 65 -160
2022-06-21 20:43:06 GMT 40.685711 -74.169060 0 206 69 -160
2022-06-21 20:43:04 GMT 40.686279 -74.168663 0 205 82 -160
2022-06-21 20:43:03 GMT 40.686600 -74.168480 -150 205 90 0
2022-06-21 20:43:01 GMT 40.687370 -74.167992 -150 205 101 0
2022-06-21 20:42:59 GMT 40.688210 -74.167488 -150 206 113 0
2022-06-21 20:42:58 GMT 40.688622 -74.167160 -150 204 121 0
2022-06-21 20:42:57 GMT 40.689610 -74.166550 -150 205 132 0
2022-06-21 20:42:55 GMT 40.690128 -74.166229 -25 205 139 0
2022-06-21 20:42:54 GMT 40.691280 -74.165489 -25 204 141 0
2022-06-21 20:42:52 GMT 40.691849 -74.165138 -25 204 143 -224
2022-06-21 20:42:51 GMT 40.693050 -74.164421 -25 205 145 -224
2022-06-21 20:42:49 GMT 40.693642 -74.164017 -25 204 146 -224
2022-06-21 20:42:48 GMT 40.694859 -74.163300 -25 205 148 -224
2022-06-21 20:42:46 GMT 40.695492 -74.162888 -25 205 147 -224
2022-06-21 20:42:44 GMT 40.696709 -74.162102 -25 205 146 -224
2022-06-21 20:42:43 GMT 40.697350 -74.161728 -25 206 143 -224
2022-06-21 20:42:41 GMT 40.698540 -74.160942 -25 205 143 -224
2022-06-21 20:42:40 GMT 40.699131 -74.160553 -25 205 144 -224
2022-06-21 20:42:38 GMT 40.700329 -74.159813 -25 205 145 -224
2022-06-21 20:42:37 GMT 40.701550 -74.159012 25 204 144 -224
2022-06-21 20:42:35 GMT 40.702160 -74.158653 25 204 138 -896
2022-06-21 20:42:33 GMT 40.703972 -74.157509 100 206 146 -896
2022-06-21 20:42:31 GMT 40.704601 -74.157112 100 206 143 -896
2022-06-21 20:42:30 GMT 40.705200 -74.156708 100 205 141 -896
2022-06-21 20:42:28 GMT 40.706341 -74.155960 100 203 142 -896
2022-06-21 20:42:27 GMT 40.706879 -74.155746 100 205 149 -896
2022-06-21 20:42:24 GMT 40.708790 -74.154480 125 204 138 -896
2022-06-21 20:42:22 GMT 40.709919 -74.153809 200 207 147 -896
2022-06-21 20:42:21 GMT 40.710579 -74.153397 200 208 142 -896
2022-06-21 20:42:20 GMT 40.711761 -74.152603 200 207 141 -896
2022-06-21 20:42:18 GMT 40.712311 -74.152092 200 202 143 -896
2022-06-21 20:42:17 GMT 40.712959 -74.151840 300 206 141 -896
2022-06-21 20:42:15 GMT 40.714180 -74.151108 300 206 141 -896
2022-06-21 20:42:14 GMT 40.714760 -74.150757 300 207 143 -896
2022-06-21 20:42:12 GMT 40.715889 -74.149910 300 205 145 -896
2022-06-21 20:42:11 GMT 40.716492 -74.149551 300 206 145 -896
2022-06-21 20:42:09 GMT 40.717659 -74.148727 300 204 145 -896
2022-06-21 20:42:08 GMT 40.718300 -74.148422 325 205 145 -896
2022-06-21 20:42:06 GMT 40.719601 -74.147858 375 211 144 -896
2022-06-21 20:42:05 GMT 40.720119 -74.147263 375 207 143 -896
2022-06-21 20:42:04 GMT 40.721249 -74.146393 400 204 145 -896
2022-06-21 20:42:02 GMT 40.721889 -74.146111 400 206 145 -896
2022-06-21 20:42:01 GMT 40.722462 -74.145660 500 204 145 -896
2022-06-21 20:41:59 GMT 40.723709 -74.144913 500 205 141 -896
2022-06-21 20:41:57 GMT 40.724869 -74.144157 600 203 144 -896
2022-06-21 20:41:56 GMT 40.725471 -74.143806 600 204 144 -896
2022-06-21 20:41:54 GMT 40.726730 -74.143120 600 206 141 -896
2022-06-21 20:41:53 GMT 40.727322 -74.142769 600 207 142 -896
2022-06-21 20:41:52 GMT 40.728500 -74.141968 600 206 141 -896
2022-06-21 20:41:49 GMT 40.729610 -74.141144 700 205 143 -896
2022-06-21 20:41:48 GMT 40.730221 -74.140732 700 205 142 -896
2022-06-21 20:41:46 GMT 40.731430 -74.139999 700 205 142 -896
2022-06-21 20:41:45 GMT 40.731998 -74.139618 700 205 143 -896
2022-06-21 20:41:44 GMT 40.733189 -74.138863 700 205 143 -896
2022-06-21 20:41:42 GMT 40.733799 -74.138489 700 206 143 -896
2022-06-21 20:41:40 GMT 40.734970 -74.137711 700 205 142 -896
2022-06-21 20:41:39 GMT 40.735569 -74.137329 700 205 142 -896
2022-06-21 20:41:37 GMT 40.736759 -74.136574 700 205 141 -896
2022-06-21 20:41:36 GMT 40.737331 -74.136223 700 206 144 -896
2022-06-21 20:41:34 GMT 40.738522 -74.135437 900 205 143 -896
2022-06-21 20:41:33 GMT 40.739128 -74.135078 900 206 143 -896
2022-06-21 20:41:32 GMT 40.739731 -74.134682 900 206 142 -896
2022-06-21 20:41:30 GMT 40.740921 -74.133942 900 206 143 -896
2022-06-21 20:41:29 GMT 40.741501 -74.133537 900 206 143 -896
2022-06-21 20:41:27 GMT 40.742668 -74.132751 900 205 145 -896
2022-06-21 20:41:26 GMT 40.743858 -74.132004 1,000 205 146 -896
2022-06-21 20:41:24 GMT 40.744492 -74.131577 1,000 205 144 -896
2022-06-21 20:41:23 GMT 40.745689 -74.130867 1,000 205 144 -896
2022-06-21 20:41:21 GMT 40.746300 -74.130470 1,000 205 143 -896
2022-06-21 20:41:19 GMT 40.747520 -74.129700 1,000 205 142 -896
2022-06-21 20:41:18 GMT 40.748699 -74.128929 1,000 205 142 -896
2022-06-21 20:41:16 GMT 40.749290 -74.128540 1,000 205 142 -896
2022-06-21 20:41:15 GMT 40.749870 -74.128181 1,000 205 143 -896
2022-06-21 20:41:13 GMT 40.751068 -74.127434 1,000 205 143 -896
2022-06-21 20:41:12 GMT 40.751678 -74.127090 1,100 205 143 -896
2022-06-21 20:41:10 GMT 40.752869 -74.126312 1,100 205 143 -896
2022-06-21 20:41:09 GMT 40.753471 -74.125938 1,100 205 142 -896
2022-06-21 20:41:07 GMT 40.754639 -74.125191 1,100 205 144 -896
2022-06-21 20:41:06 GMT 40.755230 -74.124809 1,100 205 145 -896
2022-06-21 20:41:04 GMT 40.756439 -74.124062 1,100 205 144 -896
2022-06-21 20:41:03 GMT 40.757050 -74.123657 1,200 205 143 -896
2022-06-21 20:41:01 GMT 40.758221 -74.122917 1,200 205 146 -896
2022-06-21 20:41:00 GMT 40.758808 -74.122543 1,200 205 148 -896
2022-06-21 20:40:59 GMT 40.760040 -74.121742 1,300 205 148 -896
2022-06-21 20:40:56 GMT 40.761261 -74.120956 1,300 205 150 -896
2022-06-21 20:40:55 GMT 40.761879 -74.120583 1,300 205 150 -896
2022-06-21 20:40:54 GMT 40.763111 -74.119812 1,300 205 152 -896
2022-06-21 20:40:52 GMT 40.763771 -74.119408 1,300 205 151 -896
2022-06-21 20:40:51 GMT 40.765060 -74.118637 1,300 206 149 -896
2022-06-21 20:40:49 GMT 40.765659 -74.118210 1,500 205 152 -896
2022-06-21 20:40:47 GMT 40.766899 -74.117432 1,500 205 154 -896
2022-06-21 20:40:46 GMT 40.767521 -74.117050 1,500 206 156 -896
2022-06-21 20:40:45 GMT 40.768139 -74.116661 1,500 206 158 -896
2022-06-21 20:40:43 GMT 40.769451 -74.115784 1,500 205 157 -896
2022-06-21 20:40:42 GMT 40.770088 -74.115356 1,500 205 159 -896
2022-06-21 20:40:40 GMT 40.771389 -74.114540 1,500 205 161 -896
2022-06-21 20:40:39 GMT 40.772041 -74.114098 1,500 205 162 -896
2022-06-21 20:40:37 GMT 40.773380 -74.113281 1,500 205 164 -896
2022-06-21 20:40:36 GMT 40.774750 -74.112389 1,700 204 163 -640
2022-06-21 20:40:34 GMT 40.775421 -74.111977 1,700 204 164 -640
2022-06-21 20:40:33 GMT 40.776791 -74.111153 1,700 204 166 -640
2022-06-21 20:40:31 GMT 40.777481 -74.110748 1,700 204 167 -640
2022-06-21 20:40:29 GMT 40.778881 -74.109932 1,700 205 169 -640
2022-06-21 20:40:28 GMT 40.779610 -74.109489 1,700 205 167 -640
2022-06-21 20:40:26 GMT 40.780998 -74.108627 1,900 205 169 -640
2022-06-21 20:40:25 GMT 40.781670 -74.108177 1,900 205 171 -640
2022-06-21 20:40:23 GMT 40.783112 -74.107292 1,900 205 170 -640
2022-06-21 20:40:22 GMT 40.784531 -74.106422 1,900 205 172 -640
2022-06-21 20:40:20 GMT 40.785290 -74.106018 1,900 207 169 -640
2022-06-21 20:40:19 GMT 40.786701 -74.105171 1,900 207 172 -640
2022-06-21 20:40:17 GMT 40.787411 -74.104683 2,000 207 172 -640
2022-06-21 20:40:16 GMT 40.788830 -74.103798 2,000 206 174 -640
2022-06-21 20:40:14 GMT 40.789532 -74.103348 2,000 206 175 -640
2022-06-21 20:40:13 GMT 40.790981 -74.102402 2,200 203 176 -640
2022-06-21 20:40:11 GMT 40.792439 -74.101501 2,200 200 178 -640
2022-06-21 20:40:07 GMT 40.795074 -74.100159 2,050 201 177 -1216
2022-06-21 20:40:04 GMT 40.796844 -74.099289 2,125 193 182 -896
2022-06-21 20:40:01 GMT 40.800011 -74.098228 2,200 189 182 -1152
2022-06-21 20:39:58 GMT 40.802105 -74.097725 2,250 186 182 -1216
2022-06-21 20:39:56 GMT 40.803780 -74.097542 2,350 177 184 -512
2022-06-21 20:39:53 GMT 40.806427 -74.097351 2,350 178 183 -512
2022-06-21 20:39:50 GMT 40.808624 -74.097351 2,825 171 193 -896
2022-06-21 20:39:47 GMT 40.810951 -74.097481 2,825 171 193 -896
2022-06-21 20:39:45 GMT 40.812302 -74.097542 2,425 177 188 -512
2022-06-21 20:39:42 GMT 40.815308 -74.097717 2,500 177 189 -832
2022-06-21 20:39:37 GMT 40.823521 -74.098228 2,550 176 191 -1024
2022-06-21 20:39:33 GMT 40.823521 -74.098228 2,600 176 192 -1024
2022-06-21 20:39:30 GMT 40.826477 -74.098450 2,625 175 192 -1024
2022-06-21 20:39:27 GMT 40.828918 -74.098724 2,675 174 192 -960
2022-06-21 20:39:25 GMT 40.833202 -74.099228 2,775 172 192 -960
2022-06-21 20:39:22 GMT 40.833202 -74.099228 2,775 165 191 -704
2022-06-21 20:39:19 GMT 40.835903 -74.099724 2,800 166 192 -704
2022-06-21 20:39:16 GMT 40.838554 -74.100410 2,825 157 188 -64
2022-06-21 20:39:14 GMT 40.839813 -74.100914 2,825 160 190 -320
2022-06-21 20:39:11 GMT 40.843491 -74.102531 2,825 157 188 0
2022-06-21 20:39:08 GMT 40.845566 -74.103638 2,825 157 188 0
2022-06-21 20:39:05 GMT 40.847076 -74.104492 2,850 157 187 64
2022-06-21 20:39:03 GMT 40.851589 -74.106964 2,850 157 186 0
2022-06-21 20:38:59 GMT 40.851589 -74.106964 2,825 157 186 0
2022-06-21 20:38:55 GMT 40.857971 -74.110413 2,825 157 187 64
2022-06-21 20:38:52 GMT 40.857971 -74.110413 2,825 157 187 0
2022-06-21 20:38:49 GMT 40.860062 -74.111519 2,825 157 187 0
2022-06-21 20:38:45 GMT 40.863327 -74.113281 2,850 157 186 0
2022-06-21 20:38:43 GMT 40.864975 -74.114197 2,850 157 186 0
2022-06-21 20:38:40 GMT 40.867279 -74.115456 2,850 157 186 -64
2022-06-21 20:38:37 GMT 40.869919 -74.116943 2,850 157 186 128
2022-06-21 20:38:34 GMT 40.871979 -74.118042 2,850 157 186 128
2022-06-21 20:38:32 GMT 40.873260 -74.118774 2,850 157 186 128
2022-06-21 20:38:28 GMT 40.876495 -74.120514 2,850 157 184 -128
2022-06-21 20:38:25 GMT 40.879761 -74.122253 2,850 157 182 -64
2022-06-21 20:38:23 GMT 40.881386 -74.123131 2,850 157 183 -64
2022-06-21 20:38:19 GMT 40.884796 -74.125061 2,875 157 182 -256
2022-06-21 20:38:16 GMT 40.887062 -74.126312 2,900 156 182 -576
2022-06-21 20:38:12 GMT 40.889511 -74.127686 2,925 156 183 -640
2022-06-21 20:38:09 GMT 40.892090 -74.129189 2,950 156 183 -768
2022-06-21 20:38:05 GMT 40.894775 -74.130737 3,150 156 187 -1024
2022-06-21 20:38:02 GMT 40.897202 -74.132141 3,050 155 186 -896
2022-06-21 20:37:58 GMT 40.900314 -74.134033 3,100 156 186 -960
2022-06-21 20:37:55 GMT 40.902611 -74.135307 3,225 157 189 -1024
2022-06-21 20:37:52 GMT 40.905670 -74.137024 3,225 157 188 -1024
2022-06-21 20:37:48 GMT 40.908875 -74.138794 3,300 157 190 -1152
2022-06-21 20:37:44 GMT 40.912308 -74.140686 3,375 157 190 -1088
2022-06-21 20:37:41 GMT 40.914001 -74.141663 3,400 156 191 -960
2022-06-21 20:37:38 GMT 40.916199 -74.142883 3,450 156 191 -960
2022-06-21 20:37:35 GMT 40.919186 -74.144547 3,500 156 193 -896
2022-06-21 20:37:32 GMT 40.922115 -74.146233 3,575 156 194 -896
2022-06-21 20:37:29 GMT 40.923981 -74.147339 3,625 156 195 -1024
2022-06-21 20:37:25 GMT 40.927284 -74.149162 3,725 157 195 -1344
2022-06-21 20:37:21 GMT 40.930916 -74.151222 3,750 157 193 -1280
2022-06-21 20:37:17 GMT 40.934280 -74.153076 3,825 157 189 -512
2022-06-21 20:37:13 GMT 40.936615 -74.154358 3,850 157 188 64
2022-06-21 20:37:10 GMT 40.942368 -74.157593 3,850 157 187 64
2022-06-21 20:37:07 GMT 40.942368 -74.157593 3,850 156 188 0
2022-06-21 20:37:04 GMT 40.944790 -74.158966 3,850 156 186 0
2022-06-21 20:37:00 GMT 40.947395 -74.160461 3,850 156 185 -64
2022-06-21 20:36:56 GMT 40.950516 -74.162209 3,850 156 186 0
2022-06-21 20:36:53 GMT 40.953461 -74.163879 3,850 156 186 0
2022-06-21 20:36:50 GMT 40.955959 -74.165268 3,850 156 186 0
2022-06-21 20:36:46 GMT 40.959183 -74.167114 3,850 156 186 0
2022-06-21 20:36:42 GMT 40.965878 -74.171013 3,850 156 188 0
2022-06-21 20:36:38 GMT 40.965878 -74.171013 3,850 156 188 0
2022-06-21 20:36:35 GMT 40.967148 -74.171692 3,850 155 188 0
2022-06-21 20:36:30 GMT 40.971680 -74.174377 3,850 155 189 -64
2022-06-21 20:36:27 GMT 40.973831 -74.175659 3,850 154 189 64
2022-06-21 20:36:23 GMT 40.977402 -74.177917 3,850 153 189 0
2022-06-21 20:36:19 GMT 40.980633 -74.180122 3,850 149 188 64
2022-06-21 20:36:15 GMT 40.982960 -74.181938 3,850 141 188 64
2022-06-21 20:36:12 GMT 40.985596 -74.184753 3,850 132 189 64
2022-06-21 20:36:08 GMT 40.987385 -74.187180 3,850 128 188 -64
2022-06-21 20:36:04 GMT 40.989624 -74.190979 3,900 125 186 -256
2022-06-21 20:35:59 GMT 40.994598 -74.200165 3,875 125 186 -128
2022-06-21 20:35:55 GMT 40.994598 -74.200165 3,875 125 185 -192
2022-06-21 20:35:50 GMT 40.996368 -74.203468 3,925 125 186 -256
2022-06-21 20:35:47 GMT 40.997997 -74.206528 3,900 125 186 -320
2022-06-21 20:35:44 GMT 41.000233 -74.210587 3,975 125 186 -960
2022-06-21 20:35:41 GMT 41.001255 -74.212456 4,100 125 185 -1024
2022-06-21 20:35:36 GMT 41.004330 -74.218201 4,175 125 185 -1024
2022-06-21 20:35:32 GMT 41.005676 -74.220695 4,150 124 185 -1024
2022-06-21 20:35:28 GMT 41.007496 -74.224129 4,475 124 186 -1024
2022-06-21 20:35:25 GMT 41.009216 -74.227379 4,275 124 186 -1024
2022-06-21 20:35:22 GMT 41.010269 -74.229431 4,300 124 185 -1024
2022-06-21 20:35:19 GMT 41.012054 -74.232849 4,350 123 189 -960
2022-06-21 20:35:16 GMT 41.013290 -74.235229 4,400 124 186 -1024
2022-06-21 20:35:13 GMT 41.014896 -74.238365 4,500 123 188 -1024
2022-06-21 20:35:10 GMT 41.016479 -74.241425 4,550 123 188 -960
2022-06-21 20:35:06 GMT 41.019783 -74.248039 4,600 122 190 -960
2022-06-21 20:35:03 GMT 41.019783 -74.248039 4,675 121 190 -960
2022-06-21 20:34:58 GMT 41.021877 -74.252533 4,725 111 192 -960
2022-06-21 20:34:55 GMT 41.023743 -74.257217 4,775 109 192 -896
2022-06-21 20:34:52 GMT 41.024204 -74.258842 4,825 103 194 -704
2022-06-21 20:34:48 GMT 41.025375 -74.264221 4,850 97 195 -256
2022-06-21 20:34:45 GMT 41.025970 -74.270569 4,850 94 197 -64
2022-06-21 20:34:42 GMT 41.025970 -74.270569 4,850 94 198 -64
2022-06-21 20:34:39 GMT 41.026520 -74.279480 4,850 94 201 -128
2022-06-21 20:34:36 GMT 41.026520 -74.279480 4,875 94 201 -128
2022-06-21 20:34:33 GMT 41.026703 -74.282043 4,875 94 201 -128
2022-06-21 20:34:30 GMT 41.026932 -74.286011 4,875 94 203 -64
2022-06-21 20:34:27 GMT 41.027138 -74.289047 4,850 94 212 256
2022-06-21 20:34:24 GMT 41.027603 -74.296921 4,825 94 215 0
2022-06-21 20:34:16 GMT 41.028301 -74.307281 4,850 95 221 0
2022-06-21 20:34:13 GMT 41.028301 -74.307281 4,850 95 228 0
2022-06-21 20:34:10 GMT 41.028580 -74.311279 4,850 57 277 64
2022-06-21 20:34:05 GMT 41.029140 -74.319824 4,850 95 232 0
2022-06-21 20:34:01 GMT 41.029514 -74.324631 4,850 95 236 0
2022-06-21 20:33:56 GMT 41.029980 -74.331436 4,850 94 241 -64
2022-06-21 20:33:53 GMT 41.030182 -74.335022 4,850 94 241 -64
2022-06-21 20:33:50 GMT 41.030582 -74.342049 4,850 62 274 0
2022-06-21 20:33:47 GMT 41.030685 -74.344238 4,850 90 251 64
2022-06-21 20:33:44 GMT 41.030640 -74.353821 4,850 86 254 64
2022-06-21 20:33:41 GMT 41.030640 -74.353821 4,850 81 258 0
2022-06-21 20:33:38 GMT 41.030045 -74.360229 4,850 67 270 0
2022-06-21 20:33:35 GMT 41.029449 -74.363525 4,850 67 270 0
2022-06-21 20:33:32 GMT 41.027931 -74.369637 4,850 64 273 0
2022-06-21 20:33:29 GMT 41.026886 -74.372925 4,850 55 279 64
2022-06-21 20:33:26 GMT 41.021439 -74.384399 4,825 52 281 0
2022-06-21 20:33:22 GMT 41.021439 -74.384399 4,850 48 283 -64
2022-06-21 20:33:19 GMT 41.019272 -74.387680 4,850 47 283 -64
2022-06-21 20:33:15 GMT 41.015121 -74.393616 4,850 46 284 0
2022-06-21 20:33:12 GMT 41.014057 -74.395042 4,850 46 284 0
2022-06-21 20:33:09 GMT 41.011032 -74.399414 4,850 47 285 64
2022-06-21 20:33:06 GMT 41.007843 -74.403931 4,850 47 285 -64
2022-06-21 20:33:03 GMT 41.005165 -74.407715 4,850 47 285 0
2022-06-21 20:33:00 GMT 41.002441 -74.411621 4,850 47 285 0
2022-06-21 20:32:57 GMT 41.000698 -74.414146 4,850 47 285 64
2022-06-21 20:32:54 GMT 40.997040 -74.419312 4,850 46 284 -64
2022-06-21 20:32:51 GMT 40.995205 -74.421951 4,850 47 285 -64
2022-06-21 20:32:48 GMT 40.987198 -74.433250 4,850 46 283 64
2022-06-21 20:32:44 GMT 40.987198 -74.433250 4,850 46 282 -64
2022-06-21 20:32:41 GMT 40.985058 -74.436241 4,850 46 282 -64
2022-06-21 20:32:38 GMT 40.983307 -74.438721 4,850 46 282 0
2022-06-21 20:32:35 GMT 40.977467 -74.446732 4,850 45 282 0
2022-06-21 20:32:32 GMT 40.977467 -74.446732 4,850 45 282 0
2022-06-21 20:32:29 GMT 40.970215 -74.456360 4,850 40 283 64
2022-06-21 20:32:24 GMT 40.970215 -74.456360 4,850 42 283 64
2022-06-21 20:32:20 GMT 40.962246 -74.465454 4,850 37 283 0
2022-06-21 20:32:17 GMT 40.962246 -74.465454 4,850 32 284 0
2022-06-21 20:32:12 GMT 40.956940 -74.470093 4,850 29 283 0
2022-06-21 20:32:09 GMT 40.953354 -74.472763 4,850 27 283 0
2022-06-21 20:32:06 GMT 40.951080 -74.474304 4,850 26 282 0
2022-06-21 20:32:02 GMT 40.946369 -74.477501 4,850 26 282 0
2022-06-21 20:31:59 GMT 40.942646 -74.480003 4,850 26 282 0
2022-06-21 20:31:56 GMT 40.939178 -74.482300 4,850 26 282 0
2022-06-21 20:31:52 GMT 40.929749 -74.488647 4,850 26 282 0
2022-06-21 20:31:49 GMT 40.929749 -74.488647 4,850 26 282 0
2022-06-21 20:31:46 GMT 40.926865 -74.490555 4,850 26 283 0
2022-06-21 20:31:43 GMT 40.924164 -74.492363 4,850 26 283 0
2022-06-21 20:31:40 GMT 40.919601 -74.495354 4,850 26 283 0
2022-06-21 20:31:36 GMT 40.916428 -74.497498 4,850 26 283 0
2022-06-21 20:31:32 GMT 40.911850 -74.500549 4,850 26 283 0
2022-06-21 20:31:29 GMT 40.905125 -74.505096 4,850 26 283 -64
2022-06-21 20:31:26 GMT 40.905125 -74.505096 4,850 27 283 0
2022-06-21 20:31:23 GMT 40.899864 -74.508591 4,850 27 283 -64
2022-06-21 20:31:18 GMT 40.894978 -74.511902 4,850 27 282 -128
2022-06-21 20:31:15 GMT 40.890648 -74.514832 4,850 27 283 -192
2022-06-21 20:31:09 GMT 40.884705 -74.518921 4,875 27 281 -512
2022-06-21 20:31:06 GMT 40.876076 -74.524948 5,025 28 281 -896
2022-06-21 20:31:01 GMT 40.876076 -74.524948 4,975 28 281 -896
2022-06-21 20:30:58 GMT 40.871609 -74.528130 5,050 28 281 -896
2022-06-21 20:30:55 GMT 40.868164 -74.530563 5,075 28 281 -896
2022-06-21 20:30:52 GMT 40.864159 -74.533371 5,125 28 280 -896
2022-06-21 20:30:48 GMT 40.859177 -74.536995 5,200 28 278 -896
2022-06-21 20:30:44 GMT 40.854523 -74.540367 5,275 28 277 -960
2022-06-21 20:30:39 GMT 40.849411 -74.544067 5,350 28 276 -960
2022-06-21 20:30:36 GMT 40.846161 -74.546448 5,400 28 276 -896
2022-06-21 20:30:33 GMT 40.843460 -74.548401 5,425 28 276 -960
2022-06-21 20:30:30 GMT 40.840668 -74.550476 5,450 28 276 -960
2022-06-21 20:30:26 GMT 40.834877 -74.554657 5,550 28 276 -960
2022-06-21 20:30:22 GMT 40.831528 -74.557091 5,650 28 276 -960
2022-06-21 20:30:19 GMT 40.826431 -74.560852 5,650 28 276 -960
2022-06-21 20:30:15 GMT 40.822403 -74.563782 5,750 28 277 -960
2022-06-21 20:30:11 GMT 40.819061 -74.566223 5,750 28 276 -640
2022-06-21 20:30:07 GMT 40.815125 -74.569092 5,825 28 275 -512
2022-06-21 20:30:04 GMT 40.810905 -74.572136 5,850 28 274 -256
2022-06-21 20:30:01 GMT 40.808437 -74.573883 5,850 28 274 -64
2022-06-21 20:29:58 GMT 40.803967 -74.577133 5,850 28 274 0
2022-06-21 20:29:55 GMT 40.800663 -74.579498 5,850 28 274 -64
2022-06-21 20:29:52 GMT 40.797077 -74.582062 5,850 28 273 0
2022-06-21 20:29:50 GMT 40.794193 -74.584183 5,850 28 273 0
2022-06-21 20:29:47 GMT 40.791687 -74.585999 5,850 28 274 0
2022-06-21 20:29:44 GMT 40.787796 -74.588806 5,850 31 274 -64
2022-06-21 20:29:40 GMT 40.784225 -74.591431 5,850 31 274 -64
2022-06-21 20:29:36 GMT 40.780380 -74.594421 5,850 32 274 0
2022-06-21 20:29:33 GMT 40.776810 -74.597290 5,850 37 275 128
2022-06-21 20:29:30 GMT 40.773743 -74.599976 5,850 37 275 128
2022-06-21 20:29:26 GMT 40.770035 -74.603821 5,850 47 276 0
2022-06-21 20:29:23 GMT 40.766495 -74.608345 5,850 58 278 0
2022-06-21 20:29:20 GMT 40.764130 -74.612061 5,850 58 278 0
2022-06-21 20:29:17 GMT 40.761292 -74.617737 5,850 65 279 0
2022-06-21 20:29:13 GMT 40.759186 -74.623230 5,850 70 281 0
2022-06-21 20:29:09 GMT 40.757904 -74.627319 5,850 83 284 0
2022-06-21 20:29:05 GMT 40.756119 -74.636292 5,850 82 283 0
2022-06-21 20:29:02 GMT 40.755707 -74.639709 5,850 88 285 0
2022-06-21 20:28:57 GMT 40.755367 -74.647789 5,825 97 287 0
2022-06-21 20:28:54 GMT 40.755646 -74.654282 5,825 98 287 0
2022-06-21 20:28:50 GMT 40.756760 -74.661926 5,850 107 289 -64
2022-06-21 20:28:45 GMT 40.758911 -74.671143 5,850 109 288 0
2022-06-21 20:28:42 GMT 40.760010 -74.675110 5,850 109 288 0
2022-06-21 20:28:39 GMT 40.761108 -74.679260 5,850 109 288 0
2022-06-21 20:28:36 GMT 40.764084 -74.690186 5,850 109 288 0
2022-06-21 20:28:33 GMT 40.764084 -74.690186 5,850 109 287 -64
2022-06-21 20:28:29 GMT 40.765640 -74.695984 5,850 109 287 0
2022-06-21 20:28:26 GMT 40.766727 -74.699852 5,850 109 287 0
2022-06-21 20:28:23 GMT 40.768307 -74.705658 5,850 109 287 64
2022-06-21 20:28:20 GMT 40.769440 -74.709839 5,850 109 289 0
2022-06-21 20:28:17 GMT 40.771568 -74.717705 5,850 109 289 0
2022-06-21 20:28:14 GMT 40.772415 -74.720825 5,850 109 290 0
2022-06-21 20:28:10 GMT 40.774220 -74.727379 5,825 109 290 64
2022-06-21 20:28:05 GMT 40.776596 -74.736244 5,825 109 287 0
2022-06-21 20:28:02 GMT 40.779713 -74.747734 5,850 109 290 0
2022-06-21 20:27:58 GMT 40.779713 -74.747734 5,825 109 290 0
2022-06-21 20:27:53 GMT 40.782394 -74.757629 5,825 109 289 0
2022-06-21 20:27:50 GMT 40.783310 -74.760986 5,850 109 287 0
2022-06-21 20:27:46 GMT 40.785625 -74.769455 5,850 109 285 0
2022-06-21 20:27:42 GMT 40.786789 -74.773697 5,850 109 285 0
2022-06-21 20:27:39 GMT 40.788116 -74.778564 5,850 109 284 -64
2022-06-21 20:27:34 GMT 40.791870 -74.792419 5,850 109 283 -64
2022-06-21 20:27:31 GMT 40.791870 -74.792419 5,850 109 283 -128
2022-06-21 20:27:28 GMT 40.792980 -74.796608 5,850 109 283 -128
2022-06-21 20:27:25 GMT 40.794422 -74.801979 5,875 109 285 -960
2022-06-21 20:27:21 GMT 40.796425 -74.809464 5,900 109 283 -384
2022-06-21 20:27:18 GMT 40.797077 -74.811897 5,925 109 284 -896
2022-06-21 20:27:15 GMT 40.799011 -74.818970 5,975 109 284 -896
2022-06-21 20:27:12 GMT 40.800476 -74.824341 6,025 109 284 -960
2022-06-21 20:27:09 GMT 40.801594 -74.828506 6,050 109 285 -960
2022-06-21 20:27:04 GMT 40.803642 -74.836060 6,125 109 285 -960
2022-06-21 20:27:01 GMT 40.804806 -74.840302 6,175 109 286 -960
2022-06-21 20:26:58 GMT 40.806290 -74.845642 6,250 109 288 -960
2022-06-21 20:26:53 GMT 40.808670 -74.854248 6,325 110 292 -1024
2022-06-21 20:26:50 GMT 40.810318 -74.860229 6,350 110 291 -1024
2022-06-21 20:26:47 GMT 40.811096 -74.863037 6,375 110 292 -1024
2022-06-21 20:26:44 GMT 40.813156 -74.870605 6,450 110 292 -1024
2022-06-21 20:26:38 GMT 40.815994 -74.880676 6,650 110 295 -960
2022-06-21 20:26:33 GMT 40.818054 -74.888123 6,625 110 296 -1024
2022-06-21 20:26:28 GMT 40.820026 -74.894981 6,700 110 297 -960
2022-06-21 20:26:26 GMT 40.820984 -74.898438 6,775 110 298 -704
2022-06-21 20:26:22 GMT 40.823181 -74.906128 6,775 110 298 -704
2022-06-21 20:26:19 GMT 40.824829 -74.911926 6,825 110 297 -640
2022-06-21 20:26:16 GMT 40.825752 -74.915207 6,900 110 296 -448
2022-06-21 20:26:13 GMT 40.827709 -74.922012 6,875 110 296 -384
2022-06-21 20:26:10 GMT 40.829201 -74.927254 6,900 110 299 -896
2022-06-21 20:26:07 GMT 40.830734 -74.932556 7,050 110 299 -896
2022-06-21 20:26:00 GMT 40.833618 -74.942810 7,075 110 304 -1024
2022-06-21 20:25:57 GMT 40.835083 -74.947937 7,075 110 301 -896
2022-06-21 20:25:52 GMT 40.837765 -74.957474 7,300 110 302 -896
2022-06-21 20:25:49 GMT 40.840836 -74.968521 7,225 110 304 -1024
2022-06-21 20:25:45 GMT 40.840836 -74.968521 7,225 110 304 -1024
2022-06-21 20:25:40 GMT 40.843872 -74.979248 7,400 110 305 -1024
2022-06-21 20:25:35 GMT 40.846664 -74.989014 7,450 110 306 -1152
2022-06-21 20:25:27 GMT 40.850006 -75.000793 7,600 110 306 -960
2022-06-21 20:25:22 GMT 40.852615 -75.010010 7,675 110 306 -960
2022-06-21 20:25:16 GMT 40.855225 -75.019226 7,800 110 305 -960
2022-06-21 20:25:13 GMT 40.856964 -75.025391 7,800 110 305 -960
2022-06-21 20:25:07 GMT 40.860340 -75.037560 7,900 109 307 -832
2022-06-21 20:25:04 GMT 40.861725 -75.042603 7,950 110 306 -960
2022-06-21 20:25:00 GMT 40.863182 -75.047981 8,100 110 309 -960
2022-06-21 20:24:56 GMT 40.865204 -75.055054 8,150 110 308 -1088
2022-06-21 20:24:53 GMT 40.866718 -75.060654 8,125 110 308 -1088
2022-06-21 20:24:49 GMT 40.870628 -75.074638 9,925 110 318 -1024
2022-06-21 20:24:46 GMT 40.870628 -75.074638 8,250 110 310 -1024
2022-06-21 20:24:42 GMT 40.871887 -75.079163 8,300 110 311 -960
2022-06-21 20:24:38 GMT 40.874817 -75.089478 8,400 110 311 -960
2022-06-21 20:24:35 GMT 40.875797 -75.092926 8,450 110 312 -896
2022-06-21 20:24:32 GMT 40.877014 -75.097290 8,475 110 312 -960
2022-06-21 20:24:26 GMT 40.880081 -75.108032 8,725 110 312 -1024
2022-06-21 20:24:23 GMT 40.882084 -75.115089 8,625 110 312 -1024
2022-06-21 20:24:20 GMT 40.883377 -75.119629 8,725 110 312 -1024
2022-06-21 20:24:16 GMT 40.885162 -75.126038 8,725 110 312 -960
2022-06-21 20:24:13 GMT 40.888924 -75.139183 8,825 110 313 -960
2022-06-21 20:24:10 GMT 40.888924 -75.139183 8,900 110 312 -1024
2022-06-21 20:24:04 GMT 40.891720 -75.149040 8,950 110 313 -960
2022-06-21 20:24:01 GMT 40.892788 -75.152786 10,500 110 351 -448
2022-06-21 20:23:56 GMT 40.895489 -75.162338 9,050 110 314 -960
2022-06-21 20:23:52 GMT 40.897118 -75.168083 9,150 110 315 -960
2022-06-21 20:23:48 GMT 40.899727 -75.177261 9,200 110 315 -960
2022-06-21 20:23:44 GMT 40.901596 -75.183899 9,275 110 318 -960
2022-06-21 20:23:40 GMT 40.903748 -75.191528 9,375 110 319 -1024
2022-06-21 20:23:37 GMT 40.907959 -75.206421 9,375 110 318 -960
2022-06-21 20:23:31 GMT 40.910065 -75.213928 9,525 110 319 -1024
2022-06-21 20:23:24 GMT 40.912170 -75.221436 9,600 110 319 -960
2022-06-21 20:23:20 GMT 40.913876 -75.227570 9,675 110 318 -1024
2022-06-21 20:23:17 GMT 40.915924 -75.234741 9,700 110 318 -1024
2022-06-21 20:23:14 GMT 40.916996 -75.238686 9,750 110 318 -960
2022-06-21 20:23:11 GMT 40.918762 -75.244995 9,850 110 317 -896
2022-06-21 20:23:06 GMT 40.920719 -75.251976 9,900 110 318 -896
2022-06-21 20:23:03 GMT 40.922630 -75.258720 9,925 110 318 -960
2022-06-21 20:22:57 GMT 40.926086 -75.271057 10,050 110 324 -832
2022-06-21 20:22:53 GMT 40.928146 -75.278259 10,075 110 326 -768
2022-06-21 20:22:47 GMT 40.930801 -75.287781 10,200 110 327 -1728
2022-06-21 20:22:42 GMT 40.936157 -75.306580 10,375 110 330 -1088
2022-06-21 20:22:38 GMT 40.936157 -75.306580 10,375 110 334 -640
2022-06-21 20:22:35 GMT 40.937805 -75.312401 10,425 110 339 -448
2022-06-21 20:22:32 GMT 40.939270 -75.317566 10,425 110 341 -448
2022-06-21 20:22:28 GMT 40.941284 -75.324524 10,450 110 348 -448
2022-06-21 20:22:24 GMT 40.943485 -75.332314 10,500 110 361 0
2022-06-21 20:22:21 GMT 40.944946 -75.337402 10,600 110 361 0
2022-06-21 20:22:18 GMT 40.947487 -75.346359 10,600 110 357 -512
2022-06-21 20:22:14 GMT 40.948933 -75.351479 10,575 110 363 -576
2022-06-21 20:22:11 GMT 40.953354 -75.367020 10,625 110 364 -576
2022-06-21 20:22:07 GMT 40.953354 -75.367020 12,475 110 381 -2560
2022-06-21 20:22:04 GMT 40.955727 -75.375198 10,700 110 372 -704
2022-06-21 20:22:00 GMT 40.957542 -75.381630 10,850 110 380 -1408
2022-06-21 20:21:57 GMT 40.959965 -75.390305 10,850 110 380 -1600
2022-06-21 20:21:53 GMT 40.961929 -75.397156 10,950 110 381 -2304
2022-06-21 20:21:50 GMT 40.963806 -75.403931 11,100 110 381 -3392
2022-06-21 20:21:45 GMT 40.966480 -75.413399 11,350 110 379 -3968
2022-06-21 20:21:42 GMT 40.968391 -75.420143 11,550 110 378 -3968
2022-06-21 20:21:39 GMT 40.972733 -75.435669 12,025 110 377 -3712
2022-06-21 20:21:36 GMT 40.972733 -75.435669 11,975 110 378 -3008
2022-06-21 20:21:33 GMT 40.974442 -75.441803 12,100 110 378 -3008
2022-06-21 20:21:30 GMT 40.977814 -75.453857 12,400 110 377 -3200
2022-06-21 20:21:25 GMT 40.978409 -75.455994 12,450 110 377 -3072
2022-06-21 20:21:22 GMT 40.980541 -75.463715 12,725 110 375 -2176
2022-06-21 20:21:18 GMT 40.983673 -75.474792 12,775 110 375 -2176
2022-06-21 20:21:14 GMT 40.985962 -75.482971 12,850 110 375 -256
2022-06-21 20:21:10 GMT 40.988388 -75.491577 12,875 110 376 0
2022-06-21 20:21:05 GMT 40.990631 -75.499573 12,875 110 375 0
2022-06-21 20:21:02 GMT 40.992691 -75.506973 12,875 110 375 0
2022-06-21 20:20:59 GMT 40.994457 -75.513214 12,875 110 375 0
2022-06-21 20:20:55 GMT 40.996902 -75.521973 12,875 110 373 -1344
2022-06-21 20:20:52 GMT 40.999283 -75.530579 12,875 110 375 0
2022-06-21 20:20:49 GMT 41.000702 -75.535522 12,875 110 375 0
2022-06-21 20:20:45 GMT 41.006378 -75.555908 12,875 110 373 -320
2022-06-21 20:20:40 GMT 41.006378 -75.555908 12,875 110 373 -64
2022-06-21 20:20:36 GMT 41.008240 -75.562653 12,900 110 373 -640
2022-06-21 20:20:33 GMT 41.010818 -75.571777 13,000 110 373 -640
2022-06-21 20:20:29 GMT 41.012985 -75.579567 12,950 110 373 -704
2022-06-21 20:20:25 GMT 41.015453 -75.588371 13,100 110 374 -1088
2022-06-21 20:20:20 GMT 41.017960 -75.597534 13,125 110 373 -1344
2022-06-21 20:20:16 GMT 41.020294 -75.605896 13,325 110 373 -1344
2022-06-21 20:20:12 GMT 41.022400 -75.613403 13,300 110 373 -1344
2022-06-21 20:20:09 GMT 41.025043 -75.622955 13,350 110 373 -1344
2022-06-21 20:20:06 GMT 41.026245 -75.627319 13,600 110 373 -1344
2022-06-21 20:20:03 GMT 41.027790 -75.632820 13,525 110 373 -1344
2022-06-21 20:20:00 GMT 41.030182 -75.641479 13,550 110 374 -1344
2022-06-21 20:19:56 GMT 41.031967 -75.647949 13,875 110 378 -1344
2022-06-21 20:19:52 GMT 41.037231 -75.666931 14,275 110 376 -1344
2022-06-21 20:19:48 GMT 41.037231 -75.666931 13,850 110 378 -1344
2022-06-21 20:19:45 GMT 41.038467 -75.671509 13,850 110 378 -1344
2022-06-21 20:19:41 GMT 41.041489 -75.682373 13,975 110 378 -1344
2022-06-21 20:19:37 GMT 41.043594 -75.690002 14,125 110 381 -1344
2022-06-21 20:19:34 GMT 41.045151 -75.695679 14,125 110 381 -1344
2022-06-21 20:19:30 GMT 41.047943 -75.705688 14,275 110 382 -1408
2022-06-21 20:19:27 GMT 41.050369 -75.714401 14,325 110 382 -1408
2022-06-21 20:19:24 GMT 41.051811 -75.719643 14,375 110 384 -1408
2022-06-21 20:19:22 GMT 41.052368 -75.721642 14,600 110 386 -1408
2022-06-21 20:19:19 GMT 41.054558 -75.729568 14,475 110 385 -1408
2022-06-21 20:19:16 GMT 41.057098 -75.738708 14,575 110 386 -1408
2022-06-21 20:19:13 GMT 41.058655 -75.744118 14,825 110 388 -1408
2022-06-21 20:19:10 GMT 41.060936 -75.752357 14,800 110 388 -1408
2022-06-21 20:19:07 GMT 41.062500 -75.757996 14,775 110 387 -1408
2022-06-21 20:19:04 GMT 41.063683 -75.762093 14,850 110 389 -1408
2022-06-21 20:18:59 GMT 41.067451 -75.775703 15,350 109 389 -1408
2022-06-21 20:18:54 GMT 41.069920 -75.784691 15,200 109 389 -1408
2022-06-21 20:18:51 GMT 41.072014 -75.792305 15,175 110 389 -1408
2022-06-21 20:18:48 GMT 41.073784 -75.798798 15,200 110 389 -1408
2022-06-21 20:18:45 GMT 41.076370 -75.808044 15,300 110 394 -1472
2022-06-21 20:18:41 GMT 41.078110 -75.814331 15,375 110 391 -1408
2022-06-21 20:18:37 GMT 41.081139 -75.825203 15,475 110 391 -1408
2022-06-21 20:18:33 GMT 41.082722 -75.831070 15,525 110 391 -1408
2022-06-21 20:18:29 GMT 41.085251 -75.840210 15,625 110 392 -1472
2022-06-21 20:18:26 GMT 41.087585 -75.848572 15,800 109 394 -1472
2022-06-21 20:18:23 GMT 41.088959 -75.853416 15,775 110 394 -1472
2022-06-21 20:18:20 GMT 41.090927 -75.860535 16,000 110 395 -1472
2022-06-21 20:18:17 GMT 41.093170 -75.868713 16,000 109 394 -1408
2022-06-21 20:18:14 GMT 41.095524 -75.877197 16,025 109 394 -1408
2022-06-21 20:18:07 GMT 41.099808 -75.892761 16,225 109 394 -1408
2022-06-21 20:18:03 GMT 41.101761 -75.899925 16,275 109 394 -1344
2022-06-21 20:17:59 GMT 41.104385 -75.909607 16,375 109 394 -1344
2022-06-21 20:17:54 GMT 41.107635 -75.921387 16,525 109 395 -1408
2022-06-21 20:17:50 GMT 41.109512 -75.928223 16,550 109 395 -1408
2022-06-21 20:17:44 GMT 41.113541 -75.942932 16,700 109 397 -1408
2022-06-21 20:17:41 GMT 41.115589 -75.950485 16,775 109 398 -1408
2022-06-21 20:17:36 GMT 41.120804 -75.969521 17,200 109 400 -1408
2022-06-21 20:17:33 GMT 41.120804 -75.969521 16,975 109 402 -1408
2022-06-21 20:17:30 GMT 41.122200 -75.974579 17,025 109 403 -1408
2022-06-21 20:17:23 GMT 41.126575 -75.990623 17,300 109 407 -1600
2022-06-21 20:17:20 GMT 41.133930 -76.017342 17,350 109 420 -2176
2022-06-21 20:17:13 GMT 41.133930 -76.017342 17,625 109 409 -2112
2022-06-21 20:17:10 GMT 41.135239 -76.022156 17,600 109 410 -2048
2022-06-21 20:17:02 GMT 41.140541 -76.041435 17,925 110 413 -1856
2022-06-21 20:16:59 GMT 41.142197 -76.047485 17,925 110 414 -1920
2022-06-21 20:16:55 GMT 41.147369 -76.066284 18,275 109 421 0
2022-06-21 20:16:52 GMT 41.147369 -76.066284 18,250 109 415 -2112
2022-06-21 20:16:48 GMT 41.150070 -76.076050 18,500 109 415 -2048
2022-06-21 20:16:42 GMT 41.154507 -76.092247 18,575 109 417 -2112
2022-06-21 20:16:39 GMT 41.155884 -76.097412 18,650 109 417 -2112
2022-06-21 20:16:34 GMT 41.158859 -76.108276 18,900 109 419 -2176
2022-06-21 20:16:31 GMT 41.161022 -76.116089 18,975 109 420 -2176
2022-06-21 20:16:27 GMT 41.164330 -76.128197 19,125 109 421 -2176
2022-06-21 20:16:24 GMT 41.165958 -76.134193 19,275 109 421 -2176
2022-06-21 20:16:20 GMT 41.168427 -76.143181 19,325 109 421 -2176
2022-06-21 20:16:16 GMT 41.172939 -76.159721 19,600 109 421 -2176
2022-06-21 20:16:13 GMT 41.172939 -76.159721 19,575 109 422 -2176
2022-06-21 20:16:10 GMT 41.174927 -76.167114 19,700 109 423 -2176
2022-06-21 20:16:07 GMT 41.176758 -76.173828 19,850 109 424 -2176
2022-06-21 20:16:02 GMT 41.180191 -76.186401 20,075 109 425 -2112
2022-06-21 20:15:59 GMT 41.182205 -76.193619 20,200 109 426 -2048
2022-06-21 20:15:52 GMT 41.186600 -76.209717 20,400 109 427 -2112
2022-06-21 20:15:49 GMT 41.189484 -76.220520 20,475 109 427 -2176
2022-06-21 20:15:46 GMT 41.190865 -76.225578 20,550 109 427 -2240
2022-06-21 20:15:42 GMT 41.193512 -76.235291 20,775 109 427 -2240
2022-06-21 20:15:39 GMT 41.195480 -76.242676 20,800 109 427 -2240
2022-06-21 20:15:36 GMT 41.196774 -76.247490 20,950 109 428 -2112
2022-06-21 20:15:34 GMT 41.198776 -76.254913 21,000 109 429 -2112
2022-06-21 20:15:32 GMT 41.200405 -76.260849 21,075 109 429 -2112
2022-06-21 20:15:30 GMT 41.202164 -76.267395 21,175 109 430 -2112
2022-06-21 20:15:27 GMT 41.203491 -76.272339 21,225 109 430 -2112
2022-06-21 20:15:25 GMT 41.204269 -76.275208 21,275 109 430 -2112
2022-06-21 20:15:21 GMT 41.207886 -76.288513 21,575 109 432 -2112
2022-06-21 20:15:18 GMT 41.209946 -76.296204 21,825 109 432 -2112
2022-06-21 20:15:14 GMT 41.211720 -76.302795 21,725 109 432 -2048
2022-06-21 20:15:11 GMT 41.214478 -76.312866 21,800 109 433 -2048
2022-06-21 20:15:08 GMT 41.216049 -76.318779 22,125 109 434 -2048
2022-06-21 20:15:05 GMT 41.218281 -76.327019 22,125 109 434 -2048
2022-06-21 20:15:02 GMT 41.220051 -76.333504 22,075 109 434 -2112
2022-06-21 20:15:00 GMT 41.221775 -76.340065 22,175 109 435 -2048
2022-06-21 20:14:56 GMT 41.224869 -76.351440 22,350 109 436 -2112
2022-06-21 20:14:51 GMT 41.228073 -76.363281 22,550 109 436 -2112
2022-06-21 20:14:48 GMT 41.231037 -76.374207 22,650 109 437 -2176
2022-06-21 20:14:42 GMT 41.233795 -76.384460 22,850 109 437 -2176
2022-06-21 20:14:39 GMT 41.236588 -76.394836 23,050 109 438 -2176
2022-06-21 20:14:36 GMT 41.237823 -76.399353 23,025 109 438 -2176
2022-06-21 20:14:31 GMT 41.241623 -76.413269 23,375 109 439 -2176
2022-06-21 20:14:27 GMT 41.244415 -76.423706 23,450 109 440 -2176
2022-06-21 20:14:24 GMT 41.246017 -76.429504 23,450 109 441 -2112
2022-06-21 20:14:21 GMT 41.247986 -76.436890 23,550 109 440 -2176
2022-06-21 20:14:19 GMT 41.249752 -76.443367 23,650 109 441 -2112
2022-06-21 20:14:16 GMT 41.251755 -76.450798 24,100 109 443 -2048
2022-06-21 20:14:11 GMT 41.255035 -76.462952 23,900 109 444 -2112
2022-06-21 20:14:09 GMT 41.259109 -76.478027 24,050 109 444 -2112
2022-06-21 20:14:06 GMT 41.259109 -76.478027 24,200 109 444 -2112
2022-06-21 20:14:00 GMT 41.262226 -76.489754 25,175 109 448 -2112
2022-06-21 20:13:58 GMT 41.264091 -76.496681 24,375 109 445 -2240
2022-06-21 20:13:54 GMT 41.266834 -76.506981 24,675 109 446 -2240
2022-06-21 20:13:51 GMT 41.269318 -76.516113 24,675 109 446 -2240
2022-06-21 20:13:49 GMT 41.270645 -76.521057 24,725 109 446 -2240
2022-06-21 20:13:46 GMT 41.275452 -76.539124 24,975 109 448 -2112
2022-06-21 20:13:42 GMT 41.275452 -76.539124 24,975 109 448 -2112
2022-06-21 20:13:38 GMT 41.278290 -76.549683 25,100 109 447 -2176
2022-06-21 20:13:34 GMT 41.281769 -76.562622 25,325 109 448 -2112
2022-06-21 20:13:26 GMT 41.286575 -76.580566 25,575 109 449 -2176
2022-06-21 20:13:23 GMT 41.288635 -76.588379 25,700 109 449 -2176
2022-06-21 20:13:18 GMT 41.291462 -76.598930 25,975 109 451 -2176
2022-06-21 20:13:15 GMT 41.294537 -76.610352 25,975 109 451 -2176
2022-06-21 20:13:12 GMT 41.296005 -76.616028 26,050 109 453 -2176
2022-06-21 20:13:07 GMT 41.299656 -76.629448 26,225 109 453 -2176
2022-06-21 20:13:03 GMT 41.303192 -76.642700 26,500 109 454 -2240
2022-06-21 20:12:57 GMT 41.306122 -76.653748 26,625 109 455 -2176
2022-06-21 20:12:54 GMT 41.310829 -76.671211 27,000 109 456 -2112
2022-06-21 20:12:51 GMT 41.310829 -76.671211 28,175 107 459 -2112
2022-06-21 20:12:46 GMT 41.313763 -76.682014 27,000 109 457 -2112
2022-06-21 20:12:43 GMT 41.317112 -76.694435 27,275 109 458 -2112
2022-06-21 20:12:37 GMT 41.320587 -76.707214 27,400 109 458 -2176
2022-06-21 20:12:35 GMT 41.322002 -76.712410 27,375 109 458 -2240
2022-06-21 20:12:33 GMT 41.324249 -76.720703 27,575 109 458 -2240
2022-06-21 20:12:30 GMT 41.325726 -76.726143 27,575 109 458 -2240
2022-06-21 20:12:27 GMT 41.328049 -76.734802 27,700 109 459 -2176
2022-06-21 20:12:25 GMT 41.329540 -76.740250 27,775 109 459 -2176
2022-06-21 20:12:20 GMT 41.333405 -76.755005 27,975 106 459 -2112
2022-06-21 20:12:17 GMT 41.334988 -76.761597 28,050 106 459 -2112
2022-06-21 20:12:15 GMT 41.335785 -76.765259 28,100 105 459 -2112
2022-06-21 20:12:11 GMT 41.338348 -76.777161 28,300 103 458 -2112
2022-06-21 20:12:08 GMT 41.339905 -76.785339 28,375 101 458 -2048
2022-06-21 20:12:04 GMT 41.341873 -76.796936 28,500 101 458 -2048
2022-06-21 20:12:00 GMT 41.343704 -76.808777 28,650 101 459 -2048
2022-06-21 20:11:56 GMT 41.344997 -76.817467 28,775 101 459 -2048
2022-06-21 20:11:54 GMT 41.345837 -76.823021 28,850 101 460 -2112
2022-06-21 20:11:49 GMT 41.347778 -76.836182 29,100 101 461 -2112
2022-06-21 20:11:45 GMT 41.349930 -76.850403 29,200 101 461 -2112
2022-06-21 20:11:38 GMT 41.353050 -76.871086 29,450 101 463 -2176
2022-06-21 20:11:35 GMT 41.353889 -76.876709 29,525 101 464 -2176
2022-06-21 20:11:33 GMT 41.354679 -76.882011 30,275 101 467 -1984
2022-06-21 20:11:29 GMT 41.356403 -76.893433 29,775 101 464 -2240
2022-06-21 20:11:24 GMT 41.358498 -76.907417 29,925 101 465 -2240
2022-06-21 20:11:19 GMT 41.360779 -76.922585 30,125 101 466 -2176
2022-06-21 20:11:15 GMT 41.362244 -76.932251 30,250 101 467 -2112
2022-06-21 20:11:13 GMT 41.363342 -76.939575 30,350 101 467 -1984
2022-06-21 20:11:08 GMT 41.365295 -76.952736 30,550 101 475 -2112
2022-06-21 20:11:05 GMT 41.366592 -76.961365 31,125 101 476 -2112
2022-06-21 20:11:02 GMT 41.367599 -76.968140 30,675 101 472 -2048
2022-06-21 20:10:59 GMT 41.369576 -76.981323 30,850 101 473 -1984
2022-06-21 20:10:56 GMT 41.370693 -76.988441 30,975 101 474 -1984
2022-06-21 20:10:53 GMT 41.371353 -76.992859 30,975 101 474 -1984
2022-06-21 20:10:51 GMT 41.372326 -76.999550 31,050 101 475 -2112
2022-06-21 20:10:48 GMT 41.373779 -77.009155 31,150 101 475 -2112
2022-06-21 20:10:45 GMT 41.375118 -77.018158 31,300 101 476 -2048
2022-06-21 20:10:42 GMT 41.376160 -77.025208 31,350 101 475 -2048
2022-06-21 20:10:38 GMT 41.378403 -77.040100 31,550 101 476 -2112
2022-06-21 20:10:35 GMT 41.379913 -77.050476 31,675 101 476 -1920
2022-06-21 20:10:32 GMT 41.380516 -77.054611 31,700 101 476 -1792
2022-06-21 20:10:30 GMT 41.381561 -77.061646 31,825 101 475 -1536
2022-06-21 20:10:27 GMT 41.384102 -77.079018 31,875 101 475 -1280
2022-06-21 20:10:24 GMT 41.384102 -77.079018 31,900 101 475 -960
2022-06-21 20:10:22 GMT 41.384995 -77.084900 31,950 101 475 -1024
2022-06-21 20:10:20 GMT 41.386196 -77.093063 32,175 101 474 -896
2022-06-21 20:10:17 GMT 41.387405 -77.101410 32,050 101 475 -960
2022-06-21 20:10:13 GMT 41.388988 -77.112015 32,100 101 474 -896
2022-06-21 20:10:10 GMT 41.389801 -77.117592 32,150 101 474 -896
2022-06-21 20:10:08 GMT 41.390991 -77.125587 32,175 101 472 -832
2022-06-21 20:10:05 GMT 41.391815 -77.131012 32,200 101 473 -896
2022-06-21 20:10:02 GMT 41.393040 -77.139420 32,250 101 472 -896
2022-06-21 20:09:59 GMT 41.394745 -77.150993 32,325 101 472 -832
2022-06-21 20:09:56 GMT 41.396065 -77.159981 32,375 101 471 -832
2022-06-21 20:09:51 GMT 41.398041 -77.173462 32,425 101 470 -896
2022-06-21 20:09:48 GMT 41.400440 -77.189491 32,525 101 470 -960
2022-06-21 20:09:45 GMT 41.400440 -77.189491 32,525 101 470 -960
2022-06-21 20:09:43 GMT 41.401558 -77.197159 32,575 101 470 -1024
2022-06-21 20:09:41 GMT 41.402252 -77.201866 32,600 101 469 -1024
2022-06-21 20:09:39 GMT 41.403095 -77.207634 32,625 101 469 -1024
2022-06-21 20:09:35 GMT 41.404957 -77.220093 32,700 101 469 -1024
2022-06-21 20:09:32 GMT 41.405746 -77.225517 32,775 101 470 -960
2022-06-21 20:09:30 GMT 41.406864 -77.233185 32,775 101 470 -960
2022-06-21 20:09:27 GMT 41.408497 -77.244232 32,825 101 469 -832
2022-06-21 20:09:24 GMT 41.409302 -77.249741 32,850 101 469 -768
2022-06-21 20:09:20 GMT 41.410812 -77.259918 32,900 101 469 -512
2022-06-21 20:09:17 GMT 41.412689 -77.272713 32,925 101 468 -256
2022-06-21 20:09:14 GMT 41.413338 -77.277069 32,950 101 468 -256
2022-06-21 20:09:12 GMT 41.414127 -77.282433 32,950 101 468 -192
2022-06-21 20:09:10 GMT 41.415337 -77.290604 32,975 101 468 -64
2022-06-21 20:09:07 GMT 41.417435 -77.305038 32,950 101 468 -64
2022-06-21 20:09:04 GMT 41.417435 -77.305038 32,975 101 468 -64
2022-06-21 20:09:01 GMT 41.418736 -77.313789 32,975 101 468 -64
2022-06-21 20:08:58 GMT 41.420506 -77.325676 32,975 101 467 -64
2022-06-21 20:08:55 GMT 41.421204 -77.330582 32,975 101 467 -64
2022-06-21 20:08:52 GMT 41.422714 -77.340752 32,975 101 467 -64
2022-06-21 20:08:48 GMT 41.424183 -77.350777 32,975 101 467 -64
2022-06-21 20:08:45 GMT 41.425461 -77.359360 32,975 101 467 -64
2022-06-21 20:08:42 GMT 41.426884 -77.368851 32,975 100 467 -64
2022-06-21 20:08:39 GMT 41.427887 -77.375771 33,000 100 467 -64
2022-06-21 20:08:36 GMT 41.430653 -77.394783 33,000 100 467 -64
2022-06-21 20:08:33 GMT 41.430653 -77.394783 33,000 100 467 -64
2022-06-21 20:08:30 GMT 41.431629 -77.401558 33,000 100 467 -64
2022-06-21 20:08:28 GMT 41.432556 -77.407608 33,000 100 470 0
2022-06-21 20:08:26 GMT 41.433399 -77.413437 33,000 100 467 -64
2022-06-21 20:08:24 GMT 41.435760 -77.429642 33,000 100 467 0
2022-06-21 20:08:20 GMT 41.435760 -77.429642 33,000 100 468 0
2022-06-21 20:08:18 GMT 41.436584 -77.435570 33,000 100 468 0
2022-06-21 20:08:15 GMT 41.438290 -77.447289 33,000 100 468 0
2022-06-21 20:08:12 GMT 41.439102 -77.452805 33,000 100 468 0
2022-06-21 20:08:09 GMT 41.440895 -77.465111 33,000 100 468 0
2022-06-21 20:08:07 GMT 41.440895 -77.465111 33,000 100 470 0
2022-06-21 20:08:05 GMT 41.441689 -77.470734 33,000 100 468 0
2022-06-21 20:08:02 GMT 41.443596 -77.483765 33,000 100 468 0
2022-06-21 20:07:59 GMT 41.444527 -77.490280 33,000 100 468 0
2022-06-21 20:07:57 GMT 41.445271 -77.495323 33,000 100 469 0
2022-06-21 20:07:55 GMT 41.445877 -77.499741 33,000 100 469 0
2022-06-21 20:07:51 GMT 41.447365 -77.510078 33,000 100 469 0
2022-06-21 20:07:48 GMT 41.448578 -77.518570 33,000 100 469 0
2022-06-21 20:07:46 GMT 41.449413 -77.524513 33,000 100 469 0
2022-06-21 20:07:42 GMT 41.451603 -77.539520 33,000 100 469 0
2022-06-21 20:07:38 GMT 41.453201 -77.550995 33,000 100 470 0
2022-06-21 20:07:35 GMT 41.454300 -77.558670 33,000 100 470 0
2022-06-21 20:07:31 GMT 41.455791 -77.569031 33,000 100 470 0
2022-06-21 20:07:28 GMT 41.457047 -77.577705 33,000 100 470 0
2022-06-21 20:07:26 GMT 41.457596 -77.581642 33,000 100 470 0
2022-06-21 20:07:22 GMT 41.459427 -77.594749 33,000 100 471 0
2022-06-21 20:07:19 GMT 41.460663 -77.603241 33,000 100 471 0
2022-06-21 20:07:16 GMT 41.461807 -77.611542 33,000 100 471 0
2022-06-21 20:07:13 GMT 41.462868 -77.618790 33,000 100 470 0
2022-06-21 20:07:10 GMT 41.465515 -77.637383 33,000 100 470 64
2022-06-21 20:07:07 GMT 41.466454 -77.644089 33,000 100 470 64
2022-06-21 20:07:02 GMT 41.467663 -77.652580 33,000 100 470 0
2022-06-21 20:06:59 GMT 41.468857 -77.660980 33,000 100 470 0
2022-06-21 20:06:55 GMT 41.470734 -77.674339 33,000 100 469 -64
2022-06-21 20:06:51 GMT 41.471786 -77.681702 33,000 100 469 -64
2022-06-21 20:06:47 GMT 41.473202 -77.691483 33,000 100 469 -64
2022-06-21 20:06:45 GMT 41.474415 -77.699974 33,000 100 469 -64
2022-06-21 20:06:41 GMT 41.477325 -77.720222 33,000 100 468 0
2022-06-21 20:06:38 GMT 41.477325 -77.720222 33,000 100 467 0
2022-06-21 20:06:35 GMT 41.478508 -77.728271 33,000 100 467 0
2022-06-21 20:06:33 GMT 41.479248 -77.733513 33,000 100 467 0
2022-06-21 20:06:28 GMT 41.481400 -77.748184 33,000 100 467 64
2022-06-21 20:06:24 GMT 41.483303 -77.761040 33,000 100 467 0
2022-06-21 20:06:21 GMT 41.484375 -77.768387 33,000 100 468 0
2022-06-21 20:06:17 GMT 41.485817 -77.778603 33,000 101 468 0
2022-06-21 20:06:13 GMT 41.487625 -77.790878 33,000 101 469 0
2022-06-21 20:06:10 GMT 41.489079 -77.800644 33,000 101 469 -64
2022-06-21 20:06:07 GMT 41.491405 -77.816544 33,000 101 469 -64
2022-06-21 20:06:04 GMT 41.491405 -77.816544 33,000 101 469 -64
2022-06-21 20:06:02 GMT 41.492386 -77.823219 33,000 101 470 0
2022-06-21 20:05:59 GMT 41.493210 -77.828896 33,000 101 470 0
2022-06-21 20:05:55 GMT 41.495361 -77.843246 33,000 101 471 0
2022-06-21 20:05:52 GMT 41.496616 -77.851738 33,000 101 471 0
2022-06-21 20:05:49 GMT 41.497559 -77.858170 33,000 101 471 0
2022-06-21 20:05:47 GMT 41.498611 -77.865288 33,000 100 472 0
2022-06-21 20:05:43 GMT 41.500259 -77.876709 33,000 100 473 64
2022-06-21 20:05:39 GMT 41.502018 -77.888847 33,000 100 474 64
2022-06-21 20:05:35 GMT 41.503281 -77.897812 33,000 100 473 64
2022-06-21 20:05:32 GMT 41.505371 -77.912933 32,975 100 474 64
2022-06-21 20:05:27 GMT 41.506348 -77.920219 33,000 99 475 0
2022-06-21 20:05:25 GMT 41.507607 -77.929604 32,975 99 475 0
2022-06-21 20:05:22 GMT 41.508720 -77.938225 32,975 99 476 -64
2022-06-21 20:05:19 GMT 41.509415 -77.943878 33,000 99 470 -1152
2022-06-21 20:05:16 GMT 41.510818 -77.955276 33,000 99 476 -64
2022-06-21 20:05:12 GMT 41.511932 -77.964226 33,000 99 476 -64
2022-06-21 20:05:10 GMT 41.514038 -77.981392 33,025 99 472 -832
2022-06-21 20:05:06 GMT 41.515182 -77.990379 33,050 99 474 -320
2022-06-21 20:05:04 GMT 41.515182 -77.990379 33,025 99 474 -320
2022-06-21 20:05:01 GMT 41.515869 -77.996124 33,050 99 473 -384
2022-06-21 20:04:59 GMT 41.516544 -78.001717 33,075 99 473 -640
2022-06-21 20:04:56 GMT 41.517792 -78.011604 33,100 99 472 -768
2022-06-21 20:04:54 GMT 41.518639 -78.018646 33,200 99 472 -1088
2022-06-21 20:04:51 GMT 41.519485 -78.025398 33,175 99 471 -1152
2022-06-21 20:04:49 GMT 41.520222 -78.031548 33,350 99 471 -1152
2022-06-21 20:04:45 GMT 41.521683 -78.043442 33,300 99 470 -1152
2022-06-21 20:04:41 GMT 41.523010 -78.054306 33,400 99 470 -1152
2022-06-21 20:04:39 GMT 41.523571 -78.059013 33,400 99 470 -1152
2022-06-21 20:04:37 GMT 41.525341 -78.073509 33,475 99 469 -1152
2022-06-21 20:04:34 GMT 41.525341 -78.073509 33,550 99 469 -1216
2022-06-21 20:04:31 GMT 41.526581 -78.083641 33,575 99 468 -1216
2022-06-21 20:04:28 GMT 41.527451 -78.090759 33,675 99 468 -1216
2022-06-21 20:04:23 GMT 41.529465 -78.107491 33,750 99 467 -1216
2022-06-21 20:04:20 GMT 41.530182 -78.113304 33,775 99 467 -1216
2022-06-21 20:04:17 GMT 41.531433 -78.123405 33,850 99 465 -1216
2022-06-21 20:04:14 GMT 41.532276 -78.130356 33,900 99 465 -1216
2022-06-21 20:04:10 GMT 41.533859 -78.143646 34,000 99 464 -1152
2022-06-21 20:04:07 GMT 41.534698 -78.150414 34,025 99 464 -1088
2022-06-21 20:04:03 GMT 41.535862 -78.160057 34,125 99 463 -1088
2022-06-21 20:04:00 GMT 41.537292 -78.172035 34,175 99 462 -1024
2022-06-21 20:03:57 GMT 41.538300 -78.180458 34,225 99 462 -1024
2022-06-21 20:03:54 GMT 41.538895 -78.185516 34,250 99 462 -1024
2022-06-21 20:03:52 GMT 41.539913 -78.193787 34,325 99 461 -1024
2022-06-21 20:03:49 GMT 41.540771 -78.200996 34,350 99 461 -1024
2022-06-21 20:03:47 GMT 41.542286 -78.213715 34,400 99 461 -1152
2022-06-21 20:03:44 GMT 41.542286 -78.213715 34,450 99 461 -1152
2022-06-21 20:03:42 GMT 41.542923 -78.218910 34,475 99 461 -1152
2022-06-21 20:03:39 GMT 41.544056 -78.228279 34,525 98 461 -1152
2022-06-21 20:03:37 GMT 41.544521 -78.232491 34,550 98 461 -1152
2022-06-21 20:03:34 GMT 41.546059 -78.245461 34,650 98 461 -1280
2022-06-21 20:03:31 GMT 41.546940 -78.252739 34,800 98 462 -1216
2022-06-21 20:03:28 GMT 41.547775 -78.259918 34,750 98 462 -1216
2022-06-21 20:03:25 GMT 41.548737 -78.267792 34,850 98 462 -1216
2022-06-21 20:03:22 GMT 41.549927 -78.277901 34,900 98 463 -960
2022-06-21 20:03:19 GMT 41.550934 -78.286636 34,925 98 463 -960
2022-06-21 20:03:17 GMT 41.552719 -78.301559 35,000 98 463 -768
2022-06-21 20:03:13 GMT 41.552719 -78.301559 35,000 98 463 -512
2022-06-21 20:03:10 GMT 41.555328 -78.323845 35,025 98 463 -128
2022-06-21 20:03:06 GMT 41.555328 -78.323845 35,025 98 463 0
2022-06-21 20:03:03 GMT 41.556347 -78.332458 35,025 98 463 0
2022-06-21 20:02:58 GMT 41.558487 -78.350685 35,025 98 464 0
2022-06-21 20:02:52 GMT 41.559631 -78.360550 35,025 98 464 0
2022-06-21 20:02:50 GMT 41.560349 -78.366310 35,025 98 464 0
2022-06-21 20:02:46 GMT 41.561604 -78.377037 35,025 98 464 0
2022-06-21 20:02:44 GMT 41.562630 -78.385536 35,025 98 464 0
2022-06-21 20:02:41 GMT 41.563477 -78.392693 35,025 98 464 0
2022-06-21 20:02:36 GMT 41.565235 -78.407509 35,025 99 464 0
2022-06-21 20:02:33 GMT 41.566120 -78.415169 35,025 99 464 0
2022-06-21 20:02:29 GMT 41.567734 -78.428589 35,025 99 464 0
2022-06-21 20:02:25 GMT 41.568924 -78.438759 35,025 99 464 0
2022-06-21 20:02:21 GMT 41.570126 -78.448769 35,025 99 464 0
2022-06-21 20:02:18 GMT 41.571075 -78.456802 35,025 99 464 -64
2022-06-21 20:02:15 GMT 41.571991 -78.464729 35,025 99 464 0
2022-06-21 20:02:11 GMT 41.573593 -78.477966 35,025 99 463 0
2022-06-21 20:02:08 GMT 41.575806 -78.496742 35,025 99 463 0
2022-06-21 20:02:05 GMT 41.576477 -78.502556 35,025 99 463 0
2022-06-21 20:02:02 GMT 41.577759 -78.513412 35,025 98 461 0
2022-06-21 20:01:59 GMT 41.577759 -78.513412 35,025 98 463 0
2022-06-21 20:01:55 GMT 41.578766 -78.521721 35,025 98 463 0
2022-06-21 20:01:52 GMT 41.580505 -78.536530 35,025 98 463 0
2022-06-21 20:01:46 GMT 41.582108 -78.549934 35,025 98 463 0
2022-06-21 20:01:43 GMT 41.583984 -78.566040 35,025 98 463 0
2022-06-21 20:01:40 GMT 41.583984 -78.566040 35,025 98 463 0
2022-06-21 20:01:37 GMT 41.584972 -78.574348 35,025 98 464 0
2022-06-21 20:01:34 GMT 41.585766 -78.580864 35,025 98 464 0
2022-06-21 20:01:31 GMT 41.586697 -78.589035 35,025 98 463 64
2022-06-21 20:01:29 GMT 41.587189 -78.593132 35,025 98 463 64
2022-06-21 20:01:26 GMT 41.588699 -78.605965 35,025 98 463 64
2022-06-21 20:01:23 GMT 41.590096 -78.617844 35,025 98 463 64
2022-06-21 20:01:21 GMT 41.590096 -78.617844 35,025 98 463 64
2022-06-21 20:01:19 GMT 41.590794 -78.623787 35,025 98 463 0
2022-06-21 20:01:16 GMT 41.591537 -78.629982 35,025 98 463 0
2022-06-21 20:01:13 GMT 41.592842 -78.641541 35,025 98 463 0
2022-06-21 20:01:10 GMT 41.593872 -78.650436 35,025 98 463 0
2022-06-21 20:01:07 GMT 41.595886 -78.667915 35,025 98 463 0
2022-06-21 20:01:03 GMT 41.595886 -78.667915 35,025 98 463 64
2022-06-21 20:01:00 GMT 41.596844 -78.676292 35,025 98 463 64
2022-06-21 20:00:57 GMT 41.598175 -78.687706 35,000 98 463 64
2022-06-21 20:00:53 GMT 41.599125 -78.696030 35,025 98 463 64
2022-06-21 20:00:51 GMT 41.599731 -78.701393 35,000 98 463 0
2022-06-21 20:00:49 GMT 41.600758 -78.710144 35,000 98 463 64
2022-06-21 20:00:46 GMT 41.602524 -78.725533 35,000 98 463 0
2022-06-21 20:00:43 GMT 41.602524 -78.725533 35,000 98 463 64
2022-06-21 20:00:40 GMT 41.603317 -78.732689 35,000 98 463 64
2022-06-21 20:00:38 GMT 41.604309 -78.741013 35,000 98 463 64
2022-06-21 20:00:33 GMT 41.605923 -78.754982 35,000 98 463 64
2022-06-21 20:00:30 GMT 41.606735 -78.762169 35,000 98 463 0
2022-06-21 20:00:28 GMT 41.607651 -78.769791 35,000 98 463 0
2022-06-21 20:00:25 GMT 41.608391 -78.776123 35,000 98 463 0
2022-06-21 20:00:22 GMT 41.609226 -78.783470 35,000 98 463 0
2022-06-21 20:00:20 GMT 41.610065 -78.790817 35,000 98 463 0
2022-06-21 20:00:17 GMT 41.610901 -78.798004 35,000 98 463 0
2022-06-21 20:00:10 GMT 41.613510 -78.820534 34,975 98 462 0
2022-06-21 20:00:07 GMT 41.614582 -78.829971 34,975 98 462 0
2022-06-21 20:00:02 GMT 41.616070 -78.842934 35,000 98 462 0
2022-06-21 19:59:59 GMT 41.616760 -78.848999 35,000 98 461 0
2022-06-21 19:59:57 GMT 41.617702 -78.857307 34,975 98 461 0
2022-06-21 19:59:52 GMT 41.619370 -78.871788 34,975 98 461 0
2022-06-21 19:59:49 GMT 41.620331 -78.879898 34,975 98 461 0
2022-06-21 19:59:46 GMT 41.620926 -78.885269 34,975 98 461 0
2022-06-21 19:59:43 GMT 41.621796 -78.892570 34,975 98 461 0
2022-06-21 19:59:40 GMT 41.623241 -78.905342 34,975 98 461 0
2022-06-21 19:59:37 GMT 41.625092 -78.921471 35,000 98 461 -64
2022-06-21 19:59:34 GMT 41.625092 -78.921471 35,000 98 461 -64
2022-06-21 19:59:31 GMT 41.626144 -78.930466 35,000 98 460 -64
2022-06-21 19:59:28 GMT 41.626602 -78.934708 35,000 98 460 0
2022-06-21 19:59:25 GMT 41.628113 -78.947876 35,000 98 460 0
2022-06-21 19:59:20 GMT 41.629349 -78.959114 35,000 98 460 0
2022-06-21 19:59:17 GMT 41.630642 -78.970428 35,000 98 460 0
2022-06-21 19:59:14 GMT 41.631016 -78.973495 35,000 98 460 0
2022-06-21 19:59:11 GMT 41.632141 -78.983459 35,000 98 460 0
2022-06-21 19:59:08 GMT 41.633011 -78.991325 34,975 98 460 0
2022-06-21 19:59:05 GMT 41.634319 -79.003006 34,975 98 460 64
2022-06-21 19:59:00 GMT 41.636169 -79.019417 34,975 98 461 0
2022-06-21 19:58:55 GMT 41.637440 -79.030472 34,975 98 461 0
2022-06-21 19:58:52 GMT 41.638184 -79.037392 34,975 98 461 0
2022-06-21 19:58:49 GMT 41.639114 -79.045670 34,975 98 461 0
2022-06-21 19:58:46 GMT 41.640106 -79.054184 34,975 98 461 0
2022-06-21 19:58:44 GMT 41.641022 -79.062363 34,975 98 461 -64
2022-06-21 19:58:40 GMT 41.641983 -79.071037 35,000 98 461 -64
2022-06-21 19:58:37 GMT 41.642944 -79.079468 35,000 98 460 -64
2022-06-21 19:58:34 GMT 41.644051 -79.089424 35,000 98 460 -64
2022-06-21 19:58:31 GMT 41.644821 -79.096008 35,000 98 460 -64
2022-06-21 19:58:27 GMT 41.646095 -79.107437 35,000 98 460 0
2022-06-21 19:58:25 GMT 41.646835 -79.113983 35,000 98 460 0
2022-06-21 19:58:22 GMT 41.647980 -79.124413 35,000 98 460 0
2022-06-21 19:58:19 GMT 41.648472 -79.128708 35,000 98 460 0
2022-06-21 19:58:17 GMT 41.649216 -79.135582 35,000 98 460 0
2022-06-21 19:58:15 GMT 41.649776 -79.140526 35,000 98 460 0
2022-06-21 19:58:11 GMT 41.651276 -79.154121 35,000 98 461 0
2022-06-21 19:58:08 GMT 41.652241 -79.162689 35,000 98 461 0
2022-06-21 19:58:05 GMT 41.652878 -79.168480 35,000 98 461 0
2022-06-21 19:58:02 GMT 41.653919 -79.177895 35,000 98 460 0
2022-06-21 19:57:58 GMT 41.655304 -79.190392 35,000 98 460 0
2022-06-21 19:57:55 GMT 41.656292 -79.199226 35,000 98 460 0
2022-06-21 19:57:52 GMT 41.657227 -79.207802 35,000 98 461 0
2022-06-21 19:57:49 GMT 41.658154 -79.216148 35,000 98 461 0
2022-06-21 19:57:47 GMT 41.658829 -79.222160 35,000 98 461 0
2022-06-21 19:57:44 GMT 41.659458 -79.227966 35,000 98 461 0
2022-06-21 19:57:41 GMT 41.660809 -79.240364 35,000 98 461 0
2022-06-21 19:57:38 GMT 41.661209 -79.244133 35,000 98 461 0
2022-06-21 19:57:35 GMT 41.662205 -79.253006 35,000 98 461 0
2022-06-21 19:57:33 GMT 41.662674 -79.257370 35,000 98 461 0
2022-06-21 19:57:29 GMT 41.664322 -79.272285 35,000 98 461 0
2022-06-21 19:57:26 GMT 41.665138 -79.279518 35,000 98 461 0
2022-06-21 19:57:23 GMT 41.666107 -79.288391 35,000 98 461 0
2022-06-21 19:57:20 GMT 41.666859 -79.295227 35,000 98 461 0
2022-06-21 19:57:17 GMT 41.667885 -79.304558 35,000 98 461 0
2022-06-21 19:57:14 GMT 41.668762 -79.312614 35,000 98 461 0
2022-06-21 19:57:11 GMT 41.669838 -79.322571 35,000 98 461 0
2022-06-21 19:57:08 GMT 41.670639 -79.329781 35,000 98 461 0
2022-06-21 19:57:06 GMT 41.672241 -79.344444 35,000 98 461 0
2022-06-21 19:57:03 GMT 41.672241 -79.344444 35,000 98 461 0
2022-06-21 19:57:00 GMT 41.673283 -79.353546 35,000 98 461 0
2022-06-21 19:56:57 GMT 41.674255 -79.362427 35,000 98 461 0
2022-06-21 19:56:53 GMT 41.676216 -79.380310 35,000 98 461 -64
2022-06-21 19:56:50 GMT 41.676216 -79.380310 35,000 98 461 -64
2022-06-21 19:56:47 GMT 41.677414 -79.391449 35,000 98 461 -64
2022-06-21 19:56:44 GMT 41.678173 -79.398384 35,000 98 461 -64
2022-06-21 19:56:41 GMT 41.678963 -79.405411 35,000 98 461 -64
2022-06-21 19:56:38 GMT 41.680206 -79.416794 35,025 98 461 -64
2022-06-21 19:56:35 GMT 41.680618 -79.420792 35,025 98 461 -128
2022-06-21 19:56:32 GMT 41.681896 -79.432175 35,025 98 461 -128
2022-06-21 19:56:27 GMT 41.683434 -79.446289 35,025 98 461 -64
2022-06-21 19:56:24 GMT 41.684235 -79.453438 35,025 98 461 -64
2022-06-21 19:56:21 GMT 41.685108 -79.461494 35,050 98 461 0
2022-06-21 19:56:17 GMT 41.686600 -79.475288 35,025 98 461 0
2022-06-21 19:56:14 GMT 41.687256 -79.481339 35,025 98 461 0
2022-06-21 19:56:11 GMT 41.688400 -79.491760 35,050 98 461 0
2022-06-21 19:56:06 GMT 41.690228 -79.508308 35,025 98 462 0
2022-06-21 19:56:03 GMT 41.690735 -79.512924 35,050 98 462 0
2022-06-21 19:55:59 GMT 41.692276 -79.527222 35,025 98 462 64
2022-06-21 19:55:56 GMT 41.692883 -79.533157 35,025 98 462 64
2022-06-21 19:55:53 GMT 41.693893 -79.542580 35,025 98 463 64
2022-06-21 19:55:50 GMT 41.694763 -79.550507 35,025 98 463 64
2022-06-21 19:55:46 GMT 41.696045 -79.562424 35,025 98 463 64
2022-06-21 19:55:43 GMT 41.697121 -79.572441 35,025 98 463 64
2022-06-21 19:55:40 GMT 41.697739 -79.577972 35,025 98 463 64
2022-06-21 19:55:37 GMT 41.698700 -79.587021 35,025 98 463 64
2022-06-21 19:55:33 GMT 41.699844 -79.597816 35,000 98 464 64
2022-06-21 19:55:30 GMT 41.701721 -79.615112 35,000 98 464 64
2022-06-21 19:55:27 GMT 41.701721 -79.615112 35,000 98 464 64
2022-06-21 19:55:23 GMT 41.704147 -79.637657 35,000 98 464 64
2022-06-21 19:55:19 GMT 41.704147 -79.637657 35,000 98 464 64
2022-06-21 19:55:16 GMT 41.704891 -79.644424 35,000 98 464 64
2022-06-21 19:55:13 GMT 41.706150 -79.656052 35,000 98 464 64
2022-06-21 19:55:09 GMT 41.707500 -79.668571 35,000 98 464 0
2022-06-21 19:55:04 GMT 41.708679 -79.679466 34,975 98 464 0
2022-06-21 19:55:02 GMT 41.709274 -79.685150 34,975 98 464 0
2022-06-21 19:54:59 GMT 41.710556 -79.697067 35,000 98 464 0
2022-06-21 19:54:55 GMT 41.711784 -79.708878 35,000 98 464 0
2022-06-21 19:54:52 GMT 41.712109 -79.712006 34,975 98 464 0
2022-06-21 19:54:49 GMT 41.713413 -79.723953 35,000 98 464 -64
2022-06-21 19:54:46 GMT 41.715088 -79.740112 35,000 98 464 -64
2022-06-21 19:54:43 GMT 41.715088 -79.740112 35,000 97 464 0
2022-06-21 19:54:41 GMT 41.715878 -79.747520 35,000 97 464 0
2022-06-21 19:54:38 GMT 41.716484 -79.753204 35,000 97 464 0
2022-06-21 19:54:35 GMT 41.717331 -79.761551 34,975 97 465 64
2022-06-21 19:54:30 GMT 41.719116 -79.778595 34,975 97 465 64
2022-06-21 19:54:27 GMT 41.720116 -79.788399 34,975 97 465 64
2022-06-21 19:54:23 GMT 41.720901 -79.795639 34,975 97 465 64
2022-06-21 19:54:21 GMT 41.721634 -79.802750 34,975 97 465 0
2022-06-21 19:54:18 GMT 41.723694 -79.822662 34,975 97 465 0
2022-06-21 19:54:15 GMT 41.723694 -79.822662 34,975 97 465 0
2022-06-21 19:54:12 GMT 41.724426 -79.829529 34,975 97 465 0
2022-06-21 19:54:09 GMT 41.725113 -79.836334 34,975 98 465 0
2022-06-21 19:54:06 GMT 41.726212 -79.846886 34,975 98 465 0
2022-06-21 19:54:02 GMT 41.727722 -79.861053 34,975 98 465 -64
2022-06-21 19:54:00 GMT 41.727722 -79.861053 34,975 98 465 -64
2022-06-21 19:53:57 GMT 41.728775 -79.871040 34,975 98 465 0
2022-06-21 19:53:54 GMT 41.729553 -79.878410 34,975 98 465 -64
2022-06-21 19:53:51 GMT 41.730637 -79.888489 35,000 98 465 0
2022-06-21 19:53:47 GMT 41.731892 -79.900177 35,000 98 465 -64
2022-06-21 19:53:44 GMT 41.732758 -79.908249 35,000 98 465 -64
2022-06-21 19:53:41 GMT 41.733475 -79.914932 35,000 98 465 -64
2022-06-21 19:53:39 GMT 41.734455 -79.924004 35,000 98 465 -64
2022-06-21 19:53:34 GMT 41.735962 -79.938393 35,000 98 465 -64
2022-06-21 19:53:31 GMT 41.736740 -79.945763 35,000 98 465 -64
2022-06-21 19:53:28 GMT 41.737667 -79.954475 35,000 98 465 -64
2022-06-21 19:53:23 GMT 41.739258 -79.969673 35,000 98 465 0
2022-06-21 19:53:20 GMT 41.740173 -79.978226 35,000 97 465 0
2022-06-21 19:53:17 GMT 41.740784 -79.984367 35,000 97 465 0
2022-06-21 19:53:13 GMT 41.742275 -79.998291 35,000 97 466 0
2022-06-21 19:53:10 GMT 41.743858 -80.013939 35,000 97 466 0
2022-06-21 19:53:07 GMT 41.743858 -80.013939 35,000 97 466 0
2022-06-21 19:53:04 GMT 41.744743 -80.022499 35,000 97 466 0
2022-06-21 19:53:00 GMT 41.746124 -80.036087 35,000 97 466 0
2022-06-21 19:52:57 GMT 41.747025 -80.044472 35,000 97 466 64
2022-06-21 19:52:54 GMT 41.747768 -80.051880 35,000 97 466 64
2022-06-21 19:52:50 GMT 41.748642 -80.060616 35,000 97 466 64
2022-06-21 19:52:46 GMT 41.749878 -80.072289 35,000 97 467 0
2022-06-21 19:52:43 GMT 41.750652 -80.080177 35,000 97 467 0
2022-06-21 19:52:40 GMT 41.751617 -80.089149 35,000 97 467 0
2022-06-21 19:52:37 GMT 41.753632 -80.108871 35,000 97 467 64
2022-06-21 19:52:34 GMT 41.753632 -80.108871 35,000 97 467 -64
2022-06-21 19:52:31 GMT 41.754330 -80.115883 35,000 97 467 64
2022-06-21 19:52:28 GMT 41.755463 -80.127159 35,000 97 471 0
2022-06-21 19:52:25 GMT 41.756012 -80.132591 35,000 97 468 -64
2022-06-21 19:52:21 GMT 41.757496 -80.147049 35,000 97 468 -64
2022-06-21 19:52:17 GMT 41.758347 -80.155502 35,000 97 468 -64
2022-06-21 19:52:14 GMT 41.759079 -80.162827 35,000 97 468 0
2022-06-21 19:52:11 GMT 41.760384 -80.175735 35,000 97 468 -64
2022-06-21 19:52:08 GMT 41.762154 -80.192917 35,000 97 469 0
2022-06-21 19:52:05 GMT 41.762154 -80.192917 35,000 97 469 0
2022-06-21 19:52:01 GMT 41.763130 -80.202370 35,000 97 469 0
2022-06-21 19:51:58 GMT 41.763885 -80.209999 35,000 97 469 0
2022-06-21 19:51:55 GMT 41.764805 -80.218719 35,000 97 470 64
2022-06-21 19:51:52 GMT 41.765644 -80.227341 35,000 97 470 0
2022-06-21 19:51:49 GMT 41.767319 -80.243645 35,000 97 470 0
2022-06-21 19:51:47 GMT 41.768372 -80.254005 35,000 97 470 0
2022-06-21 19:51:44 GMT 41.768372 -80.254005 35,000 97 470 0
2022-06-21 19:51:41 GMT 41.768810 -80.258125 35,000 97 470 0
2022-06-21 19:51:37 GMT 41.770248 -80.272415 35,000 97 471 0
2022-06-21 19:51:34 GMT 41.770889 -80.279037 35,000 97 471 0
2022-06-21 19:51:31 GMT 41.771942 -80.289398 35,000 97 471 0
2022-06-21 19:51:28 GMT 41.772720 -80.296890 35,000 97 472 0
2022-06-21 19:51:26 GMT 41.773186 -80.301369 35,000 97 472 0
2022-06-21 19:51:23 GMT 41.773865 -80.308434 35,000 97 472 0
2022-06-21 19:51:20 GMT 41.774963 -80.319107 35,000 97 472 0
2022-06-21 19:51:17 GMT 41.775833 -80.327789 35,000 97 472 0
2022-06-21 19:51:14 GMT 41.776817 -80.337463 35,000 97 471 0
2022-06-21 19:51:11 GMT 41.777420 -80.343269 35,000 97 471 0
2022-06-21 19:51:08 GMT 41.778351 -80.352318 35,000 97 470 0
2022-06-21 19:51:05 GMT 41.779770 -80.366425 35,000 97 470 0
2022-06-21 19:51:02 GMT 41.780640 -80.374794 35,000 97 470 0
2022-06-21 19:50:57 GMT 41.781845 -80.386703 35,000 97 470 0
2022-06-21 19:50:54 GMT 41.782822 -80.396545 35,000 97 470 0
2022-06-21 19:50:51 GMT 41.783520 -80.403442 35,000 97 470 0
2022-06-21 19:50:48 GMT 41.785400 -80.421730 35,000 97 470 0
2022-06-21 19:50:45 GMT 41.785400 -80.421730 35,000 97 471 0
2022-06-21 19:50:42 GMT 41.786919 -80.436852 35,000 97 471 -64
2022-06-21 19:50:39 GMT 41.786919 -80.436852 35,025 97 472 -64
2022-06-21 19:50:35 GMT 41.788422 -80.452316 35,025 97 472 -192
2022-06-21 19:50:32 GMT 41.789013 -80.458244 35,025 97 473 -192
2022-06-21 19:50:27 GMT 41.791386 -80.482262 35,050 97 473 -192
2022-06-21 19:50:24 GMT 41.791386 -80.482262 35,050 97 474 -128
2022-06-21 19:50:20 GMT 41.792679 -80.495201 35,050 97 474 0
2022-06-21 19:50:16 GMT 41.793854 -80.506981 35,050 97 475 0
2022-06-21 19:50:12 GMT 41.794830 -80.516991 35,050 97 475 0
2022-06-21 19:50:09 GMT 41.796600 -80.534637 35,050 97 479 64
2022-06-21 19:50:06 GMT 41.796600 -80.534637 35,050 97 476 0
2022-06-21 19:50:02 GMT 41.797440 -80.543518 35,050 97 476 0
2022-06-21 19:49:59 GMT 41.798447 -80.553757 35,050 97 477 0
2022-06-21 19:49:56 GMT 41.799454 -80.563683 35,050 97 477 0
2022-06-21 19:49:53 GMT 41.800369 -80.573296 35,050 97 477 64
2022-06-21 19:49:49 GMT 41.801605 -80.585594 35,050 97 478 0
2022-06-21 19:49:46 GMT 41.802654 -80.596275 35,050 97 478 0
2022-06-21 19:49:41 GMT 41.803768 -80.607712 35,050 97 478 0
2022-06-21 19:49:37 GMT 41.804981 -80.619720 35,050 97 479 0
2022-06-21 19:49:34 GMT 41.805817 -80.628532 35,050 97 479 0
2022-06-21 19:49:31 GMT 41.806469 -80.634666 35,050 97 479 0
2022-06-21 19:49:28 GMT 41.807693 -80.647453 35,050 97 479 0
2022-06-21 19:49:25 GMT 41.809311 -80.663727 35,050 97 479 64
2022-06-21 19:49:22 GMT 41.809311 -80.663727 35,050 97 479 64
2022-06-21 19:49:18 GMT 41.810349 -80.674171 35,050 97 479 64
2022-06-21 19:49:14 GMT 41.811676 -80.687653 35,050 97 479 64
2022-06-21 19:49:11 GMT 41.812103 -80.692215 35,025 97 479 64
2022-06-21 19:49:08 GMT 41.813080 -80.702179 35,025 97 479 64
2022-06-21 19:49:04 GMT 41.814468 -80.716675 35,025 97 479 64
2022-06-21 19:49:01 GMT 41.815247 -80.724602 35,025 97 479 64
2022-06-21 19:48:58 GMT 41.816246 -80.734756 35,025 97 479 64
2022-06-21 19:48:54 GMT 41.817078 -80.743080 35,025 97 479 64
2022-06-21 19:48:51 GMT 41.818062 -80.753220 35,025 97 479 0
2022-06-21 19:48:47 GMT 41.819366 -80.766869 35,025 97 479 0
2022-06-21 19:48:43 GMT 41.820328 -80.776604 35,025 97 479 0
2022-06-21 19:48:40 GMT 41.821133 -80.784966 35,025 97 479 0
2022-06-21 19:48:37 GMT 41.822021 -80.793892 35,025 97 479 0
2022-06-21 19:48:33 GMT 41.823349 -80.807442 35,025 97 479 -64
2022-06-21 19:48:30 GMT 41.824219 -80.816490 35,025 97 479 -64
2022-06-21 19:48:27 GMT 41.824718 -80.821625 35,025 97 479 -64
2022-06-21 19:48:23 GMT 41.826324 -80.837898 35,025 97 478 -64
2022-06-21 19:48:20 GMT 41.826920 -80.844391 35,025 97 478 0
2022-06-21 19:48:16 GMT 41.828026 -80.855354 35,025 97 478 64
2022-06-21 19:48:12 GMT 41.829025 -80.865494 35,025 97 478 64
2022-06-21 19:48:09 GMT 41.830116 -80.876747 35,025 97 478 0
2022-06-21 19:48:06 GMT 41.830864 -80.884666 35,025 97 477 0
2022-06-21 19:48:02 GMT 41.832401 -80.900513 35,025 97 477 0
2022-06-21 19:47:59 GMT 41.833145 -80.908005 35,025 97 477 0
2022-06-21 19:47:56 GMT 41.833832 -80.915306 35,025 97 477 0
2022-06-21 19:47:51 GMT 41.834961 -80.927147 35,025 97 477 0
2022-06-21 19:47:48 GMT 41.836033 -80.938324 35,025 97 477 0
2022-06-21 19:47:45 GMT 41.836868 -80.947075 35,025 97 477 -64
2022-06-21 19:47:42 GMT 41.837894 -80.957611 35,025 97 477 0
2022-06-21 19:47:39 GMT 41.838730 -80.966431 35,025 97 476 -64
2022-06-21 19:47:36 GMT 41.839569 -80.975182 35,025 97 476 0
2022-06-21 19:47:32 GMT 41.840515 -80.985596 35,025 97 476 0
2022-06-21 19:47:29 GMT 41.841385 -80.994530 35,025 97 476 0
2022-06-21 19:47:25 GMT 41.842640 -81.007942 35,025 97 476 0
2022-06-21 19:47:19 GMT 41.844269 -81.025192 35,025 97 476 64
2022-06-21 19:47:16 GMT 41.845108 -81.033943 35,025 97 475 64
2022-06-21 19:47:13 GMT 41.845528 -81.038353 35,025 97 475 64
2022-06-21 19:47:10 GMT 41.846783 -81.052086 35,000 97 475 64
2022-06-21 19:47:07 GMT 41.847610 -81.060684 35,000 97 475 0
2022-06-21 19:47:04 GMT 41.848068 -81.065369 35,000 97 475 0
2022-06-21 19:47:01 GMT 41.850323 -81.089767 35,000 97 475 0
2022-06-21 19:46:57 GMT 41.850323 -81.089767 35,000 97 475 0
2022-06-21 19:46:54 GMT 41.851067 -81.097305 35,000 97 475 0
2022-06-21 19:46:51 GMT 41.851776 -81.105072 35,000 97 475 0
2022-06-21 19:46:48 GMT 41.852829 -81.116119 35,000 97 474 64
2022-06-21 19:46:45 GMT 41.853489 -81.123299 35,000 97 474 64
2022-06-21 19:46:42 GMT 41.854046 -81.129112 35,000 97 474 64
2022-06-21 19:46:39 GMT 41.855305 -81.142525 35,000 97 474 64
2022-06-21 19:46:36 GMT 41.856079 -81.150513 34,975 97 474 64
2022-06-21 19:46:33 GMT 41.856747 -81.157669 34,975 97 474 64
2022-06-21 19:46:30 GMT 41.857864 -81.169289 34,975 97 474 64
2022-06-21 19:46:25 GMT 41.859119 -81.182709 34,975 97 474 0
2022-06-21 19:46:22 GMT 41.859680 -81.188774 34,975 97 474 0
2022-06-21 19:46:18 GMT 41.860985 -81.203079 34,975 96 474 64
2022-06-21 19:46:15 GMT 41.862350 -81.217743 34,975 96 473 0
2022-06-21 19:46:12 GMT 41.862350 -81.217743 34,975 96 473 0
2022-06-21 19:46:08 GMT 41.863358 -81.228951 34,975 96 473 0
2022-06-21 19:46:05 GMT 41.863998 -81.236092 34,975 97 473 0
2022-06-21 19:46:02 GMT 41.865128 -81.248688 34,975 96 473 64
2022-06-21 19:45:59 GMT 41.865967 -81.257881 34,975 97 473 0
2022-06-21 19:45:55 GMT 41.866989 -81.269066 34,975 97 472 64
2022-06-21 19:45:52 GMT 41.868477 -81.285286 34,975 96 472 0
2022-06-21 19:45:49 GMT 41.868477 -81.285286 34,975 96 472 0
2022-06-21 19:45:46 GMT 41.869537 -81.296768 34,975 96 472 0
2022-06-21 19:45:43 GMT 41.869949 -81.301453 34,975 96 472 0
2022-06-21 19:45:40 GMT 41.870712 -81.310005 34,975 96 472 0
2022-06-21 19:45:36 GMT 41.871872 -81.322609 34,975 96 472 0
2022-06-21 19:45:33 GMT 41.872833 -81.333038 34,975 96 472 0
2022-06-21 19:45:30 GMT 41.873505 -81.340477 34,975 96 472 0
2022-06-21 19:45:26 GMT 41.874664 -81.353073 34,975 96 472 64
2022-06-21 19:45:23 GMT 41.875229 -81.359314 34,975 96 472 64
2022-06-21 19:45:20 GMT 41.876450 -81.372803 34,975 96 471 64
2022-06-21 19:45:15 GMT 41.877556 -81.384483 34,950 96 471 64
2022-06-21 19:45:10 GMT 41.879604 -81.407417 34,950 96 471 64
2022-06-21 19:45:07 GMT 41.879604 -81.407417 34,950 96 471 0
2022-06-21 19:45:03 GMT 41.880768 -81.420441 34,950 96 471 0
2022-06-21 19:45:00 GMT 41.881557 -81.429131 34,950 96 471 0
2022-06-21 19:44:57 GMT 41.882118 -81.435516 34,950 96 471 0
2022-06-21 19:44:54 GMT 41.882950 -81.444336 34,950 96 471 0
2022-06-21 19:44:51 GMT 41.883934 -81.455513 34,950 96 471 0
2022-06-21 19:44:48 GMT 41.884354 -81.459854 34,950 96 471 0
2022-06-21 19:44:45 GMT 41.885422 -81.471863 34,950 96 471 0
2022-06-21 19:44:42 GMT 41.886703 -81.486031 34,950 96 471 0
2022-06-21 19:44:39 GMT 41.886703 -81.486031 34,950 96 471 0
2022-06-21 19:44:36 GMT 41.887844 -81.498627 34,950 96 471 0
2022-06-21 19:44:33 GMT 41.888443 -81.504822 34,950 96 471 0
2022-06-21 19:44:29 GMT 41.889565 -81.517723 34,950 96 470 0
2022-06-21 19:44:25 GMT 41.890545 -81.528389 34,950 96 470 0
2022-06-21 19:44:22 GMT 41.891647 -81.540405 34,950 96 470 0
2022-06-21 19:44:19 GMT 41.892105 -81.545898 34,975 96 470 -64
2022-06-21 19:44:16 GMT 41.892838 -81.553696 34,975 96 470 -64
2022-06-21 19:44:13 GMT 41.893894 -81.565697 34,975 96 470 -64
2022-06-21 19:44:10 GMT 41.894577 -81.573364 34,975 96 470 -64
2022-06-21 19:44:07 GMT 41.895035 -81.577980 34,975 96 470 -64
2022-06-21 19:44:01 GMT 41.896641 -81.596031 35,000 96 472 -64
2022-06-21 19:43:58 GMT 41.897598 -81.606636 34,975 96 470 -64
2022-06-21 19:43:55 GMT 41.898239 -81.613564 34,975 96 470 -64
2022-06-21 19:43:52 GMT 41.899109 -81.623245 35,000 96 471 -64
2022-06-21 19:43:48 GMT 41.900181 -81.635124 35,000 96 471 0
2022-06-21 19:43:45 GMT 41.901203 -81.646683 35,000 96 471 0
2022-06-21 19:43:42 GMT 41.901855 -81.654076 35,000 96 471 0
2022-06-21 19:43:38 GMT 41.902954 -81.665932 35,000 96 472 -64
2022-06-21 19:43:35 GMT 41.903580 -81.673065 35,000 96 472 -64
2022-06-21 19:43:32 GMT 41.904461 -81.682899 35,000 96 473 -64
2022-06-21 19:43:29 GMT 41.905300 -81.692802 35,000 96 473 -64
2022-06-21 19:43:26 GMT 41.906113 -81.701637 35,000 96 473 -64
2022-06-21 19:43:22 GMT 41.906792 -81.709343 35,000 96 473 -64
2022-06-21 19:43:19 GMT 41.907806 -81.720863 35,025 96 473 -64
2022-06-21 19:43:16 GMT 41.908493 -81.728416 35,025 96 473 -64
2022-06-21 19:43:12 GMT 41.909546 -81.740089 35,025 97 473 0
2022-06-21 19:43:09 GMT 41.910461 -81.750267 35,025 97 474 0
2022-06-21 19:43:06 GMT 41.911011 -81.756386 35,025 97 474 0
2022-06-21 19:43:03 GMT 41.912098 -81.767853 35,025 97 474 64
2022-06-21 19:43:00 GMT 41.912704 -81.774422 35,000 97 474 64
2022-06-21 19:42:57 GMT 41.914490 -81.793961 35,025 96 474 0
2022-06-21 19:42:53 GMT 41.914490 -81.793961 35,000 96 474 0
2022-06-21 19:42:48 GMT 41.916565 -81.823685 35,000 94 475 0
2022-06-21 19:42:44 GMT 41.916565 -81.823685 35,000 93 475 0
2022-06-21 19:42:39 GMT 41.917217 -81.836586 35,000 92 475 0
2022-06-21 19:42:35 GMT 41.917683 -81.848976 35,000 91 475 0
2022-06-21 19:42:32 GMT 41.917969 -81.860252 35,000 91 475 0
2022-06-21 19:42:29 GMT 41.918106 -81.867310 35,000 91 475 0
2022-06-21 19:42:25 GMT 41.918289 -81.878098 35,000 91 475 64
2022-06-21 19:42:22 GMT 41.918381 -81.883980 35,000 91 476 64
2022-06-21 19:42:19 GMT 41.918655 -81.898270 35,000 91 476 64
2022-06-21 19:42:16 GMT 41.918755 -81.903717 35,000 91 476 64
2022-06-21 19:42:13 GMT 41.918896 -81.914253 35,000 91 476 64
2022-06-21 19:42:10 GMT 41.919022 -81.921494 35,000 91 476 0
2022-06-21 19:42:07 GMT 41.919205 -81.930603 35,000 91 476 0
2022-06-21 19:42:04 GMT 41.919342 -81.940033 35,000 91 476 0
2022-06-21 19:42:01 GMT 41.919498 -81.949638 35,000 91 476 0
2022-06-21 19:41:57 GMT 41.919662 -81.958572 35,000 91 476 0
2022-06-21 19:41:54 GMT 41.919891 -81.972427 35,000 91 476 0
2022-06-21 19:41:50 GMT 41.920029 -81.980103 35,000 91 476 0
2022-06-21 19:41:46 GMT 41.920197 -81.990585 35,000 91 476 0
2022-06-21 19:41:42 GMT 41.920475 -82.006805 35,000 91 476 0
2022-06-21 19:41:38 GMT 41.920807 -82.025490 35,000 91 476 0
2022-06-21 19:41:35 GMT 41.920807 -82.025490 35,000 91 476 0
2022-06-21 19:41:31 GMT 41.921127 -82.047752 35,000 91 477 0
2022-06-21 19:41:27 GMT 41.921127 -82.047752 35,000 91 477 0
2022-06-21 19:41:24 GMT 41.921406 -82.065125 35,000 91 477 -64
2022-06-21 19:41:21 GMT 41.921406 -82.065125 35,000 91 477 -64
2022-06-21 19:41:18 GMT 41.921585 -82.073868 35,000 91 477 -64
2022-06-21 19:41:15 GMT 41.921677 -82.081543 35,000 91 477 -64
2022-06-21 19:41:12 GMT 41.921906 -82.094215 35,000 91 477 -64
2022-06-21 19:41:09 GMT 41.922058 -82.104408 35,000 91 477 -64
2022-06-21 19:41:05 GMT 41.922134 -82.111382 35,000 91 477 -64
2022-06-21 19:41:02 GMT 41.922337 -82.123634 35,000 91 477 0
2022-06-21 19:40:59 GMT 41.922478 -82.132446 35,000 91 477 0
2022-06-21 19:40:56 GMT 41.922592 -82.141220 35,000 91 477 0
2022-06-21 19:40:53 GMT 41.922684 -82.148270 35,000 91 477 0
2022-06-21 19:40:49 GMT 41.922867 -82.158882 35,025 91 477 0
2022-06-21 19:40:46 GMT 41.923038 -82.170578 35,000 91 477 0
2022-06-21 19:40:43 GMT 41.923176 -82.179459 35,025 91 478 0
2022-06-21 19:40:40 GMT 41.923267 -82.188911 35,025 91 478 0
2022-06-21 19:40:35 GMT 41.923462 -82.202080 35,025 91 478 -64
2022-06-21 19:40:32 GMT 41.923595 -82.210823 35,025 91 478 -64
2022-06-21 19:40:28 GMT 41.923782 -82.224686 35,025 91 478 -64
2022-06-21 19:40:25 GMT 41.923920 -82.233414 35,025 91 478 -64
2022-06-21 19:40:22 GMT 41.924057 -82.241714 35,025 91 478 -64
2022-06-21 19:40:19 GMT 41.924149 -82.249084 35,025 91 478 -64
2022-06-21 19:40:15 GMT 41.924339 -82.262878 35,025 91 478 -64
2022-06-21 19:40:12 GMT 41.924469 -82.271301 35,050 91 478 0
2022-06-21 19:40:09 GMT 41.924572 -82.279739 35,050 91 479 0
2022-06-21 19:40:06 GMT 41.924667 -82.285362 35,050 91 479 0
2022-06-21 19:40:03 GMT 41.924759 -82.294563 35,050 90 479 0
2022-06-21 19:40:00 GMT 41.924881 -82.303581 35,050 90 479 0
2022-06-21 19:39:57 GMT 41.925083 -82.317360 35,050 90 479 0
2022-06-21 19:39:52 GMT 41.925247 -82.331795 35,050 90 480 0
2022-06-21 19:39:49 GMT 41.925385 -82.340660 35,050 90 480 0
2022-06-21 19:39:46 GMT 41.925457 -82.347061 35,050 90 480 0
2022-06-21 19:39:42 GMT 41.925690 -82.365463 35,050 90 480 0
2022-06-21 19:39:39 GMT 41.925690 -82.365463 35,050 90 480 0
2022-06-21 19:39:36 GMT 41.925842 -82.376923 35,050 90 480 0
2022-06-21 19:39:32 GMT 41.926018 -82.389282 35,050 90 481 0
2022-06-21 19:39:29 GMT 41.926109 -82.397911 35,050 90 481 0
2022-06-21 19:39:26 GMT 41.926254 -82.408447 35,050 90 481 0
2022-06-21 19:39:23 GMT 41.926346 -82.416191 35,050 90 481 0
2022-06-21 19:39:20 GMT 41.926434 -82.426201 35,050 90 481 0
2022-06-21 19:39:17 GMT 41.926529 -82.433792 35,050 90 481 0
2022-06-21 19:39:14 GMT 41.926620 -82.440910 35,050 90 481 0
2022-06-21 19:39:11 GMT 41.926762 -82.451180 35,050 90 482 64
2022-06-21 19:39:08 GMT 41.926903 -82.461906 35,050 90 481 0
2022-06-21 19:39:05 GMT 41.926987 -82.469498 35,050 90 482 64
2022-06-21 19:39:02 GMT 41.927132 -82.479797 35,050 90 482 64
2022-06-21 19:38:58 GMT 41.927273 -82.491997 35,050 90 482 64
2022-06-21 19:38:55 GMT 41.927399 -82.501144 35,050 90 482 64
2022-06-21 19:38:50 GMT 41.927536 -82.513313 35,050 90 482 64
2022-06-21 19:38:47 GMT 41.927692 -82.526611 35,025 90 482 64
2022-06-21 19:38:44 GMT 41.927784 -82.531982 35,025 90 482 64
2022-06-21 19:38:41 GMT 41.927925 -82.542709 35,025 90 482 64
2022-06-21 19:38:38 GMT 41.927971 -82.547501 34,975 90 481 0
2022-06-21 19:38:35 GMT 41.928131 -82.560760 35,025 90 482 64
2022-06-21 19:38:31 GMT 41.928268 -82.572121 35,025 90 482 64
2022-06-21 19:38:28 GMT 41.928406 -82.581047 35,025 90 482 64
2022-06-21 19:38:24 GMT 41.928623 -82.600006 35,000 90 482 64
2022-06-21 19:38:18 GMT 41.928715 -82.609268 35,000 90 481 64
2022-06-21 19:38:15 GMT 41.928772 -82.618057 35,000 90 481 64
2022-06-21 19:38:12 GMT 41.928864 -82.626678 35,000 90 481 128
2022-06-21 19:38:08 GMT 41.928993 -82.638779 35,000 90 481 64
2022-06-21 19:38:05 GMT 41.929230 -82.659134 35,000 90 481 64
2022-06-21 19:38:02 GMT 41.929413 -82.673744 34,975 90 481 0
2022-06-21 19:37:57 GMT 41.929413 -82.673744 35,000 90 481 0
2022-06-21 19:37:53 GMT 41.929554 -82.685791 34,975 90 481 0
2022-06-21 19:37:49 GMT 41.929642 -82.695152 34,975 90 481 64
2022-06-21 19:37:46 GMT 41.929741 -82.704826 34,975 90 480 0
2022-06-21 19:37:42 GMT 41.929916 -82.718689 34,975 90 480 0
2022-06-21 19:37:38 GMT 41.930019 -82.727753 34,975 90 480 0
2022-06-21 19:37:34 GMT 41.930145 -82.741844 34,975 90 480 0
2022-06-21 19:37:31 GMT 41.930252 -82.750618 34,975 90 480 0
2022-06-21 19:37:28 GMT 41.930328 -82.757889 34,975 90 480 0
2022-06-21 19:37:24 GMT 41.930420 -82.771561 34,975 90 480 0
2022-06-21 19:37:20 GMT 41.930531 -82.784790 34,975 90 479 64
2022-06-21 19:37:17 GMT 41.930576 -82.789261 34,975 90 479 0
2022-06-21 19:37:14 GMT 41.930649 -82.799774 34,975 90 479 0
2022-06-21 19:37:10 GMT 41.930763 -82.811813 34,975 90 479 64
2022-06-21 19:37:07 GMT 41.930832 -82.821747 34,975 90 479 64
2022-06-21 19:37:03 GMT 41.930923 -82.833298 34,975 90 479 0
2022-06-21 19:37:00 GMT 41.931015 -82.842529 34,975 90 479 0
2022-06-21 19:36:57 GMT 41.931061 -82.848709 34,975 90 479 0
2022-06-21 19:36:54 GMT 41.931137 -82.859268 34,975 90 479 0
2022-06-21 19:36:50 GMT 41.931183 -82.870834 34,975 90 479 0
2022-06-21 19:36:47 GMT 41.931290 -82.881668 34,975 90 479 -64
2022-06-21 19:36:44 GMT 41.931335 -82.890533 34,975 90 479 -64
2022-06-21 19:36:41 GMT 41.931427 -82.896774 34,975 90 479 -64
2022-06-21 19:36:37 GMT 41.931507 -82.908516 34,975 90 479 -64
2022-06-21 19:36:34 GMT 41.931602 -82.918289 34,975 90 479 -64
2022-06-21 19:36:31 GMT 41.931702 -82.929115 34,975 90 479 -64
2022-06-21 19:36:28 GMT 41.931789 -82.936623 35,000 90 478 -64
2022-06-21 19:36:25 GMT 41.931885 -82.947151 35,000 90 478 -64
2022-06-21 19:36:22 GMT 41.931927 -82.951759 35,000 90 478 -64
2022-06-21 19:36:19 GMT 41.932022 -82.962425 35,000 90 478 -64
2022-06-21 19:36:16 GMT 41.932114 -82.972305 35,000 90 478 -64
2022-06-21 19:36:13 GMT 41.932209 -82.982483 35,000 90 478 -64
2022-06-21 19:36:09 GMT 41.932251 -82.992157 35,000 90 478 -64
2022-06-21 19:36:05 GMT 41.932388 -83.004578 35,000 90 478 -64
2022-06-21 19:36:02 GMT 41.932442 -83.013268 35,000 90 478 -64
2022-06-21 19:35:59 GMT 41.932571 -83.032921 35,000 90 477 -64
2022-06-21 19:35:56 GMT 41.932625 -83.042526 35,000 90 478 -64
2022-06-21 19:35:53 GMT 41.932663 -83.049774 35,025 90 477 0
2022-06-21 19:35:50 GMT 41.932663 -83.049774 35,000 90 477 -64
2022-06-21 19:35:47 GMT 41.932800 -83.066376 35,025 90 477 0
2022-06-21 19:35:44 GMT 41.932800 -83.066376 35,000 90 477 0
2022-06-21 19:35:41 GMT 41.932858 -83.074142 35,000 90 477 0
2022-06-21 19:35:37 GMT 41.932938 -83.085228 35,025 90 477 0
2022-06-21 19:35:34 GMT 41.933044 -83.097519 35,025 90 477 0
2022-06-21 19:35:31 GMT 41.933121 -83.104767 35,000 90 477 64
2022-06-21 19:35:27 GMT 41.933231 -83.117897 35,000 90 477 64
2022-06-21 19:35:24 GMT 41.933304 -83.128113 35,000 90 477 64
2022-06-21 19:35:21 GMT 41.933304 -83.135231 35,000 90 477 0
2022-06-21 19:35:14 GMT 41.933441 -83.157387 35,000 90 477 0
2022-06-21 19:35:10 GMT 41.933510 -83.166054 35,000 90 477 0
2022-06-21 19:35:07 GMT 41.933559 -83.175255 35,000 90 477 0
2022-06-21 19:35:04 GMT 41.933578 -83.184296 35,000 90 477 0
2022-06-21 19:35:01 GMT 41.933670 -83.193161 35,000 90 477 0
2022-06-21 19:34:57 GMT 41.933697 -83.205978 35,000 90 477 -64
2022-06-21 19:34:54 GMT 41.933762 -83.216194 35,000 90 477 0
2022-06-21 19:34:49 GMT 41.933838 -83.228401 35,025 90 477 0
2022-06-21 19:34:46 GMT 41.933884 -83.236382 35,000 90 477 0
2022-06-21 19:34:43 GMT 41.933990 -83.258080 35,025 90 477 0
2022-06-21 19:34:39 GMT 41.933990 -83.258080 35,000 89 477 0
2022-06-21 19:34:36 GMT 41.934025 -83.267426 35,025 90 477 0
2022-06-21 19:34:33 GMT 41.934082 -83.284668 35,000 90 477 0
2022-06-21 19:34:27 GMT 41.934116 -83.302238 35,000 90 477 0
2022-06-21 19:34:21 GMT 41.934128 -83.320435 35,025 90 477 0
2022-06-21 19:34:18 GMT 41.934128 -83.320435 35,025 90 477 0
2022-06-21 19:34:14 GMT 41.934116 -83.343056 35,025 90 477 0
2022-06-21 19:34:11 GMT 41.934128 -83.352898 35,000 89 477 64
2022-06-21 19:34:07 GMT 41.934128 -83.352898 35,000 89 477 64
2022-06-21 19:34:03 GMT 41.934128 -83.363571 35,000 89 477 64
2022-06-21 19:34:00 GMT 41.934071 -83.383804 35,000 90 477 64
2022-06-21 19:33:57 GMT 41.934071 -83.383804 35,000 90 477 0
2022-06-21 19:33:53 GMT 41.934082 -83.392532 35,000 90 477 0
2022-06-21 19:33:50 GMT 41.934082 -83.403458 35,000 90 477 0
2022-06-21 19:33:46 GMT 41.934128 -83.416130 35,000 90 477 0
2022-06-21 19:33:42 GMT 41.934162 -83.427490 35,000 90 477 0
2022-06-21 19:33:38 GMT 41.934208 -83.438164 35,000 90 477 0
2022-06-21 19:33:35 GMT 41.934311 -83.447159 35,000 90 477 0
2022-06-21 19:33:32 GMT 41.934402 -83.456329 35,000 91 477 -64
2022-06-21 19:33:29 GMT 41.934494 -83.465759 35,000 91 477 0
2022-06-21 19:33:25 GMT 41.934860 -83.485680 35,000 91 476 0
2022-06-21 19:33:18 GMT 41.935093 -83.498329 35,000 91 476 0
2022-06-21 19:33:15 GMT 41.935226 -83.508514 35,000 91 476 0
2022-06-21 19:33:11 GMT 41.935421 -83.519852 35,000 91 476 0
2022-06-21 19:33:08 GMT 41.935730 -83.537666 35,000 91 475 0
2022-06-21 19:33:05 GMT 41.935791 -83.543678 35,000 91 475 0
2022-06-21 19:33:02 GMT 41.935791 -83.543678 35,000 91 475 0
2022-06-21 19:32:59 GMT 41.935959 -83.554146 35,000 91 475 64
2022-06-21 19:32:56 GMT 41.936142 -83.564507 35,000 91 475 0
2022-06-21 19:32:52 GMT 41.936256 -83.574661 35,000 91 475 64
2022-06-21 19:32:49 GMT 41.936371 -83.580360 35,000 91 475 0
2022-06-21 19:32:46 GMT 41.936539 -83.593185 35,000 91 475 0
2022-06-21 19:32:42 GMT 41.936722 -83.605507 35,000 91 475 64
2022-06-21 19:32:37 GMT 41.936920 -83.616257 35,000 91 475 0
2022-06-21 19:32:34 GMT 41.937057 -83.626617 35,000 91 475 64
2022-06-21 19:32:31 GMT 41.937195 -83.635422 35,000 91 475 0
2022-06-21 19:32:28 GMT 41.937420 -83.647346 35,000 91 475 64
2022-06-21 19:32:25 GMT 41.937469 -83.651756 35,000 91 475 0
2022-06-21 19:32:22 GMT 41.937698 -83.664818 35,000 91 475 64
2022-06-21 19:32:19 GMT 41.937836 -83.673058 34,975 91 475 64
2022-06-21 19:32:14 GMT 41.938019 -83.686920 34,975 91 475 64
2022-06-21 19:32:11 GMT 41.938168 -83.696144 34,975 91 475 64
2022-06-21 19:32:06 GMT 41.938400 -83.709435 34,975 91 475 64
2022-06-21 19:32:03 GMT 41.938538 -83.718506 34,975 91 475 64
2022-06-21 19:32:00 GMT 41.938660 -83.726929 34,975 91 475 64
2022-06-21 19:31:56 GMT 41.938957 -83.747948 34,975 91 475 64
2022-06-21 19:31:53 GMT 41.938957 -83.747948 34,975 91 475 64
2022-06-21 19:31:50 GMT 41.939053 -83.756508 34,950 91 475 64
2022-06-21 19:31:46 GMT 41.939209 -83.767815 34,975 91 475 0
2022-06-21 19:31:43 GMT 41.939392 -83.778740 34,975 91 475 0
2022-06-21 19:31:40 GMT 41.939514 -83.787422 34,950 91 475 0
2022-06-21 19:31:37 GMT 41.939610 -83.794128 34,950 91 475 0
2022-06-21 19:31:34 GMT 41.939758 -83.805519 34,950 91 475 0
2022-06-21 19:31:31 GMT 41.939896 -83.816071 34,950 91 475 0
2022-06-21 19:31:28 GMT 41.939983 -83.820320 34,950 91 475 0
2022-06-21 19:31:25 GMT 41.940079 -83.829613 34,975 91 475 0
2022-06-21 19:31:22 GMT 41.940262 -83.840477 34,950 91 475 0
2022-06-21 19:31:19 GMT 41.940353 -83.848465 34,975 91 475 0
2022-06-21 19:31:15 GMT 41.940491 -83.860207 34,975 91 475 0
2022-06-21 19:31:12 GMT 41.940582 -83.866692 34,950 91 475 0
2022-06-21 19:31:09 GMT 41.940773 -83.878891 34,950 91 475 -64
2022-06-21 19:31:03 GMT 41.940960 -83.894730 34,975 90 475 0
2022-06-21 19:30:59 GMT 41.941147 -83.908272 34,975 90 475 -64
2022-06-21 19:30:54 GMT 41.941284 -83.919769 34,975 90 475 -64
2022-06-21 19:30:51 GMT 41.941471 -83.931839 34,975 90 475 -64
2022-06-21 19:30:48 GMT 41.941566 -83.939186 34,975 90 475 0
2022-06-21 19:30:42 GMT 41.941864 -83.965195 35,000 90 475 0
2022-06-21 19:30:39 GMT 41.941982 -83.973869 34,975 90 475 0
2022-06-21 19:30:36 GMT 41.941982 -83.973869 34,975 90 475 0
2022-06-21 19:30:33 GMT 41.942123 -83.984734 35,000 90 475 0
2022-06-21 19:30:30 GMT 41.942215 -83.992714 35,000 90 476 0
2022-06-21 19:30:27 GMT 41.942322 -84.002838 35,000 90 476 0
2022-06-21 19:30:22 GMT 41.942448 -84.013023 35,000 90 476 -64
2022-06-21 19:30:19 GMT 41.942589 -84.023628 35,000 90 476 -64
2022-06-21 19:30:16 GMT 41.942688 -84.030869 35,000 90 476 -64
2022-06-21 19:30:12 GMT 41.942867 -84.046623 35,000 90 477 -64
2022-06-21 19:30:09 GMT 41.943100 -84.063324 35,000 90 477 -64
2022-06-21 19:30:06 GMT 41.943100 -84.063324 35,000 90 477 -64
2022-06-21 19:30:03 GMT 41.943146 -84.068939 35,000 90 477 0
2022-06-21 19:30:00 GMT 41.943237 -84.077805 35,025 90 477 0
2022-06-21 19:29:57 GMT 41.943375 -84.089043 35,025 90 477 0
2022-06-21 19:29:54 GMT 41.943520 -84.099190 35,025 90 478 0
2022-06-21 19:29:51 GMT 41.943611 -84.107819 35,025 90 478 -64
2022-06-21 19:29:46 GMT 41.943741 -84.119759 35,025 90 478 -64
2022-06-21 19:29:43 GMT 41.943878 -84.130432 35,025 90 479 -64
2022-06-21 19:29:40 GMT 41.944107 -84.150284 35,025 90 479 -64
2022-06-21 19:29:37 GMT 41.944107 -84.150284 35,025 90 479 -64
2022-06-21 19:29:29 GMT 41.944290 -84.169884 35,025 90 479 -64
2022-06-21 19:29:26 GMT 41.944427 -84.181114 35,025 90 479 -64
2022-06-21 19:29:20 GMT 41.944637 -84.202095 35,050 90 480 -64
2022-06-21 19:29:14 GMT 41.944794 -84.217636 35,050 90 481 0
2022-06-21 19:29:11 GMT 41.944916 -84.227325 35,050 90 480 0
2022-06-21 19:29:07 GMT 41.945057 -84.239204 35,025 90 481 0
2022-06-21 19:29:02 GMT 41.945206 -84.253960 35,025 90 481 0
2022-06-21 19:28:59 GMT 41.945244 -84.259773 35,025 90 481 0
2022-06-21 19:28:56 GMT 41.945381 -84.269859 35,025 90 482 0
2022-06-21 19:28:53 GMT 41.945435 -84.278679 35,050 90 482 0
2022-06-21 19:28:49 GMT 41.945614 -84.292542 35,025 90 482 0
2022-06-21 19:28:44 GMT 41.945755 -84.308830 35,050 90 483 0
2022-06-21 19:28:41 GMT 41.945892 -84.323647 35,050 90 483 0
2022-06-21 19:28:38 GMT 41.945892 -84.323647 35,050 90 483 0
2022-06-21 19:28:35 GMT 41.945988 -84.331375 35,025 90 483 0
2022-06-21 19:28:31 GMT 41.946121 -84.347343 35,025 90 483 0
2022-06-21 19:28:28 GMT 41.946213 -84.354523 35,025 90 483 0
2022-06-21 19:28:25 GMT 41.946304 -84.365639 35,025 90 483 0
2022-06-21 19:28:21 GMT 41.946396 -84.374939 35,025 90 483 0
2022-06-21 19:28:18 GMT 41.946487 -84.385361 35,025 90 484 0
2022-06-21 19:28:15 GMT 41.946590 -84.395699 35,025 90 484 0
2022-06-21 19:28:11 GMT 41.946777 -84.415749 35,025 90 484 64
2022-06-21 19:28:07 GMT 41.946777 -84.415749 35,025 90 484 0
2022-06-21 19:28:04 GMT 41.946873 -84.427185 35,025 90 484 0
2022-06-21 19:28:00 GMT 41.946945 -84.439293 35,025 90 484 0
2022-06-21 19:27:57 GMT 41.947010 -84.448456 35,025 90 484 64
2022-06-21 19:27:51 GMT 41.947151 -84.463402 35,025 90 484 64
2022-06-21 19:27:47 GMT 41.947243 -84.477516 35,025 90 484 64
2022-06-21 19:27:44 GMT 41.947311 -84.487549 35,025 90 484 0
2022-06-21 19:27:41 GMT 41.947384 -84.494888 35,025 90 484 0
2022-06-21 19:27:38 GMT 41.947475 -84.506004 35,025 90 484 0
2022-06-21 19:27:35 GMT 41.947495 -84.510643 35,025 90 484 0
2022-06-21 19:27:32 GMT 41.947586 -84.522064 35,025 90 484 0
2022-06-21 19:27:29 GMT 41.947662 -84.532066 35,025 90 484 0
2022-06-21 19:27:25 GMT 41.947708 -84.543182 35,025 90 484 0
2022-06-21 19:27:22 GMT 41.947849 -84.560616 35,025 90 484 0
2022-06-21 19:27:19 GMT 41.947849 -84.560616 35,025 90 484 0
2022-06-21 19:27:15 GMT 41.947941 -84.572304 35,025 90 484 0
2022-06-21 19:27:12 GMT 41.948044 -84.581116 35,025 90 484 0
2022-06-21 19:27:08 GMT 41.948128 -84.595367 35,025 90 484 0
2022-06-21 19:27:05 GMT 41.948227 -84.603340 35,025 90 484 0
2022-06-21 19:27:00 GMT 41.948456 -84.630058 35,000 90 484 0
2022-06-21 19:26:56 GMT 41.948456 -84.630058 35,025 90 484 0
2022-06-21 19:26:54 GMT 41.948502 -84.634651 35,025 90 484 0
2022-06-21 19:26:50 GMT 41.948639 -84.648598 35,025 90 484 0
2022-06-21 19:26:46 GMT 41.948734 -84.660133 35,025 90 484 0
2022-06-21 19:26:43 GMT 41.948776 -84.666328 35,025 90 484 0
2022-06-21 19:26:40 GMT 41.948868 -84.678307 35,000 90 484 64
2022-06-21 19:26:37 GMT 41.948967 -84.688622 35,000 90 484 0
2022-06-21 19:26:34 GMT 41.949013 -84.697884 35,000 90 484 0
2022-06-21 19:26:29 GMT 41.949104 -84.711357 35,000 90 484 0
2022-06-21 19:26:26 GMT 41.949154 -84.718575 35,000 90 483 0
2022-06-21 19:26:22 GMT 41.949245 -84.734741 35,000 90 483 0
2022-06-21 19:26:17 GMT 41.949326 -84.747162 35,000 90 483 0
2022-06-21 19:26:13 GMT 41.949387 -84.759583 35,000 90 483 0
2022-06-21 19:26:07 GMT 41.949463 -84.775879 35,000 90 483 0
2022-06-21 19:26:04 GMT 41.949463 -84.784866 35,000 90 483 0
2022-06-21 19:26:01 GMT 41.949524 -84.792480 35,000 90 483 0
2022-06-21 19:25:58 GMT 41.949554 -84.806091 35,000 90 483 0
2022-06-21 19:25:55 GMT 41.949554 -84.811768 35,000 90 483 0
2022-06-21 19:25:51 GMT 41.949600 -84.822258 35,000 90 483 0
2022-06-21 19:25:48 GMT 41.949646 -84.835678 35,000 90 483 0
2022-06-21 19:25:45 GMT 41.949692 -84.844666 35,000 90 483 0
2022-06-21 19:25:42 GMT 41.949692 -84.852715 35,000 90 483 0
2022-06-21 19:25:37 GMT 41.949738 -84.868881 35,000 90 483 0
2022-06-21 19:25:34 GMT 41.949757 -84.875008 35,000 90 482 64
2022-06-21 19:25:31 GMT 41.949802 -84.883949 35,000 90 482 64
2022-06-21 19:25:27 GMT 41.949852 -84.896210 35,000 90 482 64
2022-06-21 19:25:24 GMT 41.949921 -84.904716 35,000 90 482 64
2022-06-21 19:25:21 GMT 41.949944 -84.915054 35,000 90 482 0
2022-06-21 19:25:17 GMT 41.950012 -84.928932 35,000 90 482 0
2022-06-21 19:25:14 GMT 41.950058 -84.937614 35,000 90 482 0
2022-06-21 19:25:11 GMT 41.950104 -84.943291 35,000 90 482 0
2022-06-21 19:25:08 GMT 41.950130 -84.951782 35,000 90 482 0
2022-06-21 19:25:06 GMT 41.950150 -84.957901 35,000 90 482 0
2022-06-21 19:25:03 GMT 41.950195 -84.966888 35,000 90 482 0
2022-06-21 19:24:59 GMT 41.950287 -84.977936 34,975 90 482 0
2022-06-21 19:24:56 GMT 41.950333 -84.985741 34,975 90 482 0
2022-06-21 19:24:53 GMT 41.950455 -84.995407 34,975 90 482 0
2022-06-21 19:24:50 GMT 41.950550 -85.008820 34,975 90 482 64
2022-06-21 19:24:46 GMT 41.950783 -85.029388 34,975 90 482 64
2022-06-21 19:24:43 GMT 41.950783 -85.029388 34,975 90 481 64
2022-06-21 19:24:39 GMT 41.950874 -85.039543 34,975 90 481 0
2022-06-21 19:24:36 GMT 41.951153 -85.061897 34,975 90 481 0
2022-06-21 19:24:32 GMT 41.951248 -85.069374 34,975 90 481 0
2022-06-21 19:24:29 GMT 41.951248 -85.069374 34,975 90 481 0
2022-06-21 19:24:24 GMT 41.951477 -85.085861 34,975 90 481 0
2022-06-21 19:24:21 GMT 41.951527 -85.091728 34,975 90 481 0
2022-06-21 19:24:18 GMT 41.951668 -85.100609 34,975 90 481 0
2022-06-21 19:24:15 GMT 41.951797 -85.112396 34,975 90 481 0
2022-06-21 19:24:12 GMT 41.951900 -85.121178 34,975 90 481 0
2022-06-21 19:24:08 GMT 41.951992 -85.131905 34,975 90 481 0
2022-06-21 19:24:01 GMT 41.952084 -85.150620 34,950 89 480 0
2022-06-21 19:23:58 GMT 41.952133 -85.163460 34,975 89 480 0
2022-06-21 19:23:53 GMT 41.951992 -85.178596 34,975 88 480 0
2022-06-21 19:23:49 GMT 41.951759 -85.194695 34,975 88 480 0
2022-06-21 19:23:42 GMT 41.951431 -85.209396 34,975 87 480 0
2022-06-21 19:23:39 GMT 41.951248 -85.215775 34,975 87 480 0
2022-06-21 19:23:36 GMT 41.950970 -85.224655 34,975 87 480 0
2022-06-21 19:23:32 GMT 41.950642 -85.236855 34,975 87 480 -64
2022-06-21 19:23:30 GMT 41.950470 -85.242920 34,975 87 480 -64
2022-06-21 19:23:27 GMT 41.949802 -85.267700 34,975 87 479 -64
2022-06-21 19:23:22 GMT 41.949574 -85.275749 34,975 87 479 0
2022-06-21 19:23:20 GMT 41.949574 -85.275749 34,975 87 479 0
2022-06-21 19:23:16 GMT 41.949326 -85.285683 34,975 87 479 0
2022-06-21 19:23:12 GMT 41.949051 -85.295792 34,975 87 479 0
2022-06-21 19:23:09 GMT 41.948730 -85.308273 34,975 87 479 0
2022-06-21 19:23:06 GMT 41.948502 -85.316887 34,975 87 479 0
2022-06-21 19:23:03 GMT 41.948219 -85.326851 34,975 87 480 0
2022-06-21 19:23:00 GMT 41.948044 -85.333809 34,975 87 480 0
2022-06-21 19:22:57 GMT 41.947803 -85.342880 34,975 87 480 0
2022-06-21 19:22:54 GMT 41.947540 -85.351906 34,975 87 480 0
2022-06-21 19:22:49 GMT 41.946945 -85.373878 35,000 87 480 -64
2022-06-21 19:22:47 GMT 41.946945 -85.373878 34,975 87 480 -64
2022-06-21 19:22:42 GMT 41.946590 -85.386192 35,000 87 479 -64
2022-06-21 19:22:39 GMT 41.946350 -85.395538 35,000 87 479 -64
2022-06-21 19:22:33 GMT 41.945755 -85.416641 35,000 87 479 -64
2022-06-21 19:22:30 GMT 41.945568 -85.422722 35,000 87 479 -64
2022-06-21 19:22:26 GMT 41.945206 -85.434746 35,000 87 479 -64
2022-06-21 19:22:23 GMT 41.944870 -85.446167 35,025 87 479 -64
2022-06-21 19:22:19 GMT 41.944546 -85.458366 35,000 87 479 -64
2022-06-21 19:22:16 GMT 41.944263 -85.467247 35,025 87 479 -64
2022-06-21 19:22:12 GMT 41.943985 -85.476128 35,025 87 479 0
2022-06-21 19:22:09 GMT 41.943752 -85.484749 35,025 87 479 0
2022-06-21 19:22:06 GMT 41.943520 -85.492157 35,025 87 479 0
2022-06-21 19:22:03 GMT 41.943237 -85.502411 35,025 87 480 0
2022-06-21 19:21:58 GMT 41.942726 -85.520966 35,025 87 480 0
2022-06-21 19:21:55 GMT 41.942497 -85.527802 35,025 87 480 0
2022-06-21 19:21:51 GMT 41.942230 -85.538368 35,025 87 480 0
2022-06-21 19:21:47 GMT 41.941818 -85.552345 35,025 87 480 0
2022-06-21 19:21:43 GMT 41.941223 -85.571388 35,000 87 480 0
2022-06-21 19:21:40 GMT 41.941223 -85.571388 35,025 87 481 0
2022-06-21 19:21:37 GMT 41.940914 -85.582794 35,000 87 481 0
2022-06-21 19:21:34 GMT 41.940811 -85.586243 35,025 87 481 0
2022-06-21 19:21:32 GMT 41.940540 -85.595314 35,025 87 481 0
2022-06-21 19:21:28 GMT 41.940170 -85.607407 35,000 87 481 0
2022-06-21 19:21:25 GMT 41.939896 -85.616646 35,025 87 481 0
2022-06-21 19:21:21 GMT 41.939621 -85.625816 35,000 87 481 0
2022-06-21 19:21:18 GMT 41.939377 -85.634338 35,000 87 481 0
2022-06-21 19:21:15 GMT 41.938957 -85.647751 35,000 87 481 0
2022-06-21 19:21:12 GMT 41.938705 -85.657150 35,000 87 482 0
2022-06-21 19:21:07 GMT 41.938019 -85.680122 35,000 87 482 0
2022-06-21 19:21:03 GMT 41.938019 -85.680122 35,000 87 482 0
2022-06-21 19:20:58 GMT 41.937515 -85.695610 35,000 87 482 0
2022-06-21 19:20:55 GMT 41.937286 -85.703972 35,000 87 482 0
2022-06-21 19:20:50 GMT 41.936817 -85.718460 35,000 87 482 0
2022-06-21 19:20:48 GMT 41.936539 -85.727402 35,000 87 482 0
2022-06-21 19:20:44 GMT 41.936256 -85.736923 35,000 87 482 0
2022-06-21 19:20:39 GMT 41.935558 -85.759026 35,000 87 482 0
2022-06-21 19:20:34 GMT 41.935272 -85.768143 35,000 87 482 0
2022-06-21 19:20:30 GMT 41.934860 -85.780624 35,000 87 482 0
2022-06-21 19:20:28 GMT 41.934677 -85.785744 35,000 87 482 0
2022-06-21 19:20:25 GMT 41.933929 -85.808846 35,000 87 483 0
2022-06-21 19:20:21 GMT 41.933929 -85.808846 35,000 87 482 0
2022-06-21 19:20:17 GMT 41.933624 -85.818268 35,000 87 482 0
2022-06-21 19:20:14 GMT 41.933372 -85.825577 35,000 87 483 0
2022-06-21 19:20:09 GMT 41.932846 -85.840675 35,000 87 483 0
2022-06-21 19:20:07 GMT 41.932617 -85.848167 35,000 87 483 0
2022-06-21 19:20:04 GMT 41.932251 -85.858589 35,000 87 483 0
2022-06-21 19:19:59 GMT 41.931835 -85.871567 35,000 87 483 0
2022-06-21 19:19:56 GMT 41.931473 -85.881935 35,000 87 483 0
2022-06-21 19:19:53 GMT 41.931152 -85.891174 35,000 87 483 0
2022-06-21 19:19:47 GMT 41.930649 -85.906715 35,000 87 483 0
2022-06-21 19:19:45 GMT 41.930393 -85.914619 35,000 87 483 0
2022-06-21 19:19:42 GMT 41.930115 -85.922989 35,000 87 483 0
2022-06-21 19:19:38 GMT 41.929695 -85.935249 35,000 87 483 0
2022-06-21 19:19:35 GMT 41.929321 -85.945854 35,000 87 483 0
2022-06-21 19:19:31 GMT 41.928955 -85.956032 35,000 87 483 0
2022-06-21 19:19:28 GMT 41.928635 -85.965897 35,000 87 483 0
2022-06-21 19:19:25 GMT 41.928360 -85.973701 35,000 87 483 0
2022-06-21 19:19:22 GMT 41.928062 -85.982834 35,000 87 483 0
2022-06-21 19:19:18 GMT 41.927628 -85.996735 35,000 87 484 64
2022-06-21 19:19:15 GMT 41.927353 -86.004532 35,000 87 484 64
2022-06-21 19:19:11 GMT 41.926994 -86.016052 35,000 87 484 0
2022-06-21 19:19:05 GMT 41.926388 -86.034317 35,000 87 484 0
2022-06-21 19:19:02 GMT 41.926071 -86.043488 35,000 87 484 -64
2022-06-21 19:18:58 GMT 41.925568 -86.058151 35,000 87 484 -64
2022-06-21 19:18:55 GMT 41.925365 -86.065170 35,000 87 484 0
2022-06-21 19:18:52 GMT 41.925064 -86.073448 35,000 87 484 0
2022-06-21 19:18:47 GMT 41.924294 -86.096336 35,000 87 484 64
2022-06-21 19:18:44 GMT 41.924294 -86.096336 35,000 87 484 64
2022-06-21 19:18:41 GMT 41.923969 -86.105347 35,000 87 484 0
2022-06-21 19:18:37 GMT 41.923462 -86.120766 35,000 87 484 0
2022-06-21 19:18:34 GMT 41.922989 -86.133194 35,000 87 484 0
2022-06-21 19:18:32 GMT 41.922989 -86.133194 35,000 87 484 0
2022-06-21 19:18:26 GMT 41.922337 -86.152100 35,000 87 484 0
2022-06-21 19:18:22 GMT 41.921871 -86.164688 35,000 87 484 0
2022-06-21 19:18:18 GMT 41.921448 -86.177132 35,000 87 484 0
2022-06-21 19:18:13 GMT 41.920986 -86.190170 35,000 87 484 0
2022-06-21 19:18:10 GMT 41.919918 -86.220131 35,000 87 484 0
2022-06-21 19:18:03 GMT 41.919918 -86.220131 35,000 87 484 0
2022-06-21 19:18:01 GMT 41.919640 -86.227921 35,000 87 484 0
2022-06-21 19:17:55 GMT 41.919079 -86.242867 35,000 87 484 0
2022-06-21 19:17:52 GMT 41.918701 -86.253227 35,000 87 484 0
2022-06-21 19:17:47 GMT 41.918106 -86.269394 35,000 87 484 0
2022-06-21 19:17:42 GMT 41.917591 -86.283363 35,000 87 484 0
2022-06-21 19:17:39 GMT 41.917358 -86.289940 35,000 87 484 0
2022-06-21 19:17:35 GMT 41.916893 -86.301628 35,000 87 484 0
2022-06-21 19:17:31 GMT 41.916367 -86.316460 35,025 87 484 0
2022-06-21 19:17:29 GMT 41.916138 -86.322701 35,000 87 484 0
2022-06-21 19:17:25 GMT 41.915771 -86.332001 35,000 87 484 0
2022-06-21 19:17:22 GMT 41.915447 -86.340530 35,025 87 484 0
2022-06-21 19:17:19 GMT 41.915039 -86.352104 35,025 87 484 0
2022-06-21 19:17:16 GMT 41.914749 -86.360008 35,000 87 484 0
2022-06-21 19:17:13 GMT 41.914261 -86.372513 35,025 87 484 0
2022-06-21 19:17:10 GMT 41.913586 -86.392075 35,000 87 484 0
2022-06-21 19:17:06 GMT 41.913586 -86.392075 35,000 87 484 0
2022-06-21 19:17:01 GMT 41.913170 -86.403763 35,025 87 484 0
2022-06-21 19:16:58 GMT 41.912750 -86.415771 35,000 87 484 0
2022-06-21 19:16:55 GMT 41.912468 -86.423569 35,000 87 484 0
2022-06-21 19:16:50 GMT 41.911911 -86.439468 35,025 87 484 0
2022-06-21 19:16:47 GMT 41.911514 -86.449791 35,000 87 484 0
2022-06-21 19:16:44 GMT 41.911213 -86.457993 35,000 87 484 0
2022-06-21 19:16:40 GMT 41.910782 -86.471077 35,000 87 484 0
2022-06-21 19:16:36 GMT 41.910141 -86.488434 35,000 87 484 0
2022-06-21 19:16:33 GMT 41.910141 -86.488434 35,000 87 484 0
2022-06-21 19:16:30 GMT 41.909683 -86.500420 35,025 87 484 0
2022-06-21 19:16:27 GMT 41.909363 -86.510033 35,025 87 484 0
2022-06-21 19:16:24 GMT 41.909042 -86.517830 35,000 86 484 0
2022-06-21 19:16:20 GMT 41.908607 -86.529022 35,025 86 484 64
2022-06-21 19:16:16 GMT 41.908138 -86.541031 35,025 86 484 64
2022-06-21 19:16:12 GMT 41.907536 -86.555656 35,000 86 484 0
2022-06-21 19:16:08 GMT 41.907162 -86.564667 35,000 86 484 0
2022-06-21 19:16:03 GMT 41.906570 -86.579193 35,000 86 484 0
2022-06-21 19:16:00 GMT 41.906322 -86.585617 35,000 86 484 0
2022-06-21 19:15:57 GMT 41.905746 -86.600105 35,000 86 484 0
2022-06-21 19:15:53 GMT 41.905300 -86.610779 35,000 86 484 0
2022-06-21 19:15:50 GMT 41.905014 -86.618393 35,000 86 484 0
2022-06-21 19:15:47 GMT 41.904648 -86.627388 35,000 86 484 0
2022-06-21 19:15:44 GMT 41.904282 -86.636063 35,000 86 484 0
2022-06-21 19:15:41 GMT 41.903961 -86.645050 35,000 86 484 0
2022-06-21 19:15:37 GMT 41.903366 -86.659966 35,000 86 484 0
2022-06-21 19:15:32 GMT 41.902863 -86.672577 35,000 86 484 0
2022-06-21 19:15:28 GMT 41.902313 -86.685997 35,000 86 483 0
2022-06-21 19:15:25 GMT 41.902088 -86.691841 35,000 86 483 0
2022-06-21 19:15:22 GMT 41.901760 -86.700844 35,000 86 483 0
2022-06-21 19:15:20 GMT 41.901482 -86.707108 35,000 86 483 0
2022-06-21 19:15:16 GMT 41.900879 -86.722054 35,000 86 483 0
2022-06-21 19:15:13 GMT 41.900620 -86.729073 35,000 86 483 0
2022-06-21 19:15:10 GMT 41.900318 -86.736420 35,025 86 483 0
2022-06-21 19:15:06 GMT 41.899796 -86.750298 35,000 86 483 0
2022-06-21 19:15:03 GMT 41.899387 -86.760567 35,025 86 483 0
2022-06-21 19:15:00 GMT 41.899109 -86.767143 35,000 86 483 0
2022-06-21 19:14:55 GMT 41.898411 -86.784775 35,000 86 482 0
2022-06-21 19:14:50 GMT 41.897781 -86.799858 35,000 86 482 0
2022-06-21 19:14:45 GMT 41.897278 -86.812096 35,000 86 482 0
2022-06-21 19:14:40 GMT 41.896179 -86.838623 35,000 86 482 0
2022-06-21 19:14:37 GMT 41.896179 -86.838623 35,000 86 482 0
2022-06-21 19:14:33 GMT 41.895676 -86.850609 35,000 86 482 0
2022-06-21 19:14:28 GMT 41.895199 -86.861740 35,000 86 482 0
2022-06-21 19:14:25 GMT 41.894669 -86.875328 35,000 86 482 0
2022-06-21 19:14:21 GMT 41.894360 -86.882629 35,000 86 482 0
2022-06-21 19:14:18 GMT 41.893982 -86.892052 35,000 86 482 0
2022-06-21 19:14:16 GMT 41.893570 -86.901405 35,000 86 481 0
2022-06-21 19:14:12 GMT 41.893158 -86.911095 35,000 86 481 0
2022-06-21 19:14:08 GMT 41.892654 -86.923019 35,000 86 481 64
2022-06-21 19:14:03 GMT 41.892124 -86.935966 35,000 86 481 0
2022-06-21 19:14:00 GMT 41.891602 -86.947983 35,000 86 481 0
2022-06-21 19:13:57 GMT 41.891373 -86.953667 35,000 86 481 0
2022-06-21 19:13:54 GMT 41.890823 -86.967201 35,000 86 481 0
2022-06-21 19:13:51 GMT 41.890495 -86.974670 35,000 86 481 0
2022-06-21 19:13:47 GMT 41.890125 -86.983292 35,000 86 481 0
2022-06-21 19:13:44 GMT 41.889751 -86.992493 35,000 86 481 0
2022-06-21 19:13:42 GMT 41.889450 -86.998550 35,000 86 480 0
2022-06-21 19:13:39 GMT 41.888962 -87.010315 35,000 86 480 0
2022-06-21 19:13:35 GMT 41.888588 -87.018936 35,000 86 480 0
2022-06-21 19:13:31 GMT 41.888077 -87.030815 35,000 86 480 0
2022-06-21 19:13:28 GMT 41.887516 -87.042702 35,000 86 480 0
2022-06-21 19:13:25 GMT 41.887161 -87.051796 35,000 86 480 0
2022-06-21 19:13:20 GMT 41.886398 -87.068565 35,000 86 480 0
2022-06-21 19:13:17 GMT 41.886028 -87.077507 35,000 86 480 0
2022-06-21 19:13:14 GMT 41.885788 -87.083252 35,000 86 480 0
2022-06-21 19:13:11 GMT 41.885376 -87.092491 35,000 86 480 0
2022-06-21 19:13:07 GMT 41.884872 -87.104355 35,000 86 480 0
2022-06-21 19:13:04 GMT 41.884506 -87.112656 35,000 86 480 0
2022-06-21 19:13:01 GMT 41.884071 -87.122032 35,000 86 480 0
2022-06-21 19:12:58 GMT 41.883682 -87.131073 35,000 86 479 64
2022-06-21 19:12:55 GMT 41.883316 -87.139999 35,000 86 479 0
2022-06-21 19:12:51 GMT 41.882629 -87.155243 35,000 86 479 0
2022-06-21 19:12:48 GMT 41.882446 -87.159843 35,000 86 479 0
2022-06-21 19:12:45 GMT 41.881886 -87.172745 35,000 86 479 0
2022-06-21 19:12:41 GMT 41.881439 -87.182945 35,000 86 479 0
2022-06-21 19:12:38 GMT 41.881210 -87.187996 35,000 86 479 0
2022-06-21 19:12:35 GMT 41.880569 -87.202232 35,000 86 479 0
2022-06-21 19:12:31 GMT 41.880348 -87.208260 35,000 86 479 0
2022-06-21 19:12:29 GMT 41.879974 -87.216881 35,000 86 479 0
2022-06-21 19:12:25 GMT 41.879379 -87.230698 35,000 86 479 0
2022-06-21 19:12:22 GMT 41.879044 -87.238853 35,000 86 479 -64
2022-06-21 19:12:19 GMT 41.878578 -87.248886 35,000 86 479 0
2022-06-21 19:12:16 GMT 41.878189 -87.257973 35,000 86 479 0
2022-06-21 19:12:13 GMT 41.877834 -87.267021 35,000 86 479 0
2022-06-21 19:12:10 GMT 41.877556 -87.273216 35,000 86 479 0
2022-06-21 19:12:07 GMT 41.877136 -87.282570 35,000 86 479 0
2022-06-21 19:12:04 GMT 41.876671 -87.293655 35,000 86 479 0
2022-06-21 19:11:59 GMT 41.875763 -87.313660 35,000 86 479 0
2022-06-21 19:11:57 GMT 41.875763 -87.313660 35,000 86 479 0
2022-06-21 19:11:53 GMT 41.875351 -87.322830 35,000 86 479 0
2022-06-21 19:11:50 GMT 41.874809 -87.334541 35,000 86 479 0
2022-06-21 19:11:47 GMT 41.874481 -87.341629 35,000 86 478 0
2022-06-21 19:11:43 GMT 41.873840 -87.355415 35,000 86 478 0
2022-06-21 19:11:40 GMT 41.873520 -87.362221 35,000 86 478 0
2022-06-21 19:11:37 GMT 41.873016 -87.373146 35,000 86 478 0
2022-06-21 19:11:34 GMT 41.872650 -87.380569 35,000 86 478 0
2022-06-21 19:11:31 GMT 41.872147 -87.390869 35,000 86 478 0
2022-06-21 19:11:28 GMT 41.871876 -87.396690 35,000 86 478 0
2022-06-21 19:11:26 GMT 41.870991 -87.415276 35,025 86 478 0
2022-06-21 19:11:23 GMT 41.870758 -87.419998 35,000 86 478 0
2022-06-21 19:11:17 GMT 41.870316 -87.429321 35,000 86 478 0
2022-06-21 19:11:15 GMT 41.870041 -87.435570 35,000 86 478 -64
2022-06-21 19:11:12 GMT 41.869549 -87.446320 35,025 86 478 -64
2022-06-21 19:11:07 GMT 41.868851 -87.460495 35,000 86 478 -64
2022-06-21 19:11:04 GMT 41.868290 -87.472633 35,025 86 478 -64
2022-06-21 19:11:01 GMT 41.868073 -87.477203 35,025 86 478 0
2022-06-21 19:10:58 GMT 41.867687 -87.485603 35,025 86 478 -64
2022-06-21 19:10:55 GMT 41.867035 -87.498627 35,025 86 478 0
2022-06-21 19:10:51 GMT 41.866615 -87.508087 35,025 86 478 0
2022-06-21 19:10:48 GMT 41.866150 -87.516899 35,025 86 477 0
2022-06-21 19:10:45 GMT 41.865917 -87.522522 35,025 86 477 0
2022-06-21 19:10:43 GMT 41.865589 -87.529037 35,025 86 477 0
2022-06-21 19:10:40 GMT 41.864639 -87.549545 35,025 86 477 0
2022-06-21 19:10:37 GMT 41.864639 -87.549545 35,025 86 477 0
2022-06-21 19:10:34 GMT 41.864197 -87.558228 35,025 86 477 0
2022-06-21 19:10:31 GMT 41.863777 -87.567680 35,025 86 477 0
2022-06-21 19:10:28 GMT 41.863403 -87.575089 35,025 86 477 0
2022-06-21 19:10:25 GMT 41.862946 -87.584694 35,025 86 477 0
2022-06-21 19:10:23 GMT 41.862762 -87.589127 35,025 86 477 0
2022-06-21 19:10:20 GMT 41.862259 -87.599739 35,025 86 477 0
2022-06-21 19:10:17 GMT 41.861389 -87.618340 35,025 86 477 0
2022-06-21 19:10:14 GMT 41.861389 -87.618340 35,000 86 478 64
2022-06-21 19:10:11 GMT 41.860611 -87.634422 35,025 86 477 0
2022-06-21 19:10:08 GMT 41.860611 -87.634422 35,025 86 477 0
2022-06-21 19:10:04 GMT 41.860191 -87.643303 35,025 86 477 0
2022-06-21 19:10:01 GMT 41.859352 -87.661827 35,025 86 477 0
2022-06-21 19:09:58 GMT 41.859352 -87.661827 35,025 86 477 0
2022-06-21 19:09:53 GMT 41.858608 -87.677475 35,025 86 476 0
2022-06-21 19:09:50 GMT 41.858047 -87.689690 35,025 86 476 64
2022-06-21 19:09:47 GMT 41.857769 -87.696068 35,025 86 476 64
2022-06-21 19:09:44 GMT 41.857224 -87.707977 35,025 86 476 0
2022-06-21 19:09:41 GMT 41.856400 -87.725334 35,025 86 476 64
2022-06-21 19:09:38 GMT 41.856400 -87.725334 35,025 86 476 64
2022-06-21 19:09:34 GMT 41.855484 -87.744492 35,000 86 478 64
2022-06-21 19:09:31 GMT 41.855484 -87.744492 35,000 86 478 64
2022-06-21 19:09:28 GMT 41.855026 -87.753357 35,000 86 478 64
2022-06-21 19:09:25 GMT 41.854607 -87.762299 35,000 86 478 0
2022-06-21 19:09:21 GMT 41.854065 -87.772774 35,000 86 478 0
2022-06-21 19:09:18 GMT 41.853516 -87.784317 35,000 86 478 0
2022-06-21 19:09:15 GMT 41.853115 -87.792709 35,000 86 478 0
2022-06-21 19:09:12 GMT 41.852882 -87.797112 35,000 86 478 0
2022-06-21 19:09:09 GMT 41.852325 -87.808037 35,000 86 478 0
2022-06-21 19:09:06 GMT 41.851997 -87.814232 35,000 86 478 0
2022-06-21 19:09:03 GMT 41.851410 -87.826141 35,000 86 477 0
2022-06-21 19:08:59 GMT 41.850769 -87.839066 35,000 86 477 0
2022-06-21 19:08:56 GMT 41.850266 -87.848244 35,000 86 477 64
2022-06-21 19:08:53 GMT 41.849991 -87.854111 35,000 86 477 64
2022-06-21 19:08:50 GMT 41.849392 -87.865715 35,000 86 477 64
2022-06-21 19:08:47 GMT 41.848972 -87.873955 35,000 86 477 64
2022-06-21 19:08:44 GMT 41.848507 -87.883087 35,000 86 477 0
2022-06-21 19:08:41 GMT 41.848087 -87.890755 35,000 86 477 0
2022-06-21 19:08:38 GMT 41.847565 -87.900925 35,000 86 477 0
2022-06-21 19:08:34 GMT 41.846504 -87.922241 34,975 86 476 0
2022-06-21 19:08:31 GMT 41.846504 -87.922241 35,000 86 477 0
2022-06-21 19:08:27 GMT 41.845551 -87.940933 34,975 86 476 0
2022-06-21 19:08:24 GMT 41.845551 -87.940933 34,975 86 476 0
2022-06-21 19:08:21 GMT 41.845139 -87.948868 34,975 86 476 0
2022-06-21 19:08:18 GMT 41.844681 -87.957352 34,975 86 476 0
2022-06-21 19:08:16 GMT 41.843803 -87.974556 34,975 86 476 0
2022-06-21 19:08:13 GMT 41.843479 -87.981010 34,975 86 476 0
2022-06-21 19:08:10 GMT 41.843479 -87.981010 34,975 86 476 0
2022-06-21 19:08:07 GMT 41.842850 -87.992310 34,975 86 476 0
2022-06-21 19:08:04 GMT 41.841988 -88.009178 34,975 86 476 0
2022-06-21 19:08:01 GMT 41.841988 -88.009178 34,975 86 476 0
2022-06-21 19:07:58 GMT 41.841476 -88.019463 34,975 86 476 0
2022-06-21 19:07:55 GMT 41.841057 -88.027382 34,975 86 476 0
2022-06-21 19:07:52 GMT 41.840591 -88.036446 34,975 86 475 0
2022-06-21 19:07:49 GMT 41.839783 -88.052177 35,000 86 475 0
2022-06-21 19:07:46 GMT 41.839783 -88.052177 35,000 86 475 0
2022-06-21 19:07:43 GMT 41.839336 -88.060852 35,000 86 475 64
2022-06-21 19:07:40 GMT 41.838917 -88.068703 34,975 86 475 64
2022-06-21 19:07:37 GMT 41.837894 -88.088058 34,975 85 476 0
2022-06-21 19:07:34 GMT 41.837894 -88.088058 34,975 85 476 0
2022-06-21 19:07:31 GMT 41.837379 -88.098091 34,975 85 476 0
2022-06-21 19:07:28 GMT 41.836899 -88.107292 34,975 85 476 0
2022-06-21 19:07:25 GMT 41.836487 -88.114662 34,975 85 476 0
2022-06-21 19:07:23 GMT 41.836212 -88.120216 34,975 85 476 0
2022-06-21 19:07:19 GMT 41.835659 -88.130661 34,975 86 475 0
2022-06-21 19:07:16 GMT 41.834728 -88.148544 34,975 86 475 0
2022-06-21 19:07:13 GMT 41.834728 -88.148544 34,975 86 475 0
2022-06-21 19:07:10 GMT 41.834167 -88.158516 34,975 86 475 0
2022-06-21 19:07:06 GMT 41.833656 -88.168480 34,975 86 475 -64
2022-06-21 19:07:03 GMT 41.833050 -88.180489 34,975 86 475 -64
2022-06-21 19:07:00 GMT 41.832214 -88.196579 35,000 86 475 -64
2022-06-21 19:06:57 GMT 41.832214 -88.196579 35,000 86 475 -64
2022-06-21 19:06:53 GMT 41.831635 -88.207047 35,000 86 475 -64
2022-06-21 19:06:51 GMT 41.831314 -88.213158 35,000 86 475 -64
2022-06-21 19:06:48 GMT 41.830864 -88.222130 34,975 86 475 -64
2022-06-21 19:06:45 GMT 41.830399 -88.231079 35,000 86 475 0
2022-06-21 19:06:42 GMT 41.829887 -88.240913 35,000 85 475 64
2022-06-21 19:06:39 GMT 41.829514 -88.247932 35,000 86 475 64
2022-06-21 19:06:36 GMT 41.828861 -88.259941 34,975 85 475 64
2022-06-21 19:06:33 GMT 41.828396 -88.268761 34,975 85 475 64
2022-06-21 19:06:30 GMT 41.827930 -88.277512 34,975 85 475 0
2022-06-21 19:06:27 GMT 41.827606 -88.283958 34,975 85 475 0
2022-06-21 19:06:23 GMT 41.827045 -88.294502 34,975 85 475 0
2022-06-21 19:06:20 GMT 41.826393 -88.305931 34,975 85 475 0
2022-06-21 19:06:17 GMT 41.826023 -88.312958 34,975 85 475 0
2022-06-21 19:06:14 GMT 41.825638 -88.320778 34,975 85 475 0
2022-06-21 19:06:11 GMT 41.824997 -88.332451 34,975 85 475 0
2022-06-21 19:06:07 GMT 41.824299 -88.345215 35,000 85 475 0
2022-06-21 19:06:04 GMT 41.823975 -88.351089 34,975 85 475 0
2022-06-21 19:06:01 GMT 41.823463 -88.360161 35,000 85 475 0
2022-06-21 19:05:58 GMT 41.822994 -88.368660 34,975 85 475 0
2022-06-21 19:05:55 GMT 41.822578 -88.376831 35,000 85 475 0
2022-06-21 19:05:52 GMT 41.821976 -88.387192 35,000 85 475 0
2022-06-21 19:05:49 GMT 41.821609 -88.394249 35,000 85 475 0
2022-06-21 19:05:46 GMT 41.821060 -88.403610 35,000 85 475 0
2022-06-21 19:05:43 GMT 41.820557 -88.412727 35,000 85 475 0
2022-06-21 19:05:40 GMT 41.820065 -88.422188 34,975 85 475 0
2022-06-21 19:05:38 GMT 41.819691 -88.428383 35,000 85 475 0
2022-06-21 19:05:34 GMT 41.819229 -88.437012 35,000 85 475 0
2022-06-21 19:05:32 GMT 41.818863 -88.443436 35,000 85 474 0
2022-06-21 19:05:29 GMT 41.817764 -88.463036 35,000 85 474 0
2022-06-21 19:05:26 GMT 41.817364 -88.470215 35,000 85 474 0
2022-06-21 19:05:21 GMT 41.817036 -88.475777 35,000 85 474 0
2022-06-21 19:05:18 GMT 41.816525 -88.484848 35,000 85 474 0
2022-06-21 19:05:15 GMT 41.815933 -88.494621 35,000 85 475 0
2022-06-21 19:05:12 GMT 41.815361 -88.505287 35,000 85 475 0
2022-06-21 19:05:09 GMT 41.815018 -88.511353 35,000 85 475 0
2022-06-21 19:05:06 GMT 41.814514 -88.519783 35,000 85 475 0
2022-06-21 19:05:03 GMT 41.814011 -88.528725 35,000 85 475 0
2022-06-21 19:05:00 GMT 41.813358 -88.540161 35,000 85 475 0
2022-06-21 19:04:57 GMT 41.812958 -88.547058 35,000 85 475 -64
2022-06-21 19:04:54 GMT 41.812408 -88.556419 35,000 85 475 -64
2022-06-21 19:04:51 GMT 41.811962 -88.563858 35,000 85 475 -64
2022-06-21 19:04:48 GMT 41.811264 -88.576645 35,000 85 475 0
2022-06-21 19:04:45 GMT 41.810890 -88.582893 35,000 85 475 0
2022-06-21 19:04:42 GMT 41.810333 -88.592026 35,000 85 475 0
2022-06-21 19:04:39 GMT 41.809845 -88.600929 35,000 85 475 0
2022-06-21 19:04:36 GMT 41.809498 -88.606972 35,000 85 475 0
2022-06-21 19:04:34 GMT 41.808609 -88.622650 35,000 85 475 0
2022-06-21 19:04:31 GMT 41.808609 -88.622650 35,000 85 475 0
2022-06-21 19:04:28 GMT 41.808006 -88.633034 35,000 85 475 0
2022-06-21 19:04:25 GMT 41.807262 -88.646255 35,000 85 475 0
2022-06-21 19:04:23 GMT 41.807262 -88.646255 35,000 85 475 0
2022-06-21 19:04:20 GMT 41.806889 -88.653534 35,000 85 476 0
2022-06-21 19:04:17 GMT 41.806332 -88.662926 35,000 85 476 0
2022-06-21 19:04:15 GMT 41.805866 -88.671997 35,000 85 476 0
2022-06-21 19:04:12 GMT 41.805542 -88.677147 35,000 85 476 0
2022-06-21 19:04:09 GMT 41.804901 -88.688881 35,000 85 476 0
2022-06-21 19:04:06 GMT 41.803894 -88.707047 35,025 85 476 0
2022-06-21 19:04:03 GMT 41.803894 -88.707047 35,000 85 476 0
2022-06-21 19:04:00 GMT 41.803444 -88.715111 35,025 85 476 0
2022-06-21 19:03:57 GMT 41.802933 -88.723923 35,000 85 476 0
2022-06-21 19:03:54 GMT 41.802383 -88.733452 35,025 85 476 0
2022-06-21 19:03:51 GMT 41.801880 -88.742004 35,025 85 476 0
2022-06-21 19:03:48 GMT 41.801395 -88.750305 35,025 85 476 -64
2022-06-21 19:03:45 GMT 41.800827 -88.760170 35,025 85 476 -64
2022-06-21 19:03:41 GMT 41.800373 -88.767616 35,025 85 476 -64
2022-06-21 19:03:39 GMT 41.799866 -88.776588 35,025 85 476 -64
2022-06-21 19:03:35 GMT 41.799068 -88.790230 35,025 85 476 -64
2022-06-21 19:03:32 GMT 41.798767 -88.795372 35,025 85 476 -64
2022-06-21 19:03:30 GMT 41.797951 -88.810471 35,025 85 476 0
2022-06-21 19:03:27 GMT 41.797951 -88.810471 35,025 85 476 0
2022-06-21 19:03:24 GMT 41.797344 -88.821014 35,025 85 476 0
2022-06-21 19:03:20 GMT 41.796249 -88.840508 35,025 85 476 0
2022-06-21 19:03:17 GMT 41.795654 -88.850494 35,025 85 476 64
2022-06-21 19:03:14 GMT 41.795197 -88.858421 35,025 85 476 0
2022-06-21 19:03:11 GMT 41.794739 -88.865784 35,025 85 476 0
2022-06-21 19:03:08 GMT 41.794739 -88.865784 35,025 85 476 64
2022-06-21 19:03:05 GMT 41.794132 -88.875626 35,025 85 476 64
2022-06-21 19:03:02 GMT 41.793045 -88.893692 35,025 85 477 64
2022-06-21 19:02:59 GMT 41.793045 -88.893692 35,025 85 477 64
2022-06-21 19:02:56 GMT 41.792587 -88.900993 35,025 85 477 0
2022-06-21 19:02:53 GMT 41.791992 -88.910881 35,025 85 477 0
2022-06-21 19:02:50 GMT 41.791481 -88.919701 35,025 85 477 0
2022-06-21 19:02:47 GMT 41.791016 -88.926727 35,025 85 477 0
2022-06-21 19:02:44 GMT 41.790363 -88.937584 35,025 85 477 0
2022-06-21 19:02:41 GMT 41.789433 -88.953171 35,000 85 477 0
2022-06-21 19:02:38 GMT 41.789433 -88.953171 35,000 85 477 0
2022-06-21 19:02:35 GMT 41.788872 -88.962555 35,000 85 477 0
2022-06-21 19:02:32 GMT 41.788406 -88.970222 35,000 85 476 64
2022-06-21 19:02:29 GMT 41.787689 -88.982140 35,000 85 476 64
2022-06-21 19:02:25 GMT 41.786911 -88.995064 35,000 85 476 64
2022-06-21 19:02:22 GMT 41.786453 -89.003242 35,000 85 476 0
2022-06-21 19:02:17 GMT 41.785538 -89.018784 35,000 85 476 0
2022-06-21 19:02:14 GMT 41.785172 -89.024651 35,000 85 476 64
2022-06-21 19:02:11 GMT 41.784546 -89.035118 35,000 85 476 64
2022-06-21 19:02:07 GMT 41.783939 -89.045662 35,000 85 476 64
2022-06-21 19:02:05 GMT 41.783569 -89.051369 35,000 85 476 64
2022-06-21 19:02:02 GMT 41.782928 -89.062477 35,000 85 476 64
2022-06-21 19:01:59 GMT 41.782635 -89.067055 34,975 85 476 0
2022-06-21 19:01:56 GMT 41.781796 -89.080856 34,975 85 476 0
2022-06-21 19:01:52 GMT 41.781193 -89.090820 34,975 85 476 0
2022-06-21 19:01:49 GMT 41.780594 -89.100685 35,000 85 476 0
2022-06-21 19:01:46 GMT 41.780212 -89.106979 35,000 85 476 0
2022-06-21 19:01:44 GMT 41.779934 -89.111382 34,975 85 476 0
2022-06-21 19:01:41 GMT 41.779331 -89.121346 35,000 85 476 0
2022-06-21 19:01:38 GMT 41.778679 -89.132530 35,000 85 476 0
2022-06-21 19:01:35 GMT 41.778122 -89.141502 35,000 85 476 64
2022-06-21 19:01:30 GMT 41.777481 -89.151741 34,975 85 476 0
2022-06-21 19:01:27 GMT 41.776611 -89.165535 35,000 85 476 64
2022-06-21 19:01:24 GMT 41.776211 -89.172127 34,975 85 476 64
2022-06-21 19:01:20 GMT 41.775467 -89.184326 34,975 85 476 64
2022-06-21 19:01:16 GMT 41.774815 -89.194740 34,975 85 476 64
2022-06-21 19:01:12 GMT 41.773956 -89.208672 34,975 85 476 64
2022-06-21 19:01:10 GMT 41.773788 -89.211731 34,975 85 476 64
2022-06-21 19:01:07 GMT 41.772583 -89.230644 34,975 85 476 64
2022-06-21 19:01:04 GMT 41.772583 -89.230644 34,975 85 476 64
2022-06-21 19:01:01 GMT 41.771942 -89.240883 34,950 85 476 64
2022-06-21 19:00:58 GMT 41.771324 -89.251015 34,950 85 475 0
2022-06-21 19:00:55 GMT 41.771046 -89.255424 34,950 85 475 0
2022-06-21 19:00:52 GMT 41.770340 -89.267288 34,950 85 475 0
2022-06-21 19:00:48 GMT 41.769600 -89.279121 34,950 85 475 0
2022-06-21 19:00:44 GMT 41.768993 -89.288826 34,975 85 475 0
2022-06-21 19:00:41 GMT 41.768509 -89.296249 34,950 85 475 0
2022-06-21 19:00:38 GMT 41.767971 -89.304924 34,950 85 475 0
2022-06-21 19:00:35 GMT 41.767319 -89.315605 34,950 85 475 0
2022-06-21 19:00:32 GMT 41.766712 -89.324532 34,975 85 475 0
2022-06-21 19:00:29 GMT 41.766083 -89.334641 34,975 85 475 0
2022-06-21 19:00:26 GMT 41.765553 -89.343567 34,975 85 475 0
2022-06-21 19:00:23 GMT 41.765038 -89.351166 34,975 85 475 0
2022-06-21 19:00:20 GMT 41.764481 -89.359917 34,975 85 475 0
2022-06-21 19:00:17 GMT 41.764114 -89.365913 34,975 85 475 0
2022-06-21 19:00:14 GMT 41.763409 -89.376907 34,975 85 475 0
2022-06-21 19:00:11 GMT 41.762108 -89.397667 34,975 85 475 0
2022-06-21 19:00:08 GMT 41.762108 -89.397667 34,975 85 475 0
2022-06-21 19:00:03 GMT 41.761360 -89.409676 34,975 85 475 -64
2022-06-21 19:00:00 GMT 41.759903 -89.431709 34,975 85 475 -64
2022-06-21 18:59:56 GMT 41.759903 -89.431709 34,975 85 475 -64
2022-06-21 18:59:53 GMT 41.759445 -89.438759 34,975 85 475 -64
2022-06-21 18:59:50 GMT 41.758987 -89.446213 35,000 85 475 -64
2022-06-21 18:59:47 GMT 41.758347 -89.455742 35,000 85 475 -64
2022-06-21 18:59:44 GMT 41.757568 -89.468040 35,000 85 475 -64
2022-06-21 18:59:40 GMT 41.756470 -89.484703 35,000 85 475 -64
2022-06-21 18:59:38 GMT 41.756470 -89.484703 35,000 85 475 -64
2022-06-21 18:59:34 GMT 41.755417 -89.501373 35,000 85 475 -64
2022-06-21 18:59:31 GMT 41.755417 -89.501373 35,000 85 475 0
2022-06-21 18:59:28 GMT 41.754776 -89.511299 35,000 85 475 0
2022-06-21 18:59:23 GMT 41.753819 -89.526054 35,000 85 475 -64
2022-06-21 18:59:19 GMT 41.753029 -89.538383 35,000 85 475 0
2022-06-21 18:59:16 GMT 41.752533 -89.546127 35,000 85 475 -64
2022-06-21 18:59:13 GMT 41.751446 -89.562973 35,000 85 475 -64
2022-06-21 18:59:10 GMT 41.751446 -89.562973 35,000 85 475 -64
2022-06-21 18:59:07 GMT 41.750652 -89.575241 35,025 85 475 -64
2022-06-21 18:59:02 GMT 41.749878 -89.587387 35,025 85 475 -64
2022-06-21 18:58:59 GMT 41.749329 -89.595879 35,025 85 475 -64
2022-06-21 18:58:56 GMT 41.748791 -89.604492 35,025 85 475 -64
2022-06-21 18:58:53 GMT 41.748001 -89.616501 35,025 85 475 0
2022-06-21 18:58:50 GMT 41.747723 -89.620590 35,025 85 475 0
2022-06-21 18:58:47 GMT 41.747086 -89.631020 35,025 85 475 -64
2022-06-21 18:58:45 GMT 41.746765 -89.635391 35,025 85 475 -64
2022-06-21 18:58:41 GMT 41.745720 -89.651634 35,025 85 475 0
2022-06-21 18:58:37 GMT 41.745022 -89.663063 35,025 85 475 0
2022-06-21 18:58:31 GMT 41.744064 -89.677528 35,025 85 476 0
2022-06-21 18:58:28 GMT 41.743515 -89.686638 35,025 85 476 -64
2022-06-21 18:58:25 GMT 41.742741 -89.698769 35,025 85 476 -64
2022-06-21 18:58:20 GMT 41.741997 -89.710205 35,025 85 476 0
2022-06-21 18:58:15 GMT 41.741016 -89.725212 35,025 84 477 0
2022-06-21 18:58:12 GMT 41.740356 -89.735580 35,025 84 477 0
2022-06-21 18:58:09 GMT 41.739948 -89.741631 35,025 84 477 0
2022-06-21 18:58:06 GMT 41.739395 -89.750000 35,025 84 477 0
2022-06-21 18:58:03 GMT 41.738754 -89.760300 35,025 84 477 0
2022-06-21 18:58:01 GMT 41.738132 -89.769226 35,025 84 477 0
2022-06-21 18:57:58 GMT 41.737610 -89.776718 35,025 84 477 0
2022-06-21 18:57:54 GMT 41.736919 -89.787170 35,025 84 477 64
2022-06-21 18:57:49 GMT 41.736008 -89.800812 35,025 84 479 64
2022-06-21 18:57:45 GMT 41.735199 -89.812149 35,025 84 479 64
2022-06-21 18:57:43 GMT 41.734726 -89.819351 35,025 84 479 64
2022-06-21 18:57:40 GMT 41.733337 -89.838913 35,025 84 479 0
2022-06-21 18:57:37 GMT 41.732964 -89.844208 35,025 84 479 0
2022-06-21 18:57:32 GMT 41.732452 -89.851624 35,025 84 479 0
2022-06-21 18:57:28 GMT 41.731613 -89.863792 35,025 84 479 0
2022-06-21 18:57:24 GMT 41.730591 -89.877808 35,025 84 479 0
2022-06-21 18:57:19 GMT 41.729565 -89.892502 35,025 84 479 0
2022-06-21 18:57:16 GMT 41.729053 -89.899590 35,025 84 479 0
2022-06-21 18:57:13 GMT 41.728363 -89.909111 35,025 84 479 0
2022-06-21 18:57:09 GMT 41.727539 -89.921227 35,025 84 479 0
2022-06-21 18:57:06 GMT 41.726852 -89.930901 35,025 84 479 64
2022-06-21 18:57:02 GMT 41.726074 -89.942513 35,000 84 478 64
2022-06-21 18:56:58 GMT 41.725285 -89.953690 35,000 84 478 64
2022-06-21 18:56:54 GMT 41.724445 -89.965446 35,000 84 477 0
2022-06-21 18:56:47 GMT 41.722733 -89.990578 35,000 84 477 -64
2022-06-21 18:56:44 GMT 41.722733 -89.990578 35,000 84 477 -64
2022-06-21 18:56:40 GMT 41.721771 -90.004997 35,000 84 477 0
2022-06-21 18:56:36 GMT 41.721046 -90.015717 35,000 84 477 0
2022-06-21 18:56:33 GMT 41.720581 -90.023056 35,000 84 476 0
2022-06-21 18:56:29 GMT 41.719696 -90.036026 35,000 84 477 0
2022-06-21 18:56:27 GMT 41.719322 -90.041580 35,000 84 477 0
2022-06-21 18:56:24 GMT 41.718674 -90.051865 35,000 84 477 0
2022-06-21 18:56:20 GMT 41.717834 -90.064049 35,000 84 477 0
2022-06-21 18:56:17 GMT 41.717228 -90.073326 35,000 84 477 0
2022-06-21 18:56:14 GMT 41.716484 -90.083870 35,000 84 477 0
2022-06-21 18:56:10 GMT 41.714813 -90.108368 35,000 84 477 0
2022-06-21 18:56:05 GMT 41.714813 -90.108368 35,000 84 478 0
2022-06-21 18:56:02 GMT 41.714264 -90.116295 35,000 84 478 0
2022-06-21 18:55:58 GMT 41.713413 -90.128769 35,000 84 477 0
2022-06-21 18:55:55 GMT 41.713039 -90.134331 35,000 84 477 0
2022-06-21 18:55:52 GMT 41.712250 -90.145187 35,000 84 477 0
2022-06-21 18:55:48 GMT 41.711472 -90.155869 35,000 84 477 64
2022-06-21 18:55:46 GMT 41.710991 -90.162811 35,000 84 477 0
2022-06-21 18:55:43 GMT 41.710106 -90.175079 35,000 84 476 0
2022-06-21 18:55:38 GMT 41.709320 -90.186394 35,000 84 477 0
2022-06-21 18:55:35 GMT 41.708710 -90.195007 35,000 84 476 0
2022-06-21 18:55:32 GMT 41.708038 -90.204559 35,000 84 476 -64
2022-06-21 18:55:27 GMT 41.707031 -90.218605 35,000 84 476 0
2022-06-21 18:55:23 GMT 41.705452 -90.240677 35,000 84 476 0
2022-06-21 18:55:20 GMT 41.705452 -90.240677 35,000 84 476 0
2022-06-21 18:55:16 GMT 41.704147 -90.258926 35,000 84 476 0
2022-06-21 18:55:13 GMT 41.704147 -90.258926 35,000 84 476 0
2022-06-21 18:55:10 GMT 41.703278 -90.270599 35,000 84 475 0
2022-06-21 18:55:07 GMT 41.702682 -90.279404 35,000 84 475 0
2022-06-21 18:55:04 GMT 41.702007 -90.288582 35,000 84 475 0
2022-06-21 18:55:01 GMT 41.701584 -90.294571 35,000 84 475 -64
2022-06-21 18:54:58 GMT 41.700657 -90.307236 35,000 84 474 0
2022-06-21 18:54:54 GMT 41.700256 -90.313232 35,000 84 474 0
2022-06-21 18:54:51 GMT 41.699585 -90.322121 35,000 84 474 0
2022-06-21 18:54:48 GMT 41.698929 -90.331528 35,000 84 471 256
2022-06-21 18:54:45 GMT 41.698105 -90.343201 35,000 84 474 0
2022-06-21 18:54:42 GMT 41.697399 -90.352966 35,000 84 473 0
2022-06-21 18:54:38 GMT 41.695816 -90.374908 35,000 84 474 0
2022-06-21 18:54:33 GMT 41.695816 -90.374908 35,000 84 474 0
2022-06-21 18:54:30 GMT 41.694946 -90.386833 35,000 84 475 0
2022-06-21 18:54:25 GMT 41.693390 -90.408676 35,000 84 475 0
2022-06-21 18:54:21 GMT 41.693390 -90.408676 35,000 84 475 0
2022-06-21 18:54:18 GMT 41.691833 -90.429962 35,000 84 476 0
2022-06-21 18:54:15 GMT 41.691833 -90.429962 35,000 84 476 0
2022-06-21 18:54:12 GMT 41.691158 -90.439201 35,000 84 476 0
2022-06-21 18:54:09 GMT 41.690506 -90.448380 35,000 84 476 0
2022-06-21 18:54:01 GMT 41.689041 -90.468857 35,000 84 476 0
2022-06-21 18:53:59 GMT 41.688507 -90.475990 35,000 84 476 0
2022-06-21 18:53:56 GMT 41.688080 -90.482025 35,000 84 475 64
2022-06-21 18:53:51 GMT 41.686661 -90.500938 34,975 84 473 128
2022-06-21 18:53:48 GMT 41.685947 -90.510674 34,975 84 473 192
2022-06-21 18:53:42 GMT 41.684830 -90.525490 34,950 84 471 192
2022-06-21 18:53:39 GMT 41.684177 -90.534180 34,950 84 470 128
2022-06-21 18:53:36 GMT 41.683338 -90.545097 34,950 84 469 -64
2022-06-21 18:53:30 GMT 41.682175 -90.560432 34,950 84 469 -64
2022-06-21 18:53:25 GMT 41.681259 -90.572037 34,950 82 467 -128
2022-06-21 18:53:22 GMT 41.680298 -90.583839 34,950 83 468 0
2022-06-21 18:53:19 GMT 41.679749 -90.590767 34,975 83 468 0
2022-06-21 18:53:15 GMT 41.678776 -90.603287 34,950 83 468 0
2022-06-21 18:53:11 GMT 41.677799 -90.615295 34,950 83 467 0
2022-06-21 18:53:08 GMT 41.677322 -90.620918 34,950 83 468 64
2022-06-21 18:53:05 GMT 41.676544 -90.630562 34,950 83 467 0
2022-06-21 18:53:02 GMT 41.675720 -90.640144 35,000 88 470 -64
2022-06-21 18:52:59 GMT 41.674896 -90.650192 34,950 83 468 64
2022-06-21 18:52:53 GMT 41.673702 -90.663780 34,950 83 468 64
2022-06-21 18:52:50 GMT 41.672653 -90.675972 34,950 82 467 -64
2022-06-21 18:52:47 GMT 41.672241 -90.680588 34,950 82 467 -64
2022-06-21 18:52:43 GMT 41.671051 -90.693764 34,950 82 467 -64
2022-06-21 18:52:38 GMT 41.669495 -90.710365 34,975 83 468 -64
2022-06-21 18:52:32 GMT 41.667938 -90.726967 34,975 83 468 -64
2022-06-21 18:52:27 GMT 41.666721 -90.740303 34,975 83 468 0
2022-06-21 18:52:20 GMT 41.664734 -90.763367 34,975 83 468 0
2022-06-21 18:52:17 GMT 41.664047 -90.771667 34,975 84 468 0
2022-06-21 18:52:13 GMT 41.663368 -90.780411 34,975 86 468 0
2022-06-21 18:52:09 GMT 41.662624 -90.791656 34,975 85 468 0
2022-06-21 18:52:06 GMT 41.662125 -90.800133 34,975 86 467 0
2022-06-21 18:51:57 GMT 41.661118 -90.823479 34,975 88 469 0
2022-06-21 18:51:55 GMT 41.660950 -90.831131 34,975 88 469 0
2022-06-21 18:51:46 GMT 41.660385 -90.860558 35,000 88 470 -64
2022-06-21 18:51:38 GMT 41.660015 -90.880119 35,000 88 470 -64
2022-06-21 18:51:35 GMT 41.659828 -90.890533 35,000 88 471 -64
2022-06-21 18:51:31 GMT 41.659412 -90.912888 35,000 88 471 -64
2022-06-21 18:51:28 GMT 41.659412 -90.912888 35,025 88 471 -64
2022-06-21 18:51:25 GMT 41.659286 -90.920296 35,025 88 471 -64
2022-06-21 18:51:19 GMT 41.658966 -90.937149 35,025 88 471 -64
2022-06-21 18:51:14 GMT 41.658737 -90.950752 35,025 88 472 0
2022-06-21 18:51:09 GMT 41.658463 -90.966171 35,025 88 472 -64
2022-06-21 18:51:04 GMT 41.658154 -90.981171 35,025 88 473 0
2022-06-21 18:50:59 GMT 41.657913 -90.996513 35,025 88 473 0
2022-06-21 18:50:53 GMT 41.657642 -91.012405 35,025 88 474 0
2022-06-21 18:50:48 GMT 41.657410 -91.027161 35,025 88 474 0
2022-06-21 18:50:45 GMT 41.657272 -91.034714 35,025 88 474 0
2022-06-21 18:50:42 GMT 41.657181 -91.042641 35,025 88 475 64
2022-06-21 18:50:38 GMT 41.656952 -91.057869 35,000 88 475 64
2022-06-21 18:50:35 GMT 41.656853 -91.065292 35,000 89 475 64
2022-06-21 18:50:33 GMT 41.656712 -91.073212 35,000 89 476 64
2022-06-21 18:50:28 GMT 41.656570 -91.083748 35,000 89 476 64
2022-06-21 18:50:24 GMT 41.656387 -91.099335 35,000 88 476 64
2022-06-21 18:50:21 GMT 41.656338 -91.103996 35,000 88 476 0
2022-06-21 18:50:16 GMT 41.656036 -91.121475 35,000 87 477 0
2022-06-21 18:50:12 GMT 41.655716 -91.133530 35,000 86 476 -64
2022-06-21 18:50:05 GMT 41.654987 -91.151329 35,000 85 477 0
2022-06-21 18:50:01 GMT 41.654251 -91.164047 35,000 84 476 0
2022-06-21 18:49:55 GMT 41.651871 -91.196739 35,000 84 477 0
2022-06-21 18:49:51 GMT 41.651871 -91.196739 35,000 84 477 0
2022-06-21 18:49:48 GMT 41.651184 -91.205627 35,000 84 478 0
2022-06-21 18:49:42 GMT 41.650055 -91.220123 35,000 84 477 0
2022-06-21 18:49:39 GMT 41.649357 -91.229195 35,000 84 477 0
2022-06-21 18:49:37 GMT 41.649033 -91.233780 35,000 84 478 0
2022-06-21 18:49:32 GMT 41.647614 -91.251945 35,000 84 478 0
2022-06-21 18:49:27 GMT 41.646656 -91.264389 35,000 84 478 0
2022-06-21 18:49:23 GMT 41.645725 -91.276138 35,000 84 479 0
2022-06-21 18:49:19 GMT 41.644775 -91.288338 35,000 84 479 0
2022-06-21 18:49:16 GMT 41.644089 -91.297447 35,000 84 479 0
2022-06-21 18:49:13 GMT 41.643448 -91.305687 35,000 83 481 -64
2022-06-21 18:49:10 GMT 41.642883 -91.312866 35,000 84 480 64
2022-06-21 18:49:05 GMT 41.641708 -91.328346 35,000 84 479 0
2022-06-21 18:49:02 GMT 41.641068 -91.336586 35,000 84 480 0
2022-06-21 18:48:59 GMT 41.640198 -91.348068 35,000 84 480 64
2022-06-21 18:48:55 GMT 41.639465 -91.357437 35,000 84 480 64
2022-06-21 18:48:52 GMT 41.638641 -91.367485 35,000 83 481 64
2022-06-21 18:48:48 GMT 41.637810 -91.378532 35,000 84 480 64
2022-06-21 18:48:45 GMT 41.637222 -91.385773 35,000 84 481 64
2022-06-21 18:48:42 GMT 41.635666 -91.405502 35,000 83 481 0
2022-06-21 18:48:40 GMT 41.635666 -91.405502 35,000 83 481 0
2022-06-21 18:48:32 GMT 41.633945 -91.427521 35,000 83 481 -64
2022-06-21 18:48:28 GMT 41.633247 -91.436401 35,000 83 482 -64
2022-06-21 18:48:25 GMT 41.632370 -91.447136 35,000 83 482 -64
2022-06-21 18:48:22 GMT 41.631500 -91.458122 35,000 84 483 0
2022-06-21 18:48:17 GMT 41.630630 -91.469612 35,000 84 483 0
2022-06-21 18:48:11 GMT 41.629105 -91.488708 35,000 84 482 -64
2022-06-21 18:48:07 GMT 41.628315 -91.499062 35,000 84 483 0
2022-06-21 18:48:03 GMT 41.627472 -91.509560 35,025 83 483 -64
2022-06-21 18:47:59 GMT 41.626419 -91.522919 35,025 83 483 -64
2022-06-21 18:47:57 GMT 41.625961 -91.529099 35,000 83 483 64
2022-06-21 18:47:53 GMT 41.625046 -91.540710 35,025 83 483 64
2022-06-21 18:47:49 GMT 41.624130 -91.552254 35,000 83 483 64
2022-06-21 18:47:46 GMT 41.623398 -91.561432 35,000 83 483 0
2022-06-21 18:47:43 GMT 41.622620 -91.570923 35,000 83 484 0
2022-06-21 18:47:40 GMT 41.621979 -91.578972 35,000 83 484 0
2022-06-21 18:47:37 GMT 41.621246 -91.588150 35,000 83 484 0
2022-06-21 18:47:34 GMT 41.620285 -91.600632 35,000 83 484 0
2022-06-21 18:47:29 GMT 41.619423 -91.611160 35,000 83 485 0
2022-06-21 18:47:26 GMT 41.617794 -91.631088 35,000 83 485 -64
2022-06-21 18:47:23 GMT 41.617794 -91.631088 35,000 83 485 -64
2022-06-21 18:47:20 GMT 41.617035 -91.640457 35,025 83 485 -64
2022-06-21 18:47:15 GMT 41.616074 -91.652695 35,025 83 485 -64
2022-06-21 18:47:12 GMT 41.615341 -91.661621 35,025 83 485 0
2022-06-21 18:47:06 GMT 41.613739 -91.681221 35,025 83 485 0
2022-06-21 18:47:03 GMT 41.611881 -91.703964 35,025 83 486 0
2022-06-21 18:46:58 GMT 41.611881 -91.703964 35,025 83 485 0
2022-06-21 18:46:55 GMT 41.611176 -91.712746 35,025 83 486 0
2022-06-21 18:46:51 GMT 41.610252 -91.724213 35,025 83 486 0
2022-06-21 18:46:47 GMT 41.609253 -91.736275 35,025 83 486 0
2022-06-21 18:46:44 GMT 41.608521 -91.745270 35,025 83 486 0
2022-06-21 18:46:41 GMT 41.607834 -91.753571 35,025 83 486 0
2022-06-21 18:46:37 GMT 41.606762 -91.766563 35,025 83 486 0
2022-06-21 18:46:34 GMT 41.606094 -91.774170 35,025 83 486 0
2022-06-21 18:46:31 GMT 41.605225 -91.784904 35,025 83 486 0
2022-06-21 18:46:28 GMT 41.604340 -91.795753 35,025 83 486 0
2022-06-21 18:46:25 GMT 41.603531 -91.805443 35,025 83 486 0
2022-06-21 18:46:21 GMT 41.602798 -91.814743 35,025 83 487 0
2022-06-21 18:46:16 GMT 41.601780 -91.827118 35,025 83 487 0
2022-06-21 18:46:14 GMT 41.600986 -91.836700 35,025 83 487 0
2022-06-21 18:46:11 GMT 41.600243 -91.845642 35,025 83 487 0
2022-06-21 18:46:06 GMT 41.599319 -91.857124 35,025 83 487 0
2022-06-21 18:46:04 GMT 41.598568 -91.866524 35,025 83 488 0
2022-06-21 18:46:01 GMT 41.597591 -91.878212 35,025 83 487 0
2022-06-21 18:45:56 GMT 41.596619 -91.890335 35,025 83 488 0
2022-06-21 18:45:52 GMT 41.595634 -91.902420 35,025 83 488 0
2022-06-21 18:45:49 GMT 41.595032 -91.909897 35,025 83 488 0
2022-06-21 18:45:43 GMT 41.593277 -91.931595 35,025 83 488 0
2022-06-21 18:45:40 GMT 41.592468 -91.941071 35,025 83 488 0
2022-06-21 18:45:35 GMT 41.591583 -91.951797 35,025 83 488 0
2022-06-21 18:45:32 GMT 41.590794 -91.961700 35,025 83 488 -64
2022-06-21 18:45:29 GMT 41.589352 -91.978752 35,025 83 488 -64
2022-06-21 18:45:26 GMT 41.589352 -91.978752 35,025 83 488 0
2022-06-21 18:45:22 GMT 41.588326 -91.991013 35,025 83 488 0
2022-06-21 18:45:19 GMT 41.587349 -92.002960 35,025 83 488 0
2022-06-21 18:45:16 GMT 41.586548 -92.012749 35,025 83 488 0
2022-06-21 18:45:12 GMT 41.585861 -92.020798 35,025 83 489 64
2022-06-21 18:45:08 GMT 41.584717 -92.034279 35,025 83 489 64
2022-06-21 18:45:03 GMT 41.583672 -92.046715 35,025 83 489 0
2022-06-21 18:44:58 GMT 41.582134 -92.064667 35,025 83 489 64
2022-06-21 18:44:53 GMT 41.581158 -92.076355 35,000 83 489 64
2022-06-21 18:44:48 GMT 41.579716 -92.093468 35,000 83 490 64
2022-06-21 18:44:43 GMT 41.578537 -92.108002 35,000 83 489 64
2022-06-21 18:44:38 GMT 41.577106 -92.124641 35,000 83 490 64
2022-06-21 18:44:32 GMT 41.575432 -92.144440 35,000 83 490 64
2022-06-21 18:44:27 GMT 41.574501 -92.155235 35,000 83 490 0
2022-06-21 18:44:21 GMT 41.572823 -92.175354 35,000 83 490 0
2022-06-21 18:44:17 GMT 41.571854 -92.186592 35,000 83 490 0
2022-06-21 18:44:14 GMT 41.570938 -92.197388 34,975 83 490 64
2022-06-21 18:44:11 GMT 41.570171 -92.206528 35,000 83 490 64
2022-06-21 18:44:07 GMT 41.569054 -92.219688 34,975 83 490 64
2022-06-21 18:44:00 GMT 41.567562 -92.237381 35,000 83 490 0
2022-06-21 18:43:56 GMT 41.566498 -92.249512 34,975 83 490 0
2022-06-21 18:43:49 GMT 41.564445 -92.273338 34,975 83 489 0
2022-06-21 18:43:45 GMT 41.563797 -92.280914 34,975 83 489 0
2022-06-21 18:43:39 GMT 41.561279 -92.310387 34,975 83 489 -64
2022-06-21 18:43:36 GMT 41.561279 -92.310387 34,975 83 489 -64
2022-06-21 18:43:30 GMT 41.559952 -92.325478 35,000 83 489 -64
2022-06-21 18:43:25 GMT 41.558578 -92.341087 35,000 83 489 -64
2022-06-21 18:43:20 GMT 41.557159 -92.357193 35,000 83 488 -64
2022-06-21 18:43:13 GMT 41.555321 -92.378540 35,025 83 488 -64
2022-06-21 18:43:10 GMT 41.554504 -92.387344 35,000 83 488 0
2022-06-21 18:43:05 GMT 41.552944 -92.405113 35,000 83 488 64
2022-06-21 18:43:02 GMT 41.552528 -92.409584 35,000 83 488 64
2022-06-21 18:42:57 GMT 41.550797 -92.429169 35,000 83 488 64
2022-06-21 18:42:52 GMT 41.549789 -92.440216 35,000 83 489 0
2022-06-21 18:42:49 GMT 41.548920 -92.450073 35,000 83 489 0
2022-06-21 18:42:44 GMT 41.547592 -92.465157 35,000 83 489 0
2022-06-21 18:42:41 GMT 41.546989 -92.471733 35,000 83 489 0
2022-06-21 18:42:36 GMT 41.545498 -92.488785 35,000 83 489 -64
2022-06-21 18:42:32 GMT 41.544296 -92.502388 35,000 83 489 0
2022-06-21 18:42:26 GMT 41.542706 -92.520470 35,000 83 489 0
2022-06-21 18:42:23 GMT 41.542236 -92.526047 35,025 83 489 64
2022-06-21 18:42:20 GMT 41.541321 -92.536217 35,000 83 489 0
2022-06-21 18:42:15 GMT 41.539993 -92.551453 35,000 83 489 0
2022-06-21 18:42:11 GMT 41.538750 -92.565369 35,000 83 489 0
2022-06-21 18:42:07 GMT 41.537888 -92.575111 35,000 83 490 -64
2022-06-21 18:42:04 GMT 41.537212 -92.583000 35,000 83 490 -64
2022-06-21 18:42:00 GMT 41.535999 -92.596794 35,000 83 490 -64
2022-06-21 18:41:57 GMT 41.535255 -92.604912 35,000 83 490 -64
2022-06-21 18:41:54 GMT 41.534466 -92.613853 35,000 83 489 -64
2022-06-21 18:41:50 GMT 41.533161 -92.628540 35,025 83 489 -64
2022-06-21 18:41:46 GMT 41.532463 -92.636337 35,025 83 489 -64
2022-06-21 18:41:42 GMT 41.531300 -92.649490 35,025 83 489 0
2022-06-21 18:41:39 GMT 41.530460 -92.658752 35,025 83 489 64
2022-06-21 18:41:36 GMT 41.529671 -92.667702 35,025 83 489 64
2022-06-21 18:41:32 GMT 41.528461 -92.681175 35,000 83 489 64
2022-06-21 18:41:25 GMT 41.526737 -92.700020 35,000 83 490 0
2022-06-21 18:41:21 GMT 41.525620 -92.712440 35,000 83 490 0
2022-06-21 18:41:18 GMT 41.524780 -92.721924 35,000 83 490 0
2022-06-21 18:41:15 GMT 41.524063 -92.730164 35,000 83 490 0
2022-06-21 18:41:11 GMT 41.522919 -92.742874 35,000 82 490 0
2022-06-21 18:41:08 GMT 41.521957 -92.753510 35,000 83 490 0
2022-06-21 18:41:05 GMT 41.521271 -92.761002 35,000 83 490 0
2022-06-21 18:41:00 GMT 41.519939 -92.775833 35,000 83 490 0
2022-06-21 18:40:57 GMT 41.519028 -92.785843 35,000 83 490 0
2022-06-21 18:40:54 GMT 41.518311 -92.793785 35,000 83 490 0
2022-06-21 18:40:50 GMT 41.517334 -92.804451 35,000 82 490 0
2022-06-21 18:40:44 GMT 41.515659 -92.822845 34,975 82 490 64
2022-06-21 18:40:40 GMT 41.512772 -92.854271 35,000 82 490 0
2022-06-21 18:40:33 GMT 41.512772 -92.854271 34,975 83 490 0
2022-06-21 18:40:29 GMT 41.511292 -92.870300 35,000 83 490 0
2022-06-21 18:40:26 GMT 41.510490 -92.879181 35,000 83 490 64
2022-06-21 18:40:23 GMT 41.509933 -92.885185 34,975 83 490 0
2022-06-21 18:40:19 GMT 41.508682 -92.899078 34,975 82 490 0
2022-06-21 18:40:14 GMT 41.507538 -92.911690 34,975 82 490 0
2022-06-21 18:40:11 GMT 41.506256 -92.925301 34,975 82 490 0
2022-06-21 18:40:07 GMT 41.505615 -92.932663 34,975 83 490 0
2022-06-21 18:40:00 GMT 41.502857 -92.962730 34,975 83 490 0
2022-06-21 18:39:57 GMT 41.502857 -92.962730 34,975 82 490 0
2022-06-21 18:39:51 GMT 41.501175 -92.981163 34,975 82 490 0
2022-06-21 18:39:48 GMT 41.500298 -92.990646 35,000 82 490 -64
2022-06-21 18:39:42 GMT 41.498482 -93.009804 35,000 82 490 0
2022-06-21 18:39:37 GMT 41.497086 -93.025070 35,000 82 490 0
2022-06-21 18:39:31 GMT 41.495548 -93.041550 35,000 82 490 0
2022-06-21 18:39:28 GMT 41.494583 -93.052200 35,000 82 491 -64
2022-06-21 18:39:19 GMT 41.491917 -93.080261 35,000 82 491 -64
2022-06-21 18:39:16 GMT 41.491241 -93.087593 35,000 82 491 0
2022-06-21 18:39:10 GMT 41.489635 -93.104851 35,000 82 491 0
2022-06-21 18:39:06 GMT 41.486843 -93.134811 35,000 82 491 0
2022-06-21 18:39:00 GMT 41.486843 -93.134811 35,000 82 491 0
2022-06-21 18:38:55 GMT 41.485397 -93.150459 35,000 82 491 0
2022-06-21 18:38:48 GMT 41.483093 -93.175171 35,000 83 492 0
2022-06-21 18:38:44 GMT 41.482140 -93.185844 35,000 83 492 0
2022-06-21 18:38:37 GMT 41.480419 -93.204498 35,000 83 492 0
2022-06-21 18:38:34 GMT 41.479580 -93.213821 35,000 83 492 0
2022-06-21 18:38:27 GMT 41.477531 -93.235794 35,000 82 492 0
2022-06-21 18:38:23 GMT 41.476501 -93.246773 35,000 82 492 0
2022-06-21 18:38:16 GMT 41.474304 -93.270180 35,000 83 492 -64
2022-06-21 18:38:13 GMT 41.473572 -93.278046 35,000 83 492 -64
2022-06-21 18:38:08 GMT 41.472366 -93.291107 35,000 83 492 0
2022-06-21 18:38:05 GMT 41.471603 -93.299706 35,000 83 492 -64
2022-06-21 18:38:02 GMT 41.470734 -93.308868 35,000 83 493 0
2022-06-21 18:37:57 GMT 41.469479 -93.322723 35,000 83 493 0
2022-06-21 18:37:53 GMT 41.467850 -93.340340 35,000 82 493 64
2022-06-21 18:37:45 GMT 41.465652 -93.363503 35,000 82 493 64
2022-06-21 18:37:42 GMT 41.465057 -93.369926 35,000 82 493 0
2022-06-21 18:37:35 GMT 41.462906 -93.392715 35,000 82 493 -64
2022-06-21 18:37:32 GMT 41.461891 -93.403397 35,000 82 494 -64
2022-06-21 18:37:24 GMT 41.459934 -93.424217 35,000 82 495 -64
2022-06-21 18:37:21 GMT 41.459049 -93.433548 35,025 82 495 -64
2022-06-21 18:37:14 GMT 41.456863 -93.455704 35,025 82 495 0
2022-06-21 18:37:07 GMT 41.454628 -93.478516 35,025 82 495 0
2022-06-21 18:37:04 GMT 41.453838 -93.486305 35,025 82 495 0
2022-06-21 18:37:00 GMT 41.452488 -93.499596 35,025 82 495 0
2022-06-21 18:36:53 GMT 41.450638 -93.518181 35,025 82 495 0
2022-06-21 18:36:49 GMT 41.449696 -93.527374 35,025 82 495 0
2022-06-21 18:36:43 GMT 41.447365 -93.549667 35,000 82 496 0
2022-06-21 18:36:40 GMT 41.446247 -93.560593 35,025 82 495 0
2022-06-21 18:36:36 GMT 41.445282 -93.570992 35,025 83 496 0
2022-06-21 18:36:32 GMT 41.444458 -93.580421 35,025 83 496 0
2022-06-21 18:36:29 GMT 41.443726 -93.589783 35,025 84 496 -64
2022-06-21 18:36:24 GMT 41.442665 -93.604858 35,025 85 496 0
2022-06-21 18:36:19 GMT 41.441666 -93.622993 35,025 86 496 0
2022-06-21 18:36:12 GMT 41.440849 -93.644463 35,000 88 497 64
2022-06-21 18:36:08 GMT 41.440613 -93.654701 35,000 88 497 0
2022-06-21 18:36:04 GMT 41.440475 -93.664642 35,000 89 497 0
2022-06-21 18:36:00 GMT 41.440384 -93.676201 35,000 90 497 0
2022-06-21 18:35:57 GMT 41.440430 -93.686165 35,000 91 497 0
2022-06-21 18:35:54 GMT 41.440613 -93.697151 35,000 92 497 0
2022-06-21 18:35:51 GMT 41.440796 -93.706322 35,000 92 497 0
2022-06-21 18:35:48 GMT 41.441208 -93.717621 35,000 93 497 0
2022-06-21 18:35:43 GMT 41.442215 -93.739906 35,000 93 497 0
2022-06-21 18:35:40 GMT 41.442215 -93.739906 35,000 93 498 0
2022-06-21 18:35:37 GMT 41.442665 -93.749214 35,000 93 498 0
2022-06-21 18:35:33 GMT 41.443176 -93.759132 35,000 93 498 0
2022-06-21 18:35:30 GMT 41.443726 -93.770119 35,000 93 498 0
2022-06-21 18:35:27 GMT 41.444340 -93.782173 35,000 93 497 0
2022-06-21 18:35:24 GMT 41.444805 -93.791306 35,000 93 498 0
2022-06-21 18:35:20 GMT 41.445366 -93.802292 35,000 93 498 0
2022-06-21 18:35:16 GMT 41.445831 -93.812508 35,000 93 497 0
2022-06-21 18:35:13 GMT 41.446335 -93.821991 35,000 93 497 0
2022-06-21 18:35:09 GMT 41.446899 -93.834038 35,000 93 497 0
2022-06-21 18:35:06 GMT 41.447433 -93.844528 35,000 93 497 0
2022-06-21 18:35:01 GMT 41.448120 -93.858261 35,000 93 497 0
2022-06-21 18:34:58 GMT 41.448486 -93.865623 35,000 93 497 0
2022-06-21 18:34:53 GMT 41.449448 -93.885101 35,000 93 497 0
2022-06-21 18:34:48 GMT 41.450157 -93.899635 35,000 93 498 0
2022-06-21 18:34:44 GMT 41.450626 -93.909088 35,000 93 498 0
2022-06-21 18:34:39 GMT 41.452194 -93.940971 35,025 93 498 0
2022-06-21 18:34:35 GMT 41.452194 -93.940971 35,000 93 498 0
2022-06-21 18:34:31 GMT 41.452675 -93.950287 35,000 93 498 0
2022-06-21 18:34:28 GMT 41.453110 -93.959633 35,000 93 498 0
2022-06-21 18:34:24 GMT 41.453697 -93.972008 35,000 93 498 0
2022-06-21 18:34:21 GMT 41.454117 -93.979927 35,000 93 498 0
2022-06-21 18:34:17 GMT 41.454720 -93.992447 35,000 93 498 0
2022-06-21 18:34:14 GMT 41.455261 -94.004204 35,000 93 498 0
2022-06-21 18:34:11 GMT 41.455559 -94.010201 35,000 93 497 0
2022-06-21 18:34:06 GMT 41.456223 -94.024681 35,000 93 497 0
2022-06-21 18:34:01 GMT 41.457047 -94.042091 35,000 93 497 0
2022-06-21 18:33:57 GMT 41.457733 -94.056450 35,000 93 498 0
2022-06-21 18:33:53 GMT 41.458260 -94.068260 35,000 93 498 0
2022-06-21 18:33:50 GMT 41.458538 -94.074074 35,000 93 498 0
2022-06-21 18:33:46 GMT 41.459145 -94.087486 35,000 93 498 0
2022-06-21 18:33:41 GMT 41.459976 -94.104767 35,000 93 498 0
2022-06-21 18:33:38 GMT 41.460354 -94.112595 35,000 93 498 0
2022-06-21 18:33:35 GMT 41.460663 -94.119186 35,000 93 498 0
2022-06-21 18:33:30 GMT 41.461472 -94.136734 35,000 93 498 0
2022-06-21 18:33:26 GMT 41.462769 -94.163506 35,000 93 499 0
2022-06-21 18:33:22 GMT 41.462769 -94.163506 35,000 93 498 0
2022-06-21 18:33:19 GMT 41.463043 -94.169937 35,000 93 498 0
2022-06-21 18:33:14 GMT 41.463684 -94.183418 35,000 93 498 0
2022-06-21 18:33:10 GMT 41.464451 -94.199776 35,000 93 497 0
2022-06-21 18:33:05 GMT 41.465195 -94.215622 35,000 93 497 0
2022-06-21 18:33:01 GMT 41.465710 -94.227562 35,000 93 498 0
2022-06-21 18:32:54 GMT 41.467072 -94.256454 35,000 93 498 0
2022-06-21 18:32:49 GMT 41.467339 -94.262756 35,000 93 498 0
2022-06-21 18:32:43 GMT 41.468082 -94.278664 35,000 93 497 0
2022-06-21 18:32:38 GMT 41.468811 -94.295280 35,000 93 497 0
2022-06-21 18:32:34 GMT 41.469543 -94.310883 35,000 93 498 64
2022-06-21 18:32:28 GMT 41.470230 -94.326180 35,000 93 498 0
2022-06-21 18:32:25 GMT 41.470783 -94.337685 35,000 93 498 0
2022-06-21 18:32:22 GMT 41.471603 -94.356514 35,025 93 498 0
2022-06-21 18:32:18 GMT 41.471603 -94.356514 35,000 93 498 0
2022-06-21 18:32:12 GMT 41.472595 -94.378693 35,000 93 498 0
2022-06-21 18:32:07 GMT 41.473064 -94.389099 35,000 93 498 -64
2022-06-21 18:32:02 GMT 41.473808 -94.405968 35,000 93 498 -64
2022-06-21 18:31:58 GMT 41.474442 -94.420189 35,025 93 498 -64
2022-06-21 18:31:54 GMT 41.474945 -94.431862 35,025 93 498 -64
2022-06-21 18:31:46 GMT 41.476364 -94.463692 35,025 93 498 -64
2022-06-21 18:31:42 GMT 41.476593 -94.469498 35,025 93 498 0
2022-06-21 18:31:37 GMT 41.477207 -94.483444 35,025 93 498 0
2022-06-21 18:31:32 GMT 41.477737 -94.495842 35,025 93 498 0
2022-06-21 18:31:27 GMT 41.478607 -94.515129 35,025 93 499 0
2022-06-21 18:31:23 GMT 41.479111 -94.526489 35,025 93 499 0
2022-06-21 18:31:15 GMT 41.480026 -94.547653 35,025 93 499 0
2022-06-21 18:31:12 GMT 41.480465 -94.558243 35,025 93 499 0
2022-06-21 18:31:09 GMT 41.480942 -94.568504 35,025 93 499 0
2022-06-21 18:31:05 GMT 41.481396 -94.579704 35,025 93 499 0
2022-06-21 18:31:02 GMT 41.481857 -94.590034 35,025 93 499 0
2022-06-21 18:30:59 GMT 41.482178 -94.597717 35,025 93 499 0
2022-06-21 18:30:56 GMT 41.482746 -94.610428 35,025 93 500 0
2022-06-21 18:30:52 GMT 41.483780 -94.634544 35,025 93 501 0
2022-06-21 18:30:48 GMT 41.483780 -94.634544 35,025 93 500 0
2022-06-21 18:30:44 GMT 41.484192 -94.643784 35,025 93 500 0
2022-06-21 18:30:39 GMT 41.484886 -94.660820 35,025 93 500 0
2022-06-21 18:30:35 GMT 41.485493 -94.674622 35,025 93 500 0
2022-06-21 18:30:31 GMT 41.485958 -94.685410 35,025 93 500 0
2022-06-21 18:30:23 GMT 41.486889 -94.707581 35,025 93 500 0
2022-06-21 18:30:20 GMT 41.487305 -94.716942 35,025 93 501 0
2022-06-21 18:30:14 GMT 41.488220 -94.739418 35,025 93 501 0
2022-06-21 18:30:10 GMT 41.488632 -94.748962 35,025 93 501 0
2022-06-21 18:30:07 GMT 41.489029 -94.758354 35,025 93 501 0
2022-06-21 18:30:03 GMT 41.489540 -94.771263 35,025 93 501 64
2022-06-21 18:29:59 GMT 41.490005 -94.781921 35,025 93 501 64
2022-06-21 18:29:55 GMT 41.490612 -94.796806 35,025 93 501 64
2022-06-21 18:29:52 GMT 41.490845 -94.803322 35,000 93 501 64
2022-06-21 18:29:47 GMT 41.491516 -94.820061 35,000 93 501 64
2022-06-21 18:29:42 GMT 41.492149 -94.835007 35,000 93 501 64
2022-06-21 18:29:37 GMT 41.492889 -94.853958 34,975 93 501 64
2022-06-21 18:29:32 GMT 41.493454 -94.867073 34,975 93 501 64
2022-06-21 18:29:28 GMT 41.493965 -94.879402 34,975 93 501 64
2022-06-21 18:29:25 GMT 41.494308 -94.888794 34,975 93 502 64
2022-06-21 18:29:22 GMT 41.494804 -94.900032 34,975 93 502 0
2022-06-21 18:29:18 GMT 41.495132 -94.908516 34,975 93 502 0
2022-06-21 18:29:15 GMT 41.495544 -94.918068 34,975 93 501 0
2022-06-21 18:29:10 GMT 41.496105 -94.932411 34,975 93 501 0
2022-06-21 18:29:06 GMT 41.496780 -94.948593 34,975 93 501 64
2022-06-21 18:29:01 GMT 41.497364 -94.963585 34,975 92 501 64
2022-06-21 18:28:58 GMT 41.497696 -94.971436 34,975 92 502 64
2022-06-21 18:28:53 GMT 41.498291 -94.986855 34,950 92 502 64
2022-06-21 18:28:50 GMT 41.498669 -94.996284 34,950 92 502 64
2022-06-21 18:28:47 GMT 41.499023 -95.005646 34,950 92 502 0
2022-06-21 18:28:44 GMT 41.499344 -95.014633 34,950 92 502 0
2022-06-21 18:28:41 GMT 41.499664 -95.022629 34,950 92 502 0
2022-06-21 18:28:37 GMT 41.500576 -95.046555 34,950 92 502 -64
2022-06-21 18:28:33 GMT 41.500576 -95.046555 34,950 92 502 -64
2022-06-21 18:28:30 GMT 41.501129 -95.060890 34,950 92 502 -64
2022-06-21 18:28:27 GMT 41.501366 -95.067505 34,950 92 502 -64
2022-06-21 18:28:24 GMT 41.501724 -95.076935 34,950 92 501 0
2022-06-21 18:28:19 GMT 41.502296 -95.092224 34,975 92 501 0
2022-06-21 18:28:16 GMT 41.502529 -95.098679 34,975 92 502 0
2022-06-21 18:28:13 GMT 41.503006 -95.111137 34,975 92 502 0
2022-06-21 18:28:09 GMT 41.503510 -95.124123 34,975 92 502 -64
2022-06-21 18:28:06 GMT 41.504471 -95.149406 34,975 92 502 0
2022-06-21 18:28:01 GMT 41.504471 -95.149406 34,975 92 502 0
2022-06-21 18:27:56 GMT 41.504929 -95.162079 34,975 92 502 -64
2022-06-21 18:27:50 GMT 41.505695 -95.181969 34,975 92 502 -64
2022-06-21 18:27:46 GMT 41.506165 -95.194160 34,975 92 502 -64
2022-06-21 18:27:40 GMT 41.506859 -95.213142 35,000 92 502 -64
2022-06-21 18:27:36 GMT 41.507401 -95.226624 35,000 92 502 -64
2022-06-21 18:27:30 GMT 41.508087 -95.245407 35,000 92 503 0
2022-06-21 18:27:25 GMT 41.508591 -95.258766 35,000 92 503 0
2022-06-21 18:27:22 GMT 41.508953 -95.269096 35,000 92 503 -64
2022-06-21 18:27:19 GMT 41.509281 -95.277145 35,000 92 503 0
2022-06-21 18:27:15 GMT 41.509735 -95.289665 35,000 92 503 0
2022-06-21 18:27:11 GMT 41.510147 -95.301094 35,000 92 504 0
2022-06-21 18:27:08 GMT 41.510422 -95.309456 35,000 92 504 0
2022-06-21 18:27:05 GMT 41.510956 -95.323578 35,000 92 504 64
2022-06-21 18:26:58 GMT 41.511562 -95.340317 35,000 92 504 0
2022-06-21 18:26:54 GMT 41.512119 -95.354240 35,000 92 505 0
2022-06-21 18:26:48 GMT 41.512756 -95.372749 35,000 92 505 0
2022-06-21 18:26:43 GMT 41.513260 -95.386421 35,000 92 506 0
2022-06-21 18:26:38 GMT 41.513901 -95.403839 35,000 92 506 -64
2022-06-21 18:26:34 GMT 41.514446 -95.417984 35,000 92 506 -64
2022-06-21 18:26:28 GMT 41.515099 -95.436378 35,000 92 507 -64
2022-06-21 18:26:23 GMT 41.515614 -95.450432 35,000 92 507 -64
2022-06-21 18:26:18 GMT 41.516281 -95.468941 35,000 92 507 -64
2022-06-21 18:26:12 GMT 41.516830 -95.485176 35,025 92 508 0
2022-06-21 18:26:07 GMT 41.517380 -95.500954 35,025 92 508 0
2022-06-21 18:26:03 GMT 41.517895 -95.514687 35,025 92 508 0
2022-06-21 18:25:57 GMT 41.518524 -95.533302 35,000 92 509 0
2022-06-21 18:25:52 GMT 41.519028 -95.547974 35,000 92 509 0
2022-06-21 18:25:47 GMT 41.519661 -95.565659 35,000 92 510 0
2022-06-21 18:25:42 GMT 41.520126 -95.579201 35,000 92 510 64
2022-06-21 18:25:35 GMT 41.520824 -95.600220 35,000 92 511 64
2022-06-21 18:25:31 GMT 41.521198 -95.611206 35,000 92 511 64
2022-06-21 18:25:25 GMT 41.521851 -95.630684 35,000 92 512 0
2022-06-21 18:25:21 GMT 41.522324 -95.643791 35,000 92 512 0
2022-06-21 18:25:15 GMT 41.522968 -95.663452 35,000 92 512 0
2022-06-21 18:25:11 GMT 41.523384 -95.676033 35,000 92 513 0
2022-06-21 18:25:05 GMT 41.524551 -95.709183 35,000 92 513 -64
2022-06-21 18:25:00 GMT 41.524551 -95.709183 35,000 92 513 -64
2022-06-21 18:24:54 GMT 41.525162 -95.728622 35,000 92 514 0
2022-06-21 18:24:51 GMT 41.525620 -95.742165 35,000 92 514 0
2022-06-21 18:24:44 GMT 41.526272 -95.760986 35,000 92 514 0
2022-06-21 18:24:40 GMT 41.526691 -95.773956 35,000 92 515 64
2022-06-21 18:24:34 GMT 41.527294 -95.792351 35,000 92 515 64
2022-06-21 18:24:30 GMT 41.527809 -95.808510 35,000 92 516 0
2022-06-21 18:24:24 GMT 41.528366 -95.825813 35,000 92 516 0
2022-06-21 18:24:18 GMT 41.528915 -95.842918 35,000 92 516 0
2022-06-21 18:24:14 GMT 41.529343 -95.857697 35,000 92 516 0
2022-06-21 18:24:08 GMT 41.529903 -95.874878 35,000 92 516 0
2022-06-21 18:24:04 GMT 41.530426 -95.891228 35,000 92 515 0
2022-06-21 18:23:58 GMT 41.530930 -95.907333 35,000 92 514 0
2022-06-21 18:23:53 GMT 41.531487 -95.924629 35,000 92 513 0
2022-06-21 18:23:47 GMT 41.531982 -95.940231 35,000 92 512 0
2022-06-21 18:23:42 GMT 41.532509 -95.958038 35,000 92 511 -64
2022-06-21 18:23:38 GMT 41.532990 -95.972633 35,000 92 509 0
2022-06-21 18:23:33 GMT 41.533440 -95.987801 35,000 92 508 64
2022-06-21 18:23:27 GMT 41.533997 -96.005463 35,000 92 507 192
2022-06-21 18:23:22 GMT 41.534466 -96.020569 34,950 92 506 448
2022-06-21 18:23:17 GMT 41.535004 -96.039108 34,900 92 506 832
2022-06-21 18:23:11 GMT 41.535416 -96.053406 34,825 92 506 1024
2022-06-21 18:23:06 GMT 41.535954 -96.071030 34,750 92 506 896
2022-06-21 18:23:01 GMT 41.536373 -96.085022 34,675 92 506 960
2022-06-21 18:22:51 GMT 41.537632 -96.127373 34,500 92 506 768
2022-06-21 18:22:46 GMT 41.537865 -96.135803 34,475 92 506 704
2022-06-21 18:22:41 GMT 41.538235 -96.148895 34,400 92 506 768
2022-06-21 18:22:35 GMT 41.538803 -96.167076 34,325 92 506 896
2022-06-21 18:22:30 GMT 41.539261 -96.182991 34,250 92 506 1088
2022-06-21 18:22:25 GMT 41.539719 -96.200096 34,050 92 508 1216
2022-06-21 18:22:21 GMT 41.540146 -96.214302 34,050 92 508 1216
2022-06-21 18:22:14 GMT 41.540657 -96.232758 33,950 92 508 1152
2022-06-21 18:22:10 GMT 41.540981 -96.244965 33,850 92 509 1152
2022-06-21 18:22:04 GMT 41.541588 -96.265915 33,725 92 509 1152
2022-06-21 18:21:59 GMT 41.541916 -96.277794 33,650 92 509 960
2022-06-21 18:21:53 GMT 41.542519 -96.299126 33,525 92 510 960
2022-06-21 18:21:50 GMT 41.542831 -96.310272 33,475 92 510 832
2022-06-21 18:21:43 GMT 41.543381 -96.331306 33,375 92 510 960
2022-06-21 18:21:39 GMT 41.543701 -96.342918 33,325 92 510 1024
2022-06-21 18:21:34 GMT 41.544102 -96.357185 33,225 92 510 1088
2022-06-21 18:21:31 GMT 41.544289 -96.365364 33,175 92 510 1152
2022-06-21 18:21:28 GMT 41.544613 -96.376671 33,125 92 511 1216
2022-06-21 18:21:22 GMT 41.545174 -96.398003 33,025 92 510 640
2022-06-21 18:21:19 GMT 41.545406 -96.406502 33,000 92 510 256
2022-06-21 18:21:14 GMT 41.545807 -96.421761 32,975 92 509 0
2022-06-21 18:21:11 GMT 41.546082 -96.430809 32,975 92 509 64
2022-06-21 18:21:08 GMT 41.546288 -96.438820 32,975 92 509 0
2022-06-21 18:21:03 GMT 41.546707 -96.454788 32,975 92 509 0
2022-06-21 18:21:00 GMT 41.546951 -96.463768 32,975 92 509 0
2022-06-21 18:20:57 GMT 41.547180 -96.472511 32,975 92 510 0
2022-06-21 18:20:50 GMT 41.547779 -96.495285 33,000 92 510 0
2022-06-21 18:20:46 GMT 41.548096 -96.506401 32,975 92 510 -64
2022-06-21 18:20:40 GMT 41.548645 -96.528061 33,000 92 510 -64
2022-06-21 18:20:37 GMT 41.548920 -96.537743 33,000 92 510 -64
2022-06-21 18:20:30 GMT 41.549561 -96.561897 33,000 92 510 -64
2022-06-21 18:20:26 GMT 41.549732 -96.569313 33,000 92 510 -64
2022-06-21 18:20:21 GMT 41.550201 -96.585281 33,000 92 510 -64
2022-06-21 18:20:17 GMT 41.550713 -96.604126 33,025 92 510 -64
2022-06-21 18:20:14 GMT 41.551025 -96.616829 33,000 92 510 0
2022-06-21 18:20:09 GMT 41.551300 -96.626251 33,000 92 510 0
2022-06-21 18:20:06 GMT 41.551529 -96.635368 33,000 91 510 0
2022-06-21 18:20:00 GMT 41.551895 -96.650726 33,000 91 510 0
2022-06-21 18:19:57 GMT 41.552155 -96.660591 33,000 91 510 0
2022-06-21 18:19:54 GMT 41.552399 -96.670509 33,000 91 511 0
2022-06-21 18:19:51 GMT 41.552673 -96.680557 33,000 91 511 0
2022-06-21 18:19:48 GMT 41.552994 -96.693932 33,000 91 511 0
2022-06-21 18:19:45 GMT 41.553131 -96.700188 33,000 91 511 0
2022-06-21 18:19:41 GMT 41.553413 -96.713097 33,000 91 511 -64
2022-06-21 18:19:37 GMT 41.553692 -96.725357 33,025 91 511 0
2022-06-21 18:19:34 GMT 41.553925 -96.734169 33,025 91 511 0
2022-06-21 18:19:31 GMT 41.554157 -96.745796 33,025 91 511 0
2022-06-21 18:19:25 GMT 41.554642 -96.766457 33,000 91 511 0
2022-06-21 18:19:22 GMT 41.554962 -96.779625 33,000 91 512 0
2022-06-21 18:19:17 GMT 41.555191 -96.790359 33,000 91 511 0
2022-06-21 18:19:14 GMT 41.555367 -96.797729 33,000 91 511 64
2022-06-21 18:19:09 GMT 41.555695 -96.811272 33,000 91 511 0
2022-06-21 18:19:06 GMT 41.556019 -96.823532 33,000 91 512 0
2022-06-21 18:19:03 GMT 41.556206 -96.832664 33,000 91 512 0
2022-06-21 18:19:00 GMT 41.556473 -96.843544 33,000 91 512 0
2022-06-21 18:18:54 GMT 41.556858 -96.859428 33,000 91 512 0
2022-06-21 18:18:49 GMT 41.557278 -96.875847 33,000 91 512 0
2022-06-21 18:18:42 GMT 41.557800 -96.898727 33,000 91 512 0
2022-06-21 18:18:39 GMT 41.558067 -96.908356 33,000 91 512 0
2022-06-21 18:18:33 GMT 41.558441 -96.925194 33,000 91 512 0
2022-06-21 18:18:29 GMT 41.558811 -96.941444 33,000 91 512 0
2022-06-21 18:18:24 GMT 41.559185 -96.957794 33,000 91 512 -64
2022-06-21 18:18:18 GMT 41.559509 -96.974533 33,000 91 512 -64
2022-06-21 18:18:14 GMT 41.559814 -96.989174 33,000 91 512 -64
2022-06-21 18:18:11 GMT 41.559975 -96.995293 33,000 91 512 -64
2022-06-21 18:18:07 GMT 41.560226 -97.008026 33,000 91 512 -64
2022-06-21 18:18:02 GMT 41.560547 -97.023819 33,025 91 512 0
2022-06-21 18:17:58 GMT 41.560905 -97.039360 33,025 91 512 0
2022-06-21 18:17:52 GMT 41.561234 -97.056221 33,025 91 512 0
2022-06-21 18:17:47 GMT 41.561554 -97.071075 33,025 91 512 0
2022-06-21 18:17:42 GMT 41.561874 -97.088676 33,025 91 512 0
2022-06-21 18:17:36 GMT 41.562256 -97.106171 33,025 91 512 0
2022-06-21 18:17:32 GMT 41.562607 -97.122452 33,025 91 512 0
2022-06-21 18:17:27 GMT 41.562908 -97.137093 33,025 91 512 0
2022-06-21 18:17:21 GMT 41.563232 -97.153442 33,025 91 512 0
2022-06-21 18:17:15 GMT 41.563606 -97.170815 33,025 91 512 0
2022-06-21 18:17:10 GMT 41.563934 -97.187370 33,025 91 512 0
2022-06-21 18:17:05 GMT 41.564255 -97.202164 33,000 91 512 64
2022-06-21 18:17:01 GMT 41.564537 -97.218719 33,000 91 512 64
2022-06-21 18:16:56 GMT 41.564850 -97.233688 33,000 91 512 0
2022-06-21 18:16:49 GMT 41.565235 -97.253403 33,000 91 512 0
2022-06-21 18:16:45 GMT 41.565491 -97.267082 33,000 91 512 0
2022-06-21 18:16:39 GMT 41.565903 -97.285370 33,000 91 512 0
2022-06-21 18:16:34 GMT 41.566166 -97.299713 33,000 91 512 0
2022-06-21 18:16:29 GMT 41.566540 -97.317978 33,000 91 512 0
2022-06-21 18:16:25 GMT 41.566818 -97.331062 33,000 91 512 0
2022-06-21 18:16:18 GMT 41.567230 -97.352783 33,000 91 512 0
2022-06-21 18:16:14 GMT 41.567471 -97.363647 33,000 91 512 0
2022-06-21 18:16:09 GMT 41.567844 -97.382561 33,000 91 512 0
2022-06-21 18:16:04 GMT 41.568123 -97.396736 33,000 91 512 0
2022-06-21 18:15:58 GMT 41.568497 -97.415642 33,000 91 512 0
2022-06-21 18:15:54 GMT 41.568741 -97.429695 33,000 91 512 0
2022-06-21 18:15:48 GMT 41.569099 -97.450005 33,000 91 512 0
2022-06-21 18:15:43 GMT 41.569286 -97.462654 33,000 91 512 0
2022-06-21 18:15:36 GMT 41.569611 -97.482315 33,000 91 512 0
2022-06-21 18:15:32 GMT 41.569843 -97.495995 33,000 91 511 0
2022-06-21 18:15:26 GMT 41.570160 -97.514084 33,000 91 511 0
2022-06-21 18:15:23 GMT 41.570358 -97.526848 33,000 91 511 0
2022-06-21 18:15:16 GMT 41.570683 -97.548248 33,000 91 511 0
2022-06-21 18:15:12 GMT 41.570869 -97.559555 33,000 91 511 0
2022-06-21 18:15:05 GMT 41.571239 -97.580315 33,000 91 511 0
2022-06-21 18:15:02 GMT 41.571426 -97.591682 33,000 91 511 0
2022-06-21 18:14:56 GMT 41.571800 -97.613014 33,000 91 511 0
2022-06-21 18:14:52 GMT 41.571991 -97.626137 33,000 91 511 0
2022-06-21 18:14:44 GMT 41.572357 -97.647316 33,000 91 511 0
2022-06-21 18:14:40 GMT 41.572540 -97.658844 33,000 91 511 0
2022-06-21 18:14:35 GMT 41.572861 -97.678322 33,000 91 511 0
2022-06-21 18:14:31 GMT 41.573055 -97.689468 33,000 91 511 0
2022-06-21 18:14:26 GMT 41.573292 -97.705505 33,000 91 510 64
2022-06-21 18:14:23 GMT 41.573429 -97.713676 32,975 91 510 64
2022-06-21 18:14:19 GMT 41.573639 -97.728630 32,975 91 510 64
2022-06-21 18:14:14 GMT 41.573914 -97.744614 32,975 91 510 64
2022-06-21 18:14:10 GMT 41.574081 -97.754883 32,975 91 510 0
2022-06-21 18:14:03 GMT 41.574417 -97.777008 32,975 91 510 0
2022-06-21 18:14:00 GMT 41.574554 -97.786438 32,975 91 510 0
2022-06-21 18:13:54 GMT 41.574825 -97.803490 32,975 91 510 0
2022-06-21 18:13:50 GMT 41.575058 -97.819397 32,975 91 510 0
2022-06-21 18:13:43 GMT 41.575386 -97.842766 32,975 91 510 0
2022-06-21 18:13:39 GMT 41.575523 -97.852158 32,975 91 510 0
2022-06-21 18:13:34 GMT 41.575790 -97.867706 32,975 91 510 0
2022-06-21 18:13:31 GMT 41.575897 -97.876045 32,975 91 510 -64
2022-06-21 18:13:28 GMT 41.576035 -97.884476 32,975 91 510 0
2022-06-21 18:13:22 GMT 41.576385 -97.909157 33,000 91 510 -64
2022-06-21 18:13:19 GMT 41.576504 -97.917435 33,000 91 510 -64
2022-06-21 18:13:11 GMT 41.576843 -97.940559 33,000 91 510 0
2022-06-21 18:13:08 GMT 41.576935 -97.949669 33,000 91 510 0
2022-06-21 18:13:01 GMT 41.577301 -97.975075 33,000 91 510 0
2022-06-21 18:12:57 GMT 41.577393 -97.982002 33,000 91 510 0
2022-06-21 18:12:53 GMT 41.577621 -97.997673 33,000 91 510 0
2022-06-21 18:12:48 GMT 41.577850 -98.014465 33,000 91 510 -64
2022-06-21 18:12:43 GMT 41.578037 -98.029221 33,000 91 510 -64
2022-06-21 18:12:37 GMT 41.578262 -98.045677 33,000 91 509 0
2022-06-21 18:12:33 GMT 41.578457 -98.061859 33,000 90 509 0
2022-06-21 18:12:27 GMT 41.578674 -98.078636 33,000 90 509 0
2022-06-21 18:12:22 GMT 41.578857 -98.093987 33,000 90 509 0
2022-06-21 18:12:17 GMT 41.579041 -98.111534 33,000 90 509 0
2022-06-21 18:12:09 GMT 41.579296 -98.136459 33,000 90 510 0
2022-06-21 18:12:05 GMT 41.579388 -98.147446 33,000 90 510 0
2022-06-21 18:12:01 GMT 41.579544 -98.159531 33,000 90 511 0
2022-06-21 18:11:55 GMT 41.579762 -98.178238 33,000 90 512 0
2022-06-21 18:11:51 GMT 41.579910 -98.192619 33,000 90 512 0
2022-06-21 18:11:46 GMT 41.580093 -98.209595 33,000 90 512 0
2022-06-21 18:11:40 GMT 41.580276 -98.224144 33,000 90 512 0
2022-06-21 18:11:35 GMT 41.580460 -98.241661 33,000 90 513 0
2022-06-21 18:11:31 GMT 41.580597 -98.255348 33,000 90 512 64
2022-06-21 18:11:24 GMT 41.580830 -98.276024 33,000 90 512 0
2022-06-21 18:11:21 GMT 41.580963 -98.289124 33,000 90 511 0
2022-06-21 18:11:14 GMT 41.581192 -98.306099 33,000 90 511 -64
2022-06-21 18:11:09 GMT 41.581375 -98.322144 33,000 90 511 0
2022-06-21 18:11:06 GMT 41.581482 -98.333641 33,000 90 510 0
2022-06-21 18:11:03 GMT 41.581577 -98.340858 33,000 90 510 0
2022-06-21 18:11:00 GMT 41.581669 -98.353119 33,000 90 509 0
2022-06-21 18:10:56 GMT 41.581810 -98.367493 33,000 90 509 0
2022-06-21 18:10:53 GMT 41.581856 -98.372543 33,000 90 509 0
2022-06-21 18:10:50 GMT 41.581947 -98.385376 33,000 90 509 64
2022-06-21 18:10:45 GMT 41.582043 -98.399811 33,000 90 509 -128
2022-06-21 18:10:38 GMT 41.582134 -98.421082 33,000 90 510 0
2022-06-21 18:10:35 GMT 41.582199 -98.432571 33,000 90 510 0
2022-06-21 18:10:32 GMT 41.582275 -98.438713 33,000 90 510 0
2022-06-21 18:10:28 GMT 41.582336 -98.450737 33,000 90 509 -64
2022-06-21 18:10:23 GMT 41.582474 -98.468338 33,000 90 509 -128
2022-06-21 18:10:19 GMT 41.582600 -98.481956 33,000 90 510 192
2022-06-21 18:10:12 GMT 41.582787 -98.500481 33,000 90 509 64
2022-06-21 18:10:08 GMT 41.582928 -98.514854 32,975 90 508 0
2022-06-21 18:10:03 GMT 41.583069 -98.533195 33,000 90 508 192
2022-06-21 18:09:58 GMT 41.583206 -98.547424 33,000 90 507 -64
2022-06-21 18:09:52 GMT 41.583344 -98.564545 33,025 90 505 64
2022-06-21 18:09:47 GMT 41.583572 -98.581261 33,000 90 504 0
2022-06-21 18:09:41 GMT 41.583763 -98.598465 33,000 90 503 128
2022-06-21 18:09:37 GMT 41.583858 -98.612068 33,000 90 503 64
2022-06-21 18:09:32 GMT 41.583996 -98.629379 33,000 90 502 -64
2022-06-21 18:09:27 GMT 41.584122 -98.643494 33,000 90 502 0
2022-06-21 18:09:20 GMT 41.584229 -98.662781 33,000 90 501 -256
2022-06-21 18:09:16 GMT 41.584370 -98.675430 33,025 90 502 -64
2022-06-21 18:09:10 GMT 41.584557 -98.694016 33,000 90 501 64
2022-06-21 18:09:07 GMT 41.584648 -98.706665 33,000 90 500 64
2022-06-21 18:09:01 GMT 41.584808 -98.725578 33,000 90 500 -128
2022-06-21 18:08:56 GMT 41.584946 -98.739128 33,000 90 501 -64
2022-06-21 18:08:50 GMT 41.585114 -98.756233 33,000 90 502 0
2022-06-21 18:08:45 GMT 41.585266 -98.770027 33,000 90 503 -128
2022-06-21 18:08:39 GMT 41.585495 -98.789558 33,000 90 505 64
2022-06-21 18:08:36 GMT 41.585674 -98.801521 33,000 90 507 -64
2022-06-21 18:08:29 GMT 41.585857 -98.821770 33,000 90 509 -64
2022-06-21 18:08:25 GMT 41.585953 -98.834671 33,000 90 511 -64
2022-06-21 18:08:19 GMT 41.586136 -98.854355 33,025 90 514 -128
2022-06-21 18:08:13 GMT 41.586185 -98.872223 33,025 90 516 -128
2022-06-21 18:08:09 GMT 41.586231 -98.887177 33,050 90 518 -128
2022-06-21 18:08:05 GMT 41.586227 -98.900108 33,050 90 518 -64
2022-06-21 18:07:57 GMT 41.586227 -98.923080 33,050 90 519 0
2022-06-21 18:07:54 GMT 41.586231 -98.933479 33,050 90 519 0
2022-06-21 18:07:48 GMT 41.586277 -98.954880 33,050 90 519 0
2022-06-21 18:07:44 GMT 41.586319 -98.965591 33,050 90 520 64
2022-06-21 18:07:36 GMT 41.586418 -98.988800 33,025 90 520 0
2022-06-21 18:07:33 GMT 41.586456 -99.000488 33,050 90 520 64
2022-06-21 18:07:27 GMT 41.586464 -99.021179 33,025 90 521 0
2022-06-21 18:07:23 GMT 41.586510 -99.031082 33,025 90 521 0
2022-06-21 18:07:16 GMT 41.586555 -99.054840 33,050 90 521 0
2022-06-21 18:07:13 GMT 41.586605 -99.064102 33,025 90 521 0
2022-06-21 18:07:05 GMT 41.586697 -99.088501 33,050 90 521 0
2022-06-21 18:07:02 GMT 41.586742 -99.098152 33,025 90 521 0
2022-06-21 18:06:56 GMT 41.586838 -99.122551 33,025 90 521 0
2022-06-21 18:06:53 GMT 41.586838 -99.130600 33,025 90 521 0
2022-06-21 18:06:46 GMT 41.586960 -99.164467 33,025 90 521 0
2022-06-21 18:06:42 GMT 41.586960 -99.164467 33,025 90 521 0
2022-06-21 18:06:35 GMT 41.587051 -99.188499 33,025 90 521 0
2022-06-21 18:06:31 GMT 41.587070 -99.197029 33,025 90 521 0
2022-06-21 18:06:24 GMT 41.587162 -99.222061 33,025 90 521 0
2022-06-21 18:06:20 GMT 41.587208 -99.235863 33,025 90 521 64
2022-06-21 18:06:14 GMT 41.587254 -99.257645 33,025 90 521 64
2022-06-21 18:06:11 GMT 41.587280 -99.262283 33,025 90 521 64
2022-06-21 18:06:03 GMT 41.587349 -99.289391 33,000 90 521 64
2022-06-21 18:06:00 GMT 41.587395 -99.296799 33,000 90 521 64
2022-06-21 18:05:55 GMT 41.587418 -99.316154 33,000 90 520 64
2022-06-21 18:05:51 GMT 41.587440 -99.329819 33,000 90 520 0
2022-06-21 18:05:44 GMT 41.587463 -99.348557 33,000 90 520 0
2022-06-21 18:05:39 GMT 41.587509 -99.364906 33,000 90 520 0
2022-06-21 18:05:34 GMT 41.587536 -99.381683 33,000 90 519 0
2022-06-21 18:05:29 GMT 41.587536 -99.397652 33,000 90 519 0
2022-06-21 18:05:22 GMT 41.587536 -99.422951 33,000 90 519 0
2022-06-21 18:05:19 GMT 41.587509 -99.427895 33,000 90 519 0
2022-06-21 18:05:12 GMT 41.587536 -99.450417 33,000 90 518 0
2022-06-21 18:05:09 GMT 41.587509 -99.461411 33,000 90 518 0
2022-06-21 18:05:03 GMT 41.587555 -99.481514 33,000 90 518 0
2022-06-21 18:04:58 GMT 41.587555 -99.494934 33,000 90 518 0
2022-06-21 18:04:53 GMT 41.587509 -99.513786 33,000 90 518 -64
2022-06-21 18:04:48 GMT 41.587536 -99.527321 33,000 90 518 0
2022-06-21 18:04:42 GMT 41.587536 -99.548332 33,000 90 518 0
2022-06-21 18:04:39 GMT 41.587509 -99.560974 33,000 90 518 0
2022-06-21 18:04:31 GMT 41.587509 -99.581703 33,000 90 518 0
2022-06-21 18:04:28 GMT 41.587509 -99.593185 33,000 90 518 0
2022-06-21 18:04:17 GMT 41.587536 -99.626518 33,000 90 519 0
2022-06-21 18:04:11 GMT 41.587555 -99.646179 33,000 90 519 0
2022-06-21 18:04:08 GMT 41.587555 -99.658669 33,000 90 519 0
2022-06-21 18:04:01 GMT 41.587555 -99.679146 33,000 90 519 -64
2022-06-21 18:03:55 GMT 41.587509 -99.702797 33,000 89 520 0
2022-06-21 18:03:51 GMT 41.587536 -99.711914 33,000 89 520 -64
2022-06-21 18:03:46 GMT 41.587486 -99.724686 33,000 89 520 -64
2022-06-21 18:03:43 GMT 41.587440 -99.734970 33,000 89 520 -64
2022-06-21 18:03:39 GMT 41.587418 -99.748245 33,025 89 520 -64
2022-06-21 18:03:36 GMT 41.587372 -99.756920 33,025 89 521 -64
2022-06-21 18:03:30 GMT 41.587303 -99.778534 33,025 89 522 -320
2022-06-21 18:03:26 GMT 41.587254 -99.790092 33,050 89 523 -448
2022-06-21 18:03:20 GMT 41.587162 -99.812325 33,125 89 524 -960
2022-06-21 18:03:16 GMT 41.587143 -99.824089 33,175 89 525 -960
2022-06-21 18:03:08 GMT 41.587097 -99.846748 33,300 89 525 -960
2022-06-21 18:03:05 GMT 41.587097 -99.856483 33,350 89 525 -896
2022-06-21 18:03:01 GMT 41.587051 -99.873962 33,425 89 525 -832
2022-06-21 18:02:56 GMT 41.587025 -99.889931 33,500 89 524 -832
2022-06-21 18:02:51 GMT 41.587006 -99.901428 33,550 89 523 -832
2022-06-21 18:02:48 GMT 41.586960 -99.914909 33,600 89 523 -832
2022-06-21 18:02:45 GMT 41.586929 -99.923782 33,650 89 522 -832
2022-06-21 18:02:37 GMT 41.586868 -99.947060 33,750 89 522 -832
2022-06-21 18:02:34 GMT 41.586838 -99.956871 33,775 89 522 -832
2022-06-21 18:02:28 GMT 41.586777 -99.980202 33,900 89 522 -832
2022-06-21 18:02:24 GMT 41.586697 -99.993851 33,950 89 522 -832
2022-06-21 18:02:20 GMT 41.586685 -100.001740 34,000 89 523 -896
2022-06-21 18:02:17 GMT 41.586605 -100.013145 34,025 89 523 -832
2022-06-21 18:02:13 GMT 41.586548 -100.026520 34,100 89 523 -832
2022-06-21 18:02:04 GMT 41.586418 -100.055428 34,225 89 524 -768
2022-06-21 18:01:57 GMT 41.586273 -100.081078 34,325 89 524 -768
2022-06-21 18:01:54 GMT 41.586231 -100.088646 34,350 89 525 -704
2022-06-21 18:01:49 GMT 41.586136 -100.102051 34,400 89 525 -768
2022-06-21 18:01:46 GMT 41.586094 -100.112915 34,450 89 525 -768
2022-06-21 18:01:43 GMT 41.586044 -100.122238 34,500 89 525 -832
2022-06-21 18:01:38 GMT 41.585953 -100.136948 34,550 89 525 -896
2022-06-21 18:01:35 GMT 41.585861 -100.148621 34,600 89 525 -1024
2022-06-21 18:01:32 GMT 41.585812 -100.156860 34,650 89 525 -1024
2022-06-21 18:01:26 GMT 41.585720 -100.179153 34,775 89 525 -960
2022-06-21 18:01:23 GMT 41.585678 -100.189011 34,800 89 525 -896
2022-06-21 18:01:18 GMT 41.585587 -100.202927 34,875 89 525 -768
2022-06-21 18:01:13 GMT 41.585487 -100.222137 34,925 89 524 -320
2022-06-21 18:01:08 GMT 41.585392 -100.236702 34,950 89 524 -192
2022-06-21 18:01:02 GMT 41.585255 -100.255737 34,975 89 524 -64
2022-06-21 18:00:57 GMT 41.585159 -100.270554 34,975 89 524 -64
2022-06-21 18:00:54 GMT 41.585068 -100.280266 34,975 89 524 -64
2022-06-21 18:00:51 GMT 41.585022 -100.289589 34,975 89 524 -64
2022-06-21 18:00:46 GMT 41.584900 -100.306862 35,000 89 524 -128
2022-06-21 18:00:42 GMT 41.584835 -100.322166 35,000 89 524 -128
2022-06-21 18:00:37 GMT 41.584743 -100.336411 35,000 89 524 -64
2022-06-21 18:00:31 GMT 41.584625 -100.354614 35,025 89 524 -64
2022-06-21 18:00:26 GMT 41.584534 -100.371033 35,025 89 524 -64
2022-06-21 18:00:21 GMT 41.584396 -100.388451 35,025 89 524 -64
2022-06-21 18:00:16 GMT 41.584274 -100.404434 35,025 89 524 0
2022-06-21 18:00:13 GMT 41.584213 -100.414291 35,025 89 524 -64
2022-06-21 18:00:10 GMT 41.584167 -100.422653 35,025 89 525 0
2022-06-21 18:00:05 GMT 41.584042 -100.437714 35,025 89 525 -64
2022-06-21 18:00:00 GMT 41.583858 -100.456810 35,050 89 525 0
2022-06-21 17:59:56 GMT 41.583763 -100.471695 35,025 89 526 0
2022-06-21 17:59:53 GMT 41.583664 -100.481522 35,025 89 526 0
2022-06-21 17:59:50 GMT 41.583618 -100.489014 35,050 89 526 0
2022-06-21 17:59:44 GMT 41.583485 -100.505035 35,050 89 526 0
2022-06-21 17:59:39 GMT 41.583298 -100.523178 35,050 89 527 -64
2022-06-21 17:59:33 GMT 41.583160 -100.541702 35,050 89 527 0
2022-06-21 17:59:29 GMT 41.583023 -100.556427 35,050 89 527 0
2022-06-21 17:59:22 GMT 41.582787 -100.580666 35,050 89 529 0
2022-06-21 17:59:19 GMT 41.582741 -100.589096 35,050 89 528 0
2022-06-21 17:59:12 GMT 41.582554 -100.609283 35,050 89 528 0
2022-06-21 17:59:04 GMT 41.582199 -100.640320 35,050 89 529 0
2022-06-21 17:59:00 GMT 41.582088 -100.650604 35,050 89 529 64
2022-06-21 17:58:57 GMT 41.581993 -100.663254 35,050 89 529 64
2022-06-21 17:58:51 GMT 41.581787 -100.681396 35,050 89 529 0
2022-06-21 17:58:46 GMT 41.581577 -100.699471 35,050 89 530 64
2022-06-21 17:58:40 GMT 41.581421 -100.715286 35,025 89 530 64
2022-06-21 17:58:37 GMT 41.581299 -100.724892 35,025 89 530 64
2022-06-21 17:58:30 GMT 41.581055 -100.748566 35,025 89 530 0
2022-06-21 17:58:24 GMT 41.580738 -100.778099 35,025 89 530 0
2022-06-21 17:58:21 GMT 41.580738 -100.778099 35,025 89 530 0
2022-06-21 17:58:15 GMT 41.580551 -100.799309 35,025 89 530 0
2022-06-21 17:58:11 GMT 41.580414 -100.809921 35,025 89 530 0
2022-06-21 17:58:08 GMT 41.580322 -100.818726 35,025 89 530 0
2022-06-21 17:57:57 GMT 41.579948 -100.853851 35,025 89 530 0
2022-06-21 17:57:50 GMT 41.579666 -100.880936 35,025 89 530 0
2022-06-21 17:57:46 GMT 41.579544 -100.891510 35,025 89 530 0
2022-06-21 17:57:43 GMT 41.579407 -100.904243 35,025 89 530 0
2022-06-21 17:57:39 GMT 41.579269 -100.915039 35,025 89 530 0
2022-06-21 17:57:33 GMT 41.579063 -100.933502 35,025 89 530 0
2022-06-21 17:57:30 GMT 41.578922 -100.944618 35,025 89 530 0
2022-06-21 17:57:24 GMT 41.578674 -100.963730 35,025 89 530 0
2022-06-21 17:57:18 GMT 41.578354 -100.985268 35,025 88 530 0
2022-06-21 17:57:08 GMT 41.577988 -101.014603 35,025 89 530 64
2022-06-21 17:56:59 GMT 41.577576 -101.046562 35,025 89 530 64
2022-06-21 17:56:48 GMT 41.577106 -101.080353 35,025 88 530 0
2022-06-21 17:56:36 GMT 41.576569 -101.119972 35,000 89 529 0
2022-06-21 17:56:28 GMT 41.576176 -101.148827 35,000 88 529 64
2022-06-21 17:56:16 GMT 41.575699 -101.185143 34,975 88 529 64
2022-06-21 17:56:07 GMT 41.575199 -101.216530 34,975 88 529 0
2022-06-21 17:55:58 GMT 41.574734 -101.247444 34,975 88 528 0
2022-06-21 17:55:55 GMT 41.574638 -101.251984 34,975 88 528 0
2022-06-21 17:55:45 GMT 41.574142 -101.284958 34,975 88 527 0
2022-06-21 17:55:35 GMT 41.573593 -101.320976 34,975 88 527 0
2022-06-21 17:55:24 GMT 41.573044 -101.353058 34,975 88 526 64
2022-06-21 17:55:15 GMT 41.572540 -101.384834 34,975 88 526 0
2022-06-21 17:55:02 GMT 41.571899 -101.423660 34,975 88 526 0
2022-06-21 17:54:53 GMT 41.571381 -101.453949 34,975 88 525 0
2022-06-21 17:54:44 GMT 41.570847 -101.486397 34,975 88 525 0
2022-06-21 17:54:33 GMT 41.570309 -101.520187 34,975 88 525 0
2022-06-21 17:54:23 GMT 41.569706 -101.555061 34,975 88 525 0
2022-06-21 17:54:11 GMT 41.568542 -101.616058 34,975 88 524 -64
2022-06-21 17:54:04 GMT 41.568542 -101.616058 34,950 88 525 64
2022-06-21 17:54:01 GMT 41.568420 -101.622353 34,950 88 524 64
2022-06-21 17:53:52 GMT 41.567799 -101.654198 34,950 88 525 0
2022-06-21 17:53:41 GMT 41.567184 -101.687645 34,950 88 525 0
2022-06-21 17:53:30 GMT 41.566540 -101.722984 34,950 88 525 0
2022-06-21 17:53:20 GMT 41.565948 -101.754494 34,975 88 525 0
2022-06-21 17:53:12 GMT 41.565399 -101.784836 34,950 88 525 0
2022-06-21 17:53:09 GMT 41.564713 -101.820976 34,975 88 524 -64
2022-06-21 17:53:00 GMT 41.564713 -101.820976 34,975 88 524 -64
2022-06-21 17:52:55 GMT 41.564445 -101.834702 34,975 88 524 -64
2022-06-21 17:52:49 GMT 41.564072 -101.854759 34,975 88 525 -128
2022-06-21 17:52:38 GMT 41.563049 -101.907074 35,000 88 528 0
2022-06-21 17:52:29 GMT 41.562721 -101.923233 35,000 88 525 0
2022-06-21 17:52:18 GMT 41.562023 -101.955231 35,025 88 526 0
2022-06-21 17:52:08 GMT 41.561234 -101.989700 35,000 88 526 64
2022-06-21 17:51:57 GMT 41.560455 -102.024040 35,000 88 527 0
2022-06-21 17:51:47 GMT 41.559814 -102.056183 35,000 88 528 0
2022-06-21 17:51:43 GMT 41.559586 -102.067856 35,025 88 528 0
2022-06-21 17:51:37 GMT 41.559090 -102.090454 35,025 88 528 0
2022-06-21 17:51:31 GMT 41.558624 -102.110954 35,000 88 528 0
2022-06-21 17:51:25 GMT 41.558300 -102.124947 35,025 88 528 0
2022-06-21 17:51:15 GMT 41.557480 -102.160553 35,000 88 529 0
2022-06-21 17:51:05 GMT 41.556763 -102.191628 35,000 88 529 0
2022-06-21 17:50:59 GMT 41.556160 -102.217049 35,000 88 529 0
2022-06-21 17:50:55 GMT 41.555973 -102.225166 35,000 88 529 0
2022-06-21 17:50:45 GMT 41.555134 -102.259338 35,025 88 529 0
2022-06-21 17:50:37 GMT 41.554623 -102.281822 35,025 88 530 0
2022-06-21 17:50:34 GMT 41.554321 -102.293076 35,025 88 529 64
2022-06-21 17:50:27 GMT 41.553692 -102.319313 35,000 88 530 0
2022-06-21 17:50:24 GMT 41.553497 -102.327286 35,000 88 530 0
2022-06-21 17:50:21 GMT 41.552536 -102.365112 35,000 88 529 -64
2022-06-21 17:50:13 GMT 41.552536 -102.365112 35,000 88 529 64
2022-06-21 17:50:05 GMT 41.552013 -102.385803 35,000 88 530 64
2022-06-21 17:50:02 GMT 41.551804 -102.395386 34,975 88 530 64
2022-06-21 17:49:53 GMT 41.550945 -102.428474 34,975 88 530 64
2022-06-21 17:49:49 GMT 41.550659 -102.440079 34,975 88 530 0
2022-06-21 17:49:45 GMT 41.550339 -102.453438 34,975 88 530 -64
2022-06-21 17:49:40 GMT 41.549789 -102.475601 35,000 88 530 -64
2022-06-21 17:49:33 GMT 41.549240 -102.495827 35,000 88 529 -64
2022-06-21 17:49:29 GMT 41.548828 -102.512115 35,000 87 529 -64
2022-06-21 17:49:24 GMT 41.548573 -102.522369 35,000 88 529 -64
2022-06-21 17:49:19 GMT 41.548153 -102.538338 35,000 87 529 -64
2022-06-21 17:49:12 GMT 41.547501 -102.563377 35,025 87 529 -64
2022-06-21 17:49:09 GMT 41.547268 -102.571167 35,025 87 529 -64
2022-06-21 17:49:03 GMT 41.546768 -102.590271 35,025 87 529 -64
2022-06-21 17:49:00 GMT 41.546474 -102.601768 35,025 87 529 -64
2022-06-21 17:48:55 GMT 41.546082 -102.615990 35,025 87 529 -64
2022-06-21 17:48:52 GMT 41.545822 -102.625206 35,025 87 529 0
2022-06-21 17:48:49 GMT 41.545589 -102.633705 35,050 87 529 -64
2022-06-21 17:48:46 GMT 41.545311 -102.643478 35,025 87 529 -64
2022-06-21 17:48:43 GMT 41.544983 -102.655373 35,050 87 529 -64
2022-06-21 17:48:40 GMT 41.544708 -102.665962 35,050 87 529 -64
2022-06-21 17:48:37 GMT 41.544388 -102.676163 35,025 87 529 0
2022-06-21 17:48:29 GMT 41.543655 -102.701881 35,025 87 529 0
2022-06-21 17:48:26 GMT 41.543472 -102.708374 35,025 87 529 0
2022-06-21 17:48:22 GMT 41.543015 -102.722733 35,025 87 529 0
2022-06-21 17:48:19 GMT 41.542751 -102.732323 35,025 87 529 0
2022-06-21 17:48:16 GMT 41.542328 -102.745514 35,025 87 529 0
2022-06-21 17:48:09 GMT 41.541733 -102.766678 35,050 87 529 64
2022-06-21 17:48:05 GMT 41.541401 -102.777931 35,025 87 529 64
2022-06-21 17:47:59 GMT 41.540771 -102.800568 35,025 87 529 0
2022-06-21 17:47:56 GMT 41.540451 -102.811684 35,025 87 529 0
2022-06-21 17:47:48 GMT 41.539818 -102.836563 35,025 88 529 0
2022-06-21 17:47:44 GMT 41.539627 -102.845200 35,025 88 529 0
2022-06-21 17:47:38 GMT 41.539032 -102.869675 35,050 88 529 -64
2022-06-21 17:47:34 GMT 41.538795 -102.879936 35,050 88 529 0
2022-06-21 17:47:31 GMT 41.538666 -102.887589 35,050 88 529 0
2022-06-21 17:47:27 GMT 41.538300 -102.903877 35,050 87 530 64
2022-06-21 17:47:24 GMT 41.538052 -102.912132 35,050 87 530 64
2022-06-21 17:47:17 GMT 41.536652 -102.940552 35,025 83 533 0
2022-06-21 17:47:14 GMT 41.536285 -102.945580 35,025 83 534 0
2022-06-21 17:47:08 GMT 41.532349 -102.981468 35,025 80 537 -64
2022-06-21 17:47:04 GMT 41.532349 -102.981468 35,025 78 538 -64
2022-06-21 17:46:54 GMT 41.527901 -103.009796 35,025 77 539 0
2022-06-21 17:46:51 GMT 41.525902 -103.021484 35,025 77 538 0
2022-06-21 17:46:46 GMT 41.523788 -103.033905 35,025 77 538 0
2022-06-21 17:46:43 GMT 41.521317 -103.048134 35,025 77 538 64
2022-06-21 17:46:35 GMT 41.517380 -103.071175 35,025 77 537 64
2022-06-21 17:46:32 GMT 41.515274 -103.083282 35,025 77 537 64
2022-06-21 17:46:29 GMT 41.513515 -103.093468 35,025 77 537 64
2022-06-21 17:46:24 GMT 41.511562 -103.104774 35,025 76 537 0
2022-06-21 17:46:21 GMT 41.507217 -103.130035 35,025 77 535 0
2022-06-21 17:46:18 GMT 41.507217 -103.130035 35,025 77 537 0
2022-06-21 17:46:14 GMT 41.505554 -103.139519 35,025 77 537 0
2022-06-21 17:46:10 GMT 41.503601 -103.150948 35,025 77 535 0
2022-06-21 17:46:04 GMT 41.497742 -103.184776 35,025 77 536 0
2022-06-21 17:46:00 GMT 41.497742 -103.184776 35,025 77 536 0
2022-06-21 17:45:55 GMT 41.494995 -103.200882 35,025 77 536 0
2022-06-21 17:45:52 GMT 41.493164 -103.211494 35,025 77 535 0
2022-06-21 17:45:49 GMT 41.492065 -103.217865 35,025 77 535 0
2022-06-21 17:45:43 GMT 41.486435 -103.250633 35,025 77 535 64
2022-06-21 17:45:40 GMT 41.486435 -103.250633 35,025 77 534 64
2022-06-21 17:45:34 GMT 41.483643 -103.266678 35,000 77 534 64
2022-06-21 17:45:31 GMT 41.481953 -103.276405 35,000 77 534 64
2022-06-21 17:45:28 GMT 41.480255 -103.286217 35,000 77 533 64
2022-06-21 17:45:23 GMT 41.476929 -103.305206 35,000 76 533 0
2022-06-21 17:45:20 GMT 41.475948 -103.310959 35,000 76 533 0
2022-06-21 17:45:17 GMT 41.471851 -103.334274 35,000 76 532 0
2022-06-21 17:45:14 GMT 41.471851 -103.334274 35,000 76 532 0
2022-06-21 17:45:11 GMT 41.470551 -103.342003 35,000 76 532 0
2022-06-21 17:45:07 GMT 41.468719 -103.352318 35,000 76 531 64
2022-06-21 17:45:03 GMT 41.465755 -103.369400 35,000 76 532 64
2022-06-21 17:44:58 GMT 41.463272 -103.383598 35,000 76 531 0
2022-06-21 17:44:53 GMT 41.460121 -103.401596 35,000 76 531 64
2022-06-21 17:44:50 GMT 41.458538 -103.410797 35,000 76 531 0
2022-06-21 17:44:47 GMT 41.457230 -103.418304 35,000 76 531 0
2022-06-21 17:44:42 GMT 41.454620 -103.433220 35,000 76 530 0
2022-06-21 17:44:39 GMT 41.452488 -103.445480 35,000 76 530 0
2022-06-21 17:44:36 GMT 41.451462 -103.451385 35,000 76 530 0
2022-06-21 17:44:32 GMT 41.448669 -103.467239 35,000 76 530 0
2022-06-21 17:44:27 GMT 41.445740 -103.483780 35,000 76 529 0
2022-06-21 17:44:20 GMT 41.442169 -103.504066 34,975 76 529 0
2022-06-21 17:44:16 GMT 41.439873 -103.516891 34,975 76 529 64
2022-06-21 17:44:09 GMT 41.435822 -103.539948 34,975 76 529 0
2022-06-21 17:44:05 GMT 41.433655 -103.552132 34,975 76 528 64
2022-06-21 17:44:00 GMT 41.430771 -103.568237 34,975 76 528 64
2022-06-21 17:43:57 GMT 41.429169 -103.577415 34,975 76 528 64
2022-06-21 17:43:54 GMT 41.427979 -103.584030 34,975 76 528 64
2022-06-21 17:43:49 GMT 41.424911 -103.601387 34,975 76 528 64
2022-06-21 17:43:45 GMT 41.422119 -103.617180 34,975 76 528 64
2022-06-21 17:43:37 GMT 41.418228 -103.638962 34,975 76 528 0
2022-06-21 17:43:34 GMT 41.416454 -103.648918 34,975 76 528 0
2022-06-21 17:43:28 GMT 41.413101 -103.667992 34,975 76 526 64
2022-06-21 17:43:24 GMT 41.410583 -103.682220 34,975 76 527 0
2022-06-21 17:43:19 GMT 41.407745 -103.698265 34,975 76 527 0
2022-06-21 17:43:15 GMT 41.405823 -103.709000 34,975 76 527 64
2022-06-21 17:43:12 GMT 41.404541 -103.716240 34,950 76 526 64
2022-06-21 17:43:08 GMT 41.401604 -103.732719 34,975 76 526 0
2022-06-21 17:43:05 GMT 41.399883 -103.742493 34,950 76 526 0
2022-06-21 17:43:01 GMT 41.397583 -103.755196 34,950 76 526 0
2022-06-21 17:42:55 GMT 41.394810 -103.770790 34,950 76 526 0
2022-06-21 17:42:52 GMT 41.392342 -103.784584 34,950 76 526 0
2022-06-21 17:42:48 GMT 41.390293 -103.796211 34,975 76 526 0
2022-06-21 17:42:45 GMT 41.389175 -103.802536 34,950 76 526 0
2022-06-21 17:42:41 GMT 41.386196 -103.819176 34,950 76 526 0
2022-06-21 17:42:34 GMT 41.383308 -103.835220 34,950 76 526 64
2022-06-21 17:42:31 GMT 41.377537 -103.867554 34,950 76 526 0
2022-06-21 17:42:25 GMT 41.377537 -103.867554 34,950 76 526 0
2022-06-21 17:42:20 GMT 41.375244 -103.880310 34,950 76 526 0
2022-06-21 17:42:17 GMT 41.373230 -103.891602 34,950 76 526 0
2022-06-21 17:42:13 GMT 41.370506 -103.906822 34,950 76 526 0
2022-06-21 17:42:10 GMT 41.369064 -103.914856 34,950 76 526 0
2022-06-21 17:42:06 GMT 41.366684 -103.928040 34,950 76 526 0
2022-06-21 17:42:01 GMT 41.364597 -103.939468 34,950 76 525 0
2022-06-21 17:41:58 GMT 41.362129 -103.953323 34,950 76 525 0
2022-06-21 17:41:55 GMT 41.360405 -103.962685 34,950 76 525 0
2022-06-21 17:41:50 GMT 41.357620 -103.978271 34,950 76 525 0
2022-06-21 17:41:44 GMT 41.355007 -103.992523 34,950 76 526 0
2022-06-21 17:41:41 GMT 41.352959 -104.003822 34,950 76 526 0
2022-06-21 17:41:38 GMT 41.351578 -104.011536 34,950 76 526 0
2022-06-21 17:41:34 GMT 41.348537 -104.028290 34,975 76 526 -64
2022-06-21 17:41:29 GMT 41.345673 -104.044189 34,975 76 526 -64
2022-06-21 17:41:23 GMT 41.342697 -104.060486 34,975 76 526 0
2022-06-21 17:41:18 GMT 41.339970 -104.075737 34,975 76 526 0
2022-06-21 17:41:15 GMT 41.336746 -104.093445 34,975 76 526 -64
2022-06-21 17:41:12 GMT 41.336746 -104.093445 34,975 76 526 -64
2022-06-21 17:41:07 GMT 41.333908 -104.109131 34,975 76 526 -64
2022-06-21 17:41:03 GMT 41.329330 -104.134277 34,975 76 526 -64
2022-06-21 17:41:00 GMT 41.329330 -104.134277 34,975 76 526 -64
2022-06-21 17:40:57 GMT 41.327957 -104.141968 34,975 76 526 -64
2022-06-21 17:40:51 GMT 41.324387 -104.161621 34,975 76 526 -64
2022-06-21 17:40:46 GMT 41.321960 -104.175110 34,975 76 526 0
2022-06-21 17:40:40 GMT 41.318481 -104.194214 34,975 76 526 0
2022-06-21 17:40:37 GMT 41.315872 -104.208679 34,975 76 526 0
2022-06-21 17:40:30 GMT 41.312832 -104.225174 34,975 76 527 0
2022-06-21 17:40:26 GMT 41.310196 -104.239807 34,975 76 527 0
2022-06-21 17:40:21 GMT 41.306919 -104.257507 34,975 76 528 0
2022-06-21 17:40:15 GMT 41.303421 -104.276550 35,000 76 528 -64
2022-06-21 17:40:11 GMT 41.300961 -104.289902 35,000 76 528 0
2022-06-21 17:40:07 GMT 41.299469 -104.298080 35,000 76 528 0
2022-06-21 17:40:04 GMT 41.297928 -104.306396 35,000 76 528 -64
2022-06-21 17:40:00 GMT 41.294632 -104.324341 35,000 76 528 0
2022-06-21 17:39:55 GMT 41.291931 -104.339172 35,000 76 529 0
2022-06-21 17:39:50 GMT 41.289322 -104.353333 35,000 76 529 0
2022-06-21 17:39:47 GMT 41.287228 -104.364502 35,000 76 529 0
2022-06-21 17:39:44 GMT 41.285782 -104.372429 35,000 76 529 0
2022-06-21 17:39:38 GMT 41.282619 -104.389404 35,000 76 529 0
2022-06-21 17:39:35 GMT 41.280804 -104.399208 35,000 76 530 0
2022-06-21 17:39:32 GMT 41.279297 -104.407227 35,000 76 530 0
2022-06-21 17:39:26 GMT 41.274937 -104.430420 35,000 76 530 0
2022-06-21 17:39:22 GMT 41.272934 -104.441154 35,000 76 530 0
2022-06-21 17:39:15 GMT 41.268887 -104.462936 35,000 76 531 0
2022-06-21 17:39:12 GMT 41.267349 -104.471176 35,000 76 531 0
2022-06-21 17:39:08 GMT 41.264236 -104.487732 35,000 76 531 0
2022-06-21 17:39:03 GMT 41.261215 -104.503906 35,000 76 531 0
2022-06-21 17:38:55 GMT 41.256592 -104.528564 35,000 76 531 0
2022-06-21 17:38:51 GMT 41.255013 -104.536911 35,000 76 532 0
2022-06-21 17:38:47 GMT 41.252014 -104.552917 35,000 76 532 0
2022-06-21 17:38:43 GMT 41.249287 -104.567619 35,000 76 532 0
2022-06-21 17:38:40 GMT 41.247517 -104.577110 35,000 76 532 0
2022-06-21 17:38:34 GMT 41.244026 -104.595772 35,000 76 532 0
2022-06-21 17:38:31 GMT 41.242767 -104.602600 35,000 76 532 0
2022-06-21 17:38:26 GMT 41.239418 -104.620804 35,000 76 532 -64
2022-06-21 17:38:21 GMT 41.236771 -104.635254 35,000 76 532 -64
2022-06-21 17:38:16 GMT 41.234158 -104.649643 35,000 76 532 -64
2022-06-21 17:38:13 GMT 41.231964 -104.661560 35,025 76 532 0
2022-06-21 17:38:09 GMT 41.230293 -104.670929 35,000 76 532 0
2022-06-21 17:38:04 GMT 41.227268 -104.687096 35,000 75 533 -64
2022-06-21 17:37:59 GMT 41.223999 -104.703735 35,025 74 535 0
2022-06-21 17:37:52 GMT 41.218746 -104.728111 35,025 72 536 0
2022-06-21 17:37:48 GMT 41.216766 -104.736755 35,025 72 537 0
2022-06-21 17:37:43 GMT 41.212883 -104.752892 35,000 71 537 0
2022-06-21 17:37:38 GMT 41.209030 -104.768005 35,000 70 538 0
2022-06-21 17:37:34 GMT 41.204453 -104.785095 35,025 69 539 0
2022-06-21 17:37:29 GMT 41.200378 -104.799316 35,025 68 540 -64
2022-06-21 17:37:23 GMT 41.195435 -104.815979 35,025 67 541 -64
2022-06-21 17:37:20 GMT 41.192596 -104.825134 35,025 66 542 -64
2022-06-21 17:37:17 GMT 41.189667 -104.834290 35,025 66 542 -64
2022-06-21 17:37:12 GMT 41.184067 -104.851143 35,025 65 543 -64
2022-06-21 17:37:07 GMT 41.178715 -104.866936 35,050 65 543 -64
2022-06-21 17:37:03 GMT 41.175522 -104.876160 35,025 65 543 0
2022-06-21 17:37:00 GMT 41.171543 -104.887787 35,025 65 543 0
2022-06-21 17:36:57 GMT 41.168842 -104.895653 35,025 65 543 0
2022-06-21 17:36:50 GMT 41.160599 -104.919739 35,025 65 543 0
2022-06-21 17:36:47 GMT 41.157578 -104.928528 35,025 65 543 0
2022-06-21 17:36:43 GMT 41.153763 -104.939537 35,025 65 543 0
2022-06-21 17:36:39 GMT 41.149567 -104.951782 35,050 65 543 -64
2022-06-21 17:36:36 GMT 41.146866 -104.959656 35,050 65 543 -64
2022-06-21 17:36:32 GMT 41.139095 -104.982231 35,050 65 543 -64
2022-06-21 17:36:28 GMT 41.139095 -104.982231 35,050 65 544 0
2022-06-21 17:36:25 GMT 41.135513 -104.992676 35,050 65 544 0
2022-06-21 17:36:20 GMT 41.130672 -105.006760 35,050 65 544 0
2022-06-21 17:36:17 GMT 41.127686 -105.015381 35,050 65 544 64
2022-06-21 17:36:14 GMT 41.124199 -105.025490 35,025 65 544 64
2022-06-21 17:36:11 GMT 41.121323 -105.033813 35,025 65 544 64
2022-06-21 17:36:07 GMT 41.115784 -105.049866 35,025 65 544 64
2022-06-21 17:36:04 GMT 41.112797 -105.058510 35,025 65 544 0
2022-06-21 17:35:59 GMT 41.107536 -105.073616 35,025 65 544 64
2022-06-21 17:35:56 GMT 41.105347 -105.079987 35,025 65 544 0
2022-06-21 17:35:53 GMT 41.101528 -105.090843 35,025 65 544 0
2022-06-21 17:35:50 GMT 41.098179 -105.100517 35,025 65 544 0
2022-06-21 17:35:47 GMT 41.092758 -105.116089 35,025 65 544 0
2022-06-21 17:35:44 GMT 41.092758 -105.116089 35,025 65 544 0
2022-06-21 17:35:39 GMT 41.086533 -105.133911 35,050 65 544 0
2022-06-21 17:35:35 GMT 41.083374 -105.143005 35,025 65 544 0
2022-06-21 17:35:32 GMT 41.079323 -105.154579 35,025 65 544 0
2022-06-21 17:35:28 GMT 41.075928 -105.164253 35,050 65 543 0
2022-06-21 17:35:25 GMT 41.072433 -105.174240 35,025 65 543 0
2022-06-21 17:35:22 GMT 41.069782 -105.181732 35,025 65 543 0
2022-06-21 17:35:19 GMT 41.066521 -105.191093 35,025 65 543 0
2022-06-21 17:35:16 GMT 41.063324 -105.200256 35,025 65 543 64
2022-06-21 17:35:13 GMT 41.059616 -105.210815 35,025 65 543 64
2022-06-21 17:35:09 GMT 41.055496 -105.222534 35,025 65 543 64
2022-06-21 17:35:06 GMT 41.053482 -105.228271 35,025 65 542 64
2022-06-21 17:35:02 GMT 41.048599 -105.242279 35,025 65 542 128
2022-06-21 17:34:58 GMT 41.044235 -105.254761 35,000 65 542 64
2022-06-21 17:34:54 GMT 41.039200 -105.269226 35,000 65 542 64
2022-06-21 17:34:51 GMT 41.037476 -105.274178 35,000 65 542 64
2022-06-21 17:34:46 GMT 41.031647 -105.290894 35,000 65 542 64
2022-06-21 17:34:43 GMT 41.027573 -105.302612 35,000 65 541 0
2022-06-21 17:34:40 GMT 41.024067 -105.312691 35,000 65 541 0
2022-06-21 17:34:36 GMT 41.021740 -105.319313 35,000 65 541 0
2022-06-21 17:34:33 GMT 41.017548 -105.331299 35,000 65 540 0
2022-06-21 17:34:30 GMT 41.015396 -105.337463 35,000 65 540 0
2022-06-21 17:34:26 GMT 41.009949 -105.353027 35,000 65 539 0
2022-06-21 17:34:21 GMT 41.004841 -105.367561 35,000 65 538 0
2022-06-21 17:34:17 GMT 41.000652 -105.379486 35,000 65 537 0
2022-06-21 17:34:12 GMT 40.996353 -105.391907 35,000 65 537 0
2022-06-21 17:34:09 GMT 40.993343 -105.400398 35,000 65 537 0
2022-06-21 17:34:05 GMT 40.988159 -105.415100 35,000 65 536 0
2022-06-21 17:34:00 GMT 40.979004 -105.441284 35,000 65 536 64
2022-06-21 17:33:56 GMT 40.979004 -105.441284 35,000 65 536 64
2022-06-21 17:33:52 GMT 40.973785 -105.456116 35,000 65 535 64
2022-06-21 17:33:48 GMT 40.969437 -105.468567 35,000 65 535 64
2022-06-21 17:33:44 GMT 40.966248 -105.477615 35,000 65 534 0
2022-06-21 17:33:39 GMT 40.961243 -105.491943 35,000 65 534 0
2022-06-21 17:33:34 GMT 40.955933 -105.507019 35,000 65 533 -64
2022-06-21 17:33:31 GMT 40.952469 -105.516937 35,000 65 533 -64
2022-06-21 17:33:27 GMT 40.949524 -105.525330 35,000 65 533 -64
2022-06-21 17:33:23 GMT 40.941650 -105.547791 35,025 65 531 -64
2022-06-21 17:33:20 GMT 40.941650 -105.547791 35,025 65 531 -128
2022-06-21 17:33:17 GMT 40.939682 -105.553345 35,025 65 531 -128
2022-06-21 17:33:12 GMT 40.934006 -105.569519 35,000 64 532 0
2022-06-21 17:33:09 GMT 40.931381 -105.577049 35,025 65 531 -128
2022-06-21 17:33:06 GMT 40.928329 -105.585693 35,025 65 531 -64
2022-06-21 17:33:01 GMT 40.918159 -105.614632 35,025 64 531 0
2022-06-21 17:32:57 GMT 40.918159 -105.614632 35,025 64 531 0
2022-06-21 17:32:50 GMT 40.910526 -105.636101 35,000 64 533 64
2022-06-21 17:32:46 GMT 40.906494 -105.647461 35,000 64 534 64
2022-06-21 17:32:42 GMT 40.901688 -105.661011 35,000 64 536 64
2022-06-21 17:32:39 GMT 40.898438 -105.670166 35,000 64 535 64
2022-06-21 17:32:36 GMT 40.896194 -105.676331 35,000 64 535 64
2022-06-21 17:32:31 GMT 40.890289 -105.692932 34,975 64 537 64
2022-06-21 17:32:26 GMT 40.884705 -105.708618 35,000 64 538 0
2022-06-21 17:32:20 GMT 40.878250 -105.726746 35,000 64 538 64
2022-06-21 17:32:15 GMT 40.873901 -105.738892 34,975 64 538 128
2022-06-21 17:32:11 GMT 40.868912 -105.752808 34,975 64 538 384
2022-06-21 17:32:08 GMT 40.864952 -105.763947 34,925 64 537 768
2022-06-21 17:32:05 GMT 40.862297 -105.771370 34,925 64 537 640
2022-06-21 17:31:59 GMT 40.857193 -105.785767 34,825 64 538 768
2022-06-21 17:31:54 GMT 40.851730 -105.801025 34,800 64 538 768
2022-06-21 17:31:49 GMT 40.845657 -105.818054 34,725 64 538 768
2022-06-21 17:31:43 GMT 40.839859 -105.834236 34,575 64 539 640
2022-06-21 17:31:38 GMT 40.835018 -105.847839 34,600 64 539 640
2022-06-21 17:31:35 GMT 40.830643 -105.860168 34,550 64 539 576
2022-06-21 17:31:32 GMT 40.828362 -105.866570 34,525 64 539 512
2022-06-21 17:31:27 GMT 40.823959 -105.878845 34,500 64 538 448
2022-06-21 17:31:24 GMT 40.820122 -105.889725 34,475 64 537 448
2022-06-21 17:31:21 GMT 40.817234 -105.897713 34,450 64 536 448
2022-06-21 17:31:16 GMT 40.812489 -105.911011 34,350 64 536 640
2022-06-21 17:31:12 GMT 40.806713 -105.927307 34,350 64 536 640
2022-06-21 17:31:07 GMT 40.798325 -105.950806 34,325 64 536 640
2022-06-21 17:31:04 GMT 40.795670 -105.958191 34,225 64 536 704
2022-06-21 17:31:01 GMT 40.795670 -105.958191 34,175 64 536 768
2022-06-21 17:30:57 GMT 40.790886 -105.971626 34,200 64 536 768
2022-06-21 17:30:52 GMT 40.785782 -105.985962 34,125 64 536 768
2022-06-21 17:30:45 GMT 40.778275 -106.006897 34,025 64 536 832
2022-06-21 17:30:41 GMT 40.774082 -106.018562 33,975 64 536 768
2022-06-21 17:30:36 GMT 40.768661 -106.033813 33,925 64 536 768
2022-06-21 17:30:31 GMT 40.763397 -106.048584 33,850 64 536 704
2022-06-21 17:30:24 GMT 40.757584 -106.064880 33,725 64 536 576
2022-06-21 17:30:19 GMT 40.751358 -106.082275 33,725 64 535 640
2022-06-21 17:30:16 GMT 40.748104 -106.091286 33,700 64 536 576
2022-06-21 17:30:12 GMT 40.744938 -106.100151 33,650 64 535 512
2022-06-21 17:30:09 GMT 40.741543 -106.109581 33,650 64 535 512
2022-06-21 17:30:06 GMT 40.738281 -106.118690 33,600 64 535 512
2022-06-21 17:30:03 GMT 40.735245 -106.127075 33,575 64 535 512
2022-06-21 17:29:58 GMT 40.724594 -106.156647 33,500 64 534 512
2022-06-21 17:29:54 GMT 40.724594 -106.156647 33,500 64 534 512
2022-06-21 17:29:49 GMT 40.719521 -106.170692 33,450 64 534 512
2022-06-21 17:29:45 GMT 40.715611 -106.181549 33,375 64 533 448
2022-06-21 17:29:41 GMT 40.711048 -106.194160 33,400 64 533 512
2022-06-21 17:29:38 GMT 40.707001 -106.205444 33,350 64 532 448
2022-06-21 17:29:34 GMT 40.704254 -106.213013 33,350 64 532 448
2022-06-21 17:29:30 GMT 40.699402 -106.226501 33,300 64 531 512
2022-06-21 17:29:27 GMT 40.696106 -106.235535 33,275 64 531 576
2022-06-21 17:29:23 GMT 40.691574 -106.248047 33,225 64 531 704
2022-06-21 17:29:17 GMT 40.685631 -106.264511 33,150 64 530 832
2022-06-21 17:29:14 GMT 40.682793 -106.272377 33,125 64 530 832
2022-06-21 17:29:11 GMT 40.680084 -106.279785 33,075 64 530 832
2022-06-21 17:29:07 GMT 40.675388 -106.292786 33,025 64 529 576
2022-06-21 17:29:02 GMT 40.669106 -106.310204 33,000 64 528 64
2022-06-21 17:28:55 GMT 40.662773 -106.327553 33,000 64 528 0
2022-06-21 17:28:51 GMT 40.658478 -106.339294 32,975 64 528 0
2022-06-21 17:28:46 GMT 40.652348 -106.356270 33,000 64 528 0
2022-06-21 17:28:41 GMT 40.647125 -106.370605 32,975 64 528 0
2022-06-21 17:28:35 GMT 40.642197 -106.384048 33,000 64 528 0
2022-06-21 17:28:32 GMT 40.634857 -106.404175 32,975 64 528 64
2022-06-21 17:28:28 GMT 40.634857 -106.404175 32,975 64 528 64
2022-06-21 17:28:24 GMT 40.630554 -106.416077 32,975 64 528 64
2022-06-21 17:28:20 GMT 40.625107 -106.431091 32,975 64 528 64
2022-06-21 17:28:17 GMT 40.622089 -106.439354 32,975 64 528 64
2022-06-21 17:28:12 GMT 40.616825 -106.453835 32,975 64 528 0
2022-06-21 17:28:05 GMT 40.609543 -106.473999 32,975 64 528 0
2022-06-21 17:27:58 GMT 40.603455 -106.490784 32,975 64 528 -64
2022-06-21 17:27:54 GMT 40.598419 -106.504700 33,000 64 528 -128
2022-06-21 17:27:51 GMT 40.594666 -106.515076 33,000 64 527 -128
2022-06-21 17:27:47 GMT 40.591457 -106.523872 33,000 64 527 -128
2022-06-21 17:27:44 GMT 40.587452 -106.534859 33,000 64 526 -64
2022-06-21 17:27:40 GMT 40.583817 -106.544800 33,000 64 526 -64
2022-06-21 17:27:33 GMT 40.576309 -106.565247 33,000 64 526 0
2022-06-21 17:27:26 GMT 40.569672 -106.583374 33,000 64 526 0
2022-06-21 17:27:23 GMT 40.565388 -106.595039 33,000 64 526 0
2022-06-21 17:27:19 GMT 40.562073 -106.604126 33,000 64 526 0
2022-06-21 17:27:12 GMT 40.554245 -106.625427 33,000 64 526 0
2022-06-21 17:27:07 GMT 40.549885 -106.637360 33,000 64 526 0
2022-06-21 17:27:01 GMT 40.539276 -106.666260 33,000 64 526 0
2022-06-21 17:26:58 GMT 40.539276 -106.666260 33,000 64 526 0
2022-06-21 17:26:51 GMT 40.532410 -106.684998 33,000 64 526 64
2022-06-21 17:26:40 GMT 40.521240 -106.715515 33,000 64 526 0
2022-06-21 17:26:35 GMT 40.515015 -106.732483 33,000 64 526 0
2022-06-21 17:26:29 GMT 40.508560 -106.750000 33,000 64 527 0
2022-06-21 17:26:26 GMT 40.506454 -106.755737 33,000 64 527 0
2022-06-21 17:26:19 GMT 40.498493 -106.777435 33,000 64 527 -64
2022-06-21 17:26:16 GMT 40.495239 -106.786255 33,000 64 526 -64
2022-06-21 17:26:10 GMT 40.487785 -106.806458 33,000 64 526 -64
2022-06-21 17:26:06 GMT 40.484806 -106.814514 33,000 64 526 -64
2022-06-21 17:25:59 GMT 40.477249 -106.835083 33,025 64 526 -64
2022-06-21 17:25:54 GMT 40.471756 -106.849976 33,025 64 526 -64
2022-06-21 17:25:49 GMT 40.465580 -106.866821 33,025 64 526 0
2022-06-21 17:25:45 GMT 40.461342 -106.878311 33,025 64 526 0
2022-06-21 17:25:38 GMT 40.454781 -106.896095 33,025 64 526 0
2022-06-21 17:25:35 GMT 40.451843 -106.903931 33,000 64 526 64
2022-06-21 17:25:28 GMT 40.443188 -106.927307 33,000 64 526 64
2022-06-21 17:25:25 GMT 40.440170 -106.935486 33,000 64 526 0
2022-06-21 17:25:14 GMT 40.429546 -106.964081 33,000 64 527 0
2022-06-21 17:25:03 GMT 40.418289 -106.994263 33,000 63 526 64
2022-06-21 17:24:48 GMT 40.401993 -107.037781 33,000 63 526 0
2022-06-21 17:24:41 GMT 40.394485 -107.057800 33,000 63 526 0
2022-06-21 17:24:08 GMT 40.359207 -107.152527 33,000 64 524 0
2022-06-21 17:23:59 GMT 40.348251 -107.182068 33,000 63 524 0
2022-06-21 17:23:46 GMT 40.336349 -107.213989 33,000 64 523 0
2022-06-21 17:21:33 GMT 40.192749 -107.595886 33,000 63 524 0
2022-06-21 17:21:21 GMT 40.180866 -107.627190 33,000 63 524 0
2022-06-21 17:21:11 GMT 40.170204 -107.655281 33,000 63 524 0
2022-06-21 17:20:39 GMT 40.135071 -107.747620 33,000 63 523 -64
2022-06-21 17:20:29 GMT 40.125328 -107.773193 33,000 63 523 -64
2022-06-21 17:20:20 GMT 40.114155 -107.802536 33,025 63 523 -64
2022-06-21 17:20:09 GMT 40.102982 -107.832092 33,025 63 523 0
2022-06-21 17:19:58 GMT 40.092278 -107.860588 33,000 64 522 0
2022-06-21 17:19:49 GMT 40.081429 -107.889053 33,025 62 523 0
2022-06-21 17:19:33 GMT 40.063320 -107.932243 33,000 60 524 0
2022-06-21 17:19:28 GMT 40.055649 -107.948914 33,000 57 525 0
2022-06-21 17:19:17 GMT 40.042831 -107.975403 33,000 57 525 0
2022-06-21 17:18:32 GMT 39.983253 -108.096855 33,000 57 524 0
2022-06-21 17:18:25 GMT 39.974945 -108.113708 33,000 57 523 0
2022-06-21 17:18:15 GMT 39.961121 -108.141846 33,000 57 523 0
2022-06-21 17:18:04 GMT 39.947388 -108.169678 33,000 57 523 64
2022-06-21 17:17:53 GMT 39.933701 -108.197449 33,000 57 523 0
2022-06-21 17:17:44 GMT 39.920517 -108.224228 33,000 57 522 0
2022-06-21 17:17:33 GMT 39.906998 -108.251587 33,000 57 522 0
2022-06-21 17:17:23 GMT 39.893097 -108.279640 33,000 57 522 0
2022-06-21 17:17:12 GMT 39.879913 -108.306267 33,000 57 522 0
2022-06-21 17:17:02 GMT 39.865616 -108.335083 33,000 57 521 0
2022-06-21 17:16:51 GMT 39.852493 -108.361557 32,975 57 520 64
2022-06-21 17:16:40 GMT 39.838303 -108.390221 32,975 57 520 64
2022-06-21 17:16:31 GMT 39.825302 -108.416489 32,975 57 520 0
2022-06-21 17:16:20 GMT 39.811844 -108.443535 32,975 57 520 0
2022-06-21 17:16:10 GMT 39.798294 -108.470764 32,975 57 520 0
2022-06-21 17:15:59 GMT 39.784519 -108.498413 32,975 57 519 0
2022-06-21 17:15:48 GMT 39.770920 -108.525696 32,975 57 519 0
2022-06-21 17:15:38 GMT 39.757149 -108.553284 32,975 57 519 0
2022-06-21 17:15:28 GMT 39.743881 -108.579895 32,975 57 519 -64
2022-06-21 17:15:18 GMT 39.729679 -108.608337 33,000 57 518 -64
2022-06-21 17:15:07 GMT 39.716446 -108.634842 33,000 57 518 -64
2022-06-21 17:14:57 GMT 39.703194 -108.661255 33,025 57 518 0
2022-06-21 17:14:45 GMT 39.689072 -108.689537 33,025 57 518 0
2022-06-21 17:14:35 GMT 39.675728 -108.716309 33,025 57 519 -64
2022-06-21 17:14:25 GMT 39.662109 -108.743568 33,025 57 519 0
2022-06-21 17:14:15 GMT 39.648449 -108.770752 33,025 56 518 0
2022-06-21 17:14:05 GMT 39.634018 -108.799438 33,025 56 519 0
2022-06-21 17:13:57 GMT 39.624847 -108.817627 33,025 56 519 0
2022-06-21 17:13:54 GMT 39.621540 -108.824158 33,025 56 519 0
2022-06-21 17:13:47 GMT 39.612396 -108.842209 33,025 56 519 0
2022-06-21 17:13:43 GMT 39.607342 -108.852234 33,025 56 519 0
2022-06-21 17:13:36 GMT 39.598618 -108.869499 33,025 56 519 0
2022-06-21 17:13:32 GMT 39.593491 -108.879646 33,025 56 519 0
2022-06-21 17:13:27 GMT 39.584702 -108.897079 33,025 56 519 0
2022-06-21 17:13:22 GMT 39.579987 -108.906456 33,025 56 519 0
2022-06-21 17:13:13 GMT 39.566422 -108.933350 33,025 56 518 0
2022-06-21 17:13:06 GMT 39.557762 -108.950500 33,025 56 518 0
2022-06-21 17:13:02 GMT 39.552876 -108.960144 33,025 56 518 0
2022-06-21 17:12:55 GMT 39.544052 -108.977692 33,025 56 519 0
2022-06-21 17:12:52 GMT 39.539143 -108.987427 33,025 56 519 0
2022-06-21 17:12:44 GMT 39.530205 -109.005066 33,025 56 518 0
2022-06-21 17:12:41 GMT 39.525597 -109.014160 33,025 56 518 0
2022-06-21 17:12:35 GMT 39.516953 -109.031128 33,025 56 518 0
2022-06-21 17:12:30 GMT 39.511459 -109.041992 33,000 56 518 0
2022-06-21 17:12:24 GMT 39.503345 -109.057922 33,000 56 517 0
2022-06-21 17:12:20 GMT 39.497910 -109.068680 33,000 56 517 0
2022-06-21 17:12:14 GMT 39.489487 -109.085220 33,000 56 517 0
2022-06-21 17:12:09 GMT 39.484085 -109.095795 33,000 56 517 64
2022-06-21 17:12:03 GMT 39.475937 -109.111855 33,000 56 517 64
2022-06-21 17:12:00 GMT 39.470245 -109.123047 33,000 56 516 0
2022-06-21 17:11:53 GMT 39.462296 -109.138664 33,000 56 516 0
2022-06-21 17:11:49 GMT 39.456978 -109.149109 33,000 56 516 64
2022-06-21 17:11:42 GMT 39.448460 -109.165894 33,000 56 516 64
2022-06-21 17:11:39 GMT 39.443298 -109.176041 33,000 56 516 0
2022-06-21 17:11:31 GMT 39.434097 -109.194130 33,000 56 516 0
2022-06-21 17:11:28 GMT 39.429325 -109.203491 33,000 56 516 0
2022-06-21 17:11:20 GMT 39.418808 -109.224220 32,975 56 516 0
2022-06-21 17:11:17 GMT 39.416245 -109.229248 32,975 56 516 0
2022-06-21 17:11:11 GMT 39.407635 -109.246277 32,975 56 515 0
2022-06-21 17:11:07 GMT 39.402142 -109.257080 32,975 56 515 0
2022-06-21 17:10:56 GMT 39.388733 -109.283394 32,975 56 515 0
2022-06-21 17:10:47 GMT 39.375000 -109.310326 33,000 56 514 0
2022-06-21 17:10:36 GMT 39.361221 -109.337341 32,975 56 513 0
2022-06-21 17:10:26 GMT 39.347672 -109.363762 33,000 56 513 0
2022-06-21 17:10:18 GMT 39.339249 -109.380188 33,000 56 513 0
2022-06-21 17:10:15 GMT 39.334545 -109.389404 33,000 56 513 0
2022-06-21 17:10:08 GMT 39.324142 -109.409615 33,000 56 512 0
2022-06-21 17:10:04 GMT 39.320812 -109.416138 33,000 56 512 0
2022-06-21 17:09:55 GMT 39.306747 -109.443474 33,000 56 512 0
2022-06-21 17:09:47 GMT 39.298737 -109.459000 33,000 56 512 0
2022-06-21 17:09:44 GMT 39.293720 -109.468811 33,000 56 512 -64
2022-06-21 17:09:38 GMT 39.285061 -109.485535 33,000 56 512 0
2022-06-21 17:09:34 GMT 39.279785 -109.495834 33,000 56 512 -64
2022-06-21 17:09:26 GMT 39.270306 -109.514282 33,000 56 512 0
2022-06-21 17:09:23 GMT 39.266254 -109.522156 33,000 56 512 0
2022-06-21 17:09:17 GMT 39.257736 -109.538635 33,000 56 512 0
2022-06-21 17:09:12 GMT 39.252380 -109.549072 33,000 56 512 0
2022-06-21 17:09:06 GMT 39.244308 -109.564682 33,000 56 511 0
2022-06-21 17:09:02 GMT 39.239113 -109.574707 33,000 56 511 0
2022-06-21 17:08:55 GMT 39.230083 -109.592163 33,000 56 511 0
2022-06-21 17:08:51 GMT 39.224625 -109.602654 33,000 56 511 0
2022-06-21 17:08:45 GMT 39.216537 -109.618225 33,000 56 511 0
2022-06-21 17:08:42 GMT 39.211555 -109.627869 33,000 56 511 64
2022-06-21 17:08:34 GMT 39.202759 -109.644836 33,000 56 511 64
2022-06-21 17:08:31 GMT 39.198147 -109.653687 33,000 56 511 0
2022-06-21 17:08:21 GMT 39.183811 -109.681213 33,000 56 511 -64
2022-06-21 17:08:14 GMT 39.175735 -109.696754 33,000 56 511 -64
2022-06-21 17:08:10 GMT 39.170311 -109.707214 33,000 56 511 -64
2022-06-21 17:08:03 GMT 39.162231 -109.722725 33,025 56 510 0
2022-06-21 17:07:59 GMT 39.156624 -109.733459 33,000 56 510 0
2022-06-21 17:07:53 GMT 39.148476 -109.749084 33,000 56 510 0
2022-06-21 17:07:48 GMT 39.142273 -109.761063 33,000 56 510 0
2022-06-21 17:07:42 GMT 39.134651 -109.775818 33,000 56 510 0
2022-06-21 17:07:38 GMT 39.129227 -109.786316 33,000 56 510 -64
2022-06-21 17:07:33 GMT 39.121475 -109.801331 33,025 56 510 -64
2022-06-21 17:07:28 GMT 39.114819 -109.814270 33,025 56 510 -64
2022-06-21 17:07:21 GMT 39.107208 -109.829010 33,025 56 510 0
2022-06-21 17:07:17 GMT 39.102127 -109.838860 33,025 56 510 0
2022-06-21 17:07:12 GMT 39.094055 -109.854370 33,025 56 510 0
2022-06-21 17:07:08 GMT 39.088982 -109.864258 33,025 56 510 0
2022-06-21 17:07:00 GMT 39.079559 -109.882568 33,025 56 510 0
2022-06-21 17:06:57 GMT 39.074924 -109.891541 33,025 56 510 0
2022-06-21 17:06:50 GMT 39.066147 -109.908600 33,025 56 510 0
2022-06-21 17:06:41 GMT 39.053375 -109.932961 33,025 54 511 0
2022-06-21 17:06:29 GMT 39.038147 -109.960144 33,025 53 511 64
2022-06-21 17:06:20 GMT 39.023994 -109.984436 33,025 53 511 64
2022-06-21 17:06:09 GMT 39.009331 -110.009644 33,000 53 510 0
2022-06-21 17:05:58 GMT 38.994434 -110.035095 33,000 53 510 0
2022-06-21 17:05:48 GMT 38.980331 -110.059326 33,000 53 510 64
2022-06-21 17:05:37 GMT 38.964981 -110.085518 33,000 53 510 64
2022-06-21 17:05:28 GMT 38.950241 -110.110657 32,975 53 509 64
2022-06-21 17:05:17 GMT 38.936058 -110.134827 32,975 52 508 0
2022-06-21 17:05:06 GMT 38.920532 -110.161163 32,975 52 508 0
2022-06-21 17:04:56 GMT 38.906433 -110.185165 32,975 53 507 0
2022-06-21 17:04:46 GMT 38.892014 -110.209648 32,975 53 507 -64
2022-06-21 17:04:36 GMT 38.876614 -110.235901 32,975 53 506 -64
2022-06-21 17:04:23 GMT 38.860317 -110.263672 33,000 53 505 -64
2022-06-21 17:04:15 GMT 38.847473 -110.285538 33,000 53 505 0
2022-06-21 17:04:04 GMT 38.833557 -110.309181 33,000 53 505 0
2022-06-21 17:03:53 GMT 38.818497 -110.334740 33,000 52 504 0
2022-06-21 17:03:44 GMT 38.803711 -110.359756 33,000 52 505 0
2022-06-21 17:03:32 GMT 38.789001 -110.384705 33,000 52 505 -64
2022-06-21 17:03:23 GMT 38.774277 -110.409554 33,000 52 504 -64
2022-06-21 17:03:11 GMT 38.759491 -110.434570 33,025 52 504 0
2022-06-21 17:03:02 GMT 38.745575 -110.458153 33,000 52 504 64
2022-06-21 17:02:51 GMT 38.730743 -110.483055 33,000 52 504 0
2022-06-21 17:02:40 GMT 38.715588 -110.508606 33,000 52 504 0
2022-06-21 17:02:31 GMT 38.700924 -110.533264 33,000 52 504 0
2022-06-21 17:02:20 GMT 38.686478 -110.557632 33,000 52 504 0
2022-06-21 17:02:10 GMT 38.671692 -110.582588 33,000 52 504 0
2022-06-21 17:01:59 GMT 38.657070 -110.607117 33,000 52 504 0
2022-06-21 17:01:49 GMT 38.642670 -110.631432 33,000 52 504 0
2022-06-21 17:01:39 GMT 38.627472 -110.657043 33,000 52 504 0
2022-06-21 17:01:27 GMT 38.612000 -110.683075 33,000 52 503 0
2022-06-21 17:01:18 GMT 38.598511 -110.705566 33,000 52 503 0
2022-06-21 17:01:07 GMT 38.583519 -110.730591 33,000 52 503 0
2022-06-21 17:00:56 GMT 38.568787 -110.755264 33,000 52 502 0
2022-06-21 17:00:47 GMT 38.554657 -110.778931 33,000 52 503 0
2022-06-21 17:00:35 GMT 38.539715 -110.803894 33,000 52 502 0
2022-06-21 17:00:26 GMT 38.525143 -110.828125 33,000 52 502 0
2022-06-21 17:00:14 GMT 38.509918 -110.853363 33,025 52 502 0
2022-06-21 17:00:05 GMT 38.495041 -110.878021 33,000 52 502 0
2022-06-21 16:59:54 GMT 38.480896 -110.901489 33,025 52 502 0
2022-06-21 16:59:44 GMT 38.466114 -110.926025 33,000 52 502 0
2022-06-21 16:59:34 GMT 38.451263 -110.950684 33,025 52 502 0
2022-06-21 16:59:22 GMT 38.436459 -110.975342 33,000 52 502 0
2022-06-21 16:59:13 GMT 38.421295 -111.000603 33,000 52 502 0
2022-06-21 16:59:02 GMT 38.407227 -111.023888 33,000 52 502 64
2022-06-21 16:58:49 GMT 38.388931 -111.054245 32,975 52 501 64
2022-06-21 16:58:42 GMT 38.377571 -111.073090 32,975 52 501 0
2022-06-21 16:58:30 GMT 38.362629 -111.097931 32,975 52 501 0
2022-06-21 16:58:18 GMT 38.344475 -111.128082 32,975 52 500 0
2022-06-21 16:58:09 GMT 38.332809 -111.147339 32,975 52 500 -64
2022-06-21 16:57:59 GMT 38.318775 -111.170471 32,975 52 499 0
2022-06-21 16:57:49 GMT 38.304344 -111.194176 33,000 52 499 0
2022-06-21 16:57:39 GMT 38.289780 -111.218285 33,000 52 499 -64
2022-06-21 16:57:29 GMT 38.275295 -111.242126 33,000 52 500 -64
2022-06-21 16:57:18 GMT 38.260445 -111.266487 33,025 52 500 -64
2022-06-21 16:57:06 GMT 38.244278 -111.293137 33,025 52 500 0
2022-06-21 16:56:56 GMT 38.230133 -111.316399 33,000 52 501 0
2022-06-21 16:56:46 GMT 38.215988 -111.339714 33,025 52 501 -64
2022-06-21 16:56:37 GMT 38.201385 -111.363617 33,025 52 501 -64
2022-06-21 16:56:26 GMT 38.186474 -111.388168 33,025 52 500 0
2022-06-21 16:56:16 GMT 38.171951 -111.412117 33,025 52 500 64
2022-06-21 16:56:05 GMT 38.157303 -111.436195 33,000 52 500 0
2022-06-21 16:55:55 GMT 38.142700 -111.460037 33,000 52 500 0
2022-06-21 16:55:45 GMT 38.127731 -111.484352 33,025 52 500 0
2022-06-21 16:55:34 GMT 38.113083 -111.508133 33,000 52 500 0
2022-06-21 16:55:24 GMT 38.097702 -111.533142 33,000 52 500 0
2022-06-21 16:55:13 GMT 38.083054 -111.556984 33,000 52 500 0
2022-06-21 16:55:02 GMT 38.068085 -111.581299 33,000 52 500 64
2022-06-21 16:54:52 GMT 38.053802 -111.604492 33,000 52 500 0
2022-06-21 16:54:41 GMT 38.037971 -111.630173 32,975 52 500 0
2022-06-21 16:54:31 GMT 38.022400 -111.655457 33,000 52 500 0
2022-06-21 16:54:15 GMT 38.001522 -111.689278 33,000 52 500 0
2022-06-21 16:51:07 GMT 37.733383 -112.122879 33,000 51 500 0
2022-06-21 16:50:59 GMT 37.721741 -112.141602 32,975 51 499 0
2022-06-21 16:50:48 GMT 37.705490 -112.167664 33,000 51 499 0
2022-06-21 16:50:38 GMT 37.692123 -112.188873 33,000 51 499 0
2022-06-21 16:50:27 GMT 37.676353 -112.213821 33,000 51 498 0
2022-06-21 16:50:17 GMT 37.661728 -112.236855 32,975 51 498 64
2022-06-21 16:50:06 GMT 37.645569 -112.262917 32,975 53 498 0
2022-06-21 16:49:56 GMT 37.631897 -112.286720 32,975 55 496 0
2022-06-21 16:49:45 GMT 37.617920 -112.312996 32,975 57 495 64
2022-06-21 16:49:35 GMT 37.605240 -112.337425 32,975 56 496 0
2022-06-21 16:49:24 GMT 37.591396 -112.364166 32,975 56 496 0
2022-06-21 16:49:10 GMT 37.574066 -112.397614 33,000 56 496 -64
2022-06-21 16:48:50 GMT 37.548847 -112.445961 33,000 56 496 -64
2022-06-21 16:48:40 GMT 37.536419 -112.469788 33,000 56 495 0
2022-06-21 16:48:35 GMT 37.530350 -112.481537 33,000 56 495 0
2022-06-21 16:48:27 GMT 37.518448 -112.504440 33,000 56 495 0
2022-06-21 16:48:20 GMT 37.510437 -112.519867 33,000 56 495 0
2022-06-21 16:48:09 GMT 37.497734 -112.544365 33,000 56 496 0
2022-06-21 16:48:08 GMT 37.496567 -112.546631 33,000 56 496 0
2022-06-21 16:47:57 GMT 37.482742 -112.573219 33,000 56 496 0
2022-06-21 16:47:46 GMT 37.469479 -112.598701 33,000 56 497 0
2022-06-21 16:47:35 GMT 37.455185 -112.626053 33,025 56 497 0
2022-06-21 16:47:25 GMT 37.442322 -112.650650 33,025 56 497 0
2022-06-21 16:47:12 GMT 37.426437 -112.681099 33,025 56 497 0
2022-06-21 16:47:01 GMT 37.412777 -112.707306 33,025 56 498 0
2022-06-21 16:46:46 GMT 37.393250 -112.744682 33,025 56 498 0
2022-06-21 16:46:34 GMT 37.378609 -112.772568 33,025 56 498 0
2022-06-21 16:46:28 GMT 37.370136 -112.788689 33,025 56 498 0
2022-06-21 16:46:23 GMT 37.364868 -112.798737 33,025 56 498 0
2022-06-21 16:46:17 GMT 37.354706 -112.818016 33,000 56 498 0
2022-06-21 16:46:11 GMT 37.348534 -112.829712 33,025 56 498 0
2022-06-21 16:46:01 GMT 37.336304 -112.852966 33,000 56 498 0
2022-06-21 16:45:50 GMT 37.322433 -112.879204 33,025 56 498 0
2022-06-21 16:45:46 GMT 37.316505 -112.890434 33,025 56 499 0
2022-06-21 16:45:36 GMT 37.303070 -112.915848 33,025 56 498 0
2022-06-21 16:45:28 GMT 37.294281 -112.932503 33,025 56 499 64
2022-06-21 16:45:18 GMT 37.281418 -112.956871 33,000 56 498 0
2022-06-21 16:45:14 GMT 37.276146 -112.966919 33,000 56 498 0
2022-06-21 16:45:07 GMT 37.267395 -112.983582 33,025 56 498 0
2022-06-21 16:45:04 GMT 37.263577 -112.990799 33,000 56 499 0
2022-06-21 16:44:56 GMT 37.253567 -113.009911 33,000 56 499 0
2022-06-21 16:44:45 GMT 37.240128 -113.035347 33,000 56 499 64
2022-06-21 16:44:40 GMT 37.233456 -113.048004 33,000 56 499 64
2022-06-21 16:44:35 GMT 37.226940 -113.060303 33,000 56 499 0
2022-06-21 16:44:31 GMT 37.221588 -113.070396 33,000 56 499 0
2022-06-21 16:44:22 GMT 37.209576 -113.093025 33,000 56 499 0
2022-06-21 16:44:14 GMT 37.200268 -113.110580 33,000 56 498 0
2022-06-21 16:44:03 GMT 37.186394 -113.136787 33,000 56 497 0
2022-06-21 16:43:53 GMT 37.173569 -113.160934 33,000 56 498 0
2022-06-21 16:43:41 GMT 37.158321 -113.189568 33,000 56 498 0
2022-06-21 16:43:31 GMT 37.144730 -113.215103 32,975 56 498 0
2022-06-21 16:43:20 GMT 37.130718 -113.241341 33,000 56 497 -64
2022-06-21 16:43:14 GMT 37.122345 -113.257004 33,000 56 498 0
2022-06-21 16:43:09 GMT 37.116657 -113.267670 33,000 56 498 0
2022-06-21 16:43:02 GMT 37.108521 -113.282890 33,000 56 497 0
2022-06-21 16:42:58 GMT 37.103668 -113.291954 33,000 56 497 0
2022-06-21 16:42:48 GMT 37.090256 -113.317078 33,000 56 498 0
2022-06-21 16:42:38 GMT 37.077484 -113.341042 33,000 56 498 0
2022-06-21 16:42:32 GMT 37.068195 -113.358429 33,000 56 498 0
2022-06-21 16:42:27 GMT 37.063019 -113.368095 33,000 56 498 0
2022-06-21 16:42:16 GMT 37.049576 -113.393356 33,000 56 498 0
2022-06-21 16:42:06 GMT 37.037064 -113.416656 33,000 56 498 0
2022-06-21 16:41:55 GMT 37.023041 -113.442856 33,000 56 498 0
2022-06-21 16:41:47 GMT 37.011978 -113.463524 33,000 56 497 0
2022-06-21 16:41:44 GMT 37.008774 -113.469482 33,000 56 498 0
2022-06-21 16:41:32 GMT 36.993530 -113.497948 33,000 56 498 0
2022-06-21 16:41:22 GMT 36.979935 -113.523308 33,000 56 498 0
2022-06-21 16:41:11 GMT 36.966476 -113.548378 33,000 56 498 0
2022-06-21 16:40:59 GMT 36.950912 -113.577301 33,000 56 498 0
2022-06-21 16:40:49 GMT 36.936768 -113.603539 33,000 56 498 0
2022-06-21 16:40:46 GMT 36.934067 -113.608566 33,000 56 498 0
2022-06-21 16:40:37 GMT 36.922070 -113.630875 32,975 56 498 0
2022-06-21 16:40:34 GMT 36.917320 -113.639709 32,975 56 498 0
2022-06-21 16:40:26 GMT 36.907471 -113.657944 33,000 56 499 0
2022-06-21 16:40:13 GMT 36.891586 -113.687286 33,000 56 498 0
2022-06-21 16:40:05 GMT 36.880825 -113.707184 33,000 56 499 0
2022-06-21 16:40:02 GMT 36.877335 -113.713631 33,000 56 499 0
2022-06-21 16:39:55 GMT 36.867096 -113.732574 33,000 56 499 0
2022-06-21 16:39:52 GMT 36.863785 -113.738708 33,000 56 499 0
2022-06-21 16:39:47 GMT 36.856110 -113.752853 33,000 56 499 0
2022-06-21 16:39:44 GMT 36.853409 -113.757874 33,000 56 499 0
2022-06-21 16:39:41 GMT 36.850204 -113.763885 33,000 56 499 0
2022-06-21 16:39:34 GMT 36.839298 -113.784058 33,000 56 500 0
2022-06-21 16:39:31 GMT 36.836792 -113.788719 33,000 56 500 -64
2022-06-21 16:39:26 GMT 36.830269 -113.800774 33,025 56 499 -64
2022-06-21 16:39:23 GMT 36.826405 -113.807961 33,025 56 499 0
2022-06-21 16:39:20 GMT 36.823051 -113.814156 33,025 56 499 0
2022-06-21 16:39:13 GMT 36.814068 -113.830864 33,025 56 500 0
2022-06-21 16:39:09 GMT 36.809464 -113.839355 33,025 56 500 0
2022-06-21 16:39:05 GMT 36.803593 -113.850204 33,025 56 500 0
2022-06-21 16:39:03 GMT 36.801128 -113.854767 33,025 56 500 0
2022-06-21 16:38:59 GMT 36.795914 -113.864426 33,025 56 500 0
2022-06-21 16:38:54 GMT 36.789394 -113.876503 33,025 55 500 0
2022-06-21 16:38:51 GMT 36.785484 -113.883636 33,025 55 500 0
2022-06-21 16:38:48 GMT 36.781403 -113.891144 33,025 55 500 0
2022-06-21 16:38:45 GMT 36.776409 -113.900345 33,025 55 500 0
2022-06-21 16:38:43 GMT 36.773758 -113.905220 33,025 55 500 0
2022-06-21 16:38:34 GMT 36.763187 -113.924713 33,025 55 501 0
2022-06-21 16:38:31 GMT 36.759613 -113.931252 33,025 55 501 0
2022-06-21 16:38:27 GMT 36.754341 -113.940903 33,025 55 501 0
2022-06-21 16:38:21 GMT 36.744827 -113.958488 33,025 55 501 0
2022-06-21 16:38:17 GMT 36.741634 -113.964340 33,025 55 501 0
2022-06-21 16:38:12 GMT 36.733810 -113.978653 33,025 55 501 0
2022-06-21 16:38:06 GMT 36.727715 -113.989876 33,025 55 501 0
2022-06-21 16:38:03 GMT 36.722733 -113.998932 33,025 55 501 0
2022-06-21 16:37:59 GMT 36.716812 -114.009766 33,025 55 501 0
2022-06-21 16:37:53 GMT 36.709167 -114.023895 33,025 55 501 0
2022-06-21 16:37:49 GMT 36.704590 -114.032249 33,025 55 501 0
2022-06-21 16:37:45 GMT 36.700249 -114.040245 33,025 55 502 0
2022-06-21 16:37:39 GMT 36.691086 -114.057083 33,025 55 502 0
2022-06-21 16:37:31 GMT 36.681908 -114.073906 33,025 55 502 0
2022-06-21 16:37:27 GMT 36.676666 -114.083572 33,025 55 502 0
2022-06-21 16:37:23 GMT 36.671585 -114.092903 33,025 55 502 0
2022-06-21 16:37:20 GMT 36.666504 -114.102226 33,025 55 502 0
2022-06-21 16:37:17 GMT 36.663116 -114.108414 33,025 55 502 0
2022-06-21 16:37:10 GMT 36.652531 -114.127846 33,000 55 501 0
2022-06-21 16:37:07 GMT 36.649979 -114.132500 33,025 55 501 0
2022-06-21 16:37:00 GMT 36.642014 -114.147034 33,000 55 501 0
2022-06-21 16:36:56 GMT 36.636292 -114.157562 33,000 55 501 0
2022-06-21 16:36:51 GMT 36.629025 -114.170799 33,000 55 501 0
2022-06-21 16:36:44 GMT 36.619900 -114.187454 33,000 55 501 0
2022-06-21 16:36:41 GMT 36.616360 -114.193878 33,000 55 501 0
2022-06-21 16:36:35 GMT 36.608631 -114.207909 33,000 55 501 0
2022-06-21 16:36:30 GMT 36.602768 -114.218658 33,000 55 501 0
2022-06-21 16:36:26 GMT 36.595459 -114.231979 33,000 55 501 0
2022-06-21 16:36:20 GMT 36.587173 -114.247108 33,000 55 501 0
2022-06-21 16:36:15 GMT 36.581818 -114.256844 33,000 55 501 0
2022-06-21 16:36:10 GMT 36.575684 -114.268059 33,000 55 501 0
2022-06-21 16:36:05 GMT 36.568359 -114.281326 33,000 55 501 0
2022-06-21 16:35:59 GMT 36.561035 -114.294662 32,975 55 500 0
2022-06-21 16:35:56 GMT 36.558289 -114.299644 32,975 55 500 0
2022-06-21 16:35:53 GMT 36.553986 -114.307480 32,975 55 500 0
2022-06-21 16:35:48 GMT 36.544601 -114.324593 32,975 55 500 0
2022-06-21 16:35:44 GMT 36.540482 -114.332085 32,975 55 500 0
2022-06-21 16:35:38 GMT 36.533981 -114.343872 32,975 55 501 0
2022-06-21 16:35:36 GMT 36.531448 -114.348511 32,975 55 501 0
2022-06-21 16:35:33 GMT 36.527435 -114.355721 32,975 55 501 0
2022-06-21 16:35:27 GMT 36.519608 -114.369965 32,975 55 500 0
2022-06-21 16:35:23 GMT 36.513016 -114.381935 32,975 55 500 0
2022-06-21 16:35:16 GMT 36.503983 -114.398300 32,975 55 500 0
2022-06-21 16:35:12 GMT 36.499702 -114.406189 32,975 55 500 0
2022-06-21 16:35:07 GMT 36.490669 -114.422546 32,975 55 500 0
2022-06-21 16:35:02 GMT 36.485970 -114.431084 33,000 55 500 0
2022-06-21 16:34:57 GMT 36.479645 -114.442574 33,000 55 500 0
2022-06-21 16:34:51 GMT 36.472321 -114.455795 32,975 55 500 0
2022-06-21 16:34:41 GMT 36.458691 -114.480522 33,000 55 500 0
2022-06-21 16:34:34 GMT 36.450867 -114.494720 33,000 55 500 0
2022-06-21 16:34:33 GMT 36.449341 -114.497452 33,000 55 500 0
2022-06-21 16:34:30 GMT 36.444626 -114.505981 33,000 55 500 0
2022-06-21 16:34:26 GMT 36.438950 -114.516228 33,000 55 500 -64
2022-06-21 16:34:23 GMT 36.436481 -114.520721 33,000 55 500 0
2022-06-21 16:34:19 GMT 36.430988 -114.530663 33,000 55 500 -64
2022-06-21 16:34:14 GMT 36.423386 -114.544487 33,000 55 500 -64
2022-06-21 16:34:09 GMT 36.418095 -114.554031 33,000 55 500 0
2022-06-21 16:34:04 GMT 36.411671 -114.565605 33,000 55 499 0
2022-06-21 16:34:02 GMT 36.409149 -114.570236 33,000 55 500 0
2022-06-21 16:33:58 GMT 36.402100 -114.582993 33,000 55 500 0
2022-06-21 16:33:54 GMT 36.390675 -114.603645 33,000 55 500 0
2022-06-21 16:33:49 GMT 36.390675 -114.603645 33,000 55 499 0
2022-06-21 16:33:44 GMT 36.385044 -114.613815 33,000 55 499 0
2022-06-21 16:33:42 GMT 36.382370 -114.618645 33,000 55 499 0
2022-06-21 16:33:38 GMT 36.376942 -114.628426 33,000 55 499 64
2022-06-21 16:33:33 GMT 36.371521 -114.638214 33,000 55 499 0
2022-06-21 16:33:31 GMT 36.368980 -114.642799 33,000 55 499 0
2022-06-21 16:33:26 GMT 36.360462 -114.658112 33,000 55 499 0
2022-06-21 16:33:23 GMT 36.355911 -114.666252 33,000 55 499 0
2022-06-21 16:33:22 GMT 36.355408 -114.667229 33,000 55 499 0
2022-06-21 16:33:17 GMT 36.349293 -114.678154 33,000 55 499 0
2022-06-21 16:33:11 GMT 36.342041 -114.691254 33,000 55 499 0
2022-06-21 16:33:07 GMT 36.335587 -114.702759 33,000 55 500 0
2022-06-21 16:33:02 GMT 36.330528 -114.711815 33,000 55 500 0
2022-06-21 16:33:00 GMT 36.327713 -114.716888 33,000 55 500 0
2022-06-21 16:32:54 GMT 36.314484 -114.740700 33,000 55 499 0
2022-06-21 16:32:51 GMT 36.314484 -114.740700 33,000 55 499 0
2022-06-21 16:32:46 GMT 36.307800 -114.752655 33,000 55 499 0
2022-06-21 16:32:42 GMT 36.303726 -114.759979 33,000 55 499 0
2022-06-21 16:32:40 GMT 36.301208 -114.764442 33,000 55 499 0
2022-06-21 16:32:32 GMT 36.289444 -114.785614 33,000 55 499 0
2022-06-21 16:32:29 GMT 36.286724 -114.790474 33,000 55 499 0
2022-06-21 16:32:25 GMT 36.280720 -114.801285 33,000 55 499 0
2022-06-21 16:32:19 GMT 36.273743 -114.813881 33,000 55 499 0
2022-06-21 16:32:14 GMT 36.267124 -114.825768 33,000 55 499 0
2022-06-21 16:32:08 GMT 36.259117 -114.840149 33,000 55 499 0
2022-06-21 16:32:04 GMT 36.253418 -114.850327 33,000 55 499 0
2022-06-21 16:31:58 GMT 36.246048 -114.863548 33,000 55 499 0
2022-06-21 16:31:53 GMT 36.239365 -114.875504 33,025 55 499 0
2022-06-21 16:31:49 GMT 36.233276 -114.886322 33,025 55 499 0
2022-06-21 16:31:45 GMT 36.229202 -114.893585 33,025 55 499 -64
2022-06-21 16:31:42 GMT 36.225815 -114.899712 33,025 55 499 -64
2022-06-21 16:31:39 GMT 36.220901 -114.908516 33,025 55 499 -64
2022-06-21 16:31:36 GMT 36.218079 -114.913559 33,025 55 499 -64
2022-06-21 16:31:33 GMT 36.212845 -114.922836 33,025 55 499 -64
2022-06-21 16:31:30 GMT 36.208603 -114.930443 33,025 55 499 -64
2022-06-21 16:31:28 GMT 36.205769 -114.935516 33,025 55 499 -64
2022-06-21 16:31:22 GMT 36.197937 -114.949432 33,025 55 499 -64
2022-06-21 16:31:19 GMT 36.194687 -114.955330 33,025 55 499 0
2022-06-21 16:31:17 GMT 36.192581 -114.959106 33,025 55 499 -64
2022-06-21 16:31:12 GMT 36.184296 -114.973869 33,025 55 499 0
2022-06-21 16:31:06 GMT 36.178253 -114.984688 33,025 55 499 0
2022-06-21 16:30:59 GMT 36.167786 -115.003304 33,025 55 499 0
2022-06-21 16:30:55 GMT 36.162048 -115.013519 33,025 55 500 0
2022-06-21 16:30:51 GMT 36.156471 -115.023468 33,050 55 500 0
2022-06-21 16:30:46 GMT 36.151886 -115.031609 33,025 55 500 0
2022-06-21 16:30:45 GMT 36.150742 -115.033669 33,025 55 500 0
2022-06-21 16:30:40 GMT 36.143188 -115.047050 33,025 55 500 0
2022-06-21 16:30:37 GMT 36.140503 -115.051865 33,025 55 500 0
2022-06-21 16:30:35 GMT 36.137897 -115.056602 33,025 55 500 0
2022-06-21 16:30:30 GMT 36.128914 -115.072556 33,025 55 500 0
2022-06-21 16:30:25 GMT 36.122818 -115.083504 33,025 55 500 0
2022-06-21 16:30:19 GMT 36.115631 -115.096436 33,025 55 500 0
2022-06-21 16:30:16 GMT 36.112747 -115.101646 33,025 55 500 0
2022-06-21 16:30:13 GMT 36.108078 -115.110107 33,025 55 500 0
2022-06-21 16:30:10 GMT 36.099911 -115.124855 33,025 55 500 64
2022-06-21 16:30:07 GMT 36.099911 -115.124855 33,025 55 500 64
2022-06-21 16:30:02 GMT 36.094418 -115.134735 33,025 54 501 64
2022-06-21 16:29:59 GMT 36.089344 -115.143616 33,025 53 502 0
2022-06-21 16:29:56 GMT 36.085201 -115.150513 33,025 52 502 0
2022-06-21 16:29:54 GMT 36.081661 -115.156181 33,025 50 502 0
2022-06-21 16:29:50 GMT 36.077225 -115.162987 33,025 50 502 0
2022-06-21 16:29:48 GMT 36.072819 -115.169441 33,025 49 503 0
2022-06-21 16:29:45 GMT 36.069324 -115.174408 33,025 48 503 64
2022-06-21 16:29:44 GMT 36.067787 -115.176575 33,025 48 503 64
2022-06-21 16:29:41 GMT 36.063858 -115.182098 33,025 48 503 64
2022-06-21 16:29:37 GMT 36.056850 -115.191826 33,025 48 503 64
2022-06-21 16:29:34 GMT 36.052055 -115.198486 33,025 48 503 64
2022-06-21 16:29:31 GMT 36.047913 -115.204330 33,025 48 503 0
2022-06-21 16:29:28 GMT 36.041519 -115.213226 33,025 48 503 0
2022-06-21 16:29:25 GMT 36.038452 -115.217514 33,000 48 503 64
2022-06-21 16:29:23 GMT 36.035110 -115.222153 33,025 48 502 64
2022-06-21 16:29:20 GMT 36.025681 -115.235367 33,000 48 503 64
2022-06-21 16:29:17 GMT 36.025681 -115.235367 33,000 48 503 64
2022-06-21 16:29:14 GMT 36.021835 -115.240746 33,000 48 503 64
2022-06-21 16:29:13 GMT 36.020214 -115.243019 33,000 48 503 64
2022-06-21 16:29:09 GMT 36.014740 -115.250648 33,000 48 503 64
2022-06-21 16:29:06 GMT 36.007965 -115.260086 33,000 48 502 64
2022-06-21 16:29:02 GMT 36.004200 -115.265343 33,000 48 502 64
2022-06-21 16:28:59 GMT 35.997868 -115.274109 33,000 48 503 64
2022-06-21 16:28:54 GMT 35.990891 -115.283890 32,975 48 502 64
2022-06-21 16:28:52 GMT 35.988045 -115.287842 32,975 48 502 64
2022-06-21 16:28:49 GMT 35.982697 -115.295219 32,975 48 502 64
2022-06-21 16:28:46 GMT 35.977245 -115.302795 32,975 48 501 0
2022-06-21 16:28:43 GMT 35.973988 -115.307297 32,975 48 501 0
2022-06-21 16:28:42 GMT 35.972450 -115.309464 32,975 48 501 0
2022-06-21 16:28:36 GMT 35.963608 -115.321709 32,975 48 501 0
2022-06-21 16:28:34 GMT 35.959305 -115.327721 32,975 48 501 0
2022-06-21 16:28:32 GMT 35.956158 -115.332077 32,975 48 500 0
2022-06-21 16:28:27 GMT 35.949142 -115.341797 32,975 48 500 0
2022-06-21 16:28:23 GMT 35.943077 -115.350250 32,975 48 500 0
2022-06-21 16:28:21 GMT 35.940079 -115.354385 32,975 48 500 -64
2022-06-21 16:28:17 GMT 35.933167 -115.363998 33,000 48 500 -64
2022-06-21 16:28:12 GMT 35.924503 -115.376022 33,000 48 499 0
2022-06-21 16:28:05 GMT 35.914215 -115.390343 33,000 48 500 0
2022-06-21 16:28:02 GMT 35.910599 -115.395355 33,000 48 500 0
2022-06-21 16:28:01 GMT 35.908310 -115.398499 33,000 48 500 0
2022-06-21 16:27:53 GMT 35.895950 -115.415787 33,000 48 499 -64
2022-06-21 16:27:50 GMT 35.892334 -115.420784 33,000 48 499 0
2022-06-21 16:27:42 GMT 35.879242 -115.438957 33,000 48 499 0
2022-06-21 16:27:40 GMT 35.877018 -115.442055 32,975 48 499 0
2022-06-21 16:27:31 GMT 35.863403 -115.460876 32,975 48 499 0
2022-06-21 16:27:29 GMT 35.859604 -115.466194 32,975 48 499 0
2022-06-21 16:27:24 GMT 35.851555 -115.477356 33,000 48 499 0
2022-06-21 16:27:19 GMT 35.845001 -115.486397 32,975 48 499 0
2022-06-21 16:27:11 GMT 35.831497 -115.505104 32,975 48 500 0
2022-06-21 16:27:08 GMT 35.829117 -115.508385 33,000 48 500 0
2022-06-21 16:27:00 GMT 35.812962 -115.530708 32,975 48 500 0
2022-06-21 16:26:49 GMT 35.799881 -115.548767 33,000 48 500 0
2022-06-21 16:26:47 GMT 35.796890 -115.552879 32,975 48 500 0
2022-06-21 16:26:40 GMT 35.784008 -115.570618 33,000 48 500 0
2022-06-21 16:26:38 GMT 35.781006 -115.574738 33,000 48 500 0
2022-06-21 16:26:28 GMT 35.765121 -115.596603 32,975 48 500 64
2022-06-21 16:26:27 GMT 35.765121 -115.596603 32,975 48 500 64
2022-06-21 16:26:17 GMT 35.749374 -115.618340 32,975 48 501 0
2022-06-21 16:26:07 GMT 35.733452 -115.640396 32,975 48 502 0
2022-06-21 16:25:58 GMT 35.720093 -115.658920 32,975 48 501 0
2022-06-21 16:25:56 GMT 35.717697 -115.662231 32,975 48 501 0
2022-06-21 16:25:47 GMT 35.703938 -115.681305 32,975 48 501 0
2022-06-21 16:25:46 GMT 35.701611 -115.684517 32,975 48 501 0
2022-06-21 16:25:36 GMT 35.685516 -115.706802 32,975 48 501 0
2022-06-21 16:25:27 GMT 35.672241 -115.725121 32,975 48 502 0
2022-06-21 16:25:24 GMT 35.668991 -115.729584 32,975 48 502 0
2022-06-21 16:25:17 GMT 35.656315 -115.746872 32,975 47 503 0
2022-06-21 16:25:15 GMT 35.653748 -115.750351 32,975 47 503 0
2022-06-21 16:25:05 GMT 35.636536 -115.773643 32,975 47 504 0
2022-06-21 16:24:54 GMT 35.619095 -115.797096 32,975 47 504 -64
2022-06-21 16:24:46 GMT 35.607388 -115.812904 32,975 47 505 -64
2022-06-21 16:24:42 GMT 35.601894 -115.820328 32,975 47 505 -64
2022-06-21 16:24:33 GMT 35.586365 -115.841164 33,000 47 506 0
2022-06-21 16:24:25 GMT 35.575012 -115.856438 33,000 47 506 -64
2022-06-21 16:24:22 GMT 35.568935 -115.864624 33,000 47 506 0
2022-06-21 16:24:15 GMT 35.558323 -115.878822 33,000 47 506 0
2022-06-21 16:24:12 GMT 35.549335 -115.890915 33,000 47 506 0
2022-06-21 16:24:09 GMT 35.549335 -115.890915 33,000 47 508 0
2022-06-21 16:24:04 GMT 35.542648 -115.899979 33,000 47 508 0
2022-06-21 16:24:00 GMT 35.534626 -115.910728 33,000 47 508 0
2022-06-21 16:23:57 GMT 35.532112 -115.914177 33,000 47 508 0
2022-06-21 16:23:53 GMT 35.525921 -115.922478 33,000 47 509 0
2022-06-21 16:23:50 GMT 35.519211 -115.931511 33,000 47 509 0
2022-06-21 16:23:47 GMT 35.514565 -115.937782 33,000 47 509 0
2022-06-21 16:23:44 GMT 35.509872 -115.944099 33,000 47 509 0
2022-06-21 16:23:42 GMT 35.506851 -115.948158 33,000 47 509 0
2022-06-21 16:23:39 GMT 35.502594 -115.953941 33,000 47 509 0
2022-06-21 16:23:36 GMT 35.497833 -115.960297 33,000 47 509 0
2022-06-21 16:23:33 GMT 35.493336 -115.966362 33,000 47 509 0
2022-06-21 16:23:31 GMT 35.490311 -115.970451 33,000 47 509 0
2022-06-21 16:23:27 GMT 35.482819 -115.980553 33,000 47 509 0
2022-06-21 16:23:22 GMT 35.473690 -115.992836 33,000 47 509 0
2022-06-21 16:23:16 GMT 35.465961 -116.003296 33,000 47 508 0
2022-06-21 16:23:11 GMT 35.457069 -116.015213 33,000 47 508 0
2022-06-21 16:23:06 GMT 35.449482 -116.025383 33,000 47 508 0
2022-06-21 16:23:02 GMT 35.443756 -116.033035 33,000 47 508 0
2022-06-21 16:23:00 GMT 35.441242 -116.036430 33,000 47 508 0
2022-06-21 16:22:55 GMT 35.432816 -116.047707 33,000 47 508 0
2022-06-21 16:22:51 GMT 35.426487 -116.056183 33,000 47 508 0
2022-06-21 16:22:45 GMT 35.416149 -116.069969 33,000 47 508 0
2022-06-21 16:22:40 GMT 35.407539 -116.081429 33,000 47 508 0
2022-06-21 16:22:34 GMT 35.399441 -116.092293 33,000 47 508 0
2022-06-21 16:22:31 GMT 35.394745 -116.098534 33,000 47 508 0
2022-06-21 16:22:29 GMT 35.391449 -116.103004 33,000 47 508 0
2022-06-21 16:22:24 GMT 35.382122 -116.115440 33,000 47 508 0
2022-06-21 16:22:20 GMT 35.370941 -116.130409 33,000 47 508 0
2022-06-21 16:22:16 GMT 35.370941 -116.130409 32,975 47 508 192
2022-06-21 16:22:13 GMT 35.366180 -116.136765 32,975 47 508 64
2022-06-21 16:22:10 GMT 35.361420 -116.143112 32,975 47 508 128
2022-06-21 16:22:09 GMT 35.358936 -116.146408 32,975 47 508 256
2022-06-21 16:22:03 GMT 35.349197 -116.159416 32,950 47 506 512
2022-06-21 16:21:59 GMT 35.344437 -116.165771 32,900 47 506 576
2022-06-21 16:21:57 GMT 35.341415 -116.169777 32,900 47 506 640
2022-06-21 16:21:53 GMT 35.332825 -116.181297 32,825 47 506 704
2022-06-21 16:21:50 GMT 35.327957 -116.187744 32,800 47 506 704
2022-06-21 16:21:47 GMT 35.325439 -116.191116 32,775 47 506 704
2022-06-21 16:21:42 GMT 35.315693 -116.204086 32,700 47 506 768
2022-06-21 16:21:38 GMT 35.311020 -116.210342 32,675 47 506 768
2022-06-21 16:21:37 GMT 35.309639 -116.212090 32,650 47 506 704
2022-06-21 16:21:29 GMT 35.295071 -116.231499 32,525 47 506 576
2022-06-21 16:21:26 GMT 35.291931 -116.235641 32,525 47 506 512
2022-06-21 16:21:19 GMT 35.279194 -116.252594 32,450 47 505 576
2022-06-21 16:21:15 GMT 35.264809 -116.271698 32,200 47 504 832
2022-06-21 16:21:10 GMT 35.264809 -116.271698 32,350 47 504 640
2022-06-21 16:21:06 GMT 35.259270 -116.279060 32,325 47 504 768
2022-06-21 16:20:59 GMT 35.248627 -116.293198 32,225 47 504 896
2022-06-21 16:20:56 GMT 35.244282 -116.298988 32,175 47 504 832
2022-06-21 16:20:53 GMT 35.237732 -116.307732 32,125 47 504 832
2022-06-21 16:20:49 GMT 35.232056 -116.315292 32,075 47 504 832
2022-06-21 16:20:45 GMT 35.222260 -116.328285 32,000 47 504 832
2022-06-21 16:20:42 GMT 35.222260 -116.328285 31,825 47 504 832
2022-06-21 16:20:39 GMT 35.216263 -116.336243 31,925 47 505 832
2022-06-21 16:20:35 GMT 35.210403 -116.344040 31,875 47 505 768
2022-06-21 16:20:32 GMT 35.205185 -116.350990 31,850 47 504 704
2022-06-21 16:20:28 GMT 35.198658 -116.359695 31,775 47 503 640
2022-06-21 16:20:24 GMT 35.194656 -116.365059 31,775 47 503 640
2022-06-21 16:20:21 GMT 35.182205 -116.381645 31,725 47 503 640
2022-06-21 16:20:17 GMT 35.182205 -116.381645 31,675 47 503 640
2022-06-21 16:20:13 GMT 35.174404 -116.392021 31,625 47 503 640
2022-06-21 16:20:10 GMT 35.171101 -116.396423 31,500 47 503 704
2022-06-21 16:20:06 GMT 35.159138 -116.412277 31,550 47 503 704
2022-06-21 16:20:03 GMT 35.159138 -116.412277 31,525 47 503 704
2022-06-21 16:20:00 GMT 35.156067 -116.416344 31,425 47 502 768
2022-06-21 16:19:55 GMT 35.148010 -116.426994 31,425 47 503 832
2022-06-21 16:19:53 GMT 35.144798 -116.431274 31,400 47 502 768
2022-06-21 16:19:50 GMT 35.140137 -116.437424 31,375 47 503 896
2022-06-21 16:19:47 GMT 35.136337 -116.442467 31,325 47 503 960
2022-06-21 16:19:44 GMT 35.130066 -116.450760 31,275 47 503 1024
2022-06-21 16:19:41 GMT 35.125244 -116.457138 31,200 47 503 1152
2022-06-21 16:19:39 GMT 35.121151 -116.462570 30,975 47 503 1152
2022-06-21 16:19:34 GMT 35.113770 -116.472282 30,975 47 504 1152
2022-06-21 16:19:29 GMT 35.106033 -116.482491 30,925 47 504 1088
2022-06-21 16:19:23 GMT 35.097336 -116.493980 30,800 47 505 960
2022-06-21 16:19:18 GMT 35.089355 -116.504578 30,350 47 504 704
2022-06-21 16:19:12 GMT 35.072781 -116.526543 30,700 47 503 512
2022-06-21 16:19:08 GMT 35.072781 -116.526543 30,700 47 502 512
2022-06-21 16:19:03 GMT 35.066208 -116.535179 30,650 47 501 960
2022-06-21 16:19:00 GMT 35.061493 -116.541458 30,650 47 501 960
2022-06-21 16:18:57 GMT 35.050251 -116.556297 30,350 47 502 1152
2022-06-21 16:18:54 GMT 35.050251 -116.556297 30,525 47 502 1280
2022-06-21 16:18:50 GMT 35.046154 -116.561737 30,500 47 502 1152
2022-06-21 16:18:47 GMT 35.034657 -116.576897 30,400 47 503 1280
2022-06-21 16:18:44 GMT 35.034657 -116.576897 30,350 47 503 1216
2022-06-21 16:18:41 GMT 35.022179 -116.593384 29,800 47 503 1024
2022-06-21 16:18:36 GMT 35.022179 -116.593384 30,200 47 504 1024
2022-06-21 16:18:33 GMT 35.016724 -116.600594 29,975 47 504 896
2022-06-21 16:18:30 GMT 35.013802 -116.604424 30,100 47 504 1024
2022-06-21 16:18:26 GMT 35.006470 -116.614159 30,025 47 504 1024
2022-06-21 16:18:23 GMT 35.000999 -116.621361 29,925 47 504 896
2022-06-21 16:18:20 GMT 34.996948 -116.626656 29,950 47 504 896
2022-06-21 16:18:16 GMT 34.992107 -116.633034 29,900 47 505 896
2022-06-21 16:18:14 GMT 34.988983 -116.637077 29,875 47 505 896
2022-06-21 16:18:12 GMT 34.980423 -116.648293 29,800 47 504 896
2022-06-21 16:18:09 GMT 34.980423 -116.648293 29,750 46 505 960
2022-06-21 16:18:06 GMT 34.975674 -116.654434 29,725 46 505 1024
2022-06-21 16:18:03 GMT 34.971634 -116.659668 29,650 46 505 1024
2022-06-21 16:18:00 GMT 34.965759 -116.667252 29,575 46 505 1088
2022-06-21 16:17:57 GMT 34.960236 -116.674355 29,575 46 505 1088
2022-06-21 16:17:54 GMT 34.955330 -116.680695 29,450 46 505 1152
2022-06-21 16:17:51 GMT 34.950439 -116.686966 29,425 46 505 1152
2022-06-21 16:17:48 GMT 34.946228 -116.692352 29,400 46 505 1152
2022-06-21 16:17:44 GMT 34.941422 -116.698570 29,350 47 505 1152
2022-06-21 16:17:42 GMT 34.937439 -116.703728 29,325 47 506 1152
2022-06-21 16:17:39 GMT 34.932892 -116.709763 29,175 50 505 1024
2022-06-21 16:17:36 GMT 34.927353 -116.717438 29,175 51 504 1024
2022-06-21 16:17:33 GMT 34.922791 -116.724075 28,975 54 504 1088
2022-06-21 16:17:30 GMT 34.917114 -116.732765 29,050 54 504 1088
2022-06-21 16:17:27 GMT 34.913315 -116.738930 28,975 54 504 1088
2022-06-21 16:17:23 GMT 34.907730 -116.748344 28,875 54 504 1088
2022-06-21 16:17:19 GMT 34.902603 -116.757149 28,775 54 504 1088
2022-06-21 16:17:16 GMT 34.899143 -116.763039 28,725 54 504 1088
2022-06-21 16:17:12 GMT 34.891602 -116.776031 28,700 54 504 1152
2022-06-21 16:17:09 GMT 34.889042 -116.780434 28,650 54 504 1152
2022-06-21 16:17:05 GMT 34.885132 -116.787125 28,550 54 504 1152
2022-06-21 16:17:01 GMT 34.878845 -116.797897 28,550 54 504 1152
2022-06-21 16:16:58 GMT 34.874268 -116.805801 28,425 54 505 1152
2022-06-21 16:16:55 GMT 34.870605 -116.812019 28,425 54 505 1088
2022-06-21 16:16:51 GMT 34.864971 -116.821632 28,350 54 505 1024
2022-06-21 16:16:48 GMT 34.860992 -116.828499 28,300 54 505 1024
2022-06-21 16:16:44 GMT 34.855316 -116.838257 28,200 54 505 1088
2022-06-21 16:16:40 GMT 34.850262 -116.846924 28,150 54 505 1088
2022-06-21 16:16:37 GMT 34.846024 -116.854233 28,075 54 505 1088
2022-06-21 16:16:33 GMT 34.841885 -116.861282 28,025 54 505 1088
2022-06-21 16:16:29 GMT 34.836136 -116.871155 27,950 54 505 1152
2022-06-21 16:16:26 GMT 34.831421 -116.879288 27,900 54 505 1152
2022-06-21 16:16:23 GMT 34.827591 -116.885895 27,825 54 505 1152
2022-06-21 16:16:18 GMT 34.821259 -116.896660 27,725 54 506 1088
2022-06-21 16:16:15 GMT 34.816818 -116.904343 27,700 54 506 1024
2022-06-21 16:16:12 GMT 34.812508 -116.911636 27,550 54 506 1024
2022-06-21 16:16:09 GMT 34.808395 -116.918694 27,575 54 506 1152
2022-06-21 16:16:06 GMT 34.803711 -116.926689 27,500 54 507 1152
2022-06-21 16:16:03 GMT 34.799751 -116.933441 27,450 54 507 1216
2022-06-21 16:15:59 GMT 34.795006 -116.941566 27,375 54 507 1280
2022-06-21 16:15:56 GMT 34.783833 -116.960625 27,275 54 508 1216
2022-06-21 16:15:51 GMT 34.783833 -116.960625 27,225 54 509 1024
2022-06-21 16:15:48 GMT 34.779316 -116.968285 27,175 54 507 832
2022-06-21 16:15:45 GMT 34.776989 -116.972237 27,175 54 507 832
2022-06-21 16:15:42 GMT 34.771542 -116.981567 27,075 54 507 832
2022-06-21 16:15:37 GMT 34.765259 -116.992264 26,950 54 506 832
2022-06-21 16:15:34 GMT 34.757309 -117.005798 26,950 54 506 832
2022-06-21 16:15:31 GMT 34.757309 -117.005798 26,925 54 506 832
2022-06-21 16:15:28 GMT 34.752411 -117.014145 26,875 54 506 896
2022-06-21 16:15:24 GMT 34.747650 -117.022278 26,750 54 506 896
2022-06-21 16:15:21 GMT 34.742958 -117.030258 26,800 54 506 896
2022-06-21 16:15:17 GMT 34.737793 -117.039017 26,725 54 506 1024
2022-06-21 16:15:14 GMT 34.733696 -117.045937 26,550 54 505 768
2022-06-21 16:15:10 GMT 34.728527 -117.054749 26,600 54 505 960
2022-06-21 16:15:07 GMT 34.723640 -117.063049 26,575 54 505 768
2022-06-21 16:15:03 GMT 34.718056 -117.072487 26,525 54 504 512
2022-06-21 16:15:00 GMT 34.714325 -117.078835 26,500 54 503 512
2022-06-21 16:14:56 GMT 34.708878 -117.088028 26,475 54 502 448
2022-06-21 16:14:53 GMT 34.705902 -117.093071 26,450 54 502 448
2022-06-21 16:14:50 GMT 34.700691 -117.101845 26,425 54 501 512
2022-06-21 16:14:45 GMT 34.692219 -117.116264 26,350 54 499 704
2022-06-21 16:14:42 GMT 34.690216 -117.119698 26,325 54 498 768
2022-06-21 16:14:39 GMT 34.686127 -117.126648 25,950 54 496 832
2022-06-21 16:14:35 GMT 34.680450 -117.136230 26,250 54 498 960
2022-06-21 16:14:32 GMT 34.676903 -117.142242 26,200 54 498 896
2022-06-21 16:14:28 GMT 34.669373 -117.155067 26,125 54 497 896
2022-06-21 16:14:25 GMT 34.667126 -117.158836 26,100 54 497 896
2022-06-21 16:14:21 GMT 34.656921 -117.176193 26,025 54 496 832
2022-06-21 16:14:17 GMT 34.656921 -117.176193 26,000 54 496 832
2022-06-21 16:14:14 GMT 34.652390 -117.183876 25,925 54 495 768
2022-06-21 16:14:11 GMT 34.648819 -117.189987 25,825 54 494 832
2022-06-21 16:14:08 GMT 34.644363 -117.197571 25,850 54 494 896
2022-06-21 16:14:04 GMT 34.639568 -117.205696 25,825 54 493 832
2022-06-21 16:14:01 GMT 34.636913 -117.210220 25,775 54 493 832
2022-06-21 16:13:58 GMT 34.632889 -117.217056 25,750 54 492 768
2022-06-21 16:13:56 GMT 34.628906 -117.223839 25,700 54 492 768
2022-06-21 16:13:51 GMT 34.623093 -117.233704 25,650 54 490 704
2022-06-21 16:13:48 GMT 34.618561 -117.241325 25,525 54 490 704
2022-06-21 16:13:45 GMT 34.615814 -117.246040 25,575 54 490 704
2022-06-21 16:13:42 GMT 34.611053 -117.254112 25,500 54 490 768
2022-06-21 16:13:39 GMT 34.605515 -117.263474 25,450 54 489 704
2022-06-21 16:13:36 GMT 34.601807 -117.269691 25,450 54 488 768
2022-06-21 16:13:31 GMT 34.595078 -117.281075 25,375 54 487 1088
2022-06-21 16:13:28 GMT 34.588486 -117.292168 25,300 54 487 1152
2022-06-21 16:13:25 GMT 34.588486 -117.292168 25,275 54 487 1152
2022-06-21 16:13:20 GMT 34.580631 -117.305374 25,175 54 487 768
2022-06-21 16:13:15 GMT 34.573929 -117.316650 25,125 54 487 704
2022-06-21 16:13:11 GMT 34.569260 -117.324509 25,075 54 485 640
2022-06-21 16:13:07 GMT 34.563828 -117.333694 25,000 54 484 896
2022-06-21 16:13:04 GMT 34.560196 -117.339874 25,000 54 484 1024
2022-06-21 16:13:01 GMT 34.556305 -117.346375 24,925 54 484 1024
2022-06-21 16:12:57 GMT 34.546368 -117.363220 24,725 54 483 1024
2022-06-21 16:12:54 GMT 34.546368 -117.363220 24,725 54 483 1024
2022-06-21 16:12:48 GMT 34.540192 -117.373726 24,700 54 483 1024
2022-06-21 16:12:45 GMT 34.535385 -117.381851 24,650 54 483 1024
2022-06-21 16:12:42 GMT 34.532135 -117.387344 24,600 54 482 1024
2022-06-21 16:12:39 GMT 34.527328 -117.395477 24,525 54 481 1024
2022-06-21 16:12:36 GMT 34.523438 -117.402084 24,475 54 481 896
2022-06-21 16:12:33 GMT 34.519547 -117.408646 24,425 54 480 832
2022-06-21 16:12:30 GMT 34.516800 -117.413246 24,425 54 480 832
2022-06-21 16:12:27 GMT 34.512772 -117.420029 24,350 54 479 832
2022-06-21 16:12:24 GMT 34.509293 -117.425911 24,325 54 478 960
2022-06-21 16:12:20 GMT 34.503204 -117.436165 24,250 54 477 960
2022-06-21 16:12:18 GMT 34.500702 -117.440414 24,200 54 477 960
2022-06-21 16:12:15 GMT 34.496521 -117.447495 24,100 54 474 1152
2022-06-21 16:12:12 GMT 34.492462 -117.454315 24,075 54 476 1024
2022-06-21 16:12:09 GMT 34.490646 -117.457352 24,050 54 475 1024
2022-06-21 16:12:06 GMT 34.485535 -117.465874 24,025 54 474 1152
2022-06-21 16:12:03 GMT 34.481476 -117.472687 23,975 54 475 1024
2022-06-21 16:12:00 GMT 34.476517 -117.481010 23,900 54 474 1152
2022-06-21 16:11:55 GMT 34.467407 -117.496254 23,650 54 474 1280
2022-06-21 16:11:49 GMT 34.460312 -117.508087 23,575 54 473 1280
2022-06-21 16:11:46 GMT 34.460312 -117.508087 23,575 54 473 1280
2022-06-21 16:11:43 GMT 34.455276 -117.516434 23,550 53 473 1344
2022-06-21 16:11:38 GMT 34.448750 -117.527222 23,425 53 473 1408
2022-06-21 16:11:35 GMT 34.444794 -117.533752 23,375 53 473 1408
2022-06-21 16:11:32 GMT 34.442047 -117.538376 23,325 53 473 1408
2022-06-21 16:11:28 GMT 34.437057 -117.546593 23,200 53 472 1344
2022-06-21 16:11:25 GMT 34.428452 -117.560745 23,100 53 472 1344
2022-06-21 16:11:20 GMT 34.425797 -117.565086 23,050 53 472 1344
2022-06-21 16:11:17 GMT 34.421425 -117.572250 22,975 53 472 1216
2022-06-21 16:11:13 GMT 34.417099 -117.579384 22,900 53 472 1152
2022-06-21 16:11:10 GMT 34.413712 -117.584877 22,850 53 471 1152
2022-06-21 16:11:07 GMT 34.409729 -117.591492 22,750 53 470 1152
2022-06-21 16:11:04 GMT 34.405701 -117.598045 22,675 53 470 1152
2022-06-21 16:11:01 GMT 34.400379 -117.606812 22,675 53 469 1152
2022-06-21 16:10:57 GMT 34.396519 -117.613167 22,550 53 468 1152
2022-06-21 16:10:54 GMT 34.387814 -117.627525 22,525 53 467 1152
2022-06-21 16:10:51 GMT 34.387814 -117.627525 22,450 54 466 1152
2022-06-21 16:10:48 GMT 34.384369 -117.633247 22,400 54 466 1216
2022-06-21 16:10:45 GMT 34.376495 -117.646477 22,325 54 464 1280
2022-06-21 16:10:41 GMT 34.376495 -117.646477 22,300 54 465 1216
2022-06-21 16:10:38 GMT 34.373333 -117.651840 22,225 54 464 1280
2022-06-21 16:10:35 GMT 34.367569 -117.661720 22,150 55 464 1216
2022-06-21 16:10:32 GMT 34.364208 -117.667580 22,075 55 463 1088
2022-06-21 16:10:29 GMT 34.360748 -117.673721 22,050 55 462 1024
2022-06-21 16:10:26 GMT 34.354065 -117.685715 21,975 56 461 832
2022-06-21 16:10:22 GMT 34.354065 -117.685715 21,950 56 460 768
2022-06-21 16:10:20 GMT 34.350952 -117.691261 21,900 56 459 640
2022-06-21 16:10:17 GMT 34.347885 -117.696815 21,900 56 459 640
2022-06-21 16:10:14 GMT 34.344006 -117.703690 21,850 56 458 576
2022-06-21 16:10:11 GMT 34.340286 -117.710381 21,825 56 455 512
2022-06-21 16:10:09 GMT 34.333557 -117.722427 21,800 56 453 512
2022-06-21 16:10:06 GMT 34.333557 -117.722427 21,775 55 452 512
2022-06-21 16:10:03 GMT 34.329346 -117.729942 21,750 55 448 512
2022-06-21 16:10:00 GMT 34.326462 -117.735153 21,725 55 448 512
2022-06-21 16:09:57 GMT 34.323166 -117.741035 21,725 56 448 512
2022-06-21 16:09:54 GMT 34.319984 -117.746719 21,700 55 446 576
2022-06-21 16:09:50 GMT 34.314377 -117.756737 21,650 56 443 576
2022-06-21 16:09:47 GMT 34.310860 -117.763023 21,625 55 442 576
2022-06-21 16:09:44 GMT 34.308022 -117.768120 21,550 56 440 576
2022-06-21 16:09:40 GMT 34.304016 -117.775269 21,550 55 438 576
2022-06-21 16:09:37 GMT 34.297314 -117.787231 21,525 55 437 576
2022-06-21 16:09:34 GMT 34.297314 -117.787231 21,500 55 435 512
2022-06-21 16:09:29 GMT 34.289867 -117.800507 21,450 55 432 512
2022-06-21 16:09:24 GMT 34.285309 -117.808586 21,400 55 429 512
2022-06-21 16:09:21 GMT 34.277996 -117.821564 21,375 55 427 640
2022-06-21 16:09:18 GMT 34.275108 -117.826714 21,350 55 426 704
2022-06-21 16:09:15 GMT 34.275108 -117.826714 21,300 55 424 768
2022-06-21 16:09:12 GMT 34.273575 -117.829453 21,300 55 424 896
2022-06-21 16:09:09 GMT 34.268082 -117.839241 21,175 55 422 1216
2022-06-21 16:09:06 GMT 34.262028 -117.849998 21,125 56 422 1408
2022-06-21 16:09:03 GMT 34.262028 -117.849998 21,075 55 421 1472
2022-06-21 16:08:58 GMT 34.255371 -117.861900 20,875 55 420 1536
2022-06-21 16:08:53 GMT 34.251972 -117.867905 20,775 55 419 1536
2022-06-21 16:08:50 GMT 34.244476 -117.881294 20,625 55 419 1536
2022-06-21 16:08:47 GMT 34.244476 -117.881294 20,625 55 419 1536
2022-06-21 16:08:44 GMT 34.241821 -117.886047 20,575 55 419 1536
2022-06-21 16:08:41 GMT 34.233994 -117.900002 20,475 55 417 1536
2022-06-21 16:08:37 GMT 34.233994 -117.900002 20,400 55 417 1536
2022-06-21 16:08:34 GMT 34.230927 -117.905388 20,350 55 417 1472
2022-06-21 16:08:31 GMT 34.227173 -117.912109 20,275 55 416 1472
2022-06-21 16:08:28 GMT 34.224792 -117.916374 20,225 55 416 1472
2022-06-21 16:08:26 GMT 34.221634 -117.921921 20,150 55 416 1472
2022-06-21 16:08:22 GMT 34.217152 -117.929932 20,050 56 415 1472
2022-06-21 16:08:18 GMT 34.210648 -117.941597 19,900 56 415 1408
2022-06-21 16:08:13 GMT 34.208351 -117.945724 19,900 56 415 1408
2022-06-21 16:08:10 GMT 34.204491 -117.952652 19,775 56 415 1344
2022-06-21 16:08:07 GMT 34.200989 -117.958916 19,675 56 415 1344
2022-06-21 16:08:04 GMT 34.197601 -117.964951 19,625 56 414 1344
2022-06-21 16:08:01 GMT 34.195496 -117.968666 19,600 56 413 1280
2022-06-21 16:07:57 GMT 34.191502 -117.975883 19,525 56 412 1152
2022-06-21 16:07:54 GMT 34.187637 -117.982750 19,425 55 410 1024
2022-06-21 16:07:51 GMT 34.183960 -117.989296 19,350 55 409 1088
2022-06-21 16:07:48 GMT 34.178093 -117.999802 19,325 55 408 1152
2022-06-21 16:07:45 GMT 34.178093 -117.999802 19,150 55 408 1280
2022-06-21 16:07:42 GMT 34.174603 -118.005981 19,175 55 406 1472
2022-06-21 16:07:39 GMT 34.171783 -118.010986 19,175 55 406 1472
2022-06-21 16:07:36 GMT 34.168037 -118.017654 19,025 55 406 1536
2022-06-21 16:07:32 GMT 34.164413 -118.024101 18,900 55 405 1664
2022-06-21 16:07:29 GMT 34.161800 -118.028702 18,825 55 405 1792
2022-06-21 16:07:26 GMT 34.159195 -118.033333 18,775 55 405 2112
2022-06-21 16:07:24 GMT 34.156635 -118.037796 18,700 55 405 1984
2022-06-21 16:07:22 GMT 34.150116 -118.049416 18,575 55 405 2496
2022-06-21 16:07:19 GMT 34.150116 -118.049416 18,375 55 406 2944
2022-06-21 16:07:15 GMT 34.147324 -118.054276 18,275 55 408 3264
2022-06-21 16:07:12 GMT 34.142715 -118.062447 17,975 55 412 3584
2022-06-21 16:07:09 GMT 34.139923 -118.067322 17,800 55 414 3584
2022-06-21 16:07:06 GMT 34.137131 -118.072311 17,775 55 415 3584
2022-06-21 16:07:04 GMT 34.134979 -118.076118 17,650 55 417 3456
2022-06-21 16:07:00 GMT 34.130173 -118.084534 17,275 55 420 3136
2022-06-21 16:06:57 GMT 34.126514 -118.091011 17,225 55 421 2880
2022-06-21 16:06:54 GMT 34.123116 -118.097015 17,050 55 422 2304
2022-06-21 16:06:51 GMT 34.120277 -118.102058 16,950 55 422 1792
2022-06-21 16:06:48 GMT 34.116486 -118.108803 16,875 55 421 1600
2022-06-21 16:06:45 GMT 34.114643 -118.112015 16,850 55 421 1600
2022-06-21 16:06:42 GMT 34.106964 -118.125572 16,750 55 421 1472
2022-06-21 16:06:39 GMT 34.103760 -118.131279 16,450 55 418 1472
2022-06-21 16:06:36 GMT 34.100307 -118.137299 16,450 55 418 1472
2022-06-21 16:06:33 GMT 34.100307 -118.137299 16,525 55 417 1600
2022-06-21 16:06:29 GMT 34.095928 -118.145027 16,375 55 416 1728
2022-06-21 16:06:25 GMT 34.091228 -118.153267 16,300 55 416 1792
2022-06-21 16:06:22 GMT 34.089088 -118.157104 16,250 55 416 1920
2022-06-21 16:06:18 GMT 34.084534 -118.165024 15,900 55 416 2176
2022-06-21 16:06:15 GMT 34.080414 -118.172310 15,400 56 413 1536
2022-06-21 16:06:12 GMT 34.077309 -118.177757 15,875 55 416 2176
2022-06-21 16:06:07 GMT 34.066029 -118.183601 14,800 60 405 1152
2022-06-21 16:06:06 GMT 34.065128 -118.185577 14,800 60 405 1152
2022-06-21 16:06:05 GMT 34.063320 -118.189529 14,800 60 405 1152
2022-06-21 16:06:02 GMT 34.061520 -118.193481 14,800 60 405 1152
2022-06-21 16:06:01 GMT 34.060612 -118.195457 14,800 60 405 1152
2022-06-21 16:05:59 GMT 34.058800 -118.199409 14,800 60 405 1152
2022-06-21 16:05:58 GMT 34.056999 -118.203362 14,800 60 405 1152
2022-06-21 16:05:56 GMT 34.056091 -118.205330 14,800 60 405 1152
2022-06-21 16:05:54 GMT 34.054291 -118.209282 14,800 60 405 1152
2022-06-21 16:05:53 GMT 34.053379 -118.211258 14,800 60 405 1152
2022-06-21 16:05:52 GMT 34.051579 -118.215210 14,800 60 405 1152
2022-06-21 16:05:50 GMT 34.050671 -118.217178 14,800 60 405 1152
2022-06-21 16:05:48 GMT 34.048859 -118.221130 14,800 60 405 1152
2022-06-21 16:05:47 GMT 34.047958 -118.223106 14,800 60 405 1152
2022-06-21 16:05:46 GMT 34.047058 -118.225082 14,800 60 405 1152
2022-06-21 16:05:44 GMT 34.045250 -118.229027 14,800 60 405 1152
2022-06-21 16:05:43 GMT 34.044350 -118.231003 14,800 60 405 1152
2022-06-21 16:05:41 GMT 34.042542 -118.234947 14,800 60 405 2656
2022-06-21 16:05:40 GMT 34.040730 -118.238899 14,800 60 405 2656
2022-06-21 16:05:38 GMT 34.039822 -118.240883 14,800 60 405 2656
2022-06-21 16:05:37 GMT 34.038921 -118.242851 14,800 60 405 2656
2022-06-21 16:05:35 GMT 34.037281 -118.246521 14,700 59 415 2656
2022-06-21 16:05:33 GMT 34.035351 -118.250511 14,700 59 415 2656
2022-06-21 16:05:32 GMT 34.034382 -118.252502 14,700 59 415 2656
2022-06-21 16:05:31 GMT 34.033600 -118.254700 14,600 58 412 2656
2022-06-21 16:05:29 GMT 34.031010 -118.258400 14,500 58 405 2656
2022-06-21 16:05:28 GMT 34.030060 -118.260353 14,500 58 405 2656
2022-06-21 16:05:26 GMT 34.028500 -118.264458 14,500 56 407 2656
2022-06-21 16:05:24 GMT 34.026409 -118.268066 14,400 54 410 2656
2022-06-21 16:05:23 GMT 34.025360 -118.269974 14,400 54 410 2656
2022-06-21 16:05:21 GMT 34.023739 -118.274010 14,300 52 415 2656
2022-06-21 16:05:19 GMT 34.021351 -118.277763 14,300 50 410 2656
2022-06-21 16:05:18 GMT 34.019600 -118.281860 14,200 47 410 2656
2022-06-21 16:05:16 GMT 34.018330 -118.283562 14,200 47 410 2656
2022-06-21 16:05:15 GMT 34.017132 -118.285339 14,200 46 409 2656
2022-06-21 16:05:14 GMT 34.015850 -118.287010 14,200 46 409 2656
2022-06-21 16:05:12 GMT 34.013790 -118.290771 14,000 43 411 2656
2022-06-21 16:05:10 GMT 34.011089 -118.294182 14,000 42 403 2656
2022-06-21 16:05:09 GMT 34.008579 -118.297668 14,000 41 401 2656
2022-06-21 16:05:07 GMT 34.007198 -118.299156 14,000 41 401 2656
2022-06-21 16:05:05 GMT 34.004280 -118.302147 13,900 42 398 2656
2022-06-21 16:05:03 GMT 34.001690 -118.305077 13,900 42 401 2656
2022-06-21 16:05:02 GMT 34.000309 -118.306572 13,900 42 401 2656
2022-06-21 16:05:00 GMT 33.997238 -118.309540 13,900 42 392 2656
2022-06-21 16:04:59 GMT 33.995880 -118.310989 13,800 43 394 2656
2022-06-21 16:04:58 GMT 33.992828 -118.313583 13,700 44 395 2656
2022-06-21 16:04:56 GMT 33.991531 -118.315117 13,700 44 395 2656
2022-06-21 16:04:54 GMT 33.989029 -118.317970 13,700 44 404 2656
2022-06-21 16:04:53 GMT 33.987701 -118.319557 13,700 44 404 2656
2022-06-21 16:04:52 GMT 33.984989 -118.322418 13,700 45 410 2656
2022-06-21 16:04:50 GMT 33.983910 -118.323891 13,500 43 418 2656
2022-06-21 16:04:49 GMT 33.981041 -118.327393 13,500 42 408 2656
2022-06-21 16:04:47 GMT 33.979671 -118.328949 13,500 42 408 2656
2022-06-21 16:04:45 GMT 33.976952 -118.332382 13,400 41 401 2656
2022-06-21 16:04:44 GMT 33.975578 -118.333870 13,400 41 402 2656
2022-06-21 16:04:42 GMT 33.972759 -118.336899 13,325 40 397 2656
2022-06-21 16:04:40 GMT 33.968578 -118.341537 13,200 38 391 704
2022-06-21 16:04:38 GMT 33.967312 -118.342697 13,200 39 400 704
2022-06-21 16:04:37 GMT 33.964298 -118.345802 13,100 39 389 704
2022-06-21 16:04:35 GMT 33.963058 -118.346863 13,100 40 402 704
2022-06-21 16:04:34 GMT 33.960201 -118.349632 13,000 41 404 704
2022-06-21 16:04:32 GMT 33.958729 -118.351318 12,900 40 397 704
2022-06-21 16:04:31 GMT 33.957409 -118.352371 12,900 42 408 704
2022-06-21 16:04:29 GMT 33.954590 -118.355453 12,800 41 404 704
2022-06-21 16:04:28 GMT 33.953159 -118.356812 12,800 42 405 704
2022-06-21 16:04:27 GMT 33.950359 -118.359772 12,775 43 402 704
2022-06-21 16:04:25 GMT 33.948872 -118.361572 12,650 42 388 704
2022-06-21 16:04:24 GMT 33.947529 -118.363037 12,650 42 387 704
2022-06-21 16:04:22 GMT 33.944859 -118.365898 12,525 41 386 704
2022-06-21 16:04:21 GMT 33.943531 -118.367477 12,525 41 382 704
2022-06-21 16:04:19 GMT 33.940899 -118.370201 12,000 40 385 704
2022-06-21 16:04:18 GMT 33.939590 -118.371712 12,000 39 383 704
2022-06-21 16:04:16 GMT 33.936920 -118.374481 12,000 39 385 704
2022-06-21 16:04:15 GMT 33.934189 -118.377258 12,000 38 384 704
2022-06-21 16:04:13 GMT 33.932831 -118.378571 12,000 38 386 704
2022-06-21 16:04:12 GMT 33.930019 -118.381363 12,000 38 380 704
2022-06-21 16:04:10 GMT 33.928619 -118.382721 12,000 38 379 704
2022-06-21 16:04:09 GMT 33.927189 -118.383972 12,000 38 379 704
2022-06-21 16:04:08 GMT 33.925861 -118.385292 12,000 38 382 704
2022-06-21 16:04:06 GMT 33.922989 -118.387810 12,000 40 384 704
2022-06-21 16:04:05 GMT 33.921581 -118.389122 12,000 40 386 704
2022-06-21 16:04:03 GMT 33.918880 -118.391953 12,000 39 385 704
2022-06-21 16:04:02 GMT 33.917412 -118.393379 11,800 39 379 704
2022-06-21 16:04:00 GMT 33.914661 -118.396118 11,800 39 379 704
2022-06-21 16:03:59 GMT 33.913200 -118.397461 11,800 39 378 704
2022-06-21 16:03:58 GMT 33.910450 -118.400093 11,800 39 384 704
2022-06-21 16:03:56 GMT 33.909969 -118.401680 11,500 35 409 704
2022-06-21 16:03:55 GMT 33.907440 -118.404388 11,500 32 436 704
2022-06-21 16:03:53 GMT 33.905960 -118.405663 11,500 32 444 704
2022-06-21 16:03:51 GMT 33.902649 -118.408279 11,500 33 445 704
2022-06-21 16:03:50 GMT 33.899158 -118.411041 11,500 33 434 704
2022-06-21 16:03:48 GMT 33.896729 -118.412354 11,500 37 404 704
2022-06-21 16:03:46 GMT 33.893539 -118.415047 11,500 38 393 704
2022-06-21 16:03:45 GMT 33.892578 -118.416458 11,500 36 405 704
2022-06-21 16:03:43 GMT 33.889332 -118.419296 11,500 37 388 704
2022-06-21 16:03:41 GMT 33.886421 -118.421890 11,400 38 389 1088
2022-06-21 16:03:40 GMT 33.884941 -118.422668 11,375 41 402 1088
2022-06-21 16:03:38 GMT 33.882381 -118.425507 11,375 41 411 1088
2022-06-21 16:03:37 GMT 33.880821 -118.427048 11,375 42 406 1088
2022-06-21 16:03:35 GMT 33.877781 -118.430260 11,300 40 381 1088
2022-06-21 16:03:34 GMT 33.876572 -118.432243 11,300 39 379 1088
2022-06-21 16:03:32 GMT 33.873772 -118.434914 11,300 38 372 1088
2022-06-21 16:03:31 GMT 33.872440 -118.436546 11,300 38 368 1088
2022-06-21 16:03:29 GMT 33.869759 -118.439079 11,300 38 368 1088
2022-06-21 16:03:28 GMT 33.867069 -118.441612 11,200 39 370 1088
2022-06-21 16:03:26 GMT 33.865650 -118.442848 11,200 38 365 1088
2022-06-21 16:03:25 GMT 33.863060 -118.445633 11,200 38 364 1088
2022-06-21 16:03:23 GMT 33.861740 -118.446892 11,200 38 364 1088
2022-06-21 16:03:21 GMT 33.858780 -118.448982 11,100 39 362 1088
2022-06-21 16:03:20 GMT 33.857498 -118.450279 11,100 39 362 1088
2022-06-21 16:03:18 GMT 33.855171 -118.453346 11,100 37 357 1088
2022-06-21 16:03:17 GMT 33.854141 -118.455048 11,100 36 358 1088
2022-06-21 16:03:15 GMT 33.851460 -118.457382 11,100 36 358 1088
2022-06-21 16:03:14 GMT 33.850140 -118.458527 11,000 36 358 1088
2022-06-21 16:03:13 GMT 33.847801 -118.461304 11,000 36 361 1088
2022-06-21 16:03:11 GMT 33.846439 -118.462471 11,000 36 361 1088
2022-06-21 16:03:09 GMT 33.843739 -118.464569 11,000 38 365 1088
2022-06-21 16:03:08 GMT 33.842548 -118.466019 10,900 39 363 1088
2022-06-21 16:03:06 GMT 33.839890 -118.468498 10,900 39 363 1088
2022-06-21 16:03:05 GMT 33.838390 -118.469200 10,900 42 366 1088
2022-06-21 16:03:02 GMT 33.834721 -118.472992 10,850 41 352 1152
2022-06-21 16:03:01 GMT 33.832081 -118.475159 10,800 49 376 1088
2022-06-21 16:02:59 GMT 33.830540 -118.476257 10,700 54 369 1088
2022-06-21 16:02:57 GMT 33.826809 -118.480438 10,700 58 364 1088
2022-06-21 16:02:55 GMT 33.825890 -118.482140 10,700 58 364 1088
2022-06-21 16:02:53 GMT 33.823681 -118.485443 10,700 62 347 1088
2022-06-21 16:02:51 GMT 33.821499 -118.488403 10,600 66 339 1088
2022-06-21 16:02:50 GMT 33.820370 -118.490440 10,600 68 320 1088
2022-06-21 16:02:49 GMT 33.819260 -118.493729 10,600 68 320 1088
2022-06-21 16:02:47 GMT 33.818279 -118.495071 10,600 70 318 1088
2022-06-21 16:02:46 GMT 33.817162 -118.498840 10,600 71 307 1088
2022-06-21 16:02:44 GMT 33.816681 -118.500450 10,600 71 307 1088
2022-06-21 16:02:42 GMT 33.815220 -118.502960 10,600 74 318 1088
2022-06-21 16:02:39 GMT 33.813965 -118.508034 10,550 74 318 704
2022-06-21 16:02:35 GMT 33.812714 -118.513390 10,525 76 316 768
2022-06-21 16:02:31 GMT 33.811203 -118.521744 10,450 78 309 896
2022-06-21 16:02:27 GMT 33.810284 -118.527260 10,400 78 306 896
2022-06-21 16:02:24 GMT 33.809448 -118.532471 10,350 78 303 896
2022-06-21 16:02:21 GMT 33.808422 -118.538757 10,275 78 298 960
2022-06-21 16:02:18 GMT 33.807632 -118.543625 10,225 79 296 1088
2022-06-21 16:02:15 GMT 33.806396 -118.551170 10,150 79 293 1472
2022-06-21 16:02:09 GMT 33.805305 -118.558105 9,875 79 290 1984
2022-06-21 16:02:04 GMT 33.804188 -118.565430 9,800 79 289 2048
2022-06-21 16:02:01 GMT 33.803349 -118.570862 9,700 80 289 2112
2022-06-21 16:01:57 GMT 33.802505 -118.576782 9,600 80 288 2240
2022-06-21 16:01:54 GMT 33.801952 -118.580650 9,525 81 287 2368
2022-06-21 16:01:51 GMT 33.801453 -118.584686 9,425 82 288 2368
2022-06-21 16:01:48 GMT 33.800648 -118.599701 9,200 89 286 1984
2022-06-21 16:01:43 GMT 33.800648 -118.599701 9,100 96 282 1856
2022-06-21 16:01:37 GMT 33.801498 -118.606888 8,875 107 277 1664
2022-06-21 16:01:33 GMT 33.802650 -118.612350 8,775 120 271 1856
2022-06-21 16:01:30 GMT 33.804138 -118.616982 8,775 118 272 1728
2022-06-21 16:01:27 GMT 33.806374 -118.622299 8,650 121 271 1984
2022-06-21 16:01:24 GMT 33.808563 -118.626709 8,475 123 271 2112
2022-06-21 16:01:20 GMT 33.810745 -118.630707 8,425 124 269 2112
2022-06-21 16:01:16 GMT 33.813450 -118.635468 8,300 126 269 2176
2022-06-21 16:01:12 GMT 33.817474 -118.641525 8,100 134 265 1984
2022-06-21 16:01:07 GMT 33.822063 -118.646622 7,875 145 264 1856
2022-06-21 16:01:04 GMT 33.823971 -118.648277 7,875 149 264 1792
2022-06-21 16:01:01 GMT 33.827042 -118.650665 7,800 156 263 1792
2022-06-21 16:00:57 GMT 33.832672 -118.653748 7,650 167 264 1984
2022-06-21 16:00:54 GMT 33.836288 -118.655090 7,550 169 263 1984
2022-06-21 16:00:51 GMT 33.839985 -118.656006 7,350 178 265 2112
2022-06-21 16:00:46 GMT 33.844849 -118.656601 7,150 184 266 2304
2022-06-21 16:00:42 GMT 33.852463 -118.656059 6,975 196 272 2816
2022-06-21 16:00:39 GMT 33.852463 -118.656059 7,050 193 270 2688
2022-06-21 16:00:36 GMT 33.857956 -118.654572 6,800 201 275 2944
2022-06-21 16:00:33 GMT 33.861446 -118.653145 6,700 205 277 2880
2022-06-21 16:00:30 GMT 33.864937 -118.651314 6,600 209 278 2816
2022-06-21 16:00:26 GMT 33.869476 -118.648140 6,375 217 283 2560
2022-06-21 16:00:23 GMT 33.871174 -118.646790 6,325 221 284 2496
2022-06-21 16:00:20 GMT 33.875736 -118.642044 6,100 229 287 2368
2022-06-21 16:00:16 GMT 33.878578 -118.638496 5,925 239 289 2432
2022-06-21 16:00:13 GMT 33.883095 -118.631004 5,800 242 290 2432
2022-06-21 16:00:10 GMT 33.883095 -118.631004 5,775 245 291 2368
2022-06-21 16:00:06 GMT 33.886276 -118.623474 5,550 249 291 2368
2022-06-21 16:00:01 GMT 33.889610 -118.612633 5,350 251 290 2240
2022-06-21 15:59:58 GMT 33.889610 -118.612633 5,075 251 288 2048
2022-06-21 15:59:54 GMT 33.891632 -118.605598 5,075 251 288 2048
2022-06-21 15:59:51 GMT 33.892963 -118.601128 5,025 251 286 2112
2022-06-21 15:59:48 GMT 33.894405 -118.596153 4,900 251 286 2112
2022-06-21 15:59:43 GMT 33.897491 -118.585587 4,725 251 283 2176
2022-06-21 15:59:40 GMT 33.897491 -118.585587 4,525 252 283 2112
2022-06-21 15:59:37 GMT 33.899059 -118.580132 4,525 252 282 2048
2022-06-21 15:59:33 GMT 33.900642 -118.574524 4,350 252 279 2048
2022-06-21 15:59:30 GMT 33.902134 -118.569199 2,225 251 265 1440
2022-06-21 15:59:27 GMT 33.903168 -118.565460 2,225 251 265 1440
2022-06-21 15:59:23 GMT 33.904953 -118.559128 2,225 251 265 1440
2022-06-21 15:59:19 GMT 33.907928 -118.548531 2,225 251 265 1440
2022-06-21 15:59:16 GMT 33.907928 -118.548531 2,225 251 265 1440
2022-06-21 15:59:12 GMT 33.909210 -118.543968 2,225 251 265 1440
2022-06-21 15:59:09 GMT 33.911861 -118.534584 2,225 251 265 1440
2022-06-21 15:59:06 GMT 33.911861 -118.534584 2,225 251 265 1440
2022-06-21 15:59:02 GMT 33.913189 -118.529999 2,225 251 265 1440
2022-06-21 15:59:01 GMT 33.913582 -118.528603 2,225 251 265 1440
2022-06-21 15:58:59 GMT 33.914371 -118.525810 2,225 251 265 1440
2022-06-21 15:58:58 GMT 33.915169 -118.523018 2,225 251 265 1440
2022-06-21 15:58:56 GMT 33.915550 -118.521637 2,225 250 266 1440
2022-06-21 15:58:54 GMT 33.916340 -118.518791 2,225 250 261 1440
2022-06-21 15:58:52 GMT 33.917160 -118.516006 2,225 250 257 1440
2022-06-21 15:58:51 GMT 33.917969 -118.513290 2,225 250 255 1440
2022-06-21 15:58:49 GMT 33.918362 -118.511909 2,225 250 253 768
2022-06-21 15:58:47 GMT 33.919151 -118.509323 2,225 249 256 768
2022-06-21 15:58:46 GMT 33.919960 -118.506653 2,225 249 255 768
2022-06-21 15:58:44 GMT 33.920368 -118.505302 2,225 249 254 768
2022-06-21 15:58:43 GMT 33.921181 -118.502632 2,225 249 250 768
2022-06-21 15:58:41 GMT 33.921581 -118.501320 2,225 249 249 768
2022-06-21 15:58:40 GMT 33.921970 -118.500008 2,225 248 248 768
2022-06-21 15:58:39 GMT 33.922791 -118.497421 2,225 248 245 768
2022-06-21 15:58:37 GMT 33.923191 -118.496132 2,225 248 243 768
2022-06-21 15:58:35 GMT 33.924000 -118.493591 2,225 248 240 768
2022-06-21 15:58:34 GMT 33.924469 -118.492302 2,225 249 235 768
2022-06-21 15:58:32 GMT 33.925289 -118.489868 2,225 250 234 768
2022-06-21 15:58:31 GMT 33.925529 -118.488609 2,225 248 236 768
2022-06-21 15:58:29 GMT 33.926311 -118.486168 2,225 249 235 768
2022-06-21 15:58:28 GMT 33.927040 -118.483727 2,225 249 233 768
2022-06-21 15:58:26 GMT 33.927399 -118.482491 2,225 250 231 768
2022-06-21 15:58:24 GMT 33.928120 -118.480103 2,225 251 231 768
2022-06-21 15:58:23 GMT 33.928501 -118.478851 2,225 252 227 768
2022-06-21 15:58:22 GMT 33.928841 -118.477669 2,225 253 226 768
2022-06-21 15:58:20 GMT 33.929459 -118.475243 2,225 255 222 768
2022-06-21 15:58:19 GMT 33.930038 -118.472816 2,225 258 218 768
2022-06-21 15:58:16 GMT 33.930481 -118.470520 2,225 260 221 768
2022-06-21 15:58:15 GMT 33.930641 -118.469322 2,225 260 221 768
2022-06-21 15:58:13 GMT 33.931000 -118.466904 2,225 261 218 768
2022-06-21 15:58:12 GMT 33.931278 -118.464508 2,150 260 216 768
2022-06-21 15:58:10 GMT 33.931461 -118.463310 2,150 261 213 768
2022-06-21 15:58:09 GMT 33.931820 -118.460960 2,075 262 210 768
2022-06-21 15:58:07 GMT 33.931938 -118.459770 2,075 261 207 768
2022-06-21 15:58:05 GMT 33.932220 -118.457428 2,075 262 200 768
2022-06-21 15:58:04 GMT 33.932461 -118.455261 1,900 261 202 768
2022-06-21 15:58:02 GMT 33.932610 -118.454163 1,900 261 202 768
2022-06-21 15:58:00 GMT 33.932819 -118.451988 1,900 260 203 768
2022-06-21 15:57:58 GMT 33.933159 -118.449707 1,800 261 195 768
2022-06-21 15:57:57 GMT 33.933300 -118.448647 1,800 262 195 768
2022-06-21 15:57:56 GMT 33.933601 -118.446457 1,475 264 189 768
2022-06-21 15:57:54 GMT 33.933651 -118.445450 1,475 262 192 768
2022-06-21 15:57:52 GMT 33.933868 -118.443314 1,475 262 184 768
2022-06-21 15:57:51 GMT 33.933998 -118.442322 1,475 263 184 768
2022-06-21 15:57:49 GMT 33.934189 -118.440292 1,475 263 183 768
2022-06-21 15:57:48 GMT 33.934231 -118.439362 1,475 262 189 448
2022-06-21 15:57:47 GMT 33.934490 -118.437233 1,475 263 179 448
2022-06-21 15:57:45 GMT 33.934589 -118.436241 1,475 264 177 448
2022-06-21 15:57:43 GMT 33.934669 -118.434341 1,400 262 184 448
2022-06-21 15:57:42 GMT 33.935032 -118.432198 1,350 266 173 448
2022-06-21 15:57:41 GMT 33.935059 -118.431259 1,200 264 177 448
2022-06-21 15:57:39 GMT 33.935139 -118.430260 1,200 264 174 448
2022-06-21 15:57:38 GMT 33.935299 -118.428337 1,175 265 177 448
2022-06-21 15:57:36 GMT 33.935379 -118.427330 1,025 265 174 448
2022-06-21 15:57:35 GMT 33.935440 -118.426407 1,025 264 183 448
2022-06-21 15:57:33 GMT 33.935589 -118.424431 975 265 181 448
2022-06-21 15:57:32 GMT 33.935638 -118.423424 900 264 176 448
2022-06-21 15:57:30 GMT 33.935799 -118.421463 850 264 179 448
2022-06-21 15:57:29 GMT 33.935871 -118.420471 800 263 178 448
2022-06-21 15:57:27 GMT 33.936062 -118.418480 650 263 175 448
2022-06-21 15:57:25 GMT 33.936218 -118.416550 650 263 181 448
2022-06-21 15:57:23 GMT 33.936432 -118.414551 550 263 179 448
2022-06-21 15:57:22 GMT 33.936508 -118.413567 425 263 178 448
2022-06-21 15:57:21 GMT 33.936642 -118.412567 425 264 177 448
2022-06-21 15:57:19 GMT 33.936798 -118.410629 325 264 180 448
2022-06-21 15:57:18 GMT 33.936871 -118.409637 300 263 181 448
2022-06-21 15:57:17 GMT 33.936958 -118.408653 150 263 184 448
2022-06-21 15:57:15 GMT 33.937141 -118.406639 150 262 184 448
2022-06-21 15:57:14 GMT 33.937351 -118.404633 150 263 180 0
2022-06-21 15:57:12 GMT 33.937431 -118.403648 150 262 180 0
2022-06-21 15:57:11 GMT 33.937630 -118.401688 150 263 175 0
2022-06-21 15:57:09 GMT 33.937752 -118.400711 150 263 170 64
2022-06-21 15:57:07 GMT 33.937939 -118.398849 150 263 163 64
2022-06-21 15:57:06 GMT 33.938049 -118.397041 150 261 156 64
2022-06-21 15:57:04 GMT 33.938301 -118.395340 150 263 149 64
2022-06-21 15:57:01 GMT 33.938492 -118.393707 150 263 142 -288
2022-06-21 15:56:59 GMT 33.938610 -118.392181 0 263 135 -288
2022-06-21 15:56:58 GMT 33.938751 -118.390640 0 262 122 -288
2022-06-21 15:56:56 GMT 33.938820 -118.389992 0 262 121 0
2022-06-21 15:56:54 GMT 33.938969 -118.388672 0 263 113 0
2022-06-21 15:56:53 GMT 33.939098 -118.387444 0 263 103 0
2022-06-21 15:56:51 GMT 33.939140 -118.386864 0 263 100 0
2022-06-21 15:56:49 GMT 33.939240 -118.385773 0 262 91 0
2022-06-21 15:56:48 GMT 33.939301 -118.385239 0 262 85 0
2022-06-21 15:56:46 GMT 33.939362 -118.384323 0 260 76 0
2022-06-21 15:56:45 GMT 33.939449 -118.383888 0 262 71 0
2022-06-21 15:56:43 GMT 33.939541 -118.383141 0 263 66 0
2022-06-21 15:56:42 GMT 33.939602 -118.382378 0 263 49 0
2022-06-21 15:56:40 GMT 33.939640 -118.382057 0 263 41 0
2022-06-21 15:56:38 GMT 33.939678 -118.381538 0 261 27 0
2022-06-21 15:56:37 GMT 33.939701 -118.381371 0 262 24 0
2022-06-21 15:56:35 GMT 33.939751 -118.381081 0 265 19 0
2022-06-21 15:56:33 GMT 33.939781 -118.380814 0 274 8 0
2022-06-21 15:56:32 GMT 33.939789 -118.380730 0 279 5 0
2022-06-21 15:56:31 GMT 33.939781 -118.380661 0 262 5 0
2022-06-21 15:56:29 GMT 33.939751 -118.380608 0 262 3 0
2022-06-21 15:56:26 GMT 33.939758 -118.380531 0 262 1 0
2022-06-21 15:56:25 GMT 33.939789 -118.380531 0 262 0 0
2022-06-21 15:56:23 GMT 33.939789 -118.380524 0 262 1 0
2022-06-21 15:56:22 GMT 33.939838 -118.380508 0 262 4 0
2022-06-21 15:56:20 GMT 33.939812 -118.380524 0 262 2 0
2022-06-21 15:56:18 GMT 33.939770 -118.380539 0 262 0 0
2022-06-21 15:56:17 GMT 33.939770 -118.380547 0 262 0 0
2022-06-21 15:56:15 GMT 33.939781 -118.380539 0 262 1 0
2022-06-21 15:56:13 GMT 33.939781 -118.380547 0 262 1 0
2022-06-21 15:56:10 GMT 33.939781 -118.380524 0 262 0 0
2022-06-21 15:56:08 GMT 33.939781 -118.380539 0 262 0 0
2022-06-21 15:56:07 GMT 33.939781 -118.380531 0 262 1 0
2022-06-21 15:56:04 GMT 33.939770 -118.380524 0 262 1 0
2022-06-21 15:56:03 GMT 33.939770 -118.380531 0 262 0 0
2022-06-21 15:56:02 GMT 33.939758 -118.380547 0 262 0 0
2022-06-21 15:56:00 GMT 33.939751 -118.380547 0 262 0 0
2022-06-21 15:55:56 GMT 33.939827 -118.380516 0 261 0 0
2022-06-21 15:55:53 GMT 33.939827 -118.380516 0 261 0 0
2022-06-21 15:55:51 GMT 33.939777 -118.380470 0 261 3 0
2022-06-21 15:55:48 GMT 33.939823 -118.380516 0 263 1 0
2022-06-21 15:55:47 GMT 33.939816 -118.380516 0 263 2 0
2022-06-21 15:55:45 GMT 33.939816 -118.380516 0 261 0 0
2022-06-21 15:55:43 GMT 33.939827 -118.380501 0 267 0 0
2022-06-21 15:55:40 GMT 33.939827 -118.380478 0 270 5 0
2022-06-21 15:55:39 GMT 33.939827 -118.380447 0 258 5 0
2022-06-21 15:55:37 GMT 33.939823 -118.380379 0 253 5 0
2022-06-21 15:55:34 GMT 33.939819 -118.380280 0 271 6 0
2022-06-21 15:55:32 GMT 33.939781 -118.380241 0 258 4 0
2022-06-21 15:55:31 GMT 33.939758 -118.380257 0 247 7 0
2022-06-21 15:55:30 GMT 33.939789 -118.380157 0 244 3 0
2022-06-21 15:55:28 GMT 33.939789 -118.380180 0 246 5 0
2022-06-21 15:55:27 GMT 33.939812 -118.380173 0 245 8 0
2022-06-21 15:55:25 GMT 33.939819 -118.380127 0 239 8 0
2022-06-21 15:55:24 GMT 33.939838 -118.380074 0 227 6 0
2022-06-21 15:55:23 GMT 33.939838 -118.379951 0 166 6 0
2022-06-21 15:55:21 GMT 33.939880 -118.379951 0 169 5 0
2022-06-21 15:55:19 GMT 33.939899 -118.379967 0 175 8 0
2022-06-21 15:55:17 GMT 33.939991 -118.379997 0 183 6 0
2022-06-21 15:55:16 GMT 33.940022 -118.379982 0 167 8 0
2022-06-21 15:55:14 GMT 33.940079 -118.379951 0 165 8 0
2022-06-21 15:55:13 GMT 33.940121 -118.379990 0 174 8 0
2022-06-21 15:55:11 GMT 33.940140 -118.379990 0 176 9 0
2022-06-21 15:55:09 GMT 33.940231 -118.380020 0 170 8 0
2022-06-21 15:55:08 GMT 33.940311 -118.379967 0 158 5 0
2022-06-21 15:55:06 GMT 33.940319 -118.379990 0 159 8 0
2022-06-21 15:55:04 GMT 33.940380 -118.380051 0 157 9 0
2022-06-21 15:55:03 GMT 33.940479 -118.380020 0 143 5 0
2022-06-21 15:55:01 GMT 33.940552 -118.380074 0 139 2 0
2022-06-21 15:55:00 GMT 33.940540 -118.380043 0 139 5 0
2022-06-21 15:54:58 GMT 33.940552 -118.380096 0 153 5 0
2022-06-21 15:54:57 GMT 33.940559 -118.380142 0 158 6 0
2022-06-21 15:54:55 GMT 33.940639 -118.380142 0 108 3 0
2022-06-21 15:54:53 GMT 33.940689 -118.380127 0 102 2 0
2022-06-21 15:54:52 GMT 33.940689 -118.380142 0 102 2 0
2022-06-21 15:54:50 GMT 33.940708 -118.380142 0 104 4 0
2022-06-21 15:54:49 GMT 33.940681 -118.380219 0 104 1 0
2022-06-21 15:54:46 GMT 33.940701 -118.380234 0 104 0 0
2022-06-21 15:54:44 GMT 33.940689 -118.380219 0 104 0 0
2022-06-21 15:54:43 GMT 33.940701 -118.380219 0 104 1 0
2022-06-21 15:54:41 GMT 33.940689 -118.380234 0 104 1 0
2022-06-21 15:54:39 GMT 33.940689 -118.380219 0 104 1 0
2022-06-21 15:54:38 GMT 33.940689 -118.380211 0 104 3 0
2022-06-21 15:54:36 GMT 33.940689 -118.380219 0 102 3 0
2022-06-21 15:54:34 GMT 33.940708 -118.380249 0 98 3 0
2022-06-21 15:54:33 GMT 33.940701 -118.380257 0 74 4 0
2022-06-21 15:54:31 GMT 33.940800 -118.380211 0 88 6 0
2022-06-21 15:54:30 GMT 33.940762 -118.380241 0 96 5 0
2022-06-21 15:54:28 GMT 33.940762 -118.380287 0 100 4 0
2022-06-21 15:54:26 GMT 33.940739 -118.380341 0 103 4 0
2022-06-21 15:54:25 GMT 33.940739 -118.380363 0 99 4 0
2022-06-21 15:54:23 GMT 33.940781 -118.380402 0 72 4 0
2022-06-21 15:54:22 GMT 33.940788 -118.380447 0 61 4 0
2022-06-21 15:54:20 GMT 33.940800 -118.380508 0 73 4 0
2022-06-21 15:54:18 GMT 33.940788 -118.380531 0 80 4 0
2022-06-21 15:54:16 GMT 33.940731 -118.380562 0 82 3 0
2022-06-21 15:54:14 GMT 33.940750 -118.380569 0 78 4 0
2022-06-21 15:54:13 GMT 33.940731 -118.380630 0 88 4 0
2022-06-21 15:54:11 GMT 33.940731 -118.380661 0 80 5 0
2022-06-21 15:54:10 GMT 33.940739 -118.380737 0 84 4 0
2022-06-21 15:54:07 GMT 33.940689 -118.380768 0 97 4 0
2022-06-21 15:54:06 GMT 33.940701 -118.380768 0 88 5 0
2022-06-21 15:54:04 GMT 33.940720 -118.380821 0 81 6 0
2022-06-21 15:54:03 GMT 33.940701 -118.380913 0 82 5 0
2022-06-21 15:54:01 GMT 33.940701 -118.380913 0 88 7 0
2022-06-21 15:54:00 GMT 33.940681 -118.380966 0 92 4 0
2022-06-21 15:53:59 GMT 33.940681 -118.380981 0 85 6 0
2022-06-21 15:53:57 GMT 33.940750 -118.381027 0 57 8 0
2022-06-21 15:53:55 GMT 33.940708 -118.381126 0 62 6 0
2022-06-21 15:53:53 GMT 33.940632 -118.381203 0 97 4 0
2022-06-21 15:53:52 GMT 33.940639 -118.381233 0 93 3 0
2022-06-21 15:53:50 GMT 33.940651 -118.381264 0 89 4 0
2022-06-21 15:53:49 GMT 33.940659 -118.381271 0 91 4 0
2022-06-21 15:53:47 GMT 33.940651 -118.381332 0 75 4 0
2022-06-21 15:53:46 GMT 33.940681 -118.381393 0 75 1 0
2022-06-21 15:53:44 GMT 33.940689 -118.381401 0 75 1 0
2022-06-21 15:53:43 GMT 33.940689 -118.381371 0 71 4 0
2022-06-21 15:53:41 GMT 33.940701 -118.381401 0 63 4 0
2022-06-21 15:53:40 GMT 33.940681 -118.381416 0 81 4 0
2022-06-21 15:53:39 GMT 33.940651 -118.381447 0 84 6 0
2022-06-21 15:53:37 GMT 33.940659 -118.381508 0 72 4 0
2022-06-21 15:53:35 GMT 33.940659 -118.381554 0 78 4 0
2022-06-21 15:53:34 GMT 33.940651 -118.381592 0 75 4 0
2022-06-21 15:53:32 GMT 33.940651 -118.381607 0 80 4 0
2022-06-21 15:53:31 GMT 33.940651 -118.381653 0 96 4 0
2022-06-21 15:53:29 GMT 33.940601 -118.381699 0 96 2 0
2022-06-21 15:53:28 GMT 33.940601 -118.381691 0 94 3 0
2022-06-21 15:53:26 GMT 33.940620 -118.381699 0 89 5 0
2022-06-21 15:53:25 GMT 33.940632 -118.381699 0 90 6 0
2022-06-21 15:53:23 GMT 33.940632 -118.381752 0 82 8 0
2022-06-21 15:53:22 GMT 33.940659 -118.381844 0 78 8 0
2022-06-21 15:53:20 GMT 33.940620 -118.381889 0 83 7 0
2022-06-21 15:53:18 GMT 33.940632 -118.381943 0 79 11 0
2022-06-21 15:53:17 GMT 33.940620 -118.382011 0 81 11 0
2022-06-21 15:53:15 GMT 33.940601 -118.382133 0 83 11 0
2022-06-21 15:53:14 GMT 33.940601 -118.382179 0 81 12 0
2022-06-21 15:53:12 GMT 33.940578 -118.382309 0 82 12 0
2022-06-21 15:53:11 GMT 33.940590 -118.382370 0 80 13 0
2022-06-21 15:53:09 GMT 33.940540 -118.382538 0 91 9 0
2022-06-21 15:53:08 GMT 33.940552 -118.382607 0 85 12 0
2022-06-21 15:53:06 GMT 33.940540 -118.382690 0 84 11 0
2022-06-21 15:53:04 GMT 33.940521 -118.382820 0 83 11 0
2022-06-21 15:53:03 GMT 33.940552 -118.382889 0 73 10 0
2022-06-21 15:53:02 GMT 33.940521 -118.383003 0 74 9 0
2022-06-21 15:53:00 GMT 33.940521 -118.383057 0 78 8 0
2022-06-21 15:52:59 GMT 33.940472 -118.383133 0 91 8 0
2022-06-21 15:52:57 GMT 33.940479 -118.383171 0 94 9 0
2022-06-21 15:52:56 GMT 33.940460 -118.383232 0 100 7 0
2022-06-21 15:52:54 GMT 33.940441 -118.383301 0 101 10 0
2022-06-21 15:52:52 GMT 33.940540 -118.383423 0 66 5 0
2022-06-21 15:52:51 GMT 33.940529 -118.383469 0 72 8 0
2022-06-21 15:52:49 GMT 33.940472 -118.383568 0 87 6 0
2022-06-21 15:52:47 GMT 33.940472 -118.383598 0 88 6 0
2022-06-21 15:52:45 GMT 33.940472 -118.383667 0 88 5 0
2022-06-21 15:52:44 GMT 33.940449 -118.383720 0 87 5 0
2022-06-21 15:52:42 GMT 33.940472 -118.383743 0 75 5 0
2022-06-21 15:52:40 GMT 33.940491 -118.383797 0 67 6 0
2022-06-21 15:52:39 GMT 33.940491 -118.383827 0 76 6 0
2022-06-21 15:52:37 GMT 33.940449 -118.383904 0 76 4 0
2022-06-21 15:52:36 GMT 33.940441 -118.383926 0 69 3 0
2022-06-21 15:52:35 GMT 33.940441 -118.383942 0 51 4 0
2022-06-21 15:52:34 GMT 33.940441 -118.383980 0 37 3 0
2022-06-21 15:52:32 GMT 33.940418 -118.384018 0 37 1 0
2022-06-21 15:52:31 GMT 33.940411 -118.384041 0 37 3 0
2022-06-21 15:52:29 GMT 33.940441 -118.384041 0 31 3 0
2022-06-21 15:52:27 GMT 33.940361 -118.384117 0 31 0 0
2022-06-21 15:52:25 GMT 33.940411 -118.384109 0 81 0 0
2022-06-21 15:52:22 GMT 33.940376 -118.384125 0 81 0 0
2022-06-21 15:52:21 GMT 33.940376 -118.384140 0 31 0 0
2022-06-21 15:52:20 GMT 33.940399 -118.384163 0 31 0 0
2022-06-21 15:52:18 GMT 33.940399 -118.384163 0 31 0 0
2022-06-21 15:52:17 GMT 33.940392 -118.384232 0 31 1 0
2022-06-21 15:52:16 GMT 33.940411 -118.384201 0 31 1 0
2022-06-21 15:52:14 GMT 33.940411 -118.384201 0 31 0 0
2022-06-21 15:52:12 GMT 33.940399 -118.384209 0 31 0 0
2022-06-21 15:52:09 GMT 33.940411 -118.384171 0 31 0 0
2022-06-21 15:52:07 GMT 33.940399 -118.384201 0 31 0 0
2022-06-21 15:52:05 GMT 33.940418 -118.384132 0 31 0 0
2022-06-21 15:52:02 GMT 33.940418 -118.384109 0 31 0 0
2022-06-21 15:51:58 GMT 33.940418 -118.384109 0 81 0 0
2022-06-21 15:51:55 GMT 33.940430 -118.384102 0 81 0 0
2022-06-21 15:51:54 GMT 33.940434 -118.384094 0 31 0 0
2022-06-21 15:51:52 GMT 33.940418 -118.384109 0 31 0 0
2022-06-21 15:51:50 GMT 33.940418 -118.384109 0 31 0 0
2022-06-21 15:51:49 GMT 33.940430 -118.384117 0 31 1 0
2022-06-21 15:51:48 GMT 33.940418 -118.384109 0 31 0 0
2022-06-21 15:51:46 GMT 33.940411 -118.384102 0 31 1 0
2022-06-21 15:51:45 GMT 33.940418 -118.384109 0 31 0 0
2022-06-21 15:51:43 GMT 33.940392 -118.384132 0 31 2 0
2022-06-21 15:51:41 GMT 33.940418 -118.384117 0 31 1 0
2022-06-21 15:51:40 GMT 33.940441 -118.384102 0 31 0 0
2022-06-21 15:51:38 GMT 33.940449 -118.384087 0 31 1 0
2022-06-21 15:51:36 GMT 33.940472 -118.384079 0 37 4 0
2022-06-21 15:51:35 GMT 33.940460 -118.384087 0 47 5 0
2022-06-21 15:51:34 GMT 33.940392 -118.384117 0 67 3 0
2022-06-21 15:51:32 GMT 33.940350 -118.384148 0 65 4 0
2022-06-21 15:51:30 GMT 33.940411 -118.384193 0 57 2 0
2022-06-21 15:51:29 GMT 33.940430 -118.384171 0 63 7 0
2022-06-21 15:51:27 GMT 33.940361 -118.384232 0 83 6 0
2022-06-21 15:51:25 GMT 33.940350 -118.384293 0 70 4 0
2022-06-21 15:51:24 GMT 33.940418 -118.384262 0 75 8 0
2022-06-21 15:51:22 GMT 33.940300 -118.384354 0 85 7 0
2022-06-21 15:51:21 GMT 33.940350 -118.384407 0 73 6 0
2022-06-21 15:51:19 GMT 33.940361 -118.384422 0 86 9 0
2022-06-21 15:51:17 GMT 33.940319 -118.384499 0 91 10 0
2022-06-21 15:51:16 GMT 33.940361 -118.384552 0 84 10 0
2022-06-21 15:51:14 GMT 33.940361 -118.384666 0 83 10 0
2022-06-21 15:51:13 GMT 33.940331 -118.384743 0 86 9 0
2022-06-21 15:51:12 GMT 33.940319 -118.384850 0 83 8 0
2022-06-21 15:51:10 GMT 33.940338 -118.384857 0 81 12 0
2022-06-21 15:51:09 GMT 33.940331 -118.384979 0 78 13 0
2022-06-21 15:51:07 GMT 33.940319 -118.385063 0 80 13 0
2022-06-21 15:51:05 GMT 33.940289 -118.385201 0 84 11 0
2022-06-21 15:51:03 GMT 33.940262 -118.385330 0 88 12 0
2022-06-21 15:51:02 GMT 33.940289 -118.385406 0 79 10 0
2022-06-21 15:51:00 GMT 33.940250 -118.385521 0 82 9 0
2022-06-21 15:50:58 GMT 33.940262 -118.385620 0 74 9 0
2022-06-21 15:50:56 GMT 33.940239 -118.385712 0 80 12 0
2022-06-21 15:50:55 GMT 33.940231 -118.385834 0 78 14 0
2022-06-21 15:50:53 GMT 33.940208 -118.385902 0 83 14 0
2022-06-21 15:50:51 GMT 33.940189 -118.386047 0 83 16 0
2022-06-21 15:50:50 GMT 33.940182 -118.386139 0 84 14 0
2022-06-21 15:50:48 GMT 33.940182 -118.386299 0 85 12 0
2022-06-21 15:50:47 GMT 33.940170 -118.386353 0 85 13 0
2022-06-21 15:50:45 GMT 33.940159 -118.386490 0 84 13 0
2022-06-21 15:50:44 GMT 33.940159 -118.386574 0 84 13 0
2022-06-21 15:50:42 GMT 33.940159 -118.386711 0 79 15 0
2022-06-21 15:50:41 GMT 33.940159 -118.386787 0 78 14 0
2022-06-21 15:50:39 GMT 33.940121 -118.386963 0 78 12 0
2022-06-21 15:50:38 GMT 33.940109 -118.386993 0 83 15 0
2022-06-21 15:50:37 GMT 33.940079 -118.387131 0 85 18 0
2022-06-21 15:50:35 GMT 33.940079 -118.387260 0 83 16 0
2022-06-21 15:50:33 GMT 33.940048 -118.387444 0 90 14 0
2022-06-21 15:50:32 GMT 33.940090 -118.387512 0 76 16 0
2022-06-21 15:50:30 GMT 33.940048 -118.387688 0 75 15 0
2022-06-21 15:50:29 GMT 33.940010 -118.387848 0 82 14 0
2022-06-21 15:50:27 GMT 33.939991 -118.387909 0 89 15 0
2022-06-21 15:50:26 GMT 33.939980 -118.387947 0 90 19 0
2022-06-21 15:50:24 GMT 33.940022 -118.388184 0 77 16 0
2022-06-21 15:50:23 GMT 33.939968 -118.388390 0 79 12 0
2022-06-21 15:50:21 GMT 33.939968 -118.388428 0 78 15 0
2022-06-21 15:50:20 GMT 33.939941 -118.388580 0 81 18 0
2022-06-21 15:50:18 GMT 33.939919 -118.388687 0 83 17 0
2022-06-21 15:50:16 GMT 33.939880 -118.388893 0 84 13 0
2022-06-21 15:50:14 GMT 33.939880 -118.389030 0 87 14 0
2022-06-21 15:50:13 GMT 33.939880 -118.389183 0 85 13 0
2022-06-21 15:50:11 GMT 33.939919 -118.389236 0 73 16 0
2022-06-21 15:50:10 GMT 33.939880 -118.389320 0 79 16 0
2022-06-21 15:50:08 GMT 33.939880 -118.389488 0 76 14 0
2022-06-21 15:50:07 GMT 33.939812 -118.389664 0 87 12 0
2022-06-21 15:50:05 GMT 33.939819 -118.389732 0 81 12 0
2022-06-21 15:50:04 GMT 33.939812 -118.389862 0 83 12 0
2022-06-21 15:50:02 GMT 33.939781 -118.389900 0 86 15 0
2022-06-21 15:50:00 GMT 33.939781 -118.390068 0 83 13 0
2022-06-21 15:49:59 GMT 33.939758 -118.390152 0 89 12 0
2022-06-21 15:49:58 GMT 33.939781 -118.390297 0 78 11 0
2022-06-21 15:49:56 GMT 33.939758 -118.390373 0 82 11 0
2022-06-21 15:49:55 GMT 33.939739 -118.390472 0 85 11 0
2022-06-21 15:49:53 GMT 33.939732 -118.390541 0 87 12 0
2022-06-21 15:49:51 GMT 33.939732 -118.390663 0 85 14 0
2022-06-21 15:49:50 GMT 33.939709 -118.390747 0 90 14 0
2022-06-21 15:49:48 GMT 33.939739 -118.390907 0 78 15 0
2022-06-21 15:49:47 GMT 33.939709 -118.391090 0 76 11 0
2022-06-21 15:49:45 GMT 33.939701 -118.391121 0 77 15 0
2022-06-21 15:49:43 GMT 33.939640 -118.391281 0 92 13 0
2022-06-21 15:49:42 GMT 33.939659 -118.391327 0 84 16 0
2022-06-21 15:49:40 GMT 33.939651 -118.391502 0 81 14 0
2022-06-21 15:49:39 GMT 33.939659 -118.391586 0 75 13 0
2022-06-21 15:49:37 GMT 33.939640 -118.391739 0 74 12 0
2022-06-21 15:49:35 GMT 33.939548 -118.391869 0 97 12 0
2022-06-21 15:49:34 GMT 33.939590 -118.391998 0 81 12 0
2022-06-21 15:49:32 GMT 33.939621 -118.392097 0 70 10 0
2022-06-21 15:49:30 GMT 33.939548 -118.392181 0 92 13 0
2022-06-21 15:49:29 GMT 33.939560 -118.392258 0 90 13 0
2022-06-21 15:49:28 GMT 33.939541 -118.392387 0 93 12 0
2022-06-21 15:49:26 GMT 33.939548 -118.392448 0 88 13 0
2022-06-21 15:49:25 GMT 33.939590 -118.392609 0 75 11 0
2022-06-21 15:49:23 GMT 33.939590 -118.392616 0 74 16 0
2022-06-21 15:49:21 GMT 33.939548 -118.392792 0 76 15 0
2022-06-21 15:49:20 GMT 33.939499 -118.392891 0 84 13 0
2022-06-21 15:49:19 GMT 33.939491 -118.393028 0 87 12 0
2022-06-21 15:49:17 GMT 33.939461 -118.393127 0 85 9 0
2022-06-21 15:49:16 GMT 33.939491 -118.393150 0 83 12 0
2022-06-21 15:49:15 GMT 33.939461 -118.393280 0 85 12 0
2022-06-21 15:49:13 GMT 33.939442 -118.393440 0 84 12 0
2022-06-21 15:49:11 GMT 33.939468 -118.393478 0 78 14 0
2022-06-21 15:49:09 GMT 33.939449 -118.393639 0 80 14 0
2022-06-21 15:49:08 GMT 33.939400 -118.393806 0 83 12 0
2022-06-21 15:49:06 GMT 33.939419 -118.393867 0 84 12 0
2022-06-21 15:49:04 GMT 33.939388 -118.393997 0 85 11 0
2022-06-21 15:49:03 GMT 33.939400 -118.394058 0 85 12 0
2022-06-21 15:49:02 GMT 33.939381 -118.394218 0 80 9 0
2022-06-21 15:49:00 GMT 33.939388 -118.394279 0 81 9 0
2022-06-21 15:48:58 GMT 33.939331 -118.394371 0 92 11 0
2022-06-21 15:48:57 GMT 33.939362 -118.394440 0 85 10 0
2022-06-21 15:48:55 GMT 33.939369 -118.394562 0 71 10 0
2022-06-21 15:48:54 GMT 33.939381 -118.394600 0 73 11 0
2022-06-21 15:48:53 GMT 33.939331 -118.394707 0 80 11 0
2022-06-21 15:48:51 GMT 33.939320 -118.394760 0 85 12 0
2022-06-21 15:48:50 GMT 33.939259 -118.394890 0 90 10 0
2022-06-21 15:48:48 GMT 33.939289 -118.394928 0 85 12 0
2022-06-21 15:48:47 GMT 33.939308 -118.395081 0 80 10 0
2022-06-21 15:48:45 GMT 33.939281 -118.395119 0 81 11 0
2022-06-21 15:48:43 GMT 33.939289 -118.395271 0 70 8 0
2022-06-21 15:48:42 GMT 33.939301 -118.395264 0 68 13 0
2022-06-21 15:48:40 GMT 33.939259 -118.395393 0 71 13 0
2022-06-21 15:48:39 GMT 33.939232 -118.395439 0 80 14 0
2022-06-21 15:48:37 GMT 33.939251 -118.395599 0 80 12 0
2022-06-21 15:48:36 GMT 33.939209 -118.395752 0 84 10 0
2022-06-21 15:48:34 GMT 33.939190 -118.395821 0 88 9 0
2022-06-21 15:48:32 GMT 33.939171 -118.395912 0 90 10 0
2022-06-21 15:48:31 GMT 33.939190 -118.395988 0 82 8 0
2022-06-21 15:48:29 GMT 33.939178 -118.396042 0 84 13 0
2022-06-21 15:48:28 GMT 33.939171 -118.396111 0 82 13 0
2022-06-21 15:48:26 GMT 33.939171 -118.396240 0 80 13 0
2022-06-21 15:48:25 GMT 33.939159 -118.396400 0 79 10 0
2022-06-21 15:48:23 GMT 33.939152 -118.396461 0 83 10 0
2022-06-21 15:48:22 GMT 33.939140 -118.396553 0 81 13 0
2022-06-21 15:48:20 GMT 33.939129 -118.396660 0 86 9 0
2022-06-21 15:48:18 GMT 33.939079 -118.396759 0 97 9 0
2022-06-21 15:48:16 GMT 33.939110 -118.396873 0 74 8 0
2022-06-21 15:48:15 GMT 33.939159 -118.396912 0 68 11 0
2022-06-21 15:48:14 GMT 33.939091 -118.397003 0 89 11 0
2022-06-21 15:48:12 GMT 33.939091 -118.397079 0 84 10 0
2022-06-21 15:48:10 GMT 33.939079 -118.397202 0 88 8 0
2022-06-21 15:48:08 GMT 33.939079 -118.397270 0 82 10 0
2022-06-21 15:48:07 GMT 33.939079 -118.397346 0 76 8 0
2022-06-21 15:48:06 GMT 33.939098 -118.397438 0 74 10 0
2022-06-21 15:48:04 GMT 33.939072 -118.397476 0 83 11 0
2022-06-21 15:48:02 GMT 33.939018 -118.397621 0 92 8 0
2022-06-21 15:48:01 GMT 33.939018 -118.397636 0 90 11 0
2022-06-21 15:48:00 GMT 33.939049 -118.397751 0 79 10 0
2022-06-21 15:47:58 GMT 33.939049 -118.397797 0 78 11 0
2022-06-21 15:47:56 GMT 33.939030 -118.397888 0 77 12 0
2022-06-21 15:47:55 GMT 33.939041 -118.397980 0 73 10 0
2022-06-21 15:47:54 GMT 33.938999 -118.398033 0 85 10 0
2022-06-21 15:47:52 GMT 33.938980 -118.398148 0 86 9 0
2022-06-21 15:47:51 GMT 33.938992 -118.398239 0 82 11 0
2022-06-21 15:47:49 GMT 33.938992 -118.398308 0 76 10 0
2022-06-21 15:47:47 GMT 33.938980 -118.398422 0 77 10 0
2022-06-21 15:47:45 GMT 33.938938 -118.398521 0 87 10 0
2022-06-21 15:47:44 GMT 33.938919 -118.398628 0 88 8 0
2022-06-21 15:47:42 GMT 33.938931 -118.398666 0 84 8 0
2022-06-21 15:47:41 GMT 33.938950 -118.398720 0 78 8 0
2022-06-21 15:47:39 GMT 33.938919 -118.398849 0 84 10 0
2022-06-21 15:47:37 GMT 33.938900 -118.398911 0 89 9 0
2022-06-21 15:47:35 GMT 33.938911 -118.399010 0 83 10 0
2022-06-21 15:47:34 GMT 33.938911 -118.399117 0 81 10 0
2022-06-21 15:47:32 GMT 33.938889 -118.399170 0 83 11 0
2022-06-21 15:47:30 GMT 33.938911 -118.399277 0 71 12 0
2022-06-21 15:47:29 GMT 33.938889 -118.399338 0 76 12 0
2022-06-21 15:47:27 GMT 33.938839 -118.399467 0 88 12 0
2022-06-21 15:47:26 GMT 33.938839 -118.399529 0 89 12 0
2022-06-21 15:47:25 GMT 33.938831 -118.399612 0 90 10 0
2022-06-21 15:47:23 GMT 33.938869 -118.399719 0 72 11 0
2022-06-21 15:47:22 GMT 33.938839 -118.399780 0 75 11 0
2022-06-21 15:47:20 GMT 33.938831 -118.399872 0 73 14 0
2022-06-21 15:47:18 GMT 33.938770 -118.400017 0 81 12 0
2022-06-21 15:47:17 GMT 33.938751 -118.400078 0 86 14 0
2022-06-21 15:47:16 GMT 33.938728 -118.400230 0 90 12 0
2022-06-21 15:47:14 GMT 33.938728 -118.400299 0 91 12 0
2022-06-21 15:47:12 GMT 33.938721 -118.400436 0 92 11 0
2022-06-21 15:47:11 GMT 33.938740 -118.400490 0 83 11 0
2022-06-21 15:47:09 GMT 33.938759 -118.400612 0 75 13 0
2022-06-21 15:47:07 GMT 33.938709 -118.400726 0 84 16 0
2022-06-21 15:47:05 GMT 33.938690 -118.400917 0 84 12 0
2022-06-21 15:47:03 GMT 33.938671 -118.401047 0 83 12 0
2022-06-21 15:47:02 GMT 33.938648 -118.401192 0 85 11 0
2022-06-21 15:47:00 GMT 33.938671 -118.401253 0 86 12 0
2022-06-21 15:46:59 GMT 33.938648 -118.401321 0 92 11 0
2022-06-21 15:46:58 GMT 33.938648 -118.401451 0 89 11 0
2022-06-21 15:46:56 GMT 33.938641 -118.401527 0 90 10 0
2022-06-21 15:46:54 GMT 33.938648 -118.401649 0 82 9 0
2022-06-21 15:46:52 GMT 33.938648 -118.401733 0 77 10 0
2022-06-21 15:46:51 GMT 33.938641 -118.401787 0 76 10 0
2022-06-21 15:46:50 GMT 33.938629 -118.401848 0 80 9 0
2022-06-21 15:46:48 GMT 33.938591 -118.401970 0 83 9 0
2022-06-21 15:46:47 GMT 33.938599 -118.402061 0 83 10 0
2022-06-21 15:46:45 GMT 33.938568 -118.402138 0 90 7 0
2022-06-21 15:46:43 GMT 33.938568 -118.402191 0 86 8 0
2022-06-21 15:46:42 GMT 33.938591 -118.402237 0 83 7 0
2022-06-21 15:46:40 GMT 33.938568 -118.402313 0 83 9 0
2022-06-21 15:46:39 GMT 33.938599 -118.402382 0 61 7 0
2022-06-21 15:46:37 GMT 33.938560 -118.402443 0 72 7 0
2022-06-21 15:46:35 GMT 33.938541 -118.402512 0 82 6 0
2022-06-21 15:46:34 GMT 33.938511 -118.402542 0 93 7 0
2022-06-21 15:46:33 GMT 33.938499 -118.402603 0 102 7 0
2022-06-21 15:46:31 GMT 33.938499 -118.402687 0 122 6 0
2022-06-21 15:46:29 GMT 33.938511 -118.402733 0 136 5 0
2022-06-21 15:46:27 GMT 33.938511 -118.402809 0 166 6 0
2022-06-21 15:46:26 GMT 33.938560 -118.402832 0 164 5 0
2022-06-21 15:46:25 GMT 33.938568 -118.402802 0 166 9 0
2022-06-21 15:46:22 GMT 33.938641 -118.402840 0 170 7 0
2022-06-21 15:46:21 GMT 33.938690 -118.402863 0 169 5 0
2022-06-21 15:46:20 GMT 33.938740 -118.402847 0 169 6 0
2022-06-21 15:46:18 GMT 33.938782 -118.402847 0 176 6 0
2022-06-21 15:46:16 GMT 33.938789 -118.402893 0 177 6 0
2022-06-21 15:46:15 GMT 33.938782 -118.402901 0 174 10 0
2022-06-21 15:46:13 GMT 33.938881 -118.402901 0 175 9 0
2022-06-21 15:46:11 GMT 33.938999 -118.402924 0 165 4 0
2022-06-21 15:46:10 GMT 33.939018 -118.402878 0 153 5 0
2022-06-21 15:46:08 GMT 33.939079 -118.402908 0 153 3 0
2022-06-21 15:46:06 GMT 33.939079 -118.402939 0 158 5 0
2022-06-21 15:46:04 GMT 33.939121 -118.402962 0 157 6 0
2022-06-21 15:46:02 GMT 33.939178 -118.402992 0 114 6 0
2022-06-21 15:46:01 GMT 33.939209 -118.402946 0 98 6 0
2022-06-21 15:46:00 GMT 33.939270 -118.402977 0 82 3 0
2022-06-21 15:45:58 GMT 33.939301 -118.402969 0 85 7 0
2022-06-21 15:45:57 GMT 33.939301 -118.403038 0 88 7 0
2022-06-21 15:45:55 GMT 33.939240 -118.403122 0 106 7 0
2022-06-21 15:45:53 GMT 33.939281 -118.403191 0 76 5 0
2022-06-21 15:45:51 GMT 33.939289 -118.403229 0 82 6 0
2022-06-21 15:45:49 GMT 33.939289 -118.403282 0 83 4 0
2022-06-21 15:45:48 GMT 33.939281 -118.403351 0 85 5 0
2022-06-21 15:45:45 GMT 33.939281 -118.403427 0 107 6 0
2022-06-21 15:45:44 GMT 33.939281 -118.403389 0 147 9 0
2022-06-21 15:45:42 GMT 33.939240 -118.403587 0 216 0 0
2022-06-21 15:45:41 GMT 33.939251 -118.403587 0 216 0 0
2022-06-21 15:45:40 GMT 33.939251 -118.403580 0 216 0 0
2022-06-21 15:45:39 GMT 33.939251 -118.403580 0 216 0 0
2022-06-21 15:45:37 GMT 33.939251 -118.403603 0 216 0 0
2022-06-21 15:45:36 GMT 33.939251 -118.403557 0 216 0 0
2022-06-21 15:45:34 GMT 33.939251 -118.403557 0 216 0 0
2022-06-21 15:45:32 GMT 33.939251 -118.403580 0 216 0 0
2022-06-21 15:45:29 GMT 33.939259 -118.403542 0 216 0 0
2022-06-21 15:45:27 GMT 33.939259 -118.403557 0 216 0 0
2022-06-21 15:45:23 GMT 33.939251 -118.403572 0 216 0 0
2022-06-21 15:45:22 GMT 33.939240 -118.403572 0 216 0 0
2022-06-21 15:45:20 GMT 33.939251 -118.403542 0 216 0 0
2022-06-21 15:45:19 GMT 33.939259 -118.403542 0 216 0 0
2022-06-21 15:45:18 GMT 33.939259 -118.403542 0 216 0 0
2022-06-21 15:45:16 GMT 33.939259 -118.403511 0 216 0 0
2022-06-21 15:45:15 GMT 33.939259 -118.403534 0 92 0 0
2022-06-21 15:45:12 GMT 33.939259 -118.403534 0 92 0 0
2022-06-21 15:45:11 GMT 33.939281 -118.403519 0 216 0 0
2022-06-21 15:45:10 GMT 33.939301 -118.403488 0 216 0 0
2022-06-21 15:45:08 GMT 33.939301 -118.403488 0 216 0 0
2022-06-21 15:45:07 GMT 33.939301 -118.403503 0 216 0 0
2022-06-21 15:45:05 GMT 33.939308 -118.403488 0 216 0 0
2022-06-21 15:45:04 GMT 33.939289 -118.403511 0 216 0 0
2022-06-21 15:45:02 GMT 33.939270 -118.403542 0 216 0 0
2022-06-21 15:45:00 GMT 33.939281 -118.403488 0 216 0 0
2022-06-21 15:44:57 GMT 33.939289 -118.403481 0 216 0 0
2022-06-21 15:44:56 GMT 33.939289 -118.403503 0 216 0 0
2022-06-21 15:44:54 GMT 33.939289 -118.403488 0 216 0 0
2022-06-21 15:44:53 GMT 33.939270 -118.403481 0 216 0 0
2022-06-21 15:44:51 GMT 33.939259 -118.403557 0 216 1 0
2022-06-21 15:44:49 GMT 33.939251 -118.403549 0 216 2 0
2022-06-21 15:44:48 GMT 33.939232 -118.403587 0 216 2 0
2022-06-21 15:44:46 GMT 33.939240 -118.403572 0 216 2 0
2022-06-21 15:44:44 GMT 33.939270 -118.403442 0 216 0 0
2022-06-21 15:44:43 GMT 33.939289 -118.403458 0 216 0 0
2022-06-21 15:44:42 GMT 33.939259 -118.403427 0 216 1 0
2022-06-21 15:44:39 GMT 33.939301 -118.403450 0 216 0 0
2022-06-21 15:44:37 GMT 33.939281 -118.403450 0 216 0 0
2022-06-21 15:44:36 GMT 33.939281 -118.403442 0 216 0 0
2022-06-21 15:44:35 GMT 33.939281 -118.403450 0 216 0 0
2022-06-21 15:44:33 GMT 33.939270 -118.403442 0 216 0 0
2022-06-21 15:44:31 GMT 33.939281 -118.403419 0 216 0 0
2022-06-21 15:44:29 GMT 33.939281 -118.403450 0 216 0 0
2022-06-21 15:44:26 GMT 33.939259 -118.403458 0 216 0 0
2022-06-21 15:44:24 GMT 33.939259 -118.403458 0 216 0 0
2022-06-21 15:44:23 GMT 33.939270 -118.403458 0 216 0 0
2022-06-21 15:44:21 GMT 33.939259 -118.403458 0 216 0 0
2022-06-21 15:44:19 GMT 33.939259 -118.403473 0 216 0 0
2022-06-21 15:44:16 GMT 33.939259 -118.403458 0 216 0 0
2022-06-21 15:44:14 GMT 33.939259 -118.403473 0 92 0 0
2022-06-21 15:44:11 GMT 33.939259 -118.403450 0 216 0 0
2022-06-21 15:44:08 GMT 33.939259 -118.403458 0 216 0 0
2022-06-21 15:44:05 GMT 33.939259 -118.403450 0 216 0 0
2022-06-21 15:44:02 GMT 33.939259 -118.403450 0 92 0 0
2022-06-21 15:44:00 GMT 33.939262 -118.403481 0 216 0 0
2022-06-21 15:43:58 GMT 33.939259 -118.403458 0 216 0 0
2022-06-21 15:43:56 GMT 33.939270 -118.403450 0 216 0 0
2022-06-21 15:43:54 GMT 33.939270 -118.403427 0 216 0 0
2022-06-21 15:43:52 GMT 33.939270 -118.403473 0 216 0 0
2022-06-21 15:43:51 GMT 33.939281 -118.403450 0 216 0 0
2022-06-21 15:43:50 GMT 33.939289 -118.403458 0 216 0 0
2022-06-21 15:43:48 GMT 33.939289 -118.403481 0 216 0 0
2022-06-21 15:43:47 GMT 33.939289 -118.403458 0 216 0 0
2022-06-21 15:43:45 GMT 33.939289 -118.403458 0 216 0 0
2022-06-21 15:43:42 GMT 33.939281 -118.403465 0 216 1 0
2022-06-21 15:43:40 GMT 33.939301 -118.403503 0 216 1 0
2022-06-21 15:43:38 GMT 33.939289 -118.403473 0 216 0 0
2022-06-21 15:43:36 GMT 33.939259 -118.403397 0 216 1 0
2022-06-21 15:43:34 GMT 33.939259 -118.403397 0 216 1 0
2022-06-21 15:43:32 GMT 33.939270 -118.403397 0 216 2 0
2022-06-21 15:43:31 GMT 33.939281 -118.403419 0 216 2 0
2022-06-21 15:43:30 GMT 33.939281 -118.403450 0 216 1 0
2022-06-21 15:43:28 GMT 33.939281 -118.403503 0 216 0 0
2022-06-21 15:43:26 GMT 33.939308 -118.403473 0 216 0 0
2022-06-21 15:43:23 GMT 33.939304 -118.403496 0 216 0 0
2022-06-21 15:43:21 GMT 33.939289 -118.403503 0 216 0 0
2022-06-21 15:43:19 GMT 33.939308 -118.403503 0 216 1 0
2022-06-21 15:43:17 GMT 33.939281 -118.403511 0 216 0 0
2022-06-21 15:43:16 GMT 33.939270 -118.403511 0 216 0 0
2022-06-21 15:43:14 GMT 33.939289 -118.403511 0 216 0 0
2022-06-21 15:43:13 GMT 33.939281 -118.403503 0 216 0 0
2022-06-21 15:43:12 GMT 33.939301 -118.403511 0 216 1 0
2022-06-21 15:43:08 GMT 33.939270 -118.403503 0 216 0 0
2022-06-21 15:43:06 GMT 33.939270 -118.403488 0 216 0 0
2022-06-21 15:43:05 GMT 33.939281 -118.403511 0 216 0 0
2022-06-21 15:43:03 GMT 33.939281 -118.403503 0 216 0 0
2022-06-21 15:43:02 GMT 33.939270 -118.403488 0 216 0 0
2022-06-21 15:42:59 GMT 33.939270 -118.403488 0 216 0 0
2022-06-21 15:42:58 GMT 33.939281 -118.403488 0 216 0 0
2022-06-21 15:42:57 GMT 33.939289 -118.403481 0 216 0 0
2022-06-21 15:42:55 GMT 33.939289 -118.403473 0 216 0 0
2022-06-21 15:42:53 GMT 33.939289 -118.403473 0 216 1 0
2022-06-21 15:42:51 GMT 33.939281 -118.403481 0 216 0 0
2022-06-21 15:42:50 GMT 33.939289 -118.403488 0 216 0 0
2022-06-21 15:42:47 GMT 33.939301 -118.403488 0 216 1 0
2022-06-21 15:42:46 GMT 33.939308 -118.403488 0 216 1 0
2022-06-21 15:42:44 GMT 33.939270 -118.403473 0 216 1 0
2022-06-21 15:42:42 GMT 33.939281 -118.403503 0 216 1 0
2022-06-21 15:42:41 GMT 33.939289 -118.403503 0 216 2 0
2022-06-21 15:42:40 GMT 33.939320 -118.403450 0 216 3 0
2022-06-21 15:42:38 GMT 33.939281 -118.403488 0 216 2 0
2022-06-21 15:42:37 GMT 33.939289 -118.403481 0 216 1 0
2022-06-21 15:42:36 GMT 33.939281 -118.403458 0 216 2 0
2022-06-21 15:42:34 GMT 33.939240 -118.403450 0 216 3 0
2022-06-21 15:42:33 GMT 33.939259 -118.403419 0 216 1 0
2022-06-21 15:42:31 GMT 33.939259 -118.403458 0 216 4 0
2022-06-21 15:42:29 GMT 33.939270 -118.403427 0 212 3 0
2022-06-21 15:42:28 GMT 33.939270 -118.403397 0 212 3 0
2022-06-21 15:42:26 GMT 33.939301 -118.403397 0 210 2 0
2022-06-21 15:42:25 GMT 33.939308 -118.403343 0 210 3 0
2022-06-21 15:42:23 GMT 33.939301 -118.403374 0 210 1 0
2022-06-21 15:42:22 GMT 33.939281 -118.403374 0 208 3 0
2022-06-21 15:42:20 GMT 33.939270 -118.403351 0 208 2 0
2022-06-21 15:42:18 GMT 33.939289 -118.403320 0 227 1 0
2022-06-21 15:42:17 GMT 33.939289 -118.403343 0 196 6 0
2022-06-21 15:42:15 GMT 33.939289 -118.403282 0 194 4 0
2022-06-21 15:42:13 GMT 33.939350 -118.403267 0 199 2 0
2022-06-21 15:42:12 GMT 33.939369 -118.403290 0 199 1 0
2022-06-21 15:42:11 GMT 33.939350 -118.403282 0 199 1 0
2022-06-21 15:42:09 GMT 33.939350 -118.403290 0 199 1 0
2022-06-21 15:42:07 GMT 33.939339 -118.403267 0 199 0 0
2022-06-21 15:42:05 GMT 33.939339 -118.403290 0 199 1 0
2022-06-21 15:42:04 GMT 33.939331 -118.403282 0 199 2 0
2022-06-21 15:42:03 GMT 33.939339 -118.403267 0 199 1 0
2022-06-21 15:42:01 GMT 33.939331 -118.403267 0 196 5 0
2022-06-21 15:42:00 GMT 33.939388 -118.403252 0 210 2 0
2022-06-21 15:41:56 GMT 33.939419 -118.403259 0 210 1 0
2022-06-21 15:41:55 GMT 33.939400 -118.403267 0 210 2 0
2022-06-21 15:41:53 GMT 33.939411 -118.403282 0 210 2 0
2022-06-21 15:41:51 GMT 33.939442 -118.403290 0 214 2 0
2022-06-21 15:41:49 GMT 33.939442 -118.403267 0 214 3 0
2022-06-21 15:41:47 GMT 33.939499 -118.403267 0 214 1 0
2022-06-21 15:41:45 GMT 33.939510 -118.403282 0 214 2 0
2022-06-21 15:41:44 GMT 33.939491 -118.403290 0 214 1 0
2022-06-21 15:41:43 GMT 33.939449 -118.403290 0 214 2 0
2022-06-21 15:41:41 GMT 33.939400 -118.403328 0 244 7 0
2022-06-21 15:41:39 GMT 33.939480 -118.403290 0 5 7 0
2022-06-21 15:41:37 GMT 33.939548 -118.403282 0 1 3 0
2022-06-21 15:41:36 GMT 33.939590 -118.403313 0 0 2 0
2022-06-21 15:41:35 GMT 33.939602 -118.403297 0 0 2 0
2022-06-21 15:41:33 GMT 33.939610 -118.403313 0 0 2 0
2022-06-21 15:41:32 GMT 33.939621 -118.403320 0 0 2 0
2022-06-21 15:41:31 GMT 33.939690 -118.403412 0 0 0 0
2022-06-21 15:41:29 GMT 33.939690 -118.403412 0 0 0 0
2022-06-21 15:41:27 GMT 33.939701 -118.403419 0 0 0 0
2022-06-21 15:41:25 GMT 33.939709 -118.403427 0 0 0 0
2022-06-21 15:41:24 GMT 33.939720 -118.403450 0 0 0 0
2022-06-21 15:41:20 GMT 33.939732 -118.403458 0 0 0 0
2022-06-21 15:41:18 GMT 33.939739 -118.403473 0 0 0 0
2022-06-21 15:41:17 GMT 33.939739 -118.403481 0 0 0 0
2022-06-21 15:41:15 GMT 33.939751 -118.403488 0 0 0 0
2022-06-21 15:41:13 GMT 33.939751 -118.403503 0 0 0 0
2022-06-21 15:41:12 GMT 33.939751 -118.403511 0 0 0 0
2022-06-21 15:41:11 GMT 33.939758 -118.403511 0 0 0 0
2022-06-21 15:41:09 GMT 33.939758 -118.403519 0 0 0 0
2022-06-21 15:41:06 GMT 33.939770 -118.403526 0 0 0 0
2022-06-21 15:41:04 GMT 33.939781 -118.403549 0 0 0 0
2022-06-21 15:41:02 GMT 33.939781 -118.403557 0 0 0 0
2022-06-21 15:41:00 GMT 33.939781 -118.403572 0 0 0 0
2022-06-21 15:40:58 GMT 33.939789 -118.403603 0 0 0 0
2022-06-21 15:40:55 GMT 33.939789 -118.403603 0 0 0 0
2022-06-21 15:40:52 GMT 33.939789 -118.403610 0 0 0 0
2022-06-21 15:40:51 GMT 33.939800 -118.403610 0 0 0 0
2022-06-21 15:40:49 GMT 33.939800 -118.403610 0 0 2 0
2022-06-21 15:40:47 GMT 33.939812 -118.403618 0 0 2 0
2022-06-21 15:40:46 GMT 33.939812 -118.403633 0 0 2 0
2022-06-21 15:40:43 GMT 33.939819 -118.403648 0 0 2 0
2022-06-21 15:40:40 GMT 33.939835 -118.403679 0 309 2 0
2022-06-21 15:40:39 GMT 33.939846 -118.403679 0 309 2 0
2022-06-21 15:36:51 GMT 33.939945 -118.403824 0 309 0 0
2022-06-21 15:36:46 GMT 33.939949 -118.403816 0 309 0 0
2022-06-21 15:36:26 GMT 33.939945 -118.403809 0 309 0 0
2022-06-21 15:36:21 GMT 33.939949 -118.403816 0 309 0 0
2022-06-21 15:36:16 GMT 33.939945 -118.403824 0 309 0 0
2022-06-21 15:35:46 GMT 33.939949 -118.403816 0 309 0 0
2022-06-21 15:35:06 GMT 33.939945 -118.403824 0 309 0 0
2022-06-21 15:34:55 GMT 33.939949 -118.403809 0 309 0 0
2022-06-21 15:34:51 GMT 33.939949 -118.403816 0 309 0 0
2022-06-21 15:34:41 GMT 33.939945 -118.403778 0 309 0 0
2022-06-21 15:34:35 GMT 33.939949 -118.403778 0 309 0 0
2022-06-21 15:34:21 GMT 33.939949 -118.403816 0 309 0 0
2022-06-21 15:34:10 GMT 33.939945 -118.403809 0 309 0 0
2022-06-21 15:34:00 GMT 33.939949 -118.403809 0 309 0 0
2022-06-21 15:33:55 GMT 33.939945 -118.403824 0 309 0 0
2022-06-21 15:33:50 GMT 33.939949 -118.403831 0 309 0 0
2022-06-21 15:33:25 GMT 33.939972 -118.403816 0 309 0 0
2022-06-21 15:33:05 GMT 33.939972 -118.403816 0 309 0 0
2022-06-21 15:32:55 GMT 33.939968 -118.403809 0 309 0 0
2022-06-21 15:32:44 GMT 33.939968 -118.403809 0 309 0 0
2022-06-21 15:32:34 GMT 33.939949 -118.403816 0 309 0 0
2022-06-21 15:32:24 GMT 33.939949 -118.403816 0 309 0 0
2022-06-21 15:32:14 GMT 33.939945 -118.403824 0 309 0 0
2022-06-21 15:32:09 GMT 33.939957 -118.403824 0 309 0 0
2022-06-21 15:31:59 GMT 33.939957 -118.403824 0 309 0 0
2022-06-21 15:31:44 GMT 33.939949 -118.403809 0 309 0 0
2022-06-21 15:31:34 GMT 33.939949 -118.403816 0 309 0 0
2022-06-21 15:31:29 GMT 33.939949 -118.403816 0 309 0 0
2022-06-21 15:31:19 GMT 33.939957 -118.403824 0 309 0 0
2022-06-21 15:31:14 GMT 33.939949 -118.403816 0 309 0 0
2022-06-21 15:30:59 GMT 33.939957 -118.403824 0 309 0 0
2022-06-21 15:30:49 GMT 33.939949 -118.403816 0 309 0 0
2022-06-21 15:30:34 GMT 33.939957 -118.403824 0 309 0 0
2022-06-21 15:30:28 GMT 33.939949 -118.403816 0 309 0 0
2022-06-21 15:30:24 GMT 33.939957 -118.403824 0 309 0 0
2022-06-21 15:30:14 GMT 33.939949 -118.403816 0 309 0 0
2022-06-21 15:30:08 GMT 33.939957 -118.403824 0 309 0 0
2022-06-21 15:30:04 GMT 33.939949 -118.403816 0 309 0 0
2022-06-21 15:29:59 GMT 33.939957 -118.403824 0 309 0 0
2022-06-21 15:29:28 GMT 33.939949 -118.403816 0 309 0 0
2022-06-21 15:29:18 GMT 33.939945 -118.403824 0 309 0 0
2022-06-21 15:29:14 GMT 33.939949 -118.403816 0 309 0 0
2022-06-21 15:29:09 GMT 33.939945 -118.403824 0 309 0 0
2022-06-21 15:29:04 GMT 33.939949 -118.403816 0 309 0 0
2022-06-21 15:28:43 GMT 33.939949 -118.403816 0 309 0 0
2022-06-21 15:28:34 GMT 33.939949 -118.403816 0 309 0 0
2022-06-21 15:28:28 GMT 33.939968 -118.403809 0 309 0 0
2022-06-21 15:28:24 GMT 33.939960 -118.403809 0 309 0 0
2022-06-21 15:28:13 GMT 33.939949 -118.403816 0 309 0 0
2022-06-21 15:27:34 GMT 33.939949 -118.403816 0 309 0 0
2022-06-21 15:27:28 GMT 33.939949 -118.403816 0 309 0 0
2022-06-21 15:27:19 GMT 33.939949 -118.403816 0 309 0 0
2022-06-21 15:27:09 GMT 33.939945 -118.403824 0 309 0 0
2022-06-21 15:27:03 GMT 33.939949 -118.403816 0 309 0 0
2022-06-21 15:26:54 GMT 33.939945 -118.403824 0 309 0 0
2022-06-21 15:26:39 GMT 33.939949 -118.403816 0 309 0 0
2022-06-21 15:26:33 GMT 33.939945 -118.403824 0 309 0 0
2022-06-21 15:26:23 GMT 33.939949 -118.403793 0 309 0 0
2022-06-21 15:25:53 GMT 33.939949 -118.403793 0 309 0 0
2022-06-21 15:25:43 GMT 33.939945 -118.403793 0 309 0 0
2022-06-21 15:25:38 GMT 33.939945 -118.403824 0 309 0 0
2022-06-21 15:25:33 GMT 33.939945 -118.403824 0 309 0 0
2022-06-21 15:25:19 GMT 33.939949 -118.403816 0 309 0 0
2022-06-21 15:25:13 GMT 33.939945 -118.403824 0 309 0 0
2022-06-21 15:25:04 GMT 33.939949 -118.403816 0 309 0 0
2022-06-21 15:24:59 GMT 33.939945 -118.403824 0 309 0 0
2022-06-21 15:24:54 GMT 33.939949 -118.403816 0 309 0 0
2022-06-21 15:24:49 GMT 33.939945 -118.403824 0 309 0 0
2022-06-21 15:24:44 GMT 33.939949 -118.403816 0 309 0 0
2022-06-21 15:24:40 GMT 33.939945 -118.403824 0 309 0 0
2022-06-21 15:24:14 GMT 33.939949 -118.403816 0 309 0 0
2022-06-21 15:24:09 GMT 33.939945 -118.403824 0 309 0 0
2022-06-21 15:24:04 GMT 33.939949 -118.403809 0 309 0 0
2022-06-21 15:23:48 GMT 33.939949 -118.403816 0 309 0 0
2022-06-21 15:23:44 GMT 33.939945 -118.403809 0 309 0 0
2022-06-21 15:23:39 GMT 33.939945 -118.403824 0 309 0 0
2022-06-21 15:23:34 GMT 33.939949 -118.403816 0 309 0 0
2022-06-21 15:23:24 GMT 33.939945 -118.403824 0 309 0 0
2022-06-21 15:23:14 GMT 33.939945 -118.403824 0 309 0 0
2022-06-21 15:23:08 GMT 33.939945 -118.403824 0 309 0 0
2022-06-21 15:23:04 GMT 33.939938 -118.403831 0 309 0 0
2022-06-21 15:22:59 GMT 33.939945 -118.403824 0 309 0 0
2022-06-21 15:22:54 GMT 33.939949 -118.403809 0 309 0 0
2022-06-21 15:22:49 GMT 33.939945 -118.403824 0 309 0 0
2022-06-21 15:22:44 GMT 33.939938 -118.403816 0 309 0 0
2022-06-21 15:22:39 GMT 33.939938 -118.403816 0 309 0 0
2022-06-21 15:22:29 GMT 33.939938 -118.403816 0 309 0 0
2022-06-21 15:22:24 GMT 33.939945 -118.403824 0 309 0 0
2022-06-21 15:22:20 GMT 33.939945 -118.403847 0 309 0 0
2022-06-21 15:22:04 GMT 33.939945 -118.403847 0 309 0 0
2022-06-21 15:21:49 GMT 33.939960 -118.403847 0 309 0 0
2022-06-21 15:21:44 GMT 33.939968 -118.403847 0 309 0 0
2022-06-21 15:21:34 GMT 33.939960 -118.403847 0 309 0 0
2022-06-21 15:21:24 GMT 33.939968 -118.403847 0 309 0 0
2022-06-21 15:21:19 GMT 33.939960 -118.403847 0 309 0 0
2022-06-21 15:21:03 GMT 33.939957 -118.403824 0 309 0 0
2022-06-21 15:20:59 GMT 33.939945 -118.403824 0 309 0 0
2022-06-21 15:20:54 GMT 33.939968 -118.403809 0 309 0 0
2022-06-21 15:20:53 GMT 33.939980 -118.403793 0 309 0 0
2022-06-21 15:20:51 GMT 33.939980 -118.403809 0 309 0 0
2022-06-21 15:20:47 GMT 33.939980 -118.403793 0 309 0 0
2022-06-21 15:20:43 GMT 33.939972 -118.403793 0 309 0 0
2022-06-21 15:20:37 GMT 33.939980 -118.403778 0 309 0 0
2022-06-21 15:20:33 GMT 33.939945 -118.403809 0 309 0 0
2022-06-21 15:20:30 GMT 33.939949 -118.403809 0 309 0 0
2022-06-21 15:20:25 GMT 33.939960 -118.403793 0 309 0 0
2022-06-21 15:20:20 GMT 33.939960 -118.403809 0 309 0 0
2022-06-21 15:20:10 GMT 33.939957 -118.403824 0 309 0 0
2022-06-21 15:20:04 GMT 33.939957 -118.403831 0 309 0 0
2022-06-21 15:20:00 GMT 33.939960 -118.403831 0 309 0 0
2022-06-21 15:19:45 GMT 33.939949 -118.403847 0 309 0 0
2022-06-21 15:19:34 GMT 33.939957 -118.403847 0 309 0 0
2022-06-21 15:19:33 GMT 33.939949 -118.403847 0 309 0 0
2022-06-21 15:19:29 GMT 33.939957 -118.403831 0 309 0 0
2022-06-21 15:19:27 GMT 33.939949 -118.403862 0 309 0 0
2022-06-21 15:19:26 GMT 33.939945 -118.403847 0 309 0 0
2022-06-21 15:19:25 GMT 33.939949 -118.403862 0 309 0 0
2022-06-21 15:19:22 GMT 33.939949 -118.403862 0 309 0 0
2022-06-21 15:19:21 GMT 33.939945 -118.403847 0 309 0 0
2022-06-21 15:19:20 GMT 33.939945 -118.403847 0 309 0 0
2022-06-21 15:19:17 GMT 33.939945 -118.403847 0 309 0 0
2022-06-21 15:19:12 GMT 33.939949 -118.403847 0 309 0 0
2022-06-21 15:19:05 GMT 33.939949 -118.403862 0 309 0 0
2022-06-21 15:19:03 GMT 33.939949 -118.403816 0 309 0 0
2022-06-21 15:18:58 GMT 33.939957 -118.403809 0 309 0 0
2022-06-21 15:18:47 GMT 33.939960 -118.403809 0 309 0 0
2022-06-21 15:18:33 GMT 33.939968 -118.403809 0 309 0 0
2022-06-21 15:18:28 GMT 33.939972 -118.403809 0 309 0 0
2022-06-21 15:18:18 GMT 33.939972 -118.403793 0 309 0 0
2022-06-21 15:18:07 GMT 33.939968 -118.403793 0 309 0 0
2022-06-21 15:17:53 GMT 33.939945 -118.403824 0 309 0 0
2022-06-21 15:17:47 GMT 33.939949 -118.403816 0 309 0 0
2022-06-21 15:17:33 GMT 33.939957 -118.403809 0 309 0 0
2022-06-21 15:17:25 GMT 33.939960 -118.403809 0 309 0 0
2022-06-21 15:17:23 GMT 33.939957 -118.403809 0 309 0 0
2022-06-21 15:17:20 GMT 33.939957 -118.403809 0 309 0 0
2022-06-21 15:17:18 GMT 33.939957 -118.403809 0 309 0 0
2022-06-21 15:17:14 GMT 33.939957 -118.403809 0 309 0 0
2022-06-21 15:17:11 GMT 33.939957 -118.403809 0 309 0 0
2022-06-21 15:17:10 GMT 33.939960 -118.403809 0 309 0 0
2022-06-21 15:17:08 GMT 33.939957 -118.403809 0 309 0 0
2022-06-21 15:17:07 GMT 33.939960 -118.403809 0 309 0 0
2022-06-21 15:17:05 GMT 33.939957 -118.403809 0 309 0 0
2022-06-21 15:17:03 GMT 33.939957 -118.403809 0 309 0 0
2022-06-21 15:16:59 GMT 33.939960 -118.403809 0 309 0 0
2022-06-21 15:16:57 GMT 33.939949 -118.403816 0 309 0 0
2022-06-21 15:16:54 GMT 33.939945 -118.403809 0 309 0 0
2022-06-21 15:16:52 GMT 33.939945 -118.403824 0 309 0 0
2022-06-21 15:16:51 GMT 33.939949 -118.403847 0 309 0 0
2022-06-21 15:16:48 GMT 33.939957 -118.403847 0 309 0 0
2022-06-21 15:16:47 GMT 33.939949 -118.403862 0 309 0 0
2022-06-21 15:16:45 GMT 33.939968 -118.403824 0 309 0 0
2022-06-21 15:16:43 GMT 33.939991 -118.403793 0 309 0 0
2022-06-21 15:16:26 GMT 33.939949 -118.403862 0 309 0 0
2022-06-21 15:16:20 GMT 33.939949 -118.403862 0 309 0 0
2022-06-21 15:16:14 GMT 33.939960 -118.403862 0 309 0 0
2022-06-21 15:16:10 GMT 33.939957 -118.403862 0 309 0 0
2022-06-21 15:16:08 GMT 33.939957 -118.403862 0 309 0 0
2022-06-21 15:16:02 GMT 33.939957 -118.403862 0 309 0 0
2022-06-21 15:16:01 GMT 33.939960 -118.403862 0 309 0 0
2022-06-21 15:15:58 GMT 33.939957 -118.403847 0 309 0 0
2022-06-21 15:15:57 GMT 33.939960 -118.403862 0 309 0 0
2022-06-21 15:15:55 GMT 33.939960 -118.403816 0 309 0 0
2022-06-21 15:15:54 GMT 33.939957 -118.403809 0 309 0 0
2022-06-21 15:15:52 GMT 33.939949 -118.403778 0 309 0 0
2022-06-21 15:15:51 GMT 33.939960 -118.403778 0 309 0 0
2022-06-21 15:15:50 GMT 33.939960 -118.403778 0 309 0 0
2022-06-21 15:15:48 GMT 33.939960 -118.403793 0 309 0 0
2022-06-21 15:15:42 GMT 33.939957 -118.403763 0 309 0 0
2022-06-21 15:15:41 GMT 33.939949 -118.403831 0 309 0 0
2022-06-21 15:15:38 GMT 33.939945 -118.403831 0 309 0 0
2022-06-21 15:15:33 GMT 33.939949 -118.403831 0 309 0 0
2022-06-21 15:15:31 GMT 33.939945 -118.403831 0 309 0 0
2022-06-21 15:15:30 GMT 33.939949 -118.403831 0 309 0 0
2022-06-21 15:15:28 GMT 33.939945 -118.403831 0 309 0 0
2022-06-21 15:15:27 GMT 33.939949 -118.403831 0 309 0 0
2022-06-21 15:15:24 GMT 33.939949 -118.403831 0 309 0 0
2022-06-21 15:15:20 GMT 33.939945 -118.403831 0 309 0 0
2022-06-21 15:15:17 GMT 33.939945 -118.403831 0 309 0 0
2022-06-21 15:15:15 GMT 33.939949 -118.403831 0 309 0 0
2022-06-21 15:15:13 GMT 33.939968 -118.403793 0 309 0 0
2022-06-21 15:15:11 GMT 33.939972 -118.403793 0 309 0 0
2022-06-21 15:15:06 GMT 33.939968 -118.403793 0 309 0 0
2022-06-21 15:15:04 GMT 33.939968 -118.403793 0 309 0 0
2022-06-21 15:15:02 GMT 33.939968 -118.403793 0 309 0 0
2022-06-21 15:14:54 GMT 33.939972 -118.403793 0 309 0 0
2022-06-21 15:14:52 GMT 33.939972 -118.403793 0 309 0 0
2022-06-21 15:14:50 GMT 33.939968 -118.403809 0 309 0 0
2022-06-21 15:14:45 GMT 33.939972 -118.403809 0 309 0 0
2022-06-21 15:14:40 GMT 33.939968 -118.403809 0 309 0 0
2022-06-21 15:14:31 GMT 33.939960 -118.403809 0 309 0 0
2022-06-21 15:14:25 GMT 33.939945 -118.403824 0 309 0 0
2022-06-21 15:14:15 GMT 33.939949 -118.403831 0 309 0 0
2022-06-21 15:14:10 GMT 33.939945 -118.403824 0 309 0 0
2022-06-21 15:14:05 GMT 33.939945 -118.403824 0 309 0 0
2022-06-21 15:13:55 GMT 33.939945 -118.403824 0 309 0 0
2022-06-21 15:13:50 GMT 33.939949 -118.403816 0 309 0 0
2022-06-21 15:13:25 GMT 33.939945 -118.403824 0 309 0 0
2022-06-21 15:13:10 GMT 33.939949 -118.403816 0 309 0 0
2022-06-21 15:13:05 GMT 33.939945 -118.403824 0 309 0 0
2022-06-21 15:13:00 GMT 33.939945 -118.403809 0 309 0 0
2022-06-21 15:12:54 GMT 33.939949 -118.403809 0 309 0 0
2022-06-21 15:12:35 GMT 33.939945 -118.403809 0 309 0 0
2022-06-21 15:12:30 GMT 33.939949 -118.403816 0 309 0 0
2022-06-21 15:12:25 GMT 33.939945 -118.403824 0 309 0 0
2022-06-21 15:12:20 GMT 33.939949 -118.403816 0 309 0 0
2022-06-21 15:12:10 GMT 33.939949 -118.403816 0 309 0 0
2022-06-21 15:12:05 GMT 33.939949 -118.403816 0 309 0 0
2022-06-21 15:12:00 GMT 33.939945 -118.403809 0 309 0 0
2022-06-21 15:11:56 GMT 33.939949 -118.403809 0 309 0 0
2022-06-21 15:11:51 GMT 33.939945 -118.403809 0 309 0 0
2022-06-21 15:11:46 GMT 33.939949 -118.403809 0 309 0 0
2022-06-21 15:11:36 GMT 33.939945 -118.403809 0 309 0 0
2022-06-21 15:11:26 GMT 33.939949 -118.403809 0 309 0 0
2022-06-21 15:11:21 GMT 33.939945 -118.403809 0 309 0 0
2022-06-21 15:11:15 GMT 33.939949 -118.403809 0 309 0 0
2022-06-21 15:11:11 GMT 33.939945 -118.403809 0 309 0 0
2022-06-21 15:10:55 GMT 33.939949 -118.403816 0 309 0 0
2022-06-21 15:10:45 GMT 33.939949 -118.403816 0 309 0 0
2022-06-21 15:10:35 GMT 33.939945 -118.403809 0 309 0 0
2022-06-21 15:10:31 GMT 33.939938 -118.403816 0 309 0 0
2022-06-21 15:10:20 GMT 33.939938 -118.403816 0 309 0 0
2022-06-21 15:10:15 GMT 33.939938 -118.403816 0 309 0 0
2022-06-21 15:09:40 GMT 33.939938 -118.403831 0 309 0 0
2022-06-21 15:09:21 GMT 33.939938 -118.403831 0 309 0 0
2022-06-21 15:09:11 GMT 33.939945 -118.403831 0 309 0 0
2022-06-21 15:09:06 GMT 33.939945 -118.403824 0 309 0 0
2022-06-21 15:09:00 GMT 33.939945 -118.403831 0 309 0 0
2022-06-21 15:08:56 GMT 33.939945 -118.403809 0 309 0 0
2022-06-21 15:08:50 GMT 33.939938 -118.403831 0 309 0 0
2022-06-21 15:08:45 GMT 33.939938 -118.403831 0 309 0 0
2022-06-21 15:08:35 GMT 33.939945 -118.403831 0 309 0 0
2022-06-21 15:08:30 GMT 33.939945 -118.403831 0 309 0 0
2022-06-21 15:08:21 GMT 33.939938 -118.403831 0 309 0 0
2022-06-21 15:07:50 GMT 33.939938 -118.403831 0 309 0 0
2022-06-21 15:07:41 GMT 33.939938 -118.403831 0 309 0 0
2022-06-21 15:07:15 GMT 33.939945 -118.403831 0 309 0 0
2022-06-21 15:07:05 GMT 33.939949 -118.403831 0 309 0 0
2022-06-21 15:06:45 GMT 33.939949 -118.403809 0 309 0 0
2022-06-21 15:06:35 GMT 33.939945 -118.403809 0 309 0 0
2022-06-21 15:06:30 GMT 33.939949 -118.403831 0 309 0 0
2022-06-21 15:06:25 GMT 33.939957 -118.403831 0 307 0 0
2022-06-21 15:06:15 GMT 33.939957 -118.403831 0 307 0 0
2022-06-21 15:06:05 GMT 33.939945 -118.403831 0 307 0 0
2022-06-21 15:05:50 GMT 33.939949 -118.403831 0 307 0 0
2022-06-21 15:05:35 GMT 33.939945 -118.403831 0 307 0 0
2022-06-21 15:05:30 GMT 33.939949 -118.403831 0 307 0 0
2022-06-21 15:05:25 GMT 33.939945 -118.403831 0 307 0 0
2022-06-21 15:05:19 GMT 33.939949 -118.403831 0 307 0 0
2022-06-21 15:05:15 GMT 33.939945 -118.403831 0 307 0 0
2022-06-21 15:05:10 GMT 33.939949 -118.403831 0 307 0 0
2022-06-21 15:05:05 GMT 33.939945 -118.403809 0 307 0 0
2022-06-21 15:04:49 GMT 33.939945 -118.403809 0 307 0 0

Making use of Plane Finder data

You are free to use the raw flight data, aircraft information and images provided in this report for your own purposes provided the data is correctly attributed to Plane Finder. We ask that you please credit Plane Finder and link to planefinder.net in close proximity to the content.

Optionally one of the following logos (no smaller then 150x24px) can be used and must link to planefinder.net

Embedding the Plane Finder map

You are welcome to embed the Plane Finder playback map on your website to offer visitors a more interactive experience. We suggest using the following HTML code:

<iframe src="//planefinder.net/data/report/B61874-N980JT-7700-squawk-2022-06-21/map" width="800" height="600" seamless="seamless"></iframe>

Where our data comes from

Plane Finder has a global network of data feeds and antenna radars that receive data broadcast directly from aircraft. The primary technologies used are ADS-B and MLAT. We also show feeds from the FAA and a FLARM glider feed.

Click here to find out more about the Plane Finder network.

How we collect our data